<?xml version="1.0" encoding="UTF-8" standalone="no" ?>
<gpx xmlns="http://www.topografix.com/GPX/1/1" xmlns:xsi="http://www.w3.org/2001/XMLSchema-instance" xsi:schemaLocation="http://www.topografix.com/GPX/1/1 http://www.topografix.com/GPX/1/1/gpx.xsd" version="1.1" creator="VisuGPX - https://www.visugpx.com">
  <metadata>
    <name>brèche de Charance  col de gleize</name>
    <desc><![CDATA[Charance jean-michel,Maurice,Christian
Très beau parcours]]></desc>
  </metadata>
  <trk>
    <name><![CDATA[Parcours du 2022-10-13 13:30]]></name>
    <desc><![CDATA[]]></desc>
    <trkseg>
      <trkpt lat="44.58397" lon="6.05649">
        <ele>1204.9</ele>
        <time>2022-10-13T11:30:55.000Z</time>
      </trkpt>
      <trkpt lat="44.58398" lon="6.0564">
        <ele>1193.7</ele>
        <time>2022-10-13T11:31:00.000Z</time>
      </trkpt>
      <trkpt lat="44.58394" lon="6.05631">
        <ele>1192.8</ele>
        <time>2022-10-13T11:31:02.606Z</time>
      </trkpt>
      <trkpt lat="44.58388" lon="6.05626">
        <ele>1193.4</ele>
        <time>2022-10-13T11:31:05.000Z</time>
      </trkpt>
      <trkpt lat="44.58382" lon="6.05618">
        <ele>1193.5</ele>
        <time>2022-10-13T11:31:06.626Z</time>
      </trkpt>
      <trkpt lat="44.58376" lon="6.05609">
        <ele>1193.3</ele>
        <time>2022-10-13T11:31:09.069Z</time>
      </trkpt>
      <trkpt lat="44.58373" lon="6.05604">
        <ele>1193</ele>
        <time>2022-10-13T11:31:11.000Z</time>
      </trkpt>
      <trkpt lat="44.58368" lon="6.05595">
        <ele>1192.7</ele>
        <time>2022-10-13T11:31:12.265Z</time>
      </trkpt>
      <trkpt lat="44.58361" lon="6.05586">
        <ele>1192.7</ele>
        <time>2022-10-13T11:31:14.123Z</time>
      </trkpt>
      <trkpt lat="44.58354" lon="6.05578">
        <ele>1192.7</ele>
        <time>2022-10-13T11:31:16.000Z</time>
      </trkpt>
      <trkpt lat="44.5835" lon="6.05572">
        <ele>1192.7</ele>
        <time>2022-10-13T11:31:17.000Z</time>
      </trkpt>
      <trkpt lat="44.58348" lon="6.05566">
        <ele>1187.4</ele>
        <time>2022-10-13T11:31:18.000Z</time>
      </trkpt>
      <trkpt lat="44.58345" lon="6.05559">
        <ele>1187.4</ele>
        <time>2022-10-13T11:31:19.000Z</time>
      </trkpt>
      <trkpt lat="44.58343" lon="6.05553">
        <ele>1186.9</ele>
        <time>2022-10-13T11:31:20.000Z</time>
      </trkpt>
      <trkpt lat="44.58341" lon="6.05541">
        <ele>1183.6</ele>
        <time>2022-10-13T11:31:22.000Z</time>
      </trkpt>
      <trkpt lat="44.58338" lon="6.05534">
        <ele>1184.4</ele>
        <time>2022-10-13T11:31:23.000Z</time>
      </trkpt>
      <trkpt lat="44.58335" lon="6.05527">
        <ele>1182.6</ele>
        <time>2022-10-13T11:31:24.000Z</time>
      </trkpt>
      <trkpt lat="44.58332" lon="6.0552">
        <ele>1182.5</ele>
        <time>2022-10-13T11:31:25.000Z</time>
      </trkpt>
      <trkpt lat="44.5833" lon="6.05514">
        <ele>1186.5</ele>
        <time>2022-10-13T11:31:26.000Z</time>
      </trkpt>
      <trkpt lat="44.58327" lon="6.05509">
        <ele>1186.3</ele>
        <time>2022-10-13T11:31:27.000Z</time>
      </trkpt>
      <trkpt lat="44.58324" lon="6.05503">
        <ele>1184.9</ele>
        <time>2022-10-13T11:31:28.000Z</time>
      </trkpt>
      <trkpt lat="44.58322" lon="6.05496">
        <ele>1184</ele>
        <time>2022-10-13T11:31:29.000Z</time>
      </trkpt>
      <trkpt lat="44.5832" lon="6.05489">
        <ele>1182.3</ele>
        <time>2022-10-13T11:31:30.000Z</time>
      </trkpt>
      <trkpt lat="44.58317" lon="6.05482">
        <ele>1182.3</ele>
        <time>2022-10-13T11:31:31.000Z</time>
      </trkpt>
      <trkpt lat="44.58313" lon="6.05475">
        <ele>1182.5</ele>
        <time>2022-10-13T11:31:32.000Z</time>
      </trkpt>
      <trkpt lat="44.5831" lon="6.05467">
        <ele>1181.8</ele>
        <time>2022-10-13T11:31:33.000Z</time>
      </trkpt>
      <trkpt lat="44.58308" lon="6.05458">
        <ele>1180.5</ele>
        <time>2022-10-13T11:31:35.000Z</time>
      </trkpt>
      <trkpt lat="44.58304" lon="6.05448">
        <ele>1180.6</ele>
        <time>2022-10-13T11:31:37.000Z</time>
      </trkpt>
      <trkpt lat="44.58299" lon="6.05438">
        <ele>1179.8</ele>
        <time>2022-10-13T11:31:38.000Z</time>
      </trkpt>
      <trkpt lat="44.58295" lon="6.05431">
        <ele>1179.9</ele>
        <time>2022-10-13T11:31:39.000Z</time>
      </trkpt>
      <trkpt lat="44.58293" lon="6.05423">
        <ele>1181</ele>
        <time>2022-10-13T11:31:40.000Z</time>
      </trkpt>
      <trkpt lat="44.5829" lon="6.05417">
        <ele>1192.1</ele>
        <time>2022-10-13T11:31:41.000Z</time>
      </trkpt>
      <trkpt lat="44.58286" lon="6.05412">
        <ele>1192.4</ele>
        <time>2022-10-13T11:31:42.000Z</time>
      </trkpt>
      <trkpt lat="44.58279" lon="6.05402">
        <ele>1192.4</ele>
        <time>2022-10-13T11:31:44.000Z</time>
      </trkpt>
      <trkpt lat="44.58275" lon="6.05398">
        <ele>1192</ele>
        <time>2022-10-13T11:31:45.000Z</time>
      </trkpt>
      <trkpt lat="44.58269" lon="6.05392">
        <ele>1191.5</ele>
        <time>2022-10-13T11:31:46.000Z</time>
      </trkpt>
      <trkpt lat="44.58265" lon="6.05384">
        <ele>1192.6</ele>
        <time>2022-10-13T11:31:47.000Z</time>
      </trkpt>
      <trkpt lat="44.58261" lon="6.05379">
        <ele>1192.6</ele>
        <time>2022-10-13T11:31:48.000Z</time>
      </trkpt>
      <trkpt lat="44.58257" lon="6.05375">
        <ele>1192</ele>
        <time>2022-10-13T11:31:49.000Z</time>
      </trkpt>
      <trkpt lat="44.58255" lon="6.0537">
        <ele>1176</ele>
        <time>2022-10-13T11:31:51.000Z</time>
      </trkpt>
      <trkpt lat="44.58251" lon="6.05366">
        <ele>1176.4</ele>
        <time>2022-10-13T11:31:53.000Z</time>
      </trkpt>
      <trkpt lat="44.58247" lon="6.05359">
        <ele>1190.4</ele>
        <time>2022-10-13T11:31:55.000Z</time>
      </trkpt>
      <trkpt lat="44.58243" lon="6.05355">
        <ele>1190.2</ele>
        <time>2022-10-13T11:31:56.000Z</time>
      </trkpt>
      <trkpt lat="44.5824" lon="6.05349">
        <ele>1190.2</ele>
        <time>2022-10-13T11:31:57.000Z</time>
      </trkpt>
      <trkpt lat="44.58236" lon="6.05342">
        <ele>1189.9</ele>
        <time>2022-10-13T11:31:58.000Z</time>
      </trkpt>
      <trkpt lat="44.58233" lon="6.05336">
        <ele>1189.6</ele>
        <time>2022-10-13T11:31:59.000Z</time>
      </trkpt>
      <trkpt lat="44.58229" lon="6.0533">
        <ele>1180.7</ele>
        <time>2022-10-13T11:32:00.000Z</time>
      </trkpt>
      <trkpt lat="44.58225" lon="6.05325">
        <ele>1181.3</ele>
        <time>2022-10-13T11:32:01.000Z</time>
      </trkpt>
      <trkpt lat="44.58223" lon="6.05319">
        <ele>1181.3</ele>
        <time>2022-10-13T11:32:02.000Z</time>
      </trkpt>
      <trkpt lat="44.5822" lon="6.05312">
        <ele>1181.8</ele>
        <time>2022-10-13T11:32:03.313Z</time>
      </trkpt>
      <trkpt lat="44.58214" lon="6.05303">
        <ele>1180.7</ele>
        <time>2022-10-13T11:32:05.000Z</time>
      </trkpt>
      <trkpt lat="44.58211" lon="6.05296">
        <ele>1181.2</ele>
        <time>2022-10-13T11:32:06.000Z</time>
      </trkpt>
      <trkpt lat="44.58206" lon="6.0529">
        <ele>1181.2</ele>
        <time>2022-10-13T11:32:07.000Z</time>
      </trkpt>
      <trkpt lat="44.58202" lon="6.05284">
        <ele>1180.1</ele>
        <time>2022-10-13T11:32:08.000Z</time>
      </trkpt>
      <trkpt lat="44.58197" lon="6.05278">
        <ele>1180.6</ele>
        <time>2022-10-13T11:32:09.000Z</time>
      </trkpt>
      <trkpt lat="44.58191" lon="6.05273">
        <ele>1183.5</ele>
        <time>2022-10-13T11:32:10.000Z</time>
      </trkpt>
      <trkpt lat="44.58187" lon="6.05267">
        <ele>1183.6</ele>
        <time>2022-10-13T11:32:11.000Z</time>
      </trkpt>
      <trkpt lat="44.58185" lon="6.05261">
        <ele>1182.1</ele>
        <time>2022-10-13T11:32:12.000Z</time>
      </trkpt>
      <trkpt lat="44.58174" lon="6.05241">
        <ele>1183.7</ele>
        <time>2022-10-13T11:32:15.000Z</time>
      </trkpt>
      <trkpt lat="44.5817" lon="6.05233">
        <ele>1183.1</ele>
        <time>2022-10-13T11:32:16.000Z</time>
      </trkpt>
      <trkpt lat="44.58167" lon="6.05228">
        <ele>1184.1</ele>
        <time>2022-10-13T11:32:17.000Z</time>
      </trkpt>
      <trkpt lat="44.58162" lon="6.05221">
        <ele>1184.2</ele>
        <time>2022-10-13T11:32:18.344Z</time>
      </trkpt>
      <trkpt lat="44.58154" lon="6.05213">
        <ele>1183.3</ele>
        <time>2022-10-13T11:32:21.000Z</time>
      </trkpt>
      <trkpt lat="44.58149" lon="6.05208">
        <ele>1183.1</ele>
        <time>2022-10-13T11:32:22.000Z</time>
      </trkpt>
      <trkpt lat="44.58145" lon="6.05201">
        <ele>1182.4</ele>
        <time>2022-10-13T11:32:23.000Z</time>
      </trkpt>
      <trkpt lat="44.58141" lon="6.05196">
        <ele>1183</ele>
        <time>2022-10-13T11:32:24.000Z</time>
      </trkpt>
      <trkpt lat="44.58138" lon="6.0519">
        <ele>1183</ele>
        <time>2022-10-13T11:32:25.000Z</time>
      </trkpt>
      <trkpt lat="44.58135" lon="6.05184">
        <ele>1183.6</ele>
        <time>2022-10-13T11:32:26.000Z</time>
      </trkpt>
      <trkpt lat="44.58131" lon="6.0518">
        <ele>1183.2</ele>
        <time>2022-10-13T11:32:27.000Z</time>
      </trkpt>
      <trkpt lat="44.58127" lon="6.05175">
        <ele>1185.1</ele>
        <time>2022-10-13T11:32:28.000Z</time>
      </trkpt>
      <trkpt lat="44.58123" lon="6.0517">
        <ele>1184</ele>
        <time>2022-10-13T11:32:29.000Z</time>
      </trkpt>
      <trkpt lat="44.58119" lon="6.05164">
        <ele>1184.5</ele>
        <time>2022-10-13T11:32:30.000Z</time>
      </trkpt>
      <trkpt lat="44.58115" lon="6.05158">
        <ele>1182.9</ele>
        <time>2022-10-13T11:32:31.000Z</time>
      </trkpt>
      <trkpt lat="44.58111" lon="6.05151">
        <ele>1180.8</ele>
        <time>2022-10-13T11:32:32.000Z</time>
      </trkpt>
      <trkpt lat="44.58107" lon="6.05146">
        <ele>1180.9</ele>
        <time>2022-10-13T11:32:33.000Z</time>
      </trkpt>
      <trkpt lat="44.58102" lon="6.05142">
        <ele>1181.2</ele>
        <time>2022-10-13T11:32:34.000Z</time>
      </trkpt>
      <trkpt lat="44.58098" lon="6.05136">
        <ele>1179.7</ele>
        <time>2022-10-13T11:32:35.000Z</time>
      </trkpt>
      <trkpt lat="44.58094" lon="6.05129">
        <ele>1179.9</ele>
        <time>2022-10-13T11:32:36.000Z</time>
      </trkpt>
      <trkpt lat="44.5809" lon="6.05124">
        <ele>1179.8</ele>
        <time>2022-10-13T11:32:37.000Z</time>
      </trkpt>
      <trkpt lat="44.58085" lon="6.05121">
        <ele>1179.1</ele>
        <time>2022-10-13T11:32:38.000Z</time>
      </trkpt>
      <trkpt lat="44.5808" lon="6.05118">
        <ele>1179.2</ele>
        <time>2022-10-13T11:32:39.000Z</time>
      </trkpt>
      <trkpt lat="44.58074" lon="6.05112">
        <ele>1178.1</ele>
        <time>2022-10-13T11:32:41.000Z</time>
      </trkpt>
      <trkpt lat="44.58071" lon="6.05108">
        <ele>1178</ele>
        <time>2022-10-13T11:32:42.000Z</time>
      </trkpt>
      <trkpt lat="44.58066" lon="6.05103">
        <ele>1178.1</ele>
        <time>2022-10-13T11:32:43.000Z</time>
      </trkpt>
      <trkpt lat="44.58061" lon="6.05097">
        <ele>1179</ele>
        <time>2022-10-13T11:32:44.000Z</time>
      </trkpt>
      <trkpt lat="44.58058" lon="6.05091">
        <ele>1178.6</ele>
        <time>2022-10-13T11:32:45.000Z</time>
      </trkpt>
      <trkpt lat="44.58055" lon="6.05085">
        <ele>1180.6</ele>
        <time>2022-10-13T11:32:46.000Z</time>
      </trkpt>
      <trkpt lat="44.58051" lon="6.05079">
        <ele>1180.3</ele>
        <time>2022-10-13T11:32:47.000Z</time>
      </trkpt>
      <trkpt lat="44.58047" lon="6.05071">
        <ele>1180.5</ele>
        <time>2022-10-13T11:32:48.000Z</time>
      </trkpt>
      <trkpt lat="44.58043" lon="6.05064">
        <ele>1180.5</ele>
        <time>2022-10-13T11:32:49.000Z</time>
      </trkpt>
      <trkpt lat="44.58039" lon="6.05057">
        <ele>1180.3</ele>
        <time>2022-10-13T11:32:50.000Z</time>
      </trkpt>
      <trkpt lat="44.58034" lon="6.05053">
        <ele>1180.3</ele>
        <time>2022-10-13T11:32:51.000Z</time>
      </trkpt>
      <trkpt lat="44.58029" lon="6.0505">
        <ele>1180.5</ele>
        <time>2022-10-13T11:32:52.000Z</time>
      </trkpt>
      <trkpt lat="44.58025" lon="6.05046">
        <ele>1180.3</ele>
        <time>2022-10-13T11:32:53.000Z</time>
      </trkpt>
      <trkpt lat="44.5802" lon="6.05042">
        <ele>1180</ele>
        <time>2022-10-13T11:32:54.000Z</time>
      </trkpt>
      <trkpt lat="44.58015" lon="6.05039">
        <ele>1179.9</ele>
        <time>2022-10-13T11:32:55.000Z</time>
      </trkpt>
      <trkpt lat="44.58013" lon="6.05032">
        <ele>1179.7</ele>
        <time>2022-10-13T11:32:56.000Z</time>
      </trkpt>
      <trkpt lat="44.58012" lon="6.05024">
        <ele>1178.9</ele>
        <time>2022-10-13T11:32:57.000Z</time>
      </trkpt>
      <trkpt lat="44.5801" lon="6.05017">
        <ele>1178.7</ele>
        <time>2022-10-13T11:32:58.000Z</time>
      </trkpt>
      <trkpt lat="44.58007" lon="6.05011">
        <ele>1178.1</ele>
        <time>2022-10-13T11:32:59.000Z</time>
      </trkpt>
      <trkpt lat="44.58002" lon="6.05006">
        <ele>1177.7</ele>
        <time>2022-10-13T11:33:00.000Z</time>
      </trkpt>
      <trkpt lat="44.57998" lon="6.05">
        <ele>1179.2</ele>
        <time>2022-10-13T11:33:01.000Z</time>
      </trkpt>
      <trkpt lat="44.57996" lon="6.04993">
        <ele>1180</ele>
        <time>2022-10-13T11:33:02.000Z</time>
      </trkpt>
      <trkpt lat="44.57992" lon="6.04986">
        <ele>1179.8</ele>
        <time>2022-10-13T11:33:03.000Z</time>
      </trkpt>
      <trkpt lat="44.57988" lon="6.0498">
        <ele>1180.1</ele>
        <time>2022-10-13T11:33:04.000Z</time>
      </trkpt>
      <trkpt lat="44.57984" lon="6.04975">
        <ele>1179.9</ele>
        <time>2022-10-13T11:33:05.000Z</time>
      </trkpt>
      <trkpt lat="44.5798" lon="6.0497">
        <ele>1180</ele>
        <time>2022-10-13T11:33:06.000Z</time>
      </trkpt>
      <trkpt lat="44.57975" lon="6.04965">
        <ele>1180.6</ele>
        <time>2022-10-13T11:33:07.000Z</time>
      </trkpt>
      <trkpt lat="44.5797" lon="6.0496">
        <ele>1181</ele>
        <time>2022-10-13T11:33:08.000Z</time>
      </trkpt>
      <trkpt lat="44.57965" lon="6.04955">
        <ele>1182.1</ele>
        <time>2022-10-13T11:33:09.000Z</time>
      </trkpt>
      <trkpt lat="44.57959" lon="6.04952">
        <ele>1183</ele>
        <time>2022-10-13T11:33:10.000Z</time>
      </trkpt>
      <trkpt lat="44.57954" lon="6.04948">
        <ele>1184</ele>
        <time>2022-10-13T11:33:11.000Z</time>
      </trkpt>
      <trkpt lat="44.5795" lon="6.04943">
        <ele>1183.8</ele>
        <time>2022-10-13T11:33:12.000Z</time>
      </trkpt>
      <trkpt lat="44.57947" lon="6.04937">
        <ele>1182.8</ele>
        <time>2022-10-13T11:33:13.000Z</time>
      </trkpt>
      <trkpt lat="44.57945" lon="6.04931">
        <ele>1182.7</ele>
        <time>2022-10-13T11:33:14.000Z</time>
      </trkpt>
      <trkpt lat="44.57943" lon="6.04923">
        <ele>1182.6</ele>
        <time>2022-10-13T11:33:15.000Z</time>
      </trkpt>
      <trkpt lat="44.57941" lon="6.04917">
        <ele>1181.8</ele>
        <time>2022-10-13T11:33:16.000Z</time>
      </trkpt>
      <trkpt lat="44.57937" lon="6.04906">
        <ele>1181.4</ele>
        <time>2022-10-13T11:33:18.000Z</time>
      </trkpt>
      <trkpt lat="44.57934" lon="6.04897">
        <ele>1181.2</ele>
        <time>2022-10-13T11:33:19.000Z</time>
      </trkpt>
      <trkpt lat="44.57932" lon="6.04889">
        <ele>1181.5</ele>
        <time>2022-10-13T11:33:20.000Z</time>
      </trkpt>
      <trkpt lat="44.5793" lon="6.04883">
        <ele>1180.8</ele>
        <time>2022-10-13T11:33:21.000Z</time>
      </trkpt>
      <trkpt lat="44.57927" lon="6.04875">
        <ele>1181.6</ele>
        <time>2022-10-13T11:33:22.000Z</time>
      </trkpt>
      <trkpt lat="44.57924" lon="6.04867">
        <ele>1179.6</ele>
        <time>2022-10-13T11:33:23.000Z</time>
      </trkpt>
      <trkpt lat="44.57922" lon="6.0486">
        <ele>1179.6</ele>
        <time>2022-10-13T11:33:24.000Z</time>
      </trkpt>
      <trkpt lat="44.57921" lon="6.04853">
        <ele>1179.6</ele>
        <time>2022-10-13T11:33:25.000Z</time>
      </trkpt>
      <trkpt lat="44.57918" lon="6.04845">
        <ele>1179.7</ele>
        <time>2022-10-13T11:33:26.000Z</time>
      </trkpt>
      <trkpt lat="44.57915" lon="6.04838">
        <ele>1179.9</ele>
        <time>2022-10-13T11:33:27.000Z</time>
      </trkpt>
      <trkpt lat="44.57911" lon="6.04831">
        <ele>1179.6</ele>
        <time>2022-10-13T11:33:28.000Z</time>
      </trkpt>
      <trkpt lat="44.57906" lon="6.04825">
        <ele>1181.4</ele>
        <time>2022-10-13T11:33:29.000Z</time>
      </trkpt>
      <trkpt lat="44.57901" lon="6.04821">
        <ele>1180.5</ele>
        <time>2022-10-13T11:33:30.000Z</time>
      </trkpt>
      <trkpt lat="44.57896" lon="6.04817">
        <ele>1180.6</ele>
        <time>2022-10-13T11:33:31.000Z</time>
      </trkpt>
      <trkpt lat="44.57891" lon="6.04812">
        <ele>1180.1</ele>
        <time>2022-10-13T11:33:32.000Z</time>
      </trkpt>
      <trkpt lat="44.57885" lon="6.04807">
        <ele>1179.9</ele>
        <time>2022-10-13T11:33:33.000Z</time>
      </trkpt>
      <trkpt lat="44.5788" lon="6.04801">
        <ele>1179.8</ele>
        <time>2022-10-13T11:33:34.000Z</time>
      </trkpt>
      <trkpt lat="44.57874" lon="6.04796">
        <ele>1180.8</ele>
        <time>2022-10-13T11:33:35.000Z</time>
      </trkpt>
      <trkpt lat="44.57868" lon="6.0479">
        <ele>1180.2</ele>
        <time>2022-10-13T11:33:36.000Z</time>
      </trkpt>
      <trkpt lat="44.57864" lon="6.04785">
        <ele>1180.2</ele>
        <time>2022-10-13T11:33:37.000Z</time>
      </trkpt>
      <trkpt lat="44.57858" lon="6.04776">
        <ele>1179.3</ele>
        <time>2022-10-13T11:33:39.000Z</time>
      </trkpt>
      <trkpt lat="44.57854" lon="6.0477">
        <ele>1179.1</ele>
        <time>2022-10-13T11:33:40.000Z</time>
      </trkpt>
      <trkpt lat="44.57851" lon="6.04763">
        <ele>1178.7</ele>
        <time>2022-10-13T11:33:41.000Z</time>
      </trkpt>
      <trkpt lat="44.57847" lon="6.04758">
        <ele>1179.5</ele>
        <time>2022-10-13T11:33:42.000Z</time>
      </trkpt>
      <trkpt lat="44.57843" lon="6.04753">
        <ele>1179.7</ele>
        <time>2022-10-13T11:33:43.000Z</time>
      </trkpt>
      <trkpt lat="44.57837" lon="6.0475">
        <ele>1181.1</ele>
        <time>2022-10-13T11:33:44.000Z</time>
      </trkpt>
      <trkpt lat="44.57831" lon="6.0475">
        <ele>1179.6</ele>
        <time>2022-10-13T11:33:45.000Z</time>
      </trkpt>
      <trkpt lat="44.57826" lon="6.04751">
        <ele>1180.3</ele>
        <time>2022-10-13T11:33:46.000Z</time>
      </trkpt>
      <trkpt lat="44.57818" lon="6.04749">
        <ele>1179.1</ele>
        <time>2022-10-13T11:33:48.000Z</time>
      </trkpt>
      <trkpt lat="44.57809" lon="6.04742">
        <ele>1179.4</ele>
        <time>2022-10-13T11:33:50.000Z</time>
      </trkpt>
      <trkpt lat="44.57805" lon="6.04735">
        <ele>1179</ele>
        <time>2022-10-13T11:33:51.000Z</time>
      </trkpt>
      <trkpt lat="44.57802" lon="6.04728">
        <ele>1179.8</ele>
        <time>2022-10-13T11:33:52.000Z</time>
      </trkpt>
      <trkpt lat="44.57798" lon="6.04722">
        <ele>1179.7</ele>
        <time>2022-10-13T11:33:53.000Z</time>
      </trkpt>
      <trkpt lat="44.57796" lon="6.04715">
        <ele>1179.6</ele>
        <time>2022-10-13T11:33:54.000Z</time>
      </trkpt>
      <trkpt lat="44.57791" lon="6.04709">
        <ele>1180.2</ele>
        <time>2022-10-13T11:33:56.000Z</time>
      </trkpt>
      <trkpt lat="44.57786" lon="6.04706">
        <ele>1179.2</ele>
        <time>2022-10-13T11:33:57.000Z</time>
      </trkpt>
      <trkpt lat="44.57781" lon="6.04702">
        <ele>1180.5</ele>
        <time>2022-10-13T11:33:58.000Z</time>
      </trkpt>
      <trkpt lat="44.57775" lon="6.047">
        <ele>1179.5</ele>
        <time>2022-10-13T11:33:59.000Z</time>
      </trkpt>
      <trkpt lat="44.57768" lon="6.04698">
        <ele>1179.7</ele>
        <time>2022-10-13T11:34:00.000Z</time>
      </trkpt>
      <trkpt lat="44.57761" lon="6.04697">
        <ele>1178</ele>
        <time>2022-10-13T11:34:01.000Z</time>
      </trkpt>
      <trkpt lat="44.57754" lon="6.04695">
        <ele>1179.2</ele>
        <time>2022-10-13T11:34:02.000Z</time>
      </trkpt>
      <trkpt lat="44.57748" lon="6.04692">
        <ele>1178.4</ele>
        <time>2022-10-13T11:34:03.000Z</time>
      </trkpt>
      <trkpt lat="44.57743" lon="6.04689">
        <ele>1178.4</ele>
        <time>2022-10-13T11:34:04.000Z</time>
      </trkpt>
      <trkpt lat="44.57738" lon="6.04686">
        <ele>1179.1</ele>
        <time>2022-10-13T11:34:05.000Z</time>
      </trkpt>
      <trkpt lat="44.57733" lon="6.04682">
        <ele>1178.3</ele>
        <time>2022-10-13T11:34:06.000Z</time>
      </trkpt>
      <trkpt lat="44.57728" lon="6.04679">
        <ele>1178.5</ele>
        <time>2022-10-13T11:34:07.000Z</time>
      </trkpt>
      <trkpt lat="44.57722" lon="6.04676">
        <ele>1178.5</ele>
        <time>2022-10-13T11:34:08.000Z</time>
      </trkpt>
      <trkpt lat="44.57716" lon="6.04674">
        <ele>1178.7</ele>
        <time>2022-10-13T11:34:09.000Z</time>
      </trkpt>
      <trkpt lat="44.57711" lon="6.0467">
        <ele>1178.3</ele>
        <time>2022-10-13T11:34:10.000Z</time>
      </trkpt>
      <trkpt lat="44.57705" lon="6.04665">
        <ele>1183.4</ele>
        <time>2022-10-13T11:34:11.000Z</time>
      </trkpt>
      <trkpt lat="44.57702" lon="6.0466">
        <ele>1181</ele>
        <time>2022-10-13T11:34:12.000Z</time>
      </trkpt>
      <trkpt lat="44.577" lon="6.04653">
        <ele>1179.4</ele>
        <time>2022-10-13T11:34:13.000Z</time>
      </trkpt>
      <trkpt lat="44.577" lon="6.04644">
        <ele>1178.5</ele>
        <time>2022-10-13T11:34:14.000Z</time>
      </trkpt>
      <trkpt lat="44.57699" lon="6.04637">
        <ele>1178.7</ele>
        <time>2022-10-13T11:34:15.000Z</time>
      </trkpt>
      <trkpt lat="44.57697" lon="6.04628">
        <ele>1177.8</ele>
        <time>2022-10-13T11:34:16.000Z</time>
      </trkpt>
      <trkpt lat="44.57695" lon="6.0462">
        <ele>1179.2</ele>
        <time>2022-10-13T11:34:17.000Z</time>
      </trkpt>
      <trkpt lat="44.57692" lon="6.04613">
        <ele>1177.8</ele>
        <time>2022-10-13T11:34:18.000Z</time>
      </trkpt>
      <trkpt lat="44.5769" lon="6.04605">
        <ele>1177.9</ele>
        <time>2022-10-13T11:34:19.000Z</time>
      </trkpt>
      <trkpt lat="44.57687" lon="6.04596">
        <ele>1178.6</ele>
        <time>2022-10-13T11:34:20.000Z</time>
      </trkpt>
      <trkpt lat="44.57684" lon="6.04587">
        <ele>1178.1</ele>
        <time>2022-10-13T11:34:21.000Z</time>
      </trkpt>
      <trkpt lat="44.57679" lon="6.04581">
        <ele>1177.2</ele>
        <time>2022-10-13T11:34:22.000Z</time>
      </trkpt>
      <trkpt lat="44.57674" lon="6.04578">
        <ele>1177.4</ele>
        <time>2022-10-13T11:34:23.000Z</time>
      </trkpt>
      <trkpt lat="44.57669" lon="6.04575">
        <ele>1175</ele>
        <time>2022-10-13T11:34:24.000Z</time>
      </trkpt>
      <trkpt lat="44.57663" lon="6.04572">
        <ele>1174.9</ele>
        <time>2022-10-13T11:34:25.000Z</time>
      </trkpt>
      <trkpt lat="44.57658" lon="6.04571">
        <ele>1175</ele>
        <time>2022-10-13T11:34:26.000Z</time>
      </trkpt>
      <trkpt lat="44.57652" lon="6.04569">
        <ele>1176.1</ele>
        <time>2022-10-13T11:34:27.000Z</time>
      </trkpt>
      <trkpt lat="44.57646" lon="6.04567">
        <ele>1177.2</ele>
        <time>2022-10-13T11:34:28.000Z</time>
      </trkpt>
      <trkpt lat="44.57641" lon="6.04564">
        <ele>1177.3</ele>
        <time>2022-10-13T11:34:29.000Z</time>
      </trkpt>
      <trkpt lat="44.57634" lon="6.04562">
        <ele>1178.4</ele>
        <time>2022-10-13T11:34:31.000Z</time>
      </trkpt>
      <trkpt lat="44.57628" lon="6.0456">
        <ele>1180</ele>
        <time>2022-10-13T11:34:33.000Z</time>
      </trkpt>
      <trkpt lat="44.57623" lon="6.04558">
        <ele>1181.5</ele>
        <time>2022-10-13T11:34:34.000Z</time>
      </trkpt>
      <trkpt lat="44.57619" lon="6.04555">
        <ele>1181.6</ele>
        <time>2022-10-13T11:34:35.000Z</time>
      </trkpt>
      <trkpt lat="44.57616" lon="6.04549">
        <ele>1180.2</ele>
        <time>2022-10-13T11:34:36.000Z</time>
      </trkpt>
      <trkpt lat="44.57618" lon="6.04542">
        <ele>1179.4</ele>
        <time>2022-10-13T11:34:38.203Z</time>
      </trkpt>
      <trkpt lat="44.57614" lon="6.04533">
        <ele>1180</ele>
        <time>2022-10-13T11:34:39.299Z</time>
      </trkpt>
      <trkpt lat="44.57609" lon="6.04522">
        <ele>1179.2</ele>
        <time>2022-10-13T11:34:41.000Z</time>
      </trkpt>
      <trkpt lat="44.57605" lon="6.04515">
        <ele>1180.3</ele>
        <time>2022-10-13T11:34:42.000Z</time>
      </trkpt>
      <trkpt lat="44.57601" lon="6.04508">
        <ele>1180.1</ele>
        <time>2022-10-13T11:34:43.000Z</time>
      </trkpt>
      <trkpt lat="44.57597" lon="6.04501">
        <ele>1181.2</ele>
        <time>2022-10-13T11:34:44.000Z</time>
      </trkpt>
      <trkpt lat="44.57594" lon="6.04494">
        <ele>1179.6</ele>
        <time>2022-10-13T11:34:45.000Z</time>
      </trkpt>
      <trkpt lat="44.57589" lon="6.04487">
        <ele>1179.9</ele>
        <time>2022-10-13T11:34:46.000Z</time>
      </trkpt>
      <trkpt lat="44.57585" lon="6.04481">
        <ele>1179.3</ele>
        <time>2022-10-13T11:34:47.000Z</time>
      </trkpt>
      <trkpt lat="44.57581" lon="6.04476">
        <ele>1180.1</ele>
        <time>2022-10-13T11:34:48.000Z</time>
      </trkpt>
      <trkpt lat="44.57578" lon="6.04469">
        <ele>1181.6</ele>
        <time>2022-10-13T11:34:49.000Z</time>
      </trkpt>
      <trkpt lat="44.57574" lon="6.04463">
        <ele>1183.7</ele>
        <time>2022-10-13T11:34:50.000Z</time>
      </trkpt>
      <trkpt lat="44.57567" lon="6.04454">
        <ele>1185.8</ele>
        <time>2022-10-13T11:34:52.000Z</time>
      </trkpt>
      <trkpt lat="44.57564" lon="6.04451">
        <ele>1185.5</ele>
        <time>2022-10-13T11:34:53.000Z</time>
      </trkpt>
      <trkpt lat="44.57557" lon="6.04443">
        <ele>1185</ele>
        <time>2022-10-13T11:34:55.000Z</time>
      </trkpt>
      <trkpt lat="44.57554" lon="6.04437">
        <ele>1183.5</ele>
        <time>2022-10-13T11:34:56.000Z</time>
      </trkpt>
      <trkpt lat="44.5755" lon="6.04431">
        <ele>1183.9</ele>
        <time>2022-10-13T11:34:57.000Z</time>
      </trkpt>
      <trkpt lat="44.57547" lon="6.04425">
        <ele>1184.8</ele>
        <time>2022-10-13T11:34:58.000Z</time>
      </trkpt>
      <trkpt lat="44.57543" lon="6.0442">
        <ele>1180.9</ele>
        <time>2022-10-13T11:34:59.000Z</time>
      </trkpt>
      <trkpt lat="44.5754" lon="6.04414">
        <ele>1180.6</ele>
        <time>2022-10-13T11:35:00.000Z</time>
      </trkpt>
      <trkpt lat="44.57534" lon="6.04404">
        <ele>1181.7</ele>
        <time>2022-10-13T11:35:02.000Z</time>
      </trkpt>
      <trkpt lat="44.57529" lon="6.04397">
        <ele>1181.3</ele>
        <time>2022-10-13T11:35:03.000Z</time>
      </trkpt>
      <trkpt lat="44.57526" lon="6.04388">
        <ele>1187</ele>
        <time>2022-10-13T11:35:04.000Z</time>
      </trkpt>
      <trkpt lat="44.57524" lon="6.04379">
        <ele>1187.9</ele>
        <time>2022-10-13T11:35:05.000Z</time>
      </trkpt>
      <trkpt lat="44.57522" lon="6.04372">
        <ele>1187.3</ele>
        <time>2022-10-13T11:35:06.000Z</time>
      </trkpt>
      <trkpt lat="44.57521" lon="6.04364">
        <ele>1182.4</ele>
        <time>2022-10-13T11:35:07.000Z</time>
      </trkpt>
      <trkpt lat="44.57519" lon="6.04358">
        <ele>1180.4</ele>
        <time>2022-10-13T11:35:08.000Z</time>
      </trkpt>
      <trkpt lat="44.57518" lon="6.04344">
        <ele>1180.7</ele>
        <time>2022-10-13T11:35:10.000Z</time>
      </trkpt>
      <trkpt lat="44.57517" lon="6.04335">
        <ele>1181.5</ele>
        <time>2022-10-13T11:35:11.000Z</time>
      </trkpt>
      <trkpt lat="44.57517" lon="6.04326">
        <ele>1181.5</ele>
        <time>2022-10-13T11:35:12.000Z</time>
      </trkpt>
      <trkpt lat="44.57517" lon="6.0432">
        <ele>1185.3</ele>
        <time>2022-10-13T11:35:13.000Z</time>
      </trkpt>
      <trkpt lat="44.57516" lon="6.04311">
        <ele>1185</ele>
        <time>2022-10-13T11:35:14.000Z</time>
      </trkpt>
      <trkpt lat="44.57514" lon="6.04303">
        <ele>1179.5</ele>
        <time>2022-10-13T11:35:15.000Z</time>
      </trkpt>
      <trkpt lat="44.57511" lon="6.04297">
        <ele>1186.5</ele>
        <time>2022-10-13T11:35:16.000Z</time>
      </trkpt>
      <trkpt lat="44.57508" lon="6.0429">
        <ele>1181.5</ele>
        <time>2022-10-13T11:35:17.000Z</time>
      </trkpt>
      <trkpt lat="44.57505" lon="6.04282">
        <ele>1184.8</ele>
        <time>2022-10-13T11:35:18.000Z</time>
      </trkpt>
      <trkpt lat="44.57503" lon="6.04275">
        <ele>1183.8</ele>
        <time>2022-10-13T11:35:19.000Z</time>
      </trkpt>
      <trkpt lat="44.57501" lon="6.04266">
        <ele>1182.3</ele>
        <time>2022-10-13T11:35:20.000Z</time>
      </trkpt>
      <trkpt lat="44.57499" lon="6.04259">
        <ele>1181.3</ele>
        <time>2022-10-13T11:35:21.000Z</time>
      </trkpt>
      <trkpt lat="44.57495" lon="6.04252">
        <ele>1182</ele>
        <time>2022-10-13T11:35:22.000Z</time>
      </trkpt>
      <trkpt lat="44.57491" lon="6.04245">
        <ele>1181.3</ele>
        <time>2022-10-13T11:35:23.000Z</time>
      </trkpt>
      <trkpt lat="44.57487" lon="6.04239">
        <ele>1181.7</ele>
        <time>2022-10-13T11:35:24.000Z</time>
      </trkpt>
      <trkpt lat="44.57483" lon="6.04234">
        <ele>1181.6</ele>
        <time>2022-10-13T11:35:25.000Z</time>
      </trkpt>
      <trkpt lat="44.57478" lon="6.04228">
        <ele>1181.8</ele>
        <time>2022-10-13T11:35:26.000Z</time>
      </trkpt>
      <trkpt lat="44.57474" lon="6.04223">
        <ele>1184.4</ele>
        <time>2022-10-13T11:35:27.000Z</time>
      </trkpt>
      <trkpt lat="44.57469" lon="6.04217">
        <ele>1183.2</ele>
        <time>2022-10-13T11:35:28.000Z</time>
      </trkpt>
      <trkpt lat="44.57465" lon="6.04211">
        <ele>1182.6</ele>
        <time>2022-10-13T11:35:29.000Z</time>
      </trkpt>
      <trkpt lat="44.57461" lon="6.04206">
        <ele>1182.9</ele>
        <time>2022-10-13T11:35:30.000Z</time>
      </trkpt>
      <trkpt lat="44.57458" lon="6.042">
        <ele>1182.9</ele>
        <time>2022-10-13T11:35:31.000Z</time>
      </trkpt>
      <trkpt lat="44.57454" lon="6.04194">
        <ele>1183.3</ele>
        <time>2022-10-13T11:35:32.000Z</time>
      </trkpt>
      <trkpt lat="44.57451" lon="6.04189">
        <ele>1183.5</ele>
        <time>2022-10-13T11:35:33.000Z</time>
      </trkpt>
      <trkpt lat="44.57446" lon="6.04184">
        <ele>1185.9</ele>
        <time>2022-10-13T11:35:34.000Z</time>
      </trkpt>
      <trkpt lat="44.57443" lon="6.04178">
        <ele>1185.5</ele>
        <time>2022-10-13T11:35:35.000Z</time>
      </trkpt>
      <trkpt lat="44.57439" lon="6.04171">
        <ele>1185.8</ele>
        <time>2022-10-13T11:35:36.000Z</time>
      </trkpt>
      <trkpt lat="44.57435" lon="6.04163">
        <ele>1184.7</ele>
        <time>2022-10-13T11:35:37.000Z</time>
      </trkpt>
      <trkpt lat="44.57432" lon="6.04155">
        <ele>1184.8</ele>
        <time>2022-10-13T11:35:38.000Z</time>
      </trkpt>
      <trkpt lat="44.57429" lon="6.04147">
        <ele>1184.7</ele>
        <time>2022-10-13T11:35:39.000Z</time>
      </trkpt>
      <trkpt lat="44.57426" lon="6.04139">
        <ele>1184.4</ele>
        <time>2022-10-13T11:35:40.000Z</time>
      </trkpt>
      <trkpt lat="44.57425" lon="6.04133">
        <ele>1186.1</ele>
        <time>2022-10-13T11:35:41.000Z</time>
      </trkpt>
      <trkpt lat="44.57424" lon="6.04127">
        <ele>1185.4</ele>
        <time>2022-10-13T11:35:42.000Z</time>
      </trkpt>
      <trkpt lat="44.57419" lon="6.04115">
        <ele>1185.1</ele>
        <time>2022-10-13T11:35:44.000Z</time>
      </trkpt>
      <trkpt lat="44.57416" lon="6.04108">
        <ele>1184.6</ele>
        <time>2022-10-13T11:35:45.000Z</time>
      </trkpt>
      <trkpt lat="44.57413" lon="6.04101">
        <ele>1185.1</ele>
        <time>2022-10-13T11:35:46.000Z</time>
      </trkpt>
      <trkpt lat="44.57408" lon="6.04095">
        <ele>1184</ele>
        <time>2022-10-13T11:35:47.000Z</time>
      </trkpt>
      <trkpt lat="44.57404" lon="6.04088">
        <ele>1180.9</ele>
        <time>2022-10-13T11:35:48.000Z</time>
      </trkpt>
      <trkpt lat="44.57401" lon="6.04081">
        <ele>1179.7</ele>
        <time>2022-10-13T11:35:49.000Z</time>
      </trkpt>
      <trkpt lat="44.57398" lon="6.04074">
        <ele>1180.7</ele>
        <time>2022-10-13T11:35:50.000Z</time>
      </trkpt>
      <trkpt lat="44.57395" lon="6.04066">
        <ele>1181.1</ele>
        <time>2022-10-13T11:35:51.000Z</time>
      </trkpt>
      <trkpt lat="44.57392" lon="6.04059">
        <ele>1180.6</ele>
        <time>2022-10-13T11:35:52.000Z</time>
      </trkpt>
      <trkpt lat="44.57389" lon="6.04052">
        <ele>1182.9</ele>
        <time>2022-10-13T11:35:53.000Z</time>
      </trkpt>
      <trkpt lat="44.57386" lon="6.04045">
        <ele>1183.2</ele>
        <time>2022-10-13T11:35:54.000Z</time>
      </trkpt>
      <trkpt lat="44.57382" lon="6.04038">
        <ele>1183.4</ele>
        <time>2022-10-13T11:35:55.000Z</time>
      </trkpt>
      <trkpt lat="44.57379" lon="6.04032">
        <ele>1182.7</ele>
        <time>2022-10-13T11:35:56.000Z</time>
      </trkpt>
      <trkpt lat="44.57376" lon="6.04025">
        <ele>1182.7</ele>
        <time>2022-10-13T11:35:57.000Z</time>
      </trkpt>
      <trkpt lat="44.57374" lon="6.04017">
        <ele>1182.5</ele>
        <time>2022-10-13T11:35:58.000Z</time>
      </trkpt>
      <trkpt lat="44.57372" lon="6.04009">
        <ele>1183</ele>
        <time>2022-10-13T11:35:59.000Z</time>
      </trkpt>
      <trkpt lat="44.5737" lon="6.04003">
        <ele>1183.1</ele>
        <time>2022-10-13T11:36:00.000Z</time>
      </trkpt>
      <trkpt lat="44.57368" lon="6.03996">
        <ele>1181.8</ele>
        <time>2022-10-13T11:36:01.000Z</time>
      </trkpt>
      <trkpt lat="44.57367" lon="6.0399">
        <ele>1182.7</ele>
        <time>2022-10-13T11:36:02.000Z</time>
      </trkpt>
      <trkpt lat="44.57364" lon="6.03983">
        <ele>1184.1</ele>
        <time>2022-10-13T11:36:03.000Z</time>
      </trkpt>
      <trkpt lat="44.57359" lon="6.03976">
        <ele>1183.9</ele>
        <time>2022-10-13T11:36:04.000Z</time>
      </trkpt>
      <trkpt lat="44.57355" lon="6.03971">
        <ele>1182.3</ele>
        <time>2022-10-13T11:36:05.000Z</time>
      </trkpt>
      <trkpt lat="44.57352" lon="6.03965">
        <ele>1183</ele>
        <time>2022-10-13T11:36:06.000Z</time>
      </trkpt>
      <trkpt lat="44.57348" lon="6.03958">
        <ele>1183.3</ele>
        <time>2022-10-13T11:36:07.000Z</time>
      </trkpt>
      <trkpt lat="44.57345" lon="6.03951">
        <ele>1182.6</ele>
        <time>2022-10-13T11:36:08.000Z</time>
      </trkpt>
      <trkpt lat="44.57341" lon="6.03945">
        <ele>1182.4</ele>
        <time>2022-10-13T11:36:09.000Z</time>
      </trkpt>
      <trkpt lat="44.57336" lon="6.0394">
        <ele>1182.6</ele>
        <time>2022-10-13T11:36:10.000Z</time>
      </trkpt>
      <trkpt lat="44.57331" lon="6.03936">
        <ele>1183.1</ele>
        <time>2022-10-13T11:36:11.000Z</time>
      </trkpt>
      <trkpt lat="44.57327" lon="6.03932">
        <ele>1183.5</ele>
        <time>2022-10-13T11:36:12.000Z</time>
      </trkpt>
      <trkpt lat="44.57322" lon="6.03928">
        <ele>1183.3</ele>
        <time>2022-10-13T11:36:13.000Z</time>
      </trkpt>
      <trkpt lat="44.57318" lon="6.03923">
        <ele>1183.6</ele>
        <time>2022-10-13T11:36:14.000Z</time>
      </trkpt>
      <trkpt lat="44.57315" lon="6.03917">
        <ele>1183.6</ele>
        <time>2022-10-13T11:36:15.000Z</time>
      </trkpt>
      <trkpt lat="44.57311" lon="6.03911">
        <ele>1183.7</ele>
        <time>2022-10-13T11:36:16.000Z</time>
      </trkpt>
      <trkpt lat="44.57307" lon="6.03905">
        <ele>1184.2</ele>
        <time>2022-10-13T11:36:17.000Z</time>
      </trkpt>
      <trkpt lat="44.57303" lon="6.039">
        <ele>1184.3</ele>
        <time>2022-10-13T11:36:18.000Z</time>
      </trkpt>
      <trkpt lat="44.57298" lon="6.03893">
        <ele>1184.6</ele>
        <time>2022-10-13T11:36:19.000Z</time>
      </trkpt>
      <trkpt lat="44.57294" lon="6.03887">
        <ele>1183.8</ele>
        <time>2022-10-13T11:36:20.000Z</time>
      </trkpt>
      <trkpt lat="44.57289" lon="6.03881">
        <ele>1185</ele>
        <time>2022-10-13T11:36:21.000Z</time>
      </trkpt>
      <trkpt lat="44.57285" lon="6.03876">
        <ele>1184.7</ele>
        <time>2022-10-13T11:36:22.000Z</time>
      </trkpt>
      <trkpt lat="44.57281" lon="6.03871">
        <ele>1184.5</ele>
        <time>2022-10-13T11:36:23.000Z</time>
      </trkpt>
      <trkpt lat="44.57277" lon="6.03866">
        <ele>1184.6</ele>
        <time>2022-10-13T11:36:24.000Z</time>
      </trkpt>
      <trkpt lat="44.57273" lon="6.03862">
        <ele>1185.6</ele>
        <time>2022-10-13T11:36:25.000Z</time>
      </trkpt>
      <trkpt lat="44.57268" lon="6.03858">
        <ele>1185</ele>
        <time>2022-10-13T11:36:26.000Z</time>
      </trkpt>
      <trkpt lat="44.57263" lon="6.03854">
        <ele>1185.4</ele>
        <time>2022-10-13T11:36:27.000Z</time>
      </trkpt>
      <trkpt lat="44.57259" lon="6.03849">
        <ele>1185.7</ele>
        <time>2022-10-13T11:36:28.000Z</time>
      </trkpt>
      <trkpt lat="44.57255" lon="6.03845">
        <ele>1187.9</ele>
        <time>2022-10-13T11:36:29.000Z</time>
      </trkpt>
      <trkpt lat="44.5725" lon="6.0384">
        <ele>1187.2</ele>
        <time>2022-10-13T11:36:30.000Z</time>
      </trkpt>
      <trkpt lat="44.57246" lon="6.03836">
        <ele>1186.5</ele>
        <time>2022-10-13T11:36:31.000Z</time>
      </trkpt>
      <trkpt lat="44.57241" lon="6.03832">
        <ele>1185.4</ele>
        <time>2022-10-13T11:36:32.000Z</time>
      </trkpt>
      <trkpt lat="44.57235" lon="6.03829">
        <ele>1185.3</ele>
        <time>2022-10-13T11:36:33.000Z</time>
      </trkpt>
      <trkpt lat="44.5723" lon="6.03825">
        <ele>1184.6</ele>
        <time>2022-10-13T11:36:34.000Z</time>
      </trkpt>
      <trkpt lat="44.57225" lon="6.03821">
        <ele>1184.5</ele>
        <time>2022-10-13T11:36:35.000Z</time>
      </trkpt>
      <trkpt lat="44.57219" lon="6.03818">
        <ele>1184.9</ele>
        <time>2022-10-13T11:36:36.000Z</time>
      </trkpt>
      <trkpt lat="44.57215" lon="6.03813">
        <ele>1185.5</ele>
        <time>2022-10-13T11:36:37.000Z</time>
      </trkpt>
      <trkpt lat="44.57213" lon="6.03807">
        <ele>1182.9</ele>
        <time>2022-10-13T11:36:38.000Z</time>
      </trkpt>
      <trkpt lat="44.57211" lon="6.038">
        <ele>1182.2</ele>
        <time>2022-10-13T11:36:39.000Z</time>
      </trkpt>
      <trkpt lat="44.57209" lon="6.03793">
        <ele>1182.1</ele>
        <time>2022-10-13T11:36:40.000Z</time>
      </trkpt>
      <trkpt lat="44.57208" lon="6.03785">
        <ele>1183</ele>
        <time>2022-10-13T11:36:41.000Z</time>
      </trkpt>
      <trkpt lat="44.57208" lon="6.03777">
        <ele>1183.2</ele>
        <time>2022-10-13T11:36:42.000Z</time>
      </trkpt>
      <trkpt lat="44.5721" lon="6.03771">
        <ele>1184.4</ele>
        <time>2022-10-13T11:36:43.000Z</time>
      </trkpt>
      <trkpt lat="44.57213" lon="6.03767">
        <ele>1184.7</ele>
        <time>2022-10-13T11:36:44.000Z</time>
      </trkpt>
      <trkpt lat="44.57218" lon="6.03765">
        <ele>1184.3</ele>
        <time>2022-10-13T11:36:45.000Z</time>
      </trkpt>
      <trkpt lat="44.57223" lon="6.03762">
        <ele>1184.4</ele>
        <time>2022-10-13T11:36:46.000Z</time>
      </trkpt>
      <trkpt lat="44.57228" lon="6.03759">
        <ele>1184.5</ele>
        <time>2022-10-13T11:36:47.000Z</time>
      </trkpt>
      <trkpt lat="44.57234" lon="6.03756">
        <ele>1184.8</ele>
        <time>2022-10-13T11:36:48.000Z</time>
      </trkpt>
      <trkpt lat="44.57237" lon="6.03751">
        <ele>1185.4</ele>
        <time>2022-10-13T11:36:49.000Z</time>
      </trkpt>
      <trkpt lat="44.5724" lon="6.03745">
        <ele>1184.3</ele>
        <time>2022-10-13T11:36:50.000Z</time>
      </trkpt>
      <trkpt lat="44.57244" lon="6.03739">
        <ele>1184</ele>
        <time>2022-10-13T11:36:51.000Z</time>
      </trkpt>
      <trkpt lat="44.57248" lon="6.03733">
        <ele>1184</ele>
        <time>2022-10-13T11:36:52.000Z</time>
      </trkpt>
      <trkpt lat="44.57252" lon="6.03726">
        <ele>1184.8</ele>
        <time>2022-10-13T11:36:53.000Z</time>
      </trkpt>
      <trkpt lat="44.57256" lon="6.03721">
        <ele>1184.8</ele>
        <time>2022-10-13T11:36:54.000Z</time>
      </trkpt>
      <trkpt lat="44.57261" lon="6.03716">
        <ele>1185.1</ele>
        <time>2022-10-13T11:36:55.000Z</time>
      </trkpt>
      <trkpt lat="44.57266" lon="6.03712">
        <ele>1185.1</ele>
        <time>2022-10-13T11:36:56.000Z</time>
      </trkpt>
      <trkpt lat="44.57271" lon="6.03709">
        <ele>1185</ele>
        <time>2022-10-13T11:36:57.000Z</time>
      </trkpt>
      <trkpt lat="44.57275" lon="6.03705">
        <ele>1184.9</ele>
        <time>2022-10-13T11:36:58.000Z</time>
      </trkpt>
      <trkpt lat="44.5728" lon="6.03703">
        <ele>1184.5</ele>
        <time>2022-10-13T11:36:59.000Z</time>
      </trkpt>
      <trkpt lat="44.57285" lon="6.03701">
        <ele>1184</ele>
        <time>2022-10-13T11:37:00.000Z</time>
      </trkpt>
      <trkpt lat="44.5729" lon="6.03698">
        <ele>1184</ele>
        <time>2022-10-13T11:37:01.000Z</time>
      </trkpt>
      <trkpt lat="44.57295" lon="6.03696">
        <ele>1182.7</ele>
        <time>2022-10-13T11:37:02.000Z</time>
      </trkpt>
      <trkpt lat="44.57299" lon="6.03693">
        <ele>1183.3</ele>
        <time>2022-10-13T11:37:03.000Z</time>
      </trkpt>
      <trkpt lat="44.57304" lon="6.03686">
        <ele>1183.7</ele>
        <time>2022-10-13T11:37:05.000Z</time>
      </trkpt>
      <trkpt lat="44.57304" lon="6.03679">
        <ele>1184.4</ele>
        <time>2022-10-13T11:37:07.000Z</time>
      </trkpt>
      <trkpt lat="44.57299" lon="6.03672">
        <ele>1181.7</ele>
        <time>2022-10-13T11:37:11.000Z</time>
      </trkpt>
      <trkpt lat="44.57294" lon="6.03668">
        <ele>1183.3</ele>
        <time>2022-10-13T11:37:12.675Z</time>
      </trkpt>
      <trkpt lat="44.57288" lon="6.03661">
        <ele>1183.4</ele>
        <time>2022-10-13T11:37:14.193Z</time>
      </trkpt>
      <trkpt lat="44.57284" lon="6.03652">
        <ele>1183.3</ele>
        <time>2022-10-13T11:37:16.132Z</time>
      </trkpt>
      <trkpt lat="44.57282" lon="6.03645">
        <ele>1184.4</ele>
        <time>2022-10-13T11:37:17.347Z</time>
      </trkpt>
      <trkpt lat="44.57279" lon="6.03639">
        <ele>1183.2</ele>
        <time>2022-10-13T11:37:19.000Z</time>
      </trkpt>
      <trkpt lat="44.57277" lon="6.03633">
        <ele>1183.2</ele>
        <time>2022-10-13T11:37:20.000Z</time>
      </trkpt>
      <trkpt lat="44.57272" lon="6.0363">
        <ele>1182.9</ele>
        <time>2022-10-13T11:37:21.930Z</time>
      </trkpt>
      <trkpt lat="44.57268" lon="6.03628">
        <ele>1183.4</ele>
        <time>2022-10-13T11:37:24.290Z</time>
      </trkpt>
      <trkpt lat="44.57263" lon="6.03625">
        <ele>1181.5</ele>
        <time>2022-10-13T11:37:27.000Z</time>
      </trkpt>
      <trkpt lat="44.57257" lon="6.03621">
        <ele>1178.9</ele>
        <time>2022-10-13T11:37:29.000Z</time>
      </trkpt>
      <trkpt lat="44.57252" lon="6.03618">
        <ele>1177.7</ele>
        <time>2022-10-13T11:37:29.745Z</time>
      </trkpt>
      <trkpt lat="44.57247" lon="6.03615">
        <ele>1176.5</ele>
        <time>2022-10-13T11:37:30.944Z</time>
      </trkpt>
      <trkpt lat="44.57243" lon="6.03612">
        <ele>1179.9</ele>
        <time>2022-10-13T11:37:33.000Z</time>
      </trkpt>
      <trkpt lat="44.57238" lon="6.03607">
        <ele>1181.1</ele>
        <time>2022-10-13T11:37:35.000Z</time>
      </trkpt>
      <trkpt lat="44.57233" lon="6.03597">
        <ele>1181.8</ele>
        <time>2022-10-13T11:37:36.590Z</time>
      </trkpt>
      <trkpt lat="44.57229" lon="6.03584">
        <ele>1182.8</ele>
        <time>2022-10-13T11:37:40.000Z</time>
      </trkpt>
      <trkpt lat="44.57226" lon="6.03571">
        <ele>1182</ele>
        <time>2022-10-13T11:37:41.542Z</time>
      </trkpt>
      <trkpt lat="44.57224" lon="6.03565">
        <ele>1182.9</ele>
        <time>2022-10-13T11:37:42.649Z</time>
      </trkpt>
      <trkpt lat="44.57223" lon="6.03556">
        <ele>1182.8</ele>
        <time>2022-10-13T11:37:44.187Z</time>
      </trkpt>
      <trkpt lat="44.57222" lon="6.03542">
        <ele>1182.4</ele>
        <time>2022-10-13T11:37:47.071Z</time>
      </trkpt>
      <trkpt lat="44.57218" lon="6.03533">
        <ele>1182.4</ele>
        <time>2022-10-13T11:37:49.172Z</time>
      </trkpt>
      <trkpt lat="44.57216" lon="6.03524">
        <ele>1182.2</ele>
        <time>2022-10-13T11:37:52.000Z</time>
      </trkpt>
      <trkpt lat="44.57212" lon="6.03519">
        <ele>1182.2</ele>
        <time>2022-10-13T11:37:53.351Z</time>
      </trkpt>
      <trkpt lat="44.57207" lon="6.03521">
        <ele>1184.7</ele>
        <time>2022-10-13T11:37:56.345Z</time>
      </trkpt>
      <trkpt lat="44.57197" lon="6.03522">
        <ele>1186.2</ele>
        <time>2022-10-13T11:37:59.186Z</time>
      </trkpt>
      <trkpt lat="44.57192" lon="6.03522">
        <ele>1184.1</ele>
        <time>2022-10-13T11:38:01.000Z</time>
      </trkpt>
      <trkpt lat="44.57183" lon="6.0352">
        <ele>1182.9</ele>
        <time>2022-10-13T11:38:03.106Z</time>
      </trkpt>
      <trkpt lat="44.57175" lon="6.03529">
        <ele>1182.7</ele>
        <time>2022-10-13T11:38:06.000Z</time>
      </trkpt>
      <trkpt lat="44.57167" lon="6.03536">
        <ele>1182.1</ele>
        <time>2022-10-13T11:38:07.000Z</time>
      </trkpt>
      <trkpt lat="44.57161" lon="6.03542">
        <ele>1182.5</ele>
        <time>2022-10-13T11:38:08.000Z</time>
      </trkpt>
      <trkpt lat="44.57156" lon="6.03547">
        <ele>1181.8</ele>
        <time>2022-10-13T11:38:09.000Z</time>
      </trkpt>
      <trkpt lat="44.57151" lon="6.03552">
        <ele>1182.3</ele>
        <time>2022-10-13T11:38:10.000Z</time>
      </trkpt>
      <trkpt lat="44.57146" lon="6.03557">
        <ele>1183.2</ele>
        <time>2022-10-13T11:38:11.000Z</time>
      </trkpt>
      <trkpt lat="44.57141" lon="6.0356">
        <ele>1182.7</ele>
        <time>2022-10-13T11:38:12.000Z</time>
      </trkpt>
      <trkpt lat="44.57136" lon="6.03562">
        <ele>1182.7</ele>
        <time>2022-10-13T11:38:13.000Z</time>
      </trkpt>
      <trkpt lat="44.57131" lon="6.03563">
        <ele>1182.9</ele>
        <time>2022-10-13T11:38:14.000Z</time>
      </trkpt>
      <trkpt lat="44.57124" lon="6.03563">
        <ele>1182</ele>
        <time>2022-10-13T11:38:15.000Z</time>
      </trkpt>
      <trkpt lat="44.57119" lon="6.03564">
        <ele>1182.2</ele>
        <time>2022-10-13T11:38:16.000Z</time>
      </trkpt>
      <trkpt lat="44.57113" lon="6.03564">
        <ele>1181.3</ele>
        <time>2022-10-13T11:38:17.000Z</time>
      </trkpt>
      <trkpt lat="44.57108" lon="6.03563">
        <ele>1181.2</ele>
        <time>2022-10-13T11:38:18.000Z</time>
      </trkpt>
      <trkpt lat="44.57102" lon="6.03563">
        <ele>1180.2</ele>
        <time>2022-10-13T11:38:19.000Z</time>
      </trkpt>
      <trkpt lat="44.57096" lon="6.03562">
        <ele>1179.9</ele>
        <time>2022-10-13T11:38:20.000Z</time>
      </trkpt>
      <trkpt lat="44.57091" lon="6.03561">
        <ele>1179.5</ele>
        <time>2022-10-13T11:38:21.000Z</time>
      </trkpt>
      <trkpt lat="44.57084" lon="6.0356">
        <ele>1179.3</ele>
        <time>2022-10-13T11:38:22.000Z</time>
      </trkpt>
      <trkpt lat="44.57079" lon="6.03556">
        <ele>1179.5</ele>
        <time>2022-10-13T11:38:23.000Z</time>
      </trkpt>
      <trkpt lat="44.57075" lon="6.0355">
        <ele>1180.2</ele>
        <time>2022-10-13T11:38:24.000Z</time>
      </trkpt>
      <trkpt lat="44.57072" lon="6.03542">
        <ele>1180.2</ele>
        <time>2022-10-13T11:38:25.000Z</time>
      </trkpt>
      <trkpt lat="44.57069" lon="6.03537">
        <ele>1180.8</ele>
        <time>2022-10-13T11:38:26.000Z</time>
      </trkpt>
      <trkpt lat="44.57064" lon="6.03533">
        <ele>1181.1</ele>
        <time>2022-10-13T11:38:27.000Z</time>
      </trkpt>
      <trkpt lat="44.57059" lon="6.0353">
        <ele>1181.1</ele>
        <time>2022-10-13T11:38:28.000Z</time>
      </trkpt>
      <trkpt lat="44.57055" lon="6.03524">
        <ele>1180.7</ele>
        <time>2022-10-13T11:38:29.000Z</time>
      </trkpt>
      <trkpt lat="44.57051" lon="6.03518">
        <ele>1180.9</ele>
        <time>2022-10-13T11:38:30.000Z</time>
      </trkpt>
      <trkpt lat="44.57048" lon="6.03511">
        <ele>1181.5</ele>
        <time>2022-10-13T11:38:31.000Z</time>
      </trkpt>
      <trkpt lat="44.57045" lon="6.03504">
        <ele>1181.7</ele>
        <time>2022-10-13T11:38:32.000Z</time>
      </trkpt>
      <trkpt lat="44.57042" lon="6.03496">
        <ele>1181.9</ele>
        <time>2022-10-13T11:38:33.000Z</time>
      </trkpt>
      <trkpt lat="44.57039" lon="6.03488">
        <ele>1182.2</ele>
        <time>2022-10-13T11:38:34.000Z</time>
      </trkpt>
      <trkpt lat="44.57037" lon="6.03481">
        <ele>1181.3</ele>
        <time>2022-10-13T11:38:35.000Z</time>
      </trkpt>
      <trkpt lat="44.57034" lon="6.03474">
        <ele>1181.7</ele>
        <time>2022-10-13T11:38:36.000Z</time>
      </trkpt>
      <trkpt lat="44.57031" lon="6.03467">
        <ele>1182.3</ele>
        <time>2022-10-13T11:38:37.000Z</time>
      </trkpt>
      <trkpt lat="44.57028" lon="6.03461">
        <ele>1180.8</ele>
        <time>2022-10-13T11:38:38.000Z</time>
      </trkpt>
      <trkpt lat="44.57023" lon="6.03456">
        <ele>1182.6</ele>
        <time>2022-10-13T11:38:39.000Z</time>
      </trkpt>
      <trkpt lat="44.57018" lon="6.03451">
        <ele>1181.9</ele>
        <time>2022-10-13T11:38:40.000Z</time>
      </trkpt>
      <trkpt lat="44.57013" lon="6.03445">
        <ele>1182.3</ele>
        <time>2022-10-13T11:38:41.000Z</time>
      </trkpt>
      <trkpt lat="44.57008" lon="6.0344">
        <ele>1181.3</ele>
        <time>2022-10-13T11:38:42.000Z</time>
      </trkpt>
      <trkpt lat="44.57003" lon="6.03437">
        <ele>1181.2</ele>
        <time>2022-10-13T11:38:43.000Z</time>
      </trkpt>
      <trkpt lat="44.56999" lon="6.03433">
        <ele>1181.2</ele>
        <time>2022-10-13T11:38:44.000Z</time>
      </trkpt>
      <trkpt lat="44.56994" lon="6.03428">
        <ele>1180.4</ele>
        <time>2022-10-13T11:38:46.000Z</time>
      </trkpt>
      <trkpt lat="44.5699" lon="6.03425">
        <ele>1183.1</ele>
        <time>2022-10-13T11:38:51.000Z</time>
      </trkpt>
      <trkpt lat="44.56987" lon="6.03421">
        <ele>1183.6</ele>
        <time>2022-10-13T11:39:15.000Z</time>
      </trkpt>
      <trkpt lat="44.56987" lon="6.03428">
        <ele>1185.8</ele>
        <time>2022-10-13T11:40:05.000Z</time>
      </trkpt>
      <trkpt lat="44.56981" lon="6.03424">
        <ele>1186.7</ele>
        <time>2022-10-13T11:40:09.000Z</time>
      </trkpt>
      <trkpt lat="44.56978" lon="6.0342">
        <ele>1185.8</ele>
        <time>2022-10-13T11:40:11.000Z</time>
      </trkpt>
      <trkpt lat="44.56969" lon="6.0341">
        <ele>1186.2</ele>
        <time>2022-10-13T11:40:13.069Z</time>
      </trkpt>
      <trkpt lat="44.56966" lon="6.03405">
        <ele>1185.1</ele>
        <time>2022-10-13T11:40:15.000Z</time>
      </trkpt>
      <trkpt lat="44.56963" lon="6.03397">
        <ele>1185</ele>
        <time>2022-10-13T11:40:15.559Z</time>
      </trkpt>
      <trkpt lat="44.5696" lon="6.03392">
        <ele>1187.4</ele>
        <time>2022-10-13T11:40:16.766Z</time>
      </trkpt>
      <trkpt lat="44.56956" lon="6.03387">
        <ele>1186.6</ele>
        <time>2022-10-13T11:40:17.942Z</time>
      </trkpt>
      <trkpt lat="44.56951" lon="6.03381">
        <ele>1186.5</ele>
        <time>2022-10-13T11:40:19.087Z</time>
      </trkpt>
      <trkpt lat="44.56948" lon="6.03372">
        <ele>1184.7</ele>
        <time>2022-10-13T11:40:21.000Z</time>
      </trkpt>
      <trkpt lat="44.56944" lon="6.03367">
        <ele>1186.3</ele>
        <time>2022-10-13T11:40:22.000Z</time>
      </trkpt>
      <trkpt lat="44.5694" lon="6.03363">
        <ele>1186.4</ele>
        <time>2022-10-13T11:40:23.000Z</time>
      </trkpt>
      <trkpt lat="44.56936" lon="6.0336">
        <ele>1185.7</ele>
        <time>2022-10-13T11:40:24.000Z</time>
      </trkpt>
      <trkpt lat="44.56931" lon="6.03356">
        <ele>1185.6</ele>
        <time>2022-10-13T11:40:25.000Z</time>
      </trkpt>
      <trkpt lat="44.56923" lon="6.03351">
        <ele>1184.8</ele>
        <time>2022-10-13T11:40:27.000Z</time>
      </trkpt>
      <trkpt lat="44.56917" lon="6.03347">
        <ele>1183.3</ele>
        <time>2022-10-13T11:40:28.844Z</time>
      </trkpt>
      <trkpt lat="44.5691" lon="6.03342">
        <ele>1183.2</ele>
        <time>2022-10-13T11:40:31.000Z</time>
      </trkpt>
      <trkpt lat="44.56906" lon="6.03339">
        <ele>1183.9</ele>
        <time>2022-10-13T11:40:32.000Z</time>
      </trkpt>
      <trkpt lat="44.56901" lon="6.03335">
        <ele>1184.4</ele>
        <time>2022-10-13T11:40:32.802Z</time>
      </trkpt>
      <trkpt lat="44.56895" lon="6.03327">
        <ele>1182.5</ele>
        <time>2022-10-13T11:40:35.000Z</time>
      </trkpt>
      <trkpt lat="44.56891" lon="6.03323">
        <ele>1182.1</ele>
        <time>2022-10-13T11:40:36.000Z</time>
      </trkpt>
      <trkpt lat="44.56883" lon="6.03316">
        <ele>1183.2</ele>
        <time>2022-10-13T11:40:38.000Z</time>
      </trkpt>
      <trkpt lat="44.56876" lon="6.03308">
        <ele>1184.4</ele>
        <time>2022-10-13T11:40:40.098Z</time>
      </trkpt>
      <trkpt lat="44.56872" lon="6.03303">
        <ele>1184.6</ele>
        <time>2022-10-13T11:40:41.710Z</time>
      </trkpt>
      <trkpt lat="44.56866" lon="6.03298">
        <ele>1183.1</ele>
        <time>2022-10-13T11:40:43.855Z</time>
      </trkpt>
      <trkpt lat="44.56868" lon="6.03289">
        <ele>1184.1</ele>
        <time>2022-10-13T11:40:46.960Z</time>
      </trkpt>
      <trkpt lat="44.5687" lon="6.03283">
        <ele>1186</ele>
        <time>2022-10-13T11:40:50.000Z</time>
      </trkpt>
      <trkpt lat="44.56875" lon="6.03276">
        <ele>1188.5</ele>
        <time>2022-10-13T11:40:52.596Z</time>
      </trkpt>
      <trkpt lat="44.56879" lon="6.03272">
        <ele>1186.2</ele>
        <time>2022-10-13T11:40:56.000Z</time>
      </trkpt>
      <trkpt lat="44.56882" lon="6.03267">
        <ele>1186.3</ele>
        <time>2022-10-13T11:40:58.126Z</time>
      </trkpt>
      <trkpt lat="44.56883" lon="6.0326">
        <ele>1188.1</ele>
        <time>2022-10-13T11:41:02.000Z</time>
      </trkpt>
      <trkpt lat="44.56885" lon="6.03253">
        <ele>1191.1</ele>
        <time>2022-10-13T11:41:05.000Z</time>
      </trkpt>
      <trkpt lat="44.56886" lon="6.03247">
        <ele>1193.2</ele>
        <time>2022-10-13T11:41:07.099Z</time>
      </trkpt>
      <trkpt lat="44.56886" lon="6.03239">
        <ele>1195.7</ele>
        <time>2022-10-13T11:41:09.706Z</time>
      </trkpt>
      <trkpt lat="44.56886" lon="6.03232">
        <ele>1197.3</ele>
        <time>2022-10-13T11:41:13.000Z</time>
      </trkpt>
      <trkpt lat="44.56889" lon="6.03224">
        <ele>1197.5</ele>
        <time>2022-10-13T11:41:16.140Z</time>
      </trkpt>
      <trkpt lat="44.56891" lon="6.03216">
        <ele>1194.6</ele>
        <time>2022-10-13T11:41:21.000Z</time>
      </trkpt>
      <trkpt lat="44.56892" lon="6.03209">
        <ele>1198.1</ele>
        <time>2022-10-13T11:41:24.000Z</time>
      </trkpt>
      <trkpt lat="44.56894" lon="6.032">
        <ele>1199</ele>
        <time>2022-10-13T11:41:27.184Z</time>
      </trkpt>
      <trkpt lat="44.56894" lon="6.03191">
        <ele>1201.9</ele>
        <time>2022-10-13T11:41:32.000Z</time>
      </trkpt>
      <trkpt lat="44.56891" lon="6.03183">
        <ele>1203.3</ele>
        <time>2022-10-13T11:41:34.281Z</time>
      </trkpt>
      <trkpt lat="44.5689" lon="6.03177">
        <ele>1204</ele>
        <time>2022-10-13T11:41:37.281Z</time>
      </trkpt>
      <trkpt lat="44.5689" lon="6.0317">
        <ele>1203.4</ele>
        <time>2022-10-13T11:41:40.219Z</time>
      </trkpt>
      <trkpt lat="44.56889" lon="6.03162">
        <ele>1206.7</ele>
        <time>2022-10-13T11:41:43.864Z</time>
      </trkpt>
      <trkpt lat="44.5689" lon="6.03155">
        <ele>1216.6</ele>
        <time>2022-10-13T11:41:48.000Z</time>
      </trkpt>
      <trkpt lat="44.56889" lon="6.03148">
        <ele>1216.9</ele>
        <time>2022-10-13T11:41:50.264Z</time>
      </trkpt>
      <trkpt lat="44.56888" lon="6.03141">
        <ele>1208.1</ele>
        <time>2022-10-13T11:41:54.000Z</time>
      </trkpt>
      <trkpt lat="44.56887" lon="6.03134">
        <ele>1211.5</ele>
        <time>2022-10-13T11:41:57.000Z</time>
      </trkpt>
      <trkpt lat="44.56884" lon="6.03127">
        <ele>1213.8</ele>
        <time>2022-10-13T11:42:00.000Z</time>
      </trkpt>
      <trkpt lat="44.56882" lon="6.03121">
        <ele>1213.4</ele>
        <time>2022-10-13T11:42:03.000Z</time>
      </trkpt>
      <trkpt lat="44.5688" lon="6.03113">
        <ele>1214.6</ele>
        <time>2022-10-13T11:42:07.000Z</time>
      </trkpt>
      <trkpt lat="44.56879" lon="6.03105">
        <ele>1217.6</ele>
        <time>2022-10-13T11:42:10.000Z</time>
      </trkpt>
      <trkpt lat="44.56877" lon="6.03099">
        <ele>1218.3</ele>
        <time>2022-10-13T11:42:13.000Z</time>
      </trkpt>
      <trkpt lat="44.56876" lon="6.03093">
        <ele>1221.1</ele>
        <time>2022-10-13T11:42:16.000Z</time>
      </trkpt>
      <trkpt lat="44.56873" lon="6.03087">
        <ele>1220.8</ele>
        <time>2022-10-13T11:42:19.000Z</time>
      </trkpt>
      <trkpt lat="44.5687" lon="6.0308">
        <ele>1220.8</ele>
        <time>2022-10-13T11:42:22.000Z</time>
      </trkpt>
      <trkpt lat="44.56868" lon="6.03072">
        <ele>1222.1</ele>
        <time>2022-10-13T11:42:25.304Z</time>
      </trkpt>
      <trkpt lat="44.56865" lon="6.03065">
        <ele>1221.8</ele>
        <time>2022-10-13T11:42:28.317Z</time>
      </trkpt>
      <trkpt lat="44.56863" lon="6.03059">
        <ele>1223.6</ele>
        <time>2022-10-13T11:42:31.242Z</time>
      </trkpt>
      <trkpt lat="44.56861" lon="6.03053">
        <ele>1223.6</ele>
        <time>2022-10-13T11:42:34.279Z</time>
      </trkpt>
      <trkpt lat="44.56859" lon="6.03048">
        <ele>1226.1</ele>
        <time>2022-10-13T11:42:37.300Z</time>
      </trkpt>
      <trkpt lat="44.56855" lon="6.0304">
        <ele>1223.7</ele>
        <time>2022-10-13T11:42:40.838Z</time>
      </trkpt>
      <trkpt lat="44.56852" lon="6.03034">
        <ele>1228.9</ele>
        <time>2022-10-13T11:42:44.023Z</time>
      </trkpt>
      <trkpt lat="44.56848" lon="6.03029">
        <ele>1236.4</ele>
        <time>2022-10-13T11:42:49.000Z</time>
      </trkpt>
      <trkpt lat="44.56845" lon="6.03023">
        <ele>1236.3</ele>
        <time>2022-10-13T11:42:52.000Z</time>
      </trkpt>
      <trkpt lat="44.56843" lon="6.03016">
        <ele>1237</ele>
        <time>2022-10-13T11:42:54.280Z</time>
      </trkpt>
      <trkpt lat="44.56842" lon="6.03009">
        <ele>1245.4</ele>
        <time>2022-10-13T11:42:58.098Z</time>
      </trkpt>
      <trkpt lat="44.56839" lon="6.03003">
        <ele>1239.8</ele>
        <time>2022-10-13T11:43:03.000Z</time>
      </trkpt>
      <trkpt lat="44.56836" lon="6.02997">
        <ele>1240.6</ele>
        <time>2022-10-13T11:43:06.000Z</time>
      </trkpt>
      <trkpt lat="44.56833" lon="6.02992">
        <ele>1240.5</ele>
        <time>2022-10-13T11:43:09.000Z</time>
      </trkpt>
      <trkpt lat="44.5683" lon="6.02986">
        <ele>1241</ele>
        <time>2022-10-13T11:43:12.000Z</time>
      </trkpt>
      <trkpt lat="44.56827" lon="6.0298">
        <ele>1244</ele>
        <time>2022-10-13T11:43:15.000Z</time>
      </trkpt>
      <trkpt lat="44.56823" lon="6.02973">
        <ele>1245</ele>
        <time>2022-10-13T11:43:17.261Z</time>
      </trkpt>
      <trkpt lat="44.5682" lon="6.02967">
        <ele>1247.4</ele>
        <time>2022-10-13T11:43:22.000Z</time>
      </trkpt>
      <trkpt lat="44.5682" lon="6.0296">
        <ele>1245.9</ele>
        <time>2022-10-13T11:43:25.000Z</time>
      </trkpt>
      <trkpt lat="44.56819" lon="6.02954">
        <ele>1249.7</ele>
        <time>2022-10-13T11:43:28.000Z</time>
      </trkpt>
      <trkpt lat="44.56815" lon="6.0295">
        <ele>1249.9</ele>
        <time>2022-10-13T11:43:32.000Z</time>
      </trkpt>
      <trkpt lat="44.56811" lon="6.02947">
        <ele>1258.4</ele>
        <time>2022-10-13T11:43:59.675Z</time>
      </trkpt>
      <trkpt lat="44.56806" lon="6.02944">
        <ele>1260.5</ele>
        <time>2022-10-13T11:44:16.000Z</time>
      </trkpt>
      <trkpt lat="44.56803" lon="6.02939">
        <ele>1262</ele>
        <time>2022-10-13T11:44:18.000Z</time>
      </trkpt>
      <trkpt lat="44.56799" lon="6.02931">
        <ele>1262.6</ele>
        <time>2022-10-13T11:44:21.000Z</time>
      </trkpt>
      <trkpt lat="44.56795" lon="6.02924">
        <ele>1254.4</ele>
        <time>2022-10-13T11:44:23.298Z</time>
      </trkpt>
      <trkpt lat="44.5679" lon="6.02918">
        <ele>1259.9</ele>
        <time>2022-10-13T11:44:27.000Z</time>
      </trkpt>
      <trkpt lat="44.56784" lon="6.02912">
        <ele>1265</ele>
        <time>2022-10-13T11:44:29.758Z</time>
      </trkpt>
      <trkpt lat="44.56781" lon="6.02907">
        <ele>1252.3</ele>
        <time>2022-10-13T11:44:33.000Z</time>
      </trkpt>
      <trkpt lat="44.56778" lon="6.029">
        <ele>1263.2</ele>
        <time>2022-10-13T11:44:35.054Z</time>
      </trkpt>
      <trkpt lat="44.56774" lon="6.02894">
        <ele>1268.2</ele>
        <time>2022-10-13T11:44:37.617Z</time>
      </trkpt>
      <trkpt lat="44.5677" lon="6.02888">
        <ele>1246.2</ele>
        <time>2022-10-13T11:44:41.000Z</time>
      </trkpt>
      <trkpt lat="44.56766" lon="6.02883">
        <ele>1259.6</ele>
        <time>2022-10-13T11:44:42.881Z</time>
      </trkpt>
      <trkpt lat="44.56762" lon="6.02876">
        <ele>1266.7</ele>
        <time>2022-10-13T11:44:45.916Z</time>
      </trkpt>
      <trkpt lat="44.56758" lon="6.02868">
        <ele>1270.4</ele>
        <time>2022-10-13T11:44:49.000Z</time>
      </trkpt>
      <trkpt lat="44.56754" lon="6.02859">
        <ele>1271.1</ele>
        <time>2022-10-13T11:44:50.861Z</time>
      </trkpt>
      <trkpt lat="44.56747" lon="6.02851">
        <ele>1270.3</ele>
        <time>2022-10-13T11:44:54.000Z</time>
      </trkpt>
      <trkpt lat="44.56742" lon="6.02845">
        <ele>1268.5</ele>
        <time>2022-10-13T11:44:54.901Z</time>
      </trkpt>
      <trkpt lat="44.56737" lon="6.02843">
        <ele>1268.6</ele>
        <time>2022-10-13T11:44:56.037Z</time>
      </trkpt>
      <trkpt lat="44.56732" lon="6.02839">
        <ele>1267.9</ele>
        <time>2022-10-13T11:44:57.263Z</time>
      </trkpt>
      <trkpt lat="44.56724" lon="6.02836">
        <ele>1268.8</ele>
        <time>2022-10-13T11:44:59.000Z</time>
      </trkpt>
      <trkpt lat="44.56718" lon="6.02833">
        <ele>1266.9</ele>
        <time>2022-10-13T11:45:00.000Z</time>
      </trkpt>
      <trkpt lat="44.56711" lon="6.02829">
        <ele>1267.5</ele>
        <time>2022-10-13T11:45:01.000Z</time>
      </trkpt>
      <trkpt lat="44.56705" lon="6.02825">
        <ele>1266.1</ele>
        <time>2022-10-13T11:45:02.000Z</time>
      </trkpt>
      <trkpt lat="44.567" lon="6.02818">
        <ele>1264.1</ele>
        <time>2022-10-13T11:45:03.000Z</time>
      </trkpt>
      <trkpt lat="44.56694" lon="6.02812">
        <ele>1263.9</ele>
        <time>2022-10-13T11:45:04.000Z</time>
      </trkpt>
      <trkpt lat="44.56689" lon="6.02806">
        <ele>1263.5</ele>
        <time>2022-10-13T11:45:05.000Z</time>
      </trkpt>
      <trkpt lat="44.56682" lon="6.02802">
        <ele>1263.7</ele>
        <time>2022-10-13T11:45:06.000Z</time>
      </trkpt>
      <trkpt lat="44.56676" lon="6.02797">
        <ele>1262.4</ele>
        <time>2022-10-13T11:45:07.000Z</time>
      </trkpt>
      <trkpt lat="44.5667" lon="6.02795">
        <ele>1262.1</ele>
        <time>2022-10-13T11:45:08.000Z</time>
      </trkpt>
      <trkpt lat="44.56663" lon="6.02791">
        <ele>1264</ele>
        <time>2022-10-13T11:45:09.000Z</time>
      </trkpt>
      <trkpt lat="44.56657" lon="6.02787">
        <ele>1262.7</ele>
        <time>2022-10-13T11:45:10.000Z</time>
      </trkpt>
      <trkpt lat="44.5665" lon="6.02785">
        <ele>1260.5</ele>
        <time>2022-10-13T11:45:11.000Z</time>
      </trkpt>
      <trkpt lat="44.56646" lon="6.02783">
        <ele>1256.8</ele>
        <time>2022-10-13T11:45:12.000Z</time>
      </trkpt>
      <trkpt lat="44.5664" lon="6.0278">
        <ele>1257.8</ele>
        <time>2022-10-13T11:45:13.000Z</time>
      </trkpt>
      <trkpt lat="44.56633" lon="6.02775">
        <ele>1257.6</ele>
        <time>2022-10-13T11:45:14.000Z</time>
      </trkpt>
      <trkpt lat="44.56624" lon="6.02771">
        <ele>1257</ele>
        <time>2022-10-13T11:45:15.000Z</time>
      </trkpt>
      <trkpt lat="44.56617" lon="6.02767">
        <ele>1256.4</ele>
        <time>2022-10-13T11:45:16.000Z</time>
      </trkpt>
      <trkpt lat="44.56611" lon="6.02759">
        <ele>1255.8</ele>
        <time>2022-10-13T11:45:18.000Z</time>
      </trkpt>
      <trkpt lat="44.56607" lon="6.02754">
        <ele>1255.8</ele>
        <time>2022-10-13T11:45:19.000Z</time>
      </trkpt>
      <trkpt lat="44.566" lon="6.02748">
        <ele>1258</ele>
        <time>2022-10-13T11:45:20.000Z</time>
      </trkpt>
      <trkpt lat="44.56595" lon="6.02745">
        <ele>1258.4</ele>
        <time>2022-10-13T11:45:21.000Z</time>
      </trkpt>
      <trkpt lat="44.5659" lon="6.02743">
        <ele>1259.1</ele>
        <time>2022-10-13T11:45:22.000Z</time>
      </trkpt>
      <trkpt lat="44.56585" lon="6.02741">
        <ele>1260.6</ele>
        <time>2022-10-13T11:45:23.000Z</time>
      </trkpt>
      <trkpt lat="44.5658" lon="6.02738">
        <ele>1253.7</ele>
        <time>2022-10-13T11:45:24.000Z</time>
      </trkpt>
      <trkpt lat="44.56575" lon="6.02736">
        <ele>1253.7</ele>
        <time>2022-10-13T11:45:25.000Z</time>
      </trkpt>
      <trkpt lat="44.56569" lon="6.0273">
        <ele>1252.3</ele>
        <time>2022-10-13T11:45:26.000Z</time>
      </trkpt>
      <trkpt lat="44.56561" lon="6.02728">
        <ele>1252.1</ele>
        <time>2022-10-13T11:45:27.000Z</time>
      </trkpt>
      <trkpt lat="44.56554" lon="6.02728">
        <ele>1252</ele>
        <time>2022-10-13T11:45:28.000Z</time>
      </trkpt>
      <trkpt lat="44.56549" lon="6.02724">
        <ele>1261.1</ele>
        <time>2022-10-13T11:45:29.000Z</time>
      </trkpt>
      <trkpt lat="44.56542" lon="6.02718">
        <ele>1260.9</ele>
        <time>2022-10-13T11:45:30.000Z</time>
      </trkpt>
      <trkpt lat="44.56534" lon="6.02711">
        <ele>1259.5</ele>
        <time>2022-10-13T11:45:31.000Z</time>
      </trkpt>
      <trkpt lat="44.56529" lon="6.02705">
        <ele>1259.8</ele>
        <time>2022-10-13T11:45:32.000Z</time>
      </trkpt>
      <trkpt lat="44.56525" lon="6.027">
        <ele>1258.1</ele>
        <time>2022-10-13T11:45:33.000Z</time>
      </trkpt>
      <trkpt lat="44.56521" lon="6.02695">
        <ele>1255.7</ele>
        <time>2022-10-13T11:45:34.000Z</time>
      </trkpt>
      <trkpt lat="44.56516" lon="6.02689">
        <ele>1255.6</ele>
        <time>2022-10-13T11:45:35.000Z</time>
      </trkpt>
      <trkpt lat="44.56509" lon="6.02682">
        <ele>1254.8</ele>
        <time>2022-10-13T11:45:36.000Z</time>
      </trkpt>
      <trkpt lat="44.56504" lon="6.02675">
        <ele>1254.5</ele>
        <time>2022-10-13T11:45:37.000Z</time>
      </trkpt>
      <trkpt lat="44.565" lon="6.02669">
        <ele>1253.8</ele>
        <time>2022-10-13T11:45:38.000Z</time>
      </trkpt>
      <trkpt lat="44.56495" lon="6.02664">
        <ele>1254</ele>
        <time>2022-10-13T11:45:39.000Z</time>
      </trkpt>
      <trkpt lat="44.5649" lon="6.02661">
        <ele>1253.8</ele>
        <time>2022-10-13T11:45:40.000Z</time>
      </trkpt>
      <trkpt lat="44.56484" lon="6.02657">
        <ele>1255.6</ele>
        <time>2022-10-13T11:45:41.000Z</time>
      </trkpt>
      <trkpt lat="44.56479" lon="6.02651">
        <ele>1219</ele>
        <time>2022-10-13T11:45:42.000Z</time>
      </trkpt>
      <trkpt lat="44.56472" lon="6.02648">
        <ele>1228.7</ele>
        <time>2022-10-13T11:45:43.000Z</time>
      </trkpt>
      <trkpt lat="44.56467" lon="6.02646">
        <ele>1234.4</ele>
        <time>2022-10-13T11:45:44.000Z</time>
      </trkpt>
      <trkpt lat="44.56463" lon="6.02645">
        <ele>1239.8</ele>
        <time>2022-10-13T11:45:45.000Z</time>
      </trkpt>
      <trkpt lat="44.56453" lon="6.0264">
        <ele>1245</ele>
        <time>2022-10-13T11:45:47.000Z</time>
      </trkpt>
      <trkpt lat="44.56447" lon="6.02637">
        <ele>1248.4</ele>
        <time>2022-10-13T11:45:48.000Z</time>
      </trkpt>
      <trkpt lat="44.56443" lon="6.02635">
        <ele>1250.4</ele>
        <time>2022-10-13T11:45:49.000Z</time>
      </trkpt>
      <trkpt lat="44.56438" lon="6.02632">
        <ele>1252.1</ele>
        <time>2022-10-13T11:45:51.000Z</time>
      </trkpt>
      <trkpt lat="44.56439" lon="6.02625">
        <ele>1251.2</ele>
        <time>2022-10-13T11:45:54.000Z</time>
      </trkpt>
      <trkpt lat="44.56445" lon="6.02623">
        <ele>1247</ele>
        <time>2022-10-13T11:45:56.000Z</time>
      </trkpt>
      <trkpt lat="44.5645" lon="6.02623">
        <ele>1245.4</ele>
        <time>2022-10-13T11:45:58.000Z</time>
      </trkpt>
      <trkpt lat="44.56453" lon="6.02629">
        <ele>1248.6</ele>
        <time>2022-10-13T11:46:00.000Z</time>
      </trkpt>
      <trkpt lat="44.56459" lon="6.02634">
        <ele>1247.9</ele>
        <time>2022-10-13T11:46:03.000Z</time>
      </trkpt>
      <trkpt lat="44.56464" lon="6.02636">
        <ele>1248.3</ele>
        <time>2022-10-13T11:46:05.000Z</time>
      </trkpt>
      <trkpt lat="44.56469" lon="6.02638">
        <ele>1244.1</ele>
        <time>2022-10-13T11:46:07.000Z</time>
      </trkpt>
      <trkpt lat="44.56476" lon="6.02641">
        <ele>1246.2</ele>
        <time>2022-10-13T11:46:09.000Z</time>
      </trkpt>
      <trkpt lat="44.5648" lon="6.02642">
        <ele>1245.2</ele>
        <time>2022-10-13T11:46:11.000Z</time>
      </trkpt>
      <trkpt lat="44.56485" lon="6.02638">
        <ele>1247.6</ele>
        <time>2022-10-13T11:46:14.000Z</time>
      </trkpt>
      <trkpt lat="44.56484" lon="6.02629">
        <ele>1247.1</ele>
        <time>2022-10-13T11:46:16.000Z</time>
      </trkpt>
      <trkpt lat="44.5648" lon="6.02623">
        <ele>1246.9</ele>
        <time>2022-10-13T11:46:17.000Z</time>
      </trkpt>
      <trkpt lat="44.56474" lon="6.02615">
        <ele>1246</ele>
        <time>2022-10-13T11:46:18.000Z</time>
      </trkpt>
      <trkpt lat="44.5647" lon="6.02607">
        <ele>1245.6</ele>
        <time>2022-10-13T11:46:19.000Z</time>
      </trkpt>
      <trkpt lat="44.56466" lon="6.026">
        <ele>1244.8</ele>
        <time>2022-10-13T11:46:20.000Z</time>
      </trkpt>
      <trkpt lat="44.56464" lon="6.02594">
        <ele>1246.5</ele>
        <time>2022-10-13T11:46:21.000Z</time>
      </trkpt>
      <trkpt lat="44.56461" lon="6.02584">
        <ele>1247.5</ele>
        <time>2022-10-13T11:46:23.000Z</time>
      </trkpt>
      <trkpt lat="44.5646" lon="6.02575">
        <ele>1246</ele>
        <time>2022-10-13T11:46:25.000Z</time>
      </trkpt>
      <trkpt lat="44.56456" lon="6.02567">
        <ele>1246.6</ele>
        <time>2022-10-13T11:46:27.000Z</time>
      </trkpt>
      <trkpt lat="44.56449" lon="6.02559">
        <ele>1232.2</ele>
        <time>2022-10-13T11:46:29.000Z</time>
      </trkpt>
      <trkpt lat="44.56444" lon="6.02554">
        <ele>1236.2</ele>
        <time>2022-10-13T11:46:29.959Z</time>
      </trkpt>
      <trkpt lat="44.56436" lon="6.02549">
        <ele>1241.1</ele>
        <time>2022-10-13T11:46:32.000Z</time>
      </trkpt>
      <trkpt lat="44.5643" lon="6.02545">
        <ele>1245</ele>
        <time>2022-10-13T11:46:33.000Z</time>
      </trkpt>
      <trkpt lat="44.56425" lon="6.02542">
        <ele>1246.8</ele>
        <time>2022-10-13T11:46:34.000Z</time>
      </trkpt>
      <trkpt lat="44.56421" lon="6.02539">
        <ele>1248.6</ele>
        <time>2022-10-13T11:46:35.000Z</time>
      </trkpt>
      <trkpt lat="44.56417" lon="6.02535">
        <ele>1249.3</ele>
        <time>2022-10-13T11:46:36.000Z</time>
      </trkpt>
      <trkpt lat="44.56413" lon="6.0253">
        <ele>1250</ele>
        <time>2022-10-13T11:46:37.000Z</time>
      </trkpt>
      <trkpt lat="44.56409" lon="6.02525">
        <ele>1251.5</ele>
        <time>2022-10-13T11:46:38.000Z</time>
      </trkpt>
      <trkpt lat="44.56407" lon="6.02519">
        <ele>1252.1</ele>
        <time>2022-10-13T11:46:39.000Z</time>
      </trkpt>
      <trkpt lat="44.56404" lon="6.02512">
        <ele>1251.5</ele>
        <time>2022-10-13T11:46:40.000Z</time>
      </trkpt>
      <trkpt lat="44.56401" lon="6.02504">
        <ele>1250.8</ele>
        <time>2022-10-13T11:46:41.000Z</time>
      </trkpt>
      <trkpt lat="44.56399" lon="6.02497">
        <ele>1239.1</ele>
        <time>2022-10-13T11:46:42.000Z</time>
      </trkpt>
      <trkpt lat="44.56396" lon="6.02491">
        <ele>1244.2</ele>
        <time>2022-10-13T11:46:43.000Z</time>
      </trkpt>
      <trkpt lat="44.56394" lon="6.02485">
        <ele>1246.6</ele>
        <time>2022-10-13T11:46:44.000Z</time>
      </trkpt>
      <trkpt lat="44.56391" lon="6.02479">
        <ele>1246.7</ele>
        <time>2022-10-13T11:46:45.000Z</time>
      </trkpt>
      <trkpt lat="44.56388" lon="6.02474">
        <ele>1247.1</ele>
        <time>2022-10-13T11:46:46.000Z</time>
      </trkpt>
      <trkpt lat="44.56386" lon="6.02468">
        <ele>1248.6</ele>
        <time>2022-10-13T11:46:47.000Z</time>
      </trkpt>
      <trkpt lat="44.56383" lon="6.02463">
        <ele>1249.7</ele>
        <time>2022-10-13T11:46:48.000Z</time>
      </trkpt>
      <trkpt lat="44.56379" lon="6.02453">
        <ele>1252</ele>
        <time>2022-10-13T11:46:50.000Z</time>
      </trkpt>
      <trkpt lat="44.56377" lon="6.02443">
        <ele>1251.6</ele>
        <time>2022-10-13T11:46:52.000Z</time>
      </trkpt>
      <trkpt lat="44.56376" lon="6.02433">
        <ele>1252.8</ele>
        <time>2022-10-13T11:46:54.000Z</time>
      </trkpt>
      <trkpt lat="44.56372" lon="6.02426">
        <ele>1253.7</ele>
        <time>2022-10-13T11:46:55.000Z</time>
      </trkpt>
      <trkpt lat="44.56369" lon="6.0242">
        <ele>1253.7</ele>
        <time>2022-10-13T11:46:56.000Z</time>
      </trkpt>
      <trkpt lat="44.56366" lon="6.02415">
        <ele>1253.9</ele>
        <time>2022-10-13T11:46:57.000Z</time>
      </trkpt>
      <trkpt lat="44.56363" lon="6.02409">
        <ele>1254.2</ele>
        <time>2022-10-13T11:46:58.000Z</time>
      </trkpt>
      <trkpt lat="44.5636" lon="6.02402">
        <ele>1252.6</ele>
        <time>2022-10-13T11:47:00.000Z</time>
      </trkpt>
      <trkpt lat="44.56356" lon="6.02398">
        <ele>1253.2</ele>
        <time>2022-10-13T11:47:01.000Z</time>
      </trkpt>
      <trkpt lat="44.56353" lon="6.02391">
        <ele>1257.2</ele>
        <time>2022-10-13T11:47:02.000Z</time>
      </trkpt>
      <trkpt lat="44.5635" lon="6.02386">
        <ele>1257</ele>
        <time>2022-10-13T11:47:03.000Z</time>
      </trkpt>
      <trkpt lat="44.56343" lon="6.02375">
        <ele>1257.2</ele>
        <time>2022-10-13T11:47:05.000Z</time>
      </trkpt>
      <trkpt lat="44.5634" lon="6.0237">
        <ele>1257.2</ele>
        <time>2022-10-13T11:47:06.000Z</time>
      </trkpt>
      <trkpt lat="44.56334" lon="6.02361">
        <ele>1257.4</ele>
        <time>2022-10-13T11:47:08.000Z</time>
      </trkpt>
      <trkpt lat="44.56331" lon="6.02355">
        <ele>1258.6</ele>
        <time>2022-10-13T11:47:09.000Z</time>
      </trkpt>
      <trkpt lat="44.56328" lon="6.0235">
        <ele>1259.2</ele>
        <time>2022-10-13T11:47:10.000Z</time>
      </trkpt>
      <trkpt lat="44.56321" lon="6.02336">
        <ele>1260.5</ele>
        <time>2022-10-13T11:47:13.000Z</time>
      </trkpt>
      <trkpt lat="44.56318" lon="6.02329">
        <ele>1260.8</ele>
        <time>2022-10-13T11:47:14.000Z</time>
      </trkpt>
      <trkpt lat="44.56315" lon="6.02322">
        <ele>1260.7</ele>
        <time>2022-10-13T11:47:15.000Z</time>
      </trkpt>
      <trkpt lat="44.56312" lon="6.02316">
        <ele>1261.5</ele>
        <time>2022-10-13T11:47:16.000Z</time>
      </trkpt>
      <trkpt lat="44.56309" lon="6.02311">
        <ele>1260.2</ele>
        <time>2022-10-13T11:47:17.000Z</time>
      </trkpt>
      <trkpt lat="44.56305" lon="6.02306">
        <ele>1261.1</ele>
        <time>2022-10-13T11:47:18.000Z</time>
      </trkpt>
      <trkpt lat="44.56302" lon="6.023">
        <ele>1261.6</ele>
        <time>2022-10-13T11:47:19.000Z</time>
      </trkpt>
      <trkpt lat="44.56299" lon="6.02295">
        <ele>1262.2</ele>
        <time>2022-10-13T11:47:20.000Z</time>
      </trkpt>
      <trkpt lat="44.56296" lon="6.0229">
        <ele>1262.3</ele>
        <time>2022-10-13T11:47:21.000Z</time>
      </trkpt>
      <trkpt lat="44.56293" lon="6.02285">
        <ele>1264.2</ele>
        <time>2022-10-13T11:47:22.000Z</time>
      </trkpt>
      <trkpt lat="44.5629" lon="6.0228">
        <ele>1264.4</ele>
        <time>2022-10-13T11:47:23.000Z</time>
      </trkpt>
      <trkpt lat="44.56286" lon="6.02275">
        <ele>1263.8</ele>
        <time>2022-10-13T11:47:24.000Z</time>
      </trkpt>
      <trkpt lat="44.56283" lon="6.0227">
        <ele>1263.4</ele>
        <time>2022-10-13T11:47:25.000Z</time>
      </trkpt>
      <trkpt lat="44.5628" lon="6.02265">
        <ele>1263.6</ele>
        <time>2022-10-13T11:47:26.000Z</time>
      </trkpt>
      <trkpt lat="44.56277" lon="6.02259">
        <ele>1262.9</ele>
        <time>2022-10-13T11:47:27.000Z</time>
      </trkpt>
      <trkpt lat="44.56272" lon="6.02248">
        <ele>1261.1</ele>
        <time>2022-10-13T11:47:29.000Z</time>
      </trkpt>
      <trkpt lat="44.5627" lon="6.0224">
        <ele>1261.1</ele>
        <time>2022-10-13T11:47:30.000Z</time>
      </trkpt>
      <trkpt lat="44.56266" lon="6.02233">
        <ele>1260.7</ele>
        <time>2022-10-13T11:47:31.000Z</time>
      </trkpt>
      <trkpt lat="44.56261" lon="6.02226">
        <ele>1260.5</ele>
        <time>2022-10-13T11:47:32.000Z</time>
      </trkpt>
      <trkpt lat="44.56255" lon="6.02219">
        <ele>1253.4</ele>
        <time>2022-10-13T11:47:33.000Z</time>
      </trkpt>
      <trkpt lat="44.56251" lon="6.02211">
        <ele>1253.4</ele>
        <time>2022-10-13T11:47:34.000Z</time>
      </trkpt>
      <trkpt lat="44.56246" lon="6.02204">
        <ele>1253.4</ele>
        <time>2022-10-13T11:47:35.000Z</time>
      </trkpt>
      <trkpt lat="44.56242" lon="6.02197">
        <ele>1254.1</ele>
        <time>2022-10-13T11:47:36.000Z</time>
      </trkpt>
      <trkpt lat="44.56238" lon="6.0219">
        <ele>1254.6</ele>
        <time>2022-10-13T11:47:37.000Z</time>
      </trkpt>
      <trkpt lat="44.56234" lon="6.02183">
        <ele>1259.1</ele>
        <time>2022-10-13T11:47:38.000Z</time>
      </trkpt>
      <trkpt lat="44.56229" lon="6.02177">
        <ele>1259.4</ele>
        <time>2022-10-13T11:47:39.000Z</time>
      </trkpt>
      <trkpt lat="44.56226" lon="6.02171">
        <ele>1258.9</ele>
        <time>2022-10-13T11:47:40.000Z</time>
      </trkpt>
      <trkpt lat="44.56223" lon="6.02166">
        <ele>1258.6</ele>
        <time>2022-10-13T11:47:41.000Z</time>
      </trkpt>
      <trkpt lat="44.5622" lon="6.02159">
        <ele>1258.7</ele>
        <time>2022-10-13T11:47:42.000Z</time>
      </trkpt>
      <trkpt lat="44.5622" lon="6.0215">
        <ele>1257.8</ele>
        <time>2022-10-13T11:47:43.000Z</time>
      </trkpt>
      <trkpt lat="44.5622" lon="6.02142">
        <ele>1257.7</ele>
        <time>2022-10-13T11:47:44.000Z</time>
      </trkpt>
      <trkpt lat="44.5622" lon="6.02135">
        <ele>1256.8</ele>
        <time>2022-10-13T11:47:45.000Z</time>
      </trkpt>
      <trkpt lat="44.5622" lon="6.02127">
        <ele>1256.4</ele>
        <time>2022-10-13T11:47:46.000Z</time>
      </trkpt>
      <trkpt lat="44.56219" lon="6.02121">
        <ele>1255.3</ele>
        <time>2022-10-13T11:47:47.000Z</time>
      </trkpt>
      <trkpt lat="44.56216" lon="6.02113">
        <ele>1233.8</ele>
        <time>2022-10-13T11:47:48.000Z</time>
      </trkpt>
      <trkpt lat="44.56214" lon="6.02106">
        <ele>1237</ele>
        <time>2022-10-13T11:47:49.000Z</time>
      </trkpt>
      <trkpt lat="44.56213" lon="6.02097">
        <ele>1239.2</ele>
        <time>2022-10-13T11:47:50.000Z</time>
      </trkpt>
      <trkpt lat="44.56211" lon="6.02088">
        <ele>1242.4</ele>
        <time>2022-10-13T11:47:51.000Z</time>
      </trkpt>
      <trkpt lat="44.56209" lon="6.0208">
        <ele>1244.2</ele>
        <time>2022-10-13T11:47:52.000Z</time>
      </trkpt>
      <trkpt lat="44.56207" lon="6.02071">
        <ele>1245.1</ele>
        <time>2022-10-13T11:47:53.000Z</time>
      </trkpt>
      <trkpt lat="44.56205" lon="6.02061">
        <ele>1245.4</ele>
        <time>2022-10-13T11:47:54.000Z</time>
      </trkpt>
      <trkpt lat="44.56202" lon="6.02051">
        <ele>1245.2</ele>
        <time>2022-10-13T11:47:55.000Z</time>
      </trkpt>
      <trkpt lat="44.562" lon="6.02041">
        <ele>1245.6</ele>
        <time>2022-10-13T11:47:56.000Z</time>
      </trkpt>
      <trkpt lat="44.56199" lon="6.02032">
        <ele>1243.9</ele>
        <time>2022-10-13T11:47:57.000Z</time>
      </trkpt>
      <trkpt lat="44.56197" lon="6.02022">
        <ele>1244.3</ele>
        <time>2022-10-13T11:47:58.000Z</time>
      </trkpt>
      <trkpt lat="44.56195" lon="6.02011">
        <ele>1241.9</ele>
        <time>2022-10-13T11:47:59.000Z</time>
      </trkpt>
      <trkpt lat="44.56192" lon="6.02001">
        <ele>1241.2</ele>
        <time>2022-10-13T11:48:00.000Z</time>
      </trkpt>
      <trkpt lat="44.56188" lon="6.01989">
        <ele>1240.2</ele>
        <time>2022-10-13T11:48:01.000Z</time>
      </trkpt>
      <trkpt lat="44.56184" lon="6.01978">
        <ele>1239.4</ele>
        <time>2022-10-13T11:48:02.000Z</time>
      </trkpt>
      <trkpt lat="44.5618" lon="6.01965">
        <ele>1238.3</ele>
        <time>2022-10-13T11:48:03.000Z</time>
      </trkpt>
      <trkpt lat="44.56176" lon="6.01955">
        <ele>1237.8</ele>
        <time>2022-10-13T11:48:04.000Z</time>
      </trkpt>
      <trkpt lat="44.56173" lon="6.01944">
        <ele>1237.2</ele>
        <time>2022-10-13T11:48:05.000Z</time>
      </trkpt>
      <trkpt lat="44.56168" lon="6.01935">
        <ele>1235.8</ele>
        <time>2022-10-13T11:48:06.000Z</time>
      </trkpt>
      <trkpt lat="44.56163" lon="6.01926">
        <ele>1234.4</ele>
        <time>2022-10-13T11:48:07.000Z</time>
      </trkpt>
      <trkpt lat="44.56158" lon="6.01915">
        <ele>1232.8</ele>
        <time>2022-10-13T11:48:08.000Z</time>
      </trkpt>
      <trkpt lat="44.56154" lon="6.01905">
        <ele>1231.5</ele>
        <time>2022-10-13T11:48:09.000Z</time>
      </trkpt>
      <trkpt lat="44.56151" lon="6.01895">
        <ele>1230.3</ele>
        <time>2022-10-13T11:48:10.000Z</time>
      </trkpt>
      <trkpt lat="44.56147" lon="6.01885">
        <ele>1223.1</ele>
        <time>2022-10-13T11:48:11.000Z</time>
      </trkpt>
      <trkpt lat="44.56143" lon="6.01875">
        <ele>1223.7</ele>
        <time>2022-10-13T11:48:12.000Z</time>
      </trkpt>
      <trkpt lat="44.56138" lon="6.01867">
        <ele>1223.3</ele>
        <time>2022-10-13T11:48:13.000Z</time>
      </trkpt>
      <trkpt lat="44.56134" lon="6.0186">
        <ele>1223.1</ele>
        <time>2022-10-13T11:48:14.000Z</time>
      </trkpt>
      <trkpt lat="44.56131" lon="6.01853">
        <ele>1223.2</ele>
        <time>2022-10-13T11:48:15.000Z</time>
      </trkpt>
      <trkpt lat="44.56128" lon="6.01845">
        <ele>1222.9</ele>
        <time>2022-10-13T11:48:16.000Z</time>
      </trkpt>
      <trkpt lat="44.56126" lon="6.01836">
        <ele>1223.8</ele>
        <time>2022-10-13T11:48:17.000Z</time>
      </trkpt>
      <trkpt lat="44.56124" lon="6.01826">
        <ele>1223.6</ele>
        <time>2022-10-13T11:48:18.000Z</time>
      </trkpt>
      <trkpt lat="44.56122" lon="6.01815">
        <ele>1222.7</ele>
        <time>2022-10-13T11:48:19.000Z</time>
      </trkpt>
      <trkpt lat="44.56119" lon="6.01805">
        <ele>1222.2</ele>
        <time>2022-10-13T11:48:20.000Z</time>
      </trkpt>
      <trkpt lat="44.56117" lon="6.01796">
        <ele>1221.5</ele>
        <time>2022-10-13T11:48:21.000Z</time>
      </trkpt>
      <trkpt lat="44.56115" lon="6.01788">
        <ele>1221.7</ele>
        <time>2022-10-13T11:48:22.000Z</time>
      </trkpt>
      <trkpt lat="44.56113" lon="6.01782">
        <ele>1221.6</ele>
        <time>2022-10-13T11:48:23.000Z</time>
      </trkpt>
      <trkpt lat="44.5611" lon="6.01775">
        <ele>1219.9</ele>
        <time>2022-10-13T11:48:26.000Z</time>
      </trkpt>
      <trkpt lat="44.56107" lon="6.01767">
        <ele>1219.4</ele>
        <time>2022-10-13T11:48:28.000Z</time>
      </trkpt>
      <trkpt lat="44.56104" lon="6.01758">
        <ele>1219</ele>
        <time>2022-10-13T11:48:29.000Z</time>
      </trkpt>
      <trkpt lat="44.56102" lon="6.0175">
        <ele>1215.1</ele>
        <time>2022-10-13T11:48:30.000Z</time>
      </trkpt>
      <trkpt lat="44.56099" lon="6.01741">
        <ele>1215</ele>
        <time>2022-10-13T11:48:31.000Z</time>
      </trkpt>
      <trkpt lat="44.56095" lon="6.01732">
        <ele>1214.4</ele>
        <time>2022-10-13T11:48:32.000Z</time>
      </trkpt>
      <trkpt lat="44.56091" lon="6.01722">
        <ele>1214.2</ele>
        <time>2022-10-13T11:48:33.000Z</time>
      </trkpt>
      <trkpt lat="44.56087" lon="6.01711">
        <ele>1214.3</ele>
        <time>2022-10-13T11:48:34.000Z</time>
      </trkpt>
      <trkpt lat="44.56085" lon="6.01699">
        <ele>1214.9</ele>
        <time>2022-10-13T11:48:35.000Z</time>
      </trkpt>
      <trkpt lat="44.56083" lon="6.01688">
        <ele>1213.7</ele>
        <time>2022-10-13T11:48:36.000Z</time>
      </trkpt>
      <trkpt lat="44.56082" lon="6.01676">
        <ele>1212.6</ele>
        <time>2022-10-13T11:48:37.000Z</time>
      </trkpt>
      <trkpt lat="44.5608" lon="6.01663">
        <ele>1211.1</ele>
        <time>2022-10-13T11:48:38.000Z</time>
      </trkpt>
      <trkpt lat="44.56079" lon="6.01652">
        <ele>1210</ele>
        <time>2022-10-13T11:48:39.000Z</time>
      </trkpt>
      <trkpt lat="44.56078" lon="6.0164">
        <ele>1209.6</ele>
        <time>2022-10-13T11:48:40.000Z</time>
      </trkpt>
      <trkpt lat="44.56077" lon="6.01629">
        <ele>1209.8</ele>
        <time>2022-10-13T11:48:41.000Z</time>
      </trkpt>
      <trkpt lat="44.56077" lon="6.01618">
        <ele>1207.6</ele>
        <time>2022-10-13T11:48:42.000Z</time>
      </trkpt>
      <trkpt lat="44.56077" lon="6.01608">
        <ele>1207.1</ele>
        <time>2022-10-13T11:48:43.000Z</time>
      </trkpt>
      <trkpt lat="44.56076" lon="6.01598">
        <ele>1206.5</ele>
        <time>2022-10-13T11:48:44.000Z</time>
      </trkpt>
      <trkpt lat="44.56075" lon="6.01587">
        <ele>1206.1</ele>
        <time>2022-10-13T11:48:45.000Z</time>
      </trkpt>
      <trkpt lat="44.56074" lon="6.01577">
        <ele>1206.3</ele>
        <time>2022-10-13T11:48:46.000Z</time>
      </trkpt>
      <trkpt lat="44.56074" lon="6.01567">
        <ele>1205.6</ele>
        <time>2022-10-13T11:48:47.000Z</time>
      </trkpt>
      <trkpt lat="44.56074" lon="6.01558">
        <ele>1205.4</ele>
        <time>2022-10-13T11:48:48.000Z</time>
      </trkpt>
      <trkpt lat="44.56074" lon="6.0155">
        <ele>1204.6</ele>
        <time>2022-10-13T11:48:49.000Z</time>
      </trkpt>
      <trkpt lat="44.56073" lon="6.01542">
        <ele>1205.2</ele>
        <time>2022-10-13T11:48:50.000Z</time>
      </trkpt>
      <trkpt lat="44.56073" lon="6.01534">
        <ele>1206.1</ele>
        <time>2022-10-13T11:48:51.000Z</time>
      </trkpt>
      <trkpt lat="44.56072" lon="6.01527">
        <ele>1206.1</ele>
        <time>2022-10-13T11:48:52.000Z</time>
      </trkpt>
      <trkpt lat="44.56072" lon="6.01519">
        <ele>1206.7</ele>
        <time>2022-10-13T11:48:53.000Z</time>
      </trkpt>
      <trkpt lat="44.56072" lon="6.0151">
        <ele>1207.8</ele>
        <time>2022-10-13T11:48:54.000Z</time>
      </trkpt>
      <trkpt lat="44.56073" lon="6.01503">
        <ele>1207.4</ele>
        <time>2022-10-13T11:48:55.000Z</time>
      </trkpt>
      <trkpt lat="44.56072" lon="6.01496">
        <ele>1207.9</ele>
        <time>2022-10-13T11:48:56.000Z</time>
      </trkpt>
      <trkpt lat="44.56071" lon="6.0149">
        <ele>1208</ele>
        <time>2022-10-13T11:48:57.000Z</time>
      </trkpt>
      <trkpt lat="44.56069" lon="6.01481">
        <ele>1207.3</ele>
        <time>2022-10-13T11:48:58.000Z</time>
      </trkpt>
      <trkpt lat="44.56066" lon="6.01474">
        <ele>1208.9</ele>
        <time>2022-10-13T11:48:59.000Z</time>
      </trkpt>
      <trkpt lat="44.56063" lon="6.01467">
        <ele>1205.9</ele>
        <time>2022-10-13T11:49:00.000Z</time>
      </trkpt>
      <trkpt lat="44.56059" lon="6.01459">
        <ele>1206.6</ele>
        <time>2022-10-13T11:49:01.000Z</time>
      </trkpt>
      <trkpt lat="44.56056" lon="6.01451">
        <ele>1205.8</ele>
        <time>2022-10-13T11:49:02.000Z</time>
      </trkpt>
      <trkpt lat="44.56053" lon="6.01444">
        <ele>1205.5</ele>
        <time>2022-10-13T11:49:03.000Z</time>
      </trkpt>
      <trkpt lat="44.56052" lon="6.01436">
        <ele>1204.4</ele>
        <time>2022-10-13T11:49:04.000Z</time>
      </trkpt>
      <trkpt lat="44.56052" lon="6.01427">
        <ele>1204.6</ele>
        <time>2022-10-13T11:49:05.000Z</time>
      </trkpt>
      <trkpt lat="44.56052" lon="6.01418">
        <ele>1206.2</ele>
        <time>2022-10-13T11:49:06.000Z</time>
      </trkpt>
      <trkpt lat="44.56054" lon="6.01411">
        <ele>1204.4</ele>
        <time>2022-10-13T11:49:07.000Z</time>
      </trkpt>
      <trkpt lat="44.56055" lon="6.01403">
        <ele>1204</ele>
        <time>2022-10-13T11:49:08.000Z</time>
      </trkpt>
      <trkpt lat="44.56055" lon="6.01396">
        <ele>1203</ele>
        <time>2022-10-13T11:49:09.000Z</time>
      </trkpt>
      <trkpt lat="44.56055" lon="6.0139">
        <ele>1202.5</ele>
        <time>2022-10-13T11:49:10.000Z</time>
      </trkpt>
      <trkpt lat="44.56052" lon="6.01376">
        <ele>1201.9</ele>
        <time>2022-10-13T11:49:12.000Z</time>
      </trkpt>
      <trkpt lat="44.56051" lon="6.01368">
        <ele>1202.7</ele>
        <time>2022-10-13T11:49:13.000Z</time>
      </trkpt>
      <trkpt lat="44.56051" lon="6.01359">
        <ele>1203.6</ele>
        <time>2022-10-13T11:49:14.000Z</time>
      </trkpt>
      <trkpt lat="44.56053" lon="6.01352">
        <ele>1203.4</ele>
        <time>2022-10-13T11:49:15.000Z</time>
      </trkpt>
      <trkpt lat="44.56054" lon="6.01344">
        <ele>1206.2</ele>
        <time>2022-10-13T11:49:16.000Z</time>
      </trkpt>
      <trkpt lat="44.56054" lon="6.01338">
        <ele>1207.1</ele>
        <time>2022-10-13T11:49:17.000Z</time>
      </trkpt>
      <trkpt lat="44.56055" lon="6.01327">
        <ele>1208.4</ele>
        <time>2022-10-13T11:49:19.000Z</time>
      </trkpt>
      <trkpt lat="44.56055" lon="6.0132">
        <ele>1209.2</ele>
        <time>2022-10-13T11:49:20.000Z</time>
      </trkpt>
      <trkpt lat="44.56056" lon="6.01314">
        <ele>1207.4</ele>
        <time>2022-10-13T11:49:21.000Z</time>
      </trkpt>
      <trkpt lat="44.56056" lon="6.01302">
        <ele>1209.6</ele>
        <time>2022-10-13T11:49:23.000Z</time>
      </trkpt>
      <trkpt lat="44.56057" lon="6.01291">
        <ele>1208.4</ele>
        <time>2022-10-13T11:49:25.000Z</time>
      </trkpt>
      <trkpt lat="44.56058" lon="6.0128">
        <ele>1209.3</ele>
        <time>2022-10-13T11:49:27.000Z</time>
      </trkpt>
      <trkpt lat="44.56059" lon="6.0127">
        <ele>1213.1</ele>
        <time>2022-10-13T11:49:29.000Z</time>
      </trkpt>
      <trkpt lat="44.56059" lon="6.01264">
        <ele>1213.1</ele>
        <time>2022-10-13T11:49:29.343Z</time>
      </trkpt>
      <trkpt lat="44.56059" lon="6.01255">
        <ele>1211</ele>
        <time>2022-10-13T11:49:30.730Z</time>
      </trkpt>
      <trkpt lat="44.56058" lon="6.01247">
        <ele>1212.2</ele>
        <time>2022-10-13T11:49:32.188Z</time>
      </trkpt>
      <trkpt lat="44.56057" lon="6.0124">
        <ele>1211.3</ele>
        <time>2022-10-13T11:49:34.000Z</time>
      </trkpt>
      <trkpt lat="44.56057" lon="6.01233">
        <ele>1211.2</ele>
        <time>2022-10-13T11:49:35.000Z</time>
      </trkpt>
      <trkpt lat="44.56057" lon="6.01226">
        <ele>1211.6</ele>
        <time>2022-10-13T11:49:36.000Z</time>
      </trkpt>
      <trkpt lat="44.56055" lon="6.01218">
        <ele>1212.4</ele>
        <time>2022-10-13T11:49:37.192Z</time>
      </trkpt>
      <trkpt lat="44.56055" lon="6.01211">
        <ele>1214.1</ele>
        <time>2022-10-13T11:49:39.000Z</time>
      </trkpt>
      <trkpt lat="44.56055" lon="6.01201">
        <ele>1214.1</ele>
        <time>2022-10-13T11:49:39.936Z</time>
      </trkpt>
      <trkpt lat="44.56056" lon="6.0119">
        <ele>1215.2</ele>
        <time>2022-10-13T11:49:42.000Z</time>
      </trkpt>
      <trkpt lat="44.56057" lon="6.01181">
        <ele>1216.7</ele>
        <time>2022-10-13T11:49:44.000Z</time>
      </trkpt>
      <trkpt lat="44.56057" lon="6.01169">
        <ele>1216.1</ele>
        <time>2022-10-13T11:49:45.764Z</time>
      </trkpt>
      <trkpt lat="44.56057" lon="6.01161">
        <ele>1217.2</ele>
        <time>2022-10-13T11:49:48.000Z</time>
      </trkpt>
      <trkpt lat="44.56057" lon="6.01151">
        <ele>1218.8</ele>
        <time>2022-10-13T11:49:49.540Z</time>
      </trkpt>
      <trkpt lat="44.56055" lon="6.01139">
        <ele>1218.9</ele>
        <time>2022-10-13T11:49:53.000Z</time>
      </trkpt>
      <trkpt lat="44.56054" lon="6.0113">
        <ele>1220.3</ele>
        <time>2022-10-13T11:49:55.000Z</time>
      </trkpt>
      <trkpt lat="44.56053" lon="6.01119">
        <ele>1220.5</ele>
        <time>2022-10-13T11:49:57.000Z</time>
      </trkpt>
      <trkpt lat="44.56052" lon="6.01108">
        <ele>1220.9</ele>
        <time>2022-10-13T11:49:58.907Z</time>
      </trkpt>
      <trkpt lat="44.56051" lon="6.01101">
        <ele>1214.3</ele>
        <time>2022-10-13T11:50:01.000Z</time>
      </trkpt>
      <trkpt lat="44.5605" lon="6.01092">
        <ele>1218.4</ele>
        <time>2022-10-13T11:50:03.000Z</time>
      </trkpt>
      <trkpt lat="44.56049" lon="6.01078">
        <ele>1221.2</ele>
        <time>2022-10-13T11:50:05.258Z</time>
      </trkpt>
      <trkpt lat="44.56049" lon="6.01069">
        <ele>1222</ele>
        <time>2022-10-13T11:50:08.000Z</time>
      </trkpt>
      <trkpt lat="44.56048" lon="6.0106">
        <ele>1223.4</ele>
        <time>2022-10-13T11:50:10.000Z</time>
      </trkpt>
      <trkpt lat="44.56049" lon="6.01049">
        <ele>1224.9</ele>
        <time>2022-10-13T11:50:11.899Z</time>
      </trkpt>
      <trkpt lat="44.56048" lon="6.01038">
        <ele>1226</ele>
        <time>2022-10-13T11:50:15.000Z</time>
      </trkpt>
      <trkpt lat="44.56049" lon="6.01031">
        <ele>1226.9</ele>
        <time>2022-10-13T11:50:17.000Z</time>
      </trkpt>
      <trkpt lat="44.56051" lon="6.01023">
        <ele>1227.7</ele>
        <time>2022-10-13T11:50:19.000Z</time>
      </trkpt>
      <trkpt lat="44.56053" lon="6.01015">
        <ele>1228.1</ele>
        <time>2022-10-13T11:50:21.000Z</time>
      </trkpt>
      <trkpt lat="44.56056" lon="6.01004">
        <ele>1229.2</ele>
        <time>2022-10-13T11:50:24.000Z</time>
      </trkpt>
      <trkpt lat="44.56059" lon="6.00997">
        <ele>1229.8</ele>
        <time>2022-10-13T11:50:26.000Z</time>
      </trkpt>
      <trkpt lat="44.56063" lon="6.0099">
        <ele>1229.6</ele>
        <time>2022-10-13T11:50:27.651Z</time>
      </trkpt>
      <trkpt lat="44.56066" lon="6.00982">
        <ele>1229.7</ele>
        <time>2022-10-13T11:50:30.060Z</time>
      </trkpt>
      <trkpt lat="44.56068" lon="6.00975">
        <ele>1231.3</ele>
        <time>2022-10-13T11:50:33.000Z</time>
      </trkpt>
      <trkpt lat="44.56071" lon="6.00968">
        <ele>1232.2</ele>
        <time>2022-10-13T11:50:35.000Z</time>
      </trkpt>
      <trkpt lat="44.56075" lon="6.00964">
        <ele>1231.5</ele>
        <time>2022-10-13T11:50:36.277Z</time>
      </trkpt>
      <trkpt lat="44.56079" lon="6.00957">
        <ele>1232.6</ele>
        <time>2022-10-13T11:50:38.186Z</time>
      </trkpt>
      <trkpt lat="44.56082" lon="6.00951">
        <ele>1233</ele>
        <time>2022-10-13T11:50:40.306Z</time>
      </trkpt>
      <trkpt lat="44.56086" lon="6.00945">
        <ele>1235.1</ele>
        <time>2022-10-13T11:50:43.000Z</time>
      </trkpt>
      <trkpt lat="44.5609" lon="6.0094">
        <ele>1235.4</ele>
        <time>2022-10-13T11:50:45.000Z</time>
      </trkpt>
      <trkpt lat="44.56096" lon="6.00939">
        <ele>1235.4</ele>
        <time>2022-10-13T11:50:47.000Z</time>
      </trkpt>
      <trkpt lat="44.56102" lon="6.00937">
        <ele>1235.1</ele>
        <time>2022-10-13T11:50:48.164Z</time>
      </trkpt>
      <trkpt lat="44.56108" lon="6.00935">
        <ele>1235.2</ele>
        <time>2022-10-13T11:50:51.000Z</time>
      </trkpt>
      <trkpt lat="44.56113" lon="6.00931">
        <ele>1235.3</ele>
        <time>2022-10-13T11:50:53.000Z</time>
      </trkpt>
      <trkpt lat="44.56119" lon="6.00929">
        <ele>1236.3</ele>
        <time>2022-10-13T11:50:55.000Z</time>
      </trkpt>
      <trkpt lat="44.56124" lon="6.00925">
        <ele>1237.5</ele>
        <time>2022-10-13T11:50:57.000Z</time>
      </trkpt>
      <trkpt lat="44.56127" lon="6.00918">
        <ele>1238.2</ele>
        <time>2022-10-13T11:50:59.000Z</time>
      </trkpt>
      <trkpt lat="44.56129" lon="6.00912">
        <ele>1240.2</ele>
        <time>2022-10-13T11:51:01.000Z</time>
      </trkpt>
      <trkpt lat="44.56131" lon="6.00902">
        <ele>1241.3</ele>
        <time>2022-10-13T11:51:03.000Z</time>
      </trkpt>
      <trkpt lat="44.56134" lon="6.00894">
        <ele>1240</ele>
        <time>2022-10-13T11:51:05.000Z</time>
      </trkpt>
      <trkpt lat="44.56141" lon="6.00885">
        <ele>1234.6</ele>
        <time>2022-10-13T11:51:09.000Z</time>
      </trkpt>
      <trkpt lat="44.56146" lon="6.0088">
        <ele>1236.1</ele>
        <time>2022-10-13T11:51:10.725Z</time>
      </trkpt>
      <trkpt lat="44.5615" lon="6.00876">
        <ele>1237.2</ele>
        <time>2022-10-13T11:51:12.062Z</time>
      </trkpt>
      <trkpt lat="44.56156" lon="6.00874">
        <ele>1240.8</ele>
        <time>2022-10-13T11:51:15.000Z</time>
      </trkpt>
      <trkpt lat="44.56165" lon="6.00871">
        <ele>1242.9</ele>
        <time>2022-10-13T11:51:18.000Z</time>
      </trkpt>
      <trkpt lat="44.56169" lon="6.0087">
        <ele>1242.1</ele>
        <time>2022-10-13T11:51:19.184Z</time>
      </trkpt>
      <trkpt lat="44.56175" lon="6.00869">
        <ele>1243.5</ele>
        <time>2022-10-13T11:51:21.347Z</time>
      </trkpt>
      <trkpt lat="44.5618" lon="6.00867">
        <ele>1244.9</ele>
        <time>2022-10-13T11:51:24.000Z</time>
      </trkpt>
      <trkpt lat="44.56186" lon="6.00862">
        <ele>1245.5</ele>
        <time>2022-10-13T11:51:27.000Z</time>
      </trkpt>
      <trkpt lat="44.56191" lon="6.00859">
        <ele>1246.7</ele>
        <time>2022-10-13T11:51:29.000Z</time>
      </trkpt>
      <trkpt lat="44.56197" lon="6.00855">
        <ele>1246.2</ele>
        <time>2022-10-13T11:51:30.739Z</time>
      </trkpt>
      <trkpt lat="44.56202" lon="6.00851">
        <ele>1246.6</ele>
        <time>2022-10-13T11:51:32.982Z</time>
      </trkpt>
      <trkpt lat="44.56207" lon="6.00845">
        <ele>1245.1</ele>
        <time>2022-10-13T11:51:35.020Z</time>
      </trkpt>
      <trkpt lat="44.56214" lon="6.00839">
        <ele>1246.3</ele>
        <time>2022-10-13T11:51:37.284Z</time>
      </trkpt>
      <trkpt lat="44.56218" lon="6.00836">
        <ele>1248.3</ele>
        <time>2022-10-13T11:51:40.000Z</time>
      </trkpt>
      <trkpt lat="44.56222" lon="6.00832">
        <ele>1249.5</ele>
        <time>2022-10-13T11:51:42.000Z</time>
      </trkpt>
      <trkpt lat="44.56226" lon="6.00827">
        <ele>1251.3</ele>
        <time>2022-10-13T11:51:44.000Z</time>
      </trkpt>
      <trkpt lat="44.5623" lon="6.00821">
        <ele>1247</ele>
        <time>2022-10-13T11:51:47.000Z</time>
      </trkpt>
      <trkpt lat="44.56235" lon="6.00814">
        <ele>1249.3</ele>
        <time>2022-10-13T11:51:49.000Z</time>
      </trkpt>
      <trkpt lat="44.56239" lon="6.00806">
        <ele>1252.8</ele>
        <time>2022-10-13T11:51:51.000Z</time>
      </trkpt>
      <trkpt lat="44.56245" lon="6.00802">
        <ele>1254.4</ele>
        <time>2022-10-13T11:51:53.241Z</time>
      </trkpt>
      <trkpt lat="44.5625" lon="6.00796">
        <ele>1256.6</ele>
        <time>2022-10-13T11:51:55.843Z</time>
      </trkpt>
      <trkpt lat="44.56255" lon="6.00791">
        <ele>1258.7</ele>
        <time>2022-10-13T11:51:59.000Z</time>
      </trkpt>
      <trkpt lat="44.5626" lon="6.00786">
        <ele>1259.6</ele>
        <time>2022-10-13T11:52:01.000Z</time>
      </trkpt>
      <trkpt lat="44.56265" lon="6.00782">
        <ele>1257.4</ele>
        <time>2022-10-13T11:52:03.000Z</time>
      </trkpt>
      <trkpt lat="44.56273" lon="6.00781">
        <ele>1259</ele>
        <time>2022-10-13T11:52:04.786Z</time>
      </trkpt>
      <trkpt lat="44.56278" lon="6.00779">
        <ele>1250.2</ele>
        <time>2022-10-13T11:52:06.303Z</time>
      </trkpt>
      <trkpt lat="44.56284" lon="6.00778">
        <ele>1255</ele>
        <time>2022-10-13T11:52:08.020Z</time>
      </trkpt>
      <trkpt lat="44.56291" lon="6.00775">
        <ele>1258.2</ele>
        <time>2022-10-13T11:52:11.000Z</time>
      </trkpt>
      <trkpt lat="44.56296" lon="6.00773">
        <ele>1260.2</ele>
        <time>2022-10-13T11:52:13.000Z</time>
      </trkpt>
      <trkpt lat="44.563" lon="6.00773">
        <ele>1258.7</ele>
        <time>2022-10-13T11:52:13.999Z</time>
      </trkpt>
      <trkpt lat="44.56305" lon="6.00774">
        <ele>1259.2</ele>
        <time>2022-10-13T11:52:16.159Z</time>
      </trkpt>
      <trkpt lat="44.56311" lon="6.00773">
        <ele>1260.4</ele>
        <time>2022-10-13T11:52:18.696Z</time>
      </trkpt>
      <trkpt lat="44.56317" lon="6.00776">
        <ele>1260.3</ele>
        <time>2022-10-13T11:52:21.859Z</time>
      </trkpt>
      <trkpt lat="44.56323" lon="6.00777">
        <ele>1263.3</ele>
        <time>2022-10-13T11:52:25.264Z</time>
      </trkpt>
      <trkpt lat="44.56328" lon="6.00776">
        <ele>1263.3</ele>
        <time>2022-10-13T11:52:29.000Z</time>
      </trkpt>
      <trkpt lat="44.56335" lon="6.00779">
        <ele>1264.4</ele>
        <time>2022-10-13T11:52:32.000Z</time>
      </trkpt>
      <trkpt lat="44.56341" lon="6.00777">
        <ele>1256.3</ele>
        <time>2022-10-13T11:52:35.000Z</time>
      </trkpt>
      <trkpt lat="44.56347" lon="6.00776">
        <ele>1262.7</ele>
        <time>2022-10-13T11:52:38.000Z</time>
      </trkpt>
      <trkpt lat="44.56353" lon="6.00775">
        <ele>1264.3</ele>
        <time>2022-10-13T11:52:40.256Z</time>
      </trkpt>
      <trkpt lat="44.56359" lon="6.00772">
        <ele>1267.3</ele>
        <time>2022-10-13T11:52:44.000Z</time>
      </trkpt>
      <trkpt lat="44.56364" lon="6.00768">
        <ele>1269.1</ele>
        <time>2022-10-13T11:52:47.261Z</time>
      </trkpt>
      <trkpt lat="44.5637" lon="6.00764">
        <ele>1269</ele>
        <time>2022-10-13T11:52:51.000Z</time>
      </trkpt>
      <trkpt lat="44.56376" lon="6.00761">
        <ele>1269.9</ele>
        <time>2022-10-13T11:52:54.000Z</time>
      </trkpt>
      <trkpt lat="44.56381" lon="6.00759">
        <ele>1271.6</ele>
        <time>2022-10-13T11:52:55.693Z</time>
      </trkpt>
      <trkpt lat="44.56386" lon="6.00759">
        <ele>1270.5</ele>
        <time>2022-10-13T11:52:59.000Z</time>
      </trkpt>
      <trkpt lat="44.56392" lon="6.00754">
        <ele>1271.2</ele>
        <time>2022-10-13T11:53:03.000Z</time>
      </trkpt>
      <trkpt lat="44.56395" lon="6.00749">
        <ele>1271.5</ele>
        <time>2022-10-13T11:53:04.808Z</time>
      </trkpt>
      <trkpt lat="44.56399" lon="6.00746">
        <ele>1273.8</ele>
        <time>2022-10-13T11:53:08.000Z</time>
      </trkpt>
      <trkpt lat="44.56405" lon="6.00745">
        <ele>1273.8</ele>
        <time>2022-10-13T11:53:11.000Z</time>
      </trkpt>
      <trkpt lat="44.5641" lon="6.00746">
        <ele>1275.3</ele>
        <time>2022-10-13T11:53:14.000Z</time>
      </trkpt>
      <trkpt lat="44.56416" lon="6.00745">
        <ele>1275</ele>
        <time>2022-10-13T11:53:16.867Z</time>
      </trkpt>
      <trkpt lat="44.56419" lon="6.00741">
        <ele>1275.4</ele>
        <time>2022-10-13T11:53:19.881Z</time>
      </trkpt>
      <trkpt lat="44.56422" lon="6.00736">
        <ele>1275.8</ele>
        <time>2022-10-13T11:53:22.240Z</time>
      </trkpt>
      <trkpt lat="44.56427" lon="6.00731">
        <ele>1277.6</ele>
        <time>2022-10-13T11:53:26.000Z</time>
      </trkpt>
      <trkpt lat="44.56432" lon="6.00726">
        <ele>1278.5</ele>
        <time>2022-10-13T11:53:28.300Z</time>
      </trkpt>
      <trkpt lat="44.56436" lon="6.00722">
        <ele>1280.2</ele>
        <time>2022-10-13T11:53:31.046Z</time>
      </trkpt>
      <trkpt lat="44.56442" lon="6.00717">
        <ele>1282.4</ele>
        <time>2022-10-13T11:53:34.278Z</time>
      </trkpt>
      <trkpt lat="44.56447" lon="6.00713">
        <ele>1281.5</ele>
        <time>2022-10-13T11:53:38.000Z</time>
      </trkpt>
      <trkpt lat="44.56451" lon="6.0071">
        <ele>1282</ele>
        <time>2022-10-13T11:53:40.338Z</time>
      </trkpt>
      <trkpt lat="44.56456" lon="6.00706">
        <ele>1282.9</ele>
        <time>2022-10-13T11:53:44.000Z</time>
      </trkpt>
      <trkpt lat="44.5646" lon="6.007">
        <ele>1284.9</ele>
        <time>2022-10-13T11:53:47.000Z</time>
      </trkpt>
      <trkpt lat="44.56464" lon="6.00696">
        <ele>1286.8</ele>
        <time>2022-10-13T11:53:49.000Z</time>
      </trkpt>
      <trkpt lat="44.56469" lon="6.00693">
        <ele>1287.6</ele>
        <time>2022-10-13T11:53:52.000Z</time>
      </trkpt>
      <trkpt lat="44.56474" lon="6.00688">
        <ele>1288.7</ele>
        <time>2022-10-13T11:53:55.000Z</time>
      </trkpt>
      <trkpt lat="44.56478" lon="6.00682">
        <ele>1288.8</ele>
        <time>2022-10-13T11:53:56.858Z</time>
      </trkpt>
      <trkpt lat="44.56482" lon="6.00678">
        <ele>1290.5</ele>
        <time>2022-10-13T11:53:59.921Z</time>
      </trkpt>
      <trkpt lat="44.56487" lon="6.00676">
        <ele>1293.7</ele>
        <time>2022-10-13T11:54:03.017Z</time>
      </trkpt>
      <trkpt lat="44.56494" lon="6.00679">
        <ele>1291.4</ele>
        <time>2022-10-13T11:54:06.750Z</time>
      </trkpt>
      <trkpt lat="44.56499" lon="6.00679">
        <ele>1292.6</ele>
        <time>2022-10-13T11:54:10.000Z</time>
      </trkpt>
      <trkpt lat="44.56506" lon="6.00682">
        <ele>1292.6</ele>
        <time>2022-10-13T11:54:13.000Z</time>
      </trkpt>
      <trkpt lat="44.5651" lon="6.00683">
        <ele>1293.2</ele>
        <time>2022-10-13T11:54:14.322Z</time>
      </trkpt>
      <trkpt lat="44.56515" lon="6.00683">
        <ele>1295.5</ele>
        <time>2022-10-13T11:54:18.000Z</time>
      </trkpt>
      <trkpt lat="44.56521" lon="6.00683">
        <ele>1295.2</ele>
        <time>2022-10-13T11:54:21.000Z</time>
      </trkpt>
      <trkpt lat="44.56527" lon="6.00684">
        <ele>1296.5</ele>
        <time>2022-10-13T11:54:24.000Z</time>
      </trkpt>
      <trkpt lat="44.56533" lon="6.00684">
        <ele>1298.8</ele>
        <time>2022-10-13T11:54:27.000Z</time>
      </trkpt>
      <trkpt lat="44.56538" lon="6.00682">
        <ele>1300</ele>
        <time>2022-10-13T11:54:30.000Z</time>
      </trkpt>
      <trkpt lat="44.56544" lon="6.00682">
        <ele>1301.2</ele>
        <time>2022-10-13T11:54:32.299Z</time>
      </trkpt>
      <trkpt lat="44.56549" lon="6.00685">
        <ele>1303.2</ele>
        <time>2022-10-13T11:54:35.310Z</time>
      </trkpt>
      <trkpt lat="44.56555" lon="6.00683">
        <ele>1292.4</ele>
        <time>2022-10-13T11:54:39.000Z</time>
      </trkpt>
      <trkpt lat="44.56561" lon="6.0068">
        <ele>1302.3</ele>
        <time>2022-10-13T11:54:42.000Z</time>
      </trkpt>
      <trkpt lat="44.56567" lon="6.00675">
        <ele>1304</ele>
        <time>2022-10-13T11:54:45.000Z</time>
      </trkpt>
      <trkpt lat="44.56572" lon="6.00673">
        <ele>1304.8</ele>
        <time>2022-10-13T11:54:47.323Z</time>
      </trkpt>
      <trkpt lat="44.56578" lon="6.00669">
        <ele>1305.8</ele>
        <time>2022-10-13T11:54:50.026Z</time>
      </trkpt>
      <trkpt lat="44.56583" lon="6.00666">
        <ele>1305.5</ele>
        <time>2022-10-13T11:54:52.187Z</time>
      </trkpt>
      <trkpt lat="44.56591" lon="6.00663">
        <ele>1306.8</ele>
        <time>2022-10-13T11:54:55.223Z</time>
      </trkpt>
      <trkpt lat="44.56596" lon="6.00659">
        <ele>1307.8</ele>
        <time>2022-10-13T11:54:58.000Z</time>
      </trkpt>
      <trkpt lat="44.566" lon="6.00655">
        <ele>1308.3</ele>
        <time>2022-10-13T11:54:59.038Z</time>
      </trkpt>
      <trkpt lat="44.56604" lon="6.00651">
        <ele>1290.5</ele>
        <time>2022-10-13T11:55:02.000Z</time>
      </trkpt>
      <trkpt lat="44.5661" lon="6.00648">
        <ele>1303.8</ele>
        <time>2022-10-13T11:55:05.000Z</time>
      </trkpt>
      <trkpt lat="44.56616" lon="6.00646">
        <ele>1307.6</ele>
        <time>2022-10-13T11:55:07.260Z</time>
      </trkpt>
      <trkpt lat="44.56622" lon="6.00643">
        <ele>1304</ele>
        <time>2022-10-13T11:55:11.000Z</time>
      </trkpt>
      <trkpt lat="44.56627" lon="6.0064">
        <ele>1309.4</ele>
        <time>2022-10-13T11:55:13.258Z</time>
      </trkpt>
      <trkpt lat="44.56633" lon="6.00637">
        <ele>1313.5</ele>
        <time>2022-10-13T11:55:17.000Z</time>
      </trkpt>
      <trkpt lat="44.56638" lon="6.00631">
        <ele>1314.8</ele>
        <time>2022-10-13T11:55:20.000Z</time>
      </trkpt>
      <trkpt lat="44.56643" lon="6.00628">
        <ele>1317</ele>
        <time>2022-10-13T11:55:23.000Z</time>
      </trkpt>
      <trkpt lat="44.56649" lon="6.00624">
        <ele>1318.9</ele>
        <time>2022-10-13T11:55:26.000Z</time>
      </trkpt>
      <trkpt lat="44.56654" lon="6.00619">
        <ele>1320</ele>
        <time>2022-10-13T11:55:29.000Z</time>
      </trkpt>
      <trkpt lat="44.56657" lon="6.00615">
        <ele>1319.9</ele>
        <time>2022-10-13T11:55:31.000Z</time>
      </trkpt>
      <trkpt lat="44.56661" lon="6.00611">
        <ele>1323.1</ele>
        <time>2022-10-13T11:55:33.000Z</time>
      </trkpt>
      <trkpt lat="44.56666" lon="6.00607">
        <ele>1317.8</ele>
        <time>2022-10-13T11:55:37.000Z</time>
      </trkpt>
      <trkpt lat="44.5667" lon="6.00604">
        <ele>1318.9</ele>
        <time>2022-10-13T11:55:38.693Z</time>
      </trkpt>
      <trkpt lat="44.56675" lon="6.00601">
        <ele>1319.3</ele>
        <time>2022-10-13T11:55:41.326Z</time>
      </trkpt>
      <trkpt lat="44.56681" lon="6.006">
        <ele>1320.4</ele>
        <time>2022-10-13T11:55:44.338Z</time>
      </trkpt>
      <trkpt lat="44.56686" lon="6.00599">
        <ele>1321.2</ele>
        <time>2022-10-13T11:55:47.000Z</time>
      </trkpt>
      <trkpt lat="44.5669" lon="6.00594">
        <ele>1320.3</ele>
        <time>2022-10-13T11:55:51.000Z</time>
      </trkpt>
      <trkpt lat="44.56695" lon="6.00592">
        <ele>1321.1</ele>
        <time>2022-10-13T11:55:53.810Z</time>
      </trkpt>
      <trkpt lat="44.56699" lon="6.00592">
        <ele>1320.5</ele>
        <time>2022-10-13T11:55:56.297Z</time>
      </trkpt>
      <trkpt lat="44.56704" lon="6.00589">
        <ele>1319.9</ele>
        <time>2022-10-13T11:56:00.277Z</time>
      </trkpt>
      <trkpt lat="44.56708" lon="6.00586">
        <ele>1321.1</ele>
        <time>2022-10-13T11:56:04.000Z</time>
      </trkpt>
      <trkpt lat="44.56713" lon="6.0058">
        <ele>1325.6</ele>
        <time>2022-10-13T11:56:06.998Z</time>
      </trkpt>
      <trkpt lat="44.56719" lon="6.00576">
        <ele>1305.3</ele>
        <time>2022-10-13T11:56:10.324Z</time>
      </trkpt>
      <trkpt lat="44.56724" lon="6.00572">
        <ele>1313.7</ele>
        <time>2022-10-13T11:56:13.000Z</time>
      </trkpt>
      <trkpt lat="44.5673" lon="6.0057">
        <ele>1316.6</ele>
        <time>2022-10-13T11:56:16.000Z</time>
      </trkpt>
      <trkpt lat="44.56734" lon="6.00569">
        <ele>1321.9</ele>
        <time>2022-10-13T11:56:19.000Z</time>
      </trkpt>
      <trkpt lat="44.56738" lon="6.00565">
        <ele>1316.5</ele>
        <time>2022-10-13T11:56:22.000Z</time>
      </trkpt>
      <trkpt lat="44.56742" lon="6.00563">
        <ele>1319.2</ele>
        <time>2022-10-13T11:56:24.343Z</time>
      </trkpt>
      <trkpt lat="44.56749" lon="6.00561">
        <ele>1320.7</ele>
        <time>2022-10-13T11:56:27.000Z</time>
      </trkpt>
      <trkpt lat="44.56754" lon="6.0056">
        <ele>1320.2</ele>
        <time>2022-10-13T11:56:29.000Z</time>
      </trkpt>
      <trkpt lat="44.56758" lon="6.00558">
        <ele>1320.7</ele>
        <time>2022-10-13T11:56:31.000Z</time>
      </trkpt>
      <trkpt lat="44.56763" lon="6.00554">
        <ele>1321.4</ele>
        <time>2022-10-13T11:56:34.000Z</time>
      </trkpt>
      <trkpt lat="44.5677" lon="6.00553">
        <ele>1322.6</ele>
        <time>2022-10-13T11:56:36.807Z</time>
      </trkpt>
      <trkpt lat="44.56775" lon="6.00552">
        <ele>1324.1</ele>
        <time>2022-10-13T11:56:39.127Z</time>
      </trkpt>
      <trkpt lat="44.56779" lon="6.0055">
        <ele>1325.2</ele>
        <time>2022-10-13T11:56:40.843Z</time>
      </trkpt>
      <trkpt lat="44.56784" lon="6.0055">
        <ele>1346.5</ele>
        <time>2022-10-13T11:56:43.266Z</time>
      </trkpt>
      <trkpt lat="44.56791" lon="6.00547">
        <ele>1328.7</ele>
        <time>2022-10-13T11:56:47.000Z</time>
      </trkpt>
      <trkpt lat="44.56795" lon="6.00545">
        <ele>1330.1</ele>
        <time>2022-10-13T11:56:49.000Z</time>
      </trkpt>
      <trkpt lat="44.568" lon="6.00544">
        <ele>1330.5</ele>
        <time>2022-10-13T11:56:50.803Z</time>
      </trkpt>
      <trkpt lat="44.56806" lon="6.00543">
        <ele>1331.4</ele>
        <time>2022-10-13T11:56:53.023Z</time>
      </trkpt>
      <trkpt lat="44.56813" lon="6.00539">
        <ele>1333</ele>
        <time>2022-10-13T11:56:55.836Z</time>
      </trkpt>
      <trkpt lat="44.56821" lon="6.00544">
        <ele>1329.6</ele>
        <time>2022-10-13T11:56:59.065Z</time>
      </trkpt>
      <trkpt lat="44.56826" lon="6.00549">
        <ele>1329</ele>
        <time>2022-10-13T11:57:02.000Z</time>
      </trkpt>
      <trkpt lat="44.5683" lon="6.00554">
        <ele>1328.1</ele>
        <time>2022-10-13T11:57:04.000Z</time>
      </trkpt>
      <trkpt lat="44.56835" lon="6.0056">
        <ele>1327.5</ele>
        <time>2022-10-13T11:57:07.000Z</time>
      </trkpt>
      <trkpt lat="44.56839" lon="6.00565">
        <ele>1326.8</ele>
        <time>2022-10-13T11:57:09.000Z</time>
      </trkpt>
      <trkpt lat="44.5684" lon="6.00573">
        <ele>1330.5</ele>
        <time>2022-10-13T11:57:12.000Z</time>
      </trkpt>
      <trkpt lat="44.56842" lon="6.00579">
        <ele>1351.6</ele>
        <time>2022-10-13T11:57:22.000Z</time>
      </trkpt>
      <trkpt lat="44.56847" lon="6.0058">
        <ele>1352.1</ele>
        <time>2022-10-13T11:57:25.000Z</time>
      </trkpt>
      <trkpt lat="44.56853" lon="6.00577">
        <ele>1352.2</ele>
        <time>2022-10-13T11:57:27.000Z</time>
      </trkpt>
      <trkpt lat="44.56859" lon="6.00573">
        <ele>1354.7</ele>
        <time>2022-10-13T11:57:29.000Z</time>
      </trkpt>
      <trkpt lat="44.56864" lon="6.00568">
        <ele>1352.4</ele>
        <time>2022-10-13T11:57:31.000Z</time>
      </trkpt>
      <trkpt lat="44.56871" lon="6.00563">
        <ele>1352.1</ele>
        <time>2022-10-13T11:57:33.000Z</time>
      </trkpt>
      <trkpt lat="44.56877" lon="6.00561">
        <ele>1338.4</ele>
        <time>2022-10-13T11:57:34.000Z</time>
      </trkpt>
      <trkpt lat="44.56881" lon="6.00557">
        <ele>1340.2</ele>
        <time>2022-10-13T11:57:35.000Z</time>
      </trkpt>
      <trkpt lat="44.56887" lon="6.00552">
        <ele>1340.8</ele>
        <time>2022-10-13T11:57:36.314Z</time>
      </trkpt>
      <trkpt lat="44.56895" lon="6.00547">
        <ele>1344.7</ele>
        <time>2022-10-13T11:57:38.680Z</time>
      </trkpt>
      <trkpt lat="44.569" lon="6.00543">
        <ele>1345.3</ele>
        <time>2022-10-13T11:57:41.000Z</time>
      </trkpt>
      <trkpt lat="44.56907" lon="6.00536">
        <ele>1346.6</ele>
        <time>2022-10-13T11:57:42.734Z</time>
      </trkpt>
      <trkpt lat="44.56923" lon="6.00528">
        <ele>1346</ele>
        <time>2022-10-13T11:57:46.000Z</time>
      </trkpt>
      <trkpt lat="44.56929" lon="6.00526">
        <ele>1344.9</ele>
        <time>2022-10-13T11:57:47.000Z</time>
      </trkpt>
      <trkpt lat="44.56934" lon="6.00523">
        <ele>1345.5</ele>
        <time>2022-10-13T11:57:48.000Z</time>
      </trkpt>
      <trkpt lat="44.56939" lon="6.0052">
        <ele>1347.8</ele>
        <time>2022-10-13T11:57:49.000Z</time>
      </trkpt>
      <trkpt lat="44.56943" lon="6.00516">
        <ele>1349.1</ele>
        <time>2022-10-13T11:57:50.000Z</time>
      </trkpt>
      <trkpt lat="44.56947" lon="6.00512">
        <ele>1349.7</ele>
        <time>2022-10-13T11:57:51.000Z</time>
      </trkpt>
      <trkpt lat="44.56951" lon="6.00509">
        <ele>1348.3</ele>
        <time>2022-10-13T11:57:52.000Z</time>
      </trkpt>
      <trkpt lat="44.56955" lon="6.00506">
        <ele>1348</ele>
        <time>2022-10-13T11:57:53.000Z</time>
      </trkpt>
      <trkpt lat="44.56962" lon="6.00501">
        <ele>1349.5</ele>
        <time>2022-10-13T11:57:54.649Z</time>
      </trkpt>
      <trkpt lat="44.56968" lon="6.00497">
        <ele>1350</ele>
        <time>2022-10-13T11:57:57.000Z</time>
      </trkpt>
      <trkpt lat="44.56973" lon="6.00492">
        <ele>1350.9</ele>
        <time>2022-10-13T11:57:57.720Z</time>
      </trkpt>
      <trkpt lat="44.56978" lon="6.00488">
        <ele>1350.7</ele>
        <time>2022-10-13T11:57:59.027Z</time>
      </trkpt>
      <trkpt lat="44.56983" lon="6.00485">
        <ele>1350.5</ele>
        <time>2022-10-13T11:58:00.121Z</time>
      </trkpt>
      <trkpt lat="44.56992" lon="6.0048">
        <ele>1346.2</ele>
        <time>2022-10-13T11:58:03.000Z</time>
      </trkpt>
      <trkpt lat="44.56997" lon="6.00477">
        <ele>1346.3</ele>
        <time>2022-10-13T11:58:04.000Z</time>
      </trkpt>
      <trkpt lat="44.57002" lon="6.00473">
        <ele>1344.7</ele>
        <time>2022-10-13T11:58:05.000Z</time>
      </trkpt>
      <trkpt lat="44.57007" lon="6.00469">
        <ele>1345.2</ele>
        <time>2022-10-13T11:58:06.000Z</time>
      </trkpt>
      <trkpt lat="44.57012" lon="6.00464">
        <ele>1344.5</ele>
        <time>2022-10-13T11:58:07.000Z</time>
      </trkpt>
      <trkpt lat="44.57019" lon="6.0046">
        <ele>1344</ele>
        <time>2022-10-13T11:58:08.000Z</time>
      </trkpt>
      <trkpt lat="44.57025" lon="6.00457">
        <ele>1344.5</ele>
        <time>2022-10-13T11:58:09.000Z</time>
      </trkpt>
      <trkpt lat="44.5703" lon="6.00453">
        <ele>1344.1</ele>
        <time>2022-10-13T11:58:10.000Z</time>
      </trkpt>
      <trkpt lat="44.57034" lon="6.00448">
        <ele>1344.6</ele>
        <time>2022-10-13T11:58:11.000Z</time>
      </trkpt>
      <trkpt lat="44.5704" lon="6.00442">
        <ele>1344.2</ele>
        <time>2022-10-13T11:58:12.000Z</time>
      </trkpt>
      <trkpt lat="44.57046" lon="6.00435">
        <ele>1343.6</ele>
        <time>2022-10-13T11:58:13.000Z</time>
      </trkpt>
      <trkpt lat="44.57049" lon="6.00429">
        <ele>1342.1</ele>
        <time>2022-10-13T11:58:14.000Z</time>
      </trkpt>
      <trkpt lat="44.57053" lon="6.00422">
        <ele>1342.7</ele>
        <time>2022-10-13T11:58:15.000Z</time>
      </trkpt>
      <trkpt lat="44.57059" lon="6.00417">
        <ele>1342.5</ele>
        <time>2022-10-13T11:58:16.000Z</time>
      </trkpt>
      <trkpt lat="44.57066" lon="6.00416">
        <ele>1343.2</ele>
        <time>2022-10-13T11:58:17.000Z</time>
      </trkpt>
      <trkpt lat="44.57074" lon="6.00417">
        <ele>1342.8</ele>
        <time>2022-10-13T11:58:18.000Z</time>
      </trkpt>
      <trkpt lat="44.57082" lon="6.0042">
        <ele>1342.2</ele>
        <time>2022-10-13T11:58:19.000Z</time>
      </trkpt>
      <trkpt lat="44.5709" lon="6.00421">
        <ele>1342.9</ele>
        <time>2022-10-13T11:58:20.000Z</time>
      </trkpt>
      <trkpt lat="44.571" lon="6.00427">
        <ele>1338.2</ele>
        <time>2022-10-13T11:58:21.000Z</time>
      </trkpt>
      <trkpt lat="44.57109" lon="6.0043">
        <ele>1339.3</ele>
        <time>2022-10-13T11:58:22.000Z</time>
      </trkpt>
      <trkpt lat="44.57118" lon="6.00431">
        <ele>1338.3</ele>
        <time>2022-10-13T11:58:23.000Z</time>
      </trkpt>
      <trkpt lat="44.57125" lon="6.00432">
        <ele>1338</ele>
        <time>2022-10-13T11:58:24.000Z</time>
      </trkpt>
      <trkpt lat="44.57132" lon="6.00432">
        <ele>1337.8</ele>
        <time>2022-10-13T11:58:25.000Z</time>
      </trkpt>
      <trkpt lat="44.57138" lon="6.00432">
        <ele>1337.8</ele>
        <time>2022-10-13T11:58:26.000Z</time>
      </trkpt>
      <trkpt lat="44.57144" lon="6.00432">
        <ele>1337</ele>
        <time>2022-10-13T11:58:27.000Z</time>
      </trkpt>
      <trkpt lat="44.57151" lon="6.00436">
        <ele>1337.1</ele>
        <time>2022-10-13T11:58:29.000Z</time>
      </trkpt>
      <trkpt lat="44.57153" lon="6.00443">
        <ele>1336.2</ele>
        <time>2022-10-13T11:58:30.000Z</time>
      </trkpt>
      <trkpt lat="44.57156" lon="6.00451">
        <ele>1336.3</ele>
        <time>2022-10-13T11:58:32.000Z</time>
      </trkpt>
      <trkpt lat="44.57153" lon="6.00463">
        <ele>1330.6</ele>
        <time>2022-10-13T11:58:34.000Z</time>
      </trkpt>
      <trkpt lat="44.5715" lon="6.00468">
        <ele>1332.4</ele>
        <time>2022-10-13T11:58:35.000Z</time>
      </trkpt>
      <trkpt lat="44.57145" lon="6.00478">
        <ele>1330.9</ele>
        <time>2022-10-13T11:58:37.242Z</time>
      </trkpt>
      <trkpt lat="44.57142" lon="6.00485">
        <ele>1332.9</ele>
        <time>2022-10-13T11:58:39.000Z</time>
      </trkpt>
      <trkpt lat="44.57138" lon="6.00491">
        <ele>1332.2</ele>
        <time>2022-10-13T11:58:39.717Z</time>
      </trkpt>
      <trkpt lat="44.57134" lon="6.00495">
        <ele>1331.3</ele>
        <time>2022-10-13T11:58:40.860Z</time>
      </trkpt>
      <trkpt lat="44.57127" lon="6.00502">
        <ele>1331.7</ele>
        <time>2022-10-13T11:58:42.960Z</time>
      </trkpt>
      <trkpt lat="44.57123" lon="6.00505">
        <ele>1331.9</ele>
        <time>2022-10-13T11:58:43.944Z</time>
      </trkpt>
      <trkpt lat="44.57115" lon="6.0051">
        <ele>1330.1</ele>
        <time>2022-10-13T11:58:46.000Z</time>
      </trkpt>
      <trkpt lat="44.57111" lon="6.00515">
        <ele>1330.7</ele>
        <time>2022-10-13T11:58:47.000Z</time>
      </trkpt>
      <trkpt lat="44.57104" lon="6.00522">
        <ele>1336.3</ele>
        <time>2022-10-13T11:58:48.688Z</time>
      </trkpt>
      <trkpt lat="44.571" lon="6.00527">
        <ele>1335.2</ele>
        <time>2022-10-13T11:58:50.135Z</time>
      </trkpt>
      <trkpt lat="44.57091" lon="6.00534">
        <ele>1331.9</ele>
        <time>2022-10-13T11:58:52.000Z</time>
      </trkpt>
      <trkpt lat="44.57085" lon="6.00543">
        <ele>1331.8</ele>
        <time>2022-10-13T11:58:53.000Z</time>
      </trkpt>
      <trkpt lat="44.57081" lon="6.00551">
        <ele>1332.2</ele>
        <time>2022-10-13T11:58:54.000Z</time>
      </trkpt>
      <trkpt lat="44.57088" lon="6.00559">
        <ele>1331.9</ele>
        <time>2022-10-13T11:58:56.000Z</time>
      </trkpt>
      <trkpt lat="44.57093" lon="6.00562">
        <ele>1332.2</ele>
        <time>2022-10-13T11:58:58.000Z</time>
      </trkpt>
      <trkpt lat="44.57097" lon="6.00566">
        <ele>1331.7</ele>
        <time>2022-10-13T11:59:00.000Z</time>
      </trkpt>
      <trkpt lat="44.57102" lon="6.00568">
        <ele>1332.6</ele>
        <time>2022-10-13T11:59:02.000Z</time>
      </trkpt>
      <trkpt lat="44.57107" lon="6.00572">
        <ele>1333.3</ele>
        <time>2022-10-13T11:59:04.000Z</time>
      </trkpt>
      <trkpt lat="44.57111" lon="6.00577">
        <ele>1334.3</ele>
        <time>2022-10-13T11:59:07.000Z</time>
      </trkpt>
      <trkpt lat="44.57117" lon="6.00582">
        <ele>1336.5</ele>
        <time>2022-10-13T11:59:10.656Z</time>
      </trkpt>
      <trkpt lat="44.57119" lon="6.00588">
        <ele>1335.5</ele>
        <time>2022-10-13T11:59:55.000Z</time>
      </trkpt>
      <trkpt lat="44.57123" lon="6.00592">
        <ele>1336.9</ele>
        <time>2022-10-13T11:59:57.000Z</time>
      </trkpt>
      <trkpt lat="44.57124" lon="6.006">
        <ele>1334.8</ele>
        <time>2022-10-13T11:59:58.330Z</time>
      </trkpt>
      <trkpt lat="44.57123" lon="6.00608">
        <ele>1338.2</ele>
        <time>2022-10-13T12:00:02.000Z</time>
      </trkpt>
      <trkpt lat="44.57123" lon="6.00614">
        <ele>1336.1</ele>
        <time>2022-10-13T12:00:05.000Z</time>
      </trkpt>
      <trkpt lat="44.5712" lon="6.00622">
        <ele>1333.7</ele>
        <time>2022-10-13T12:00:08.000Z</time>
      </trkpt>
      <trkpt lat="44.57116" lon="6.00628">
        <ele>1332.6</ele>
        <time>2022-10-13T12:00:10.000Z</time>
      </trkpt>
      <trkpt lat="44.57113" lon="6.00634">
        <ele>1332</ele>
        <time>2022-10-13T12:00:12.000Z</time>
      </trkpt>
      <trkpt lat="44.57111" lon="6.00642">
        <ele>1335.5</ele>
        <time>2022-10-13T12:00:15.000Z</time>
      </trkpt>
      <trkpt lat="44.57114" lon="6.00646">
        <ele>1336.9</ele>
        <time>2022-10-13T12:00:18.000Z</time>
      </trkpt>
      <trkpt lat="44.5712" lon="6.00644">
        <ele>1336.1</ele>
        <time>2022-10-13T12:00:20.000Z</time>
      </trkpt>
      <trkpt lat="44.57126" lon="6.00642">
        <ele>1342</ele>
        <time>2022-10-13T12:00:22.000Z</time>
      </trkpt>
      <trkpt lat="44.57132" lon="6.00642">
        <ele>1342.2</ele>
        <time>2022-10-13T12:00:24.000Z</time>
      </trkpt>
      <trkpt lat="44.57138" lon="6.00639">
        <ele>1337.8</ele>
        <time>2022-10-13T12:00:27.000Z</time>
      </trkpt>
      <trkpt lat="44.57144" lon="6.00635">
        <ele>1336.2</ele>
        <time>2022-10-13T12:00:30.000Z</time>
      </trkpt>
      <trkpt lat="44.57148" lon="6.00632">
        <ele>1337.2</ele>
        <time>2022-10-13T12:00:32.000Z</time>
      </trkpt>
      <trkpt lat="44.57153" lon="6.00626">
        <ele>1337.7</ele>
        <time>2022-10-13T12:00:34.000Z</time>
      </trkpt>
      <trkpt lat="44.57157" lon="6.00622">
        <ele>1338.6</ele>
        <time>2022-10-13T12:00:36.000Z</time>
      </trkpt>
      <trkpt lat="44.57163" lon="6.00622">
        <ele>1337.4</ele>
        <time>2022-10-13T12:00:39.000Z</time>
      </trkpt>
      <trkpt lat="44.57167" lon="6.00624">
        <ele>1346.4</ele>
        <time>2022-10-13T12:00:48.000Z</time>
      </trkpt>
      <trkpt lat="44.57172" lon="6.00623">
        <ele>1346.3</ele>
        <time>2022-10-13T12:01:01.830Z</time>
      </trkpt>
      <trkpt lat="44.57176" lon="6.00619">
        <ele>1347.2</ele>
        <time>2022-10-13T12:01:04.000Z</time>
      </trkpt>
      <trkpt lat="44.57183" lon="6.00616">
        <ele>1345.7</ele>
        <time>2022-10-13T12:01:05.418Z</time>
      </trkpt>
      <trkpt lat="44.57188" lon="6.00614">
        <ele>1346.5</ele>
        <time>2022-10-13T12:01:08.000Z</time>
      </trkpt>
      <trkpt lat="44.57192" lon="6.00613">
        <ele>1343.8</ele>
        <time>2022-10-13T12:01:08.917Z</time>
      </trkpt>
      <trkpt lat="44.57202" lon="6.00612">
        <ele>1344</ele>
        <time>2022-10-13T12:01:11.993Z</time>
      </trkpt>
      <trkpt lat="44.57207" lon="6.00612">
        <ele>1345.1</ele>
        <time>2022-10-13T12:01:14.000Z</time>
      </trkpt>
      <trkpt lat="44.57214" lon="6.0061">
        <ele>1345.1</ele>
        <time>2022-10-13T12:01:15.770Z</time>
      </trkpt>
      <trkpt lat="44.57222" lon="6.00607">
        <ele>1344.1</ele>
        <time>2022-10-13T12:01:18.129Z</time>
      </trkpt>
      <trkpt lat="44.57229" lon="6.00606">
        <ele>1344.2</ele>
        <time>2022-10-13T12:01:21.000Z</time>
      </trkpt>
      <trkpt lat="44.57235" lon="6.00605">
        <ele>1346</ele>
        <time>2022-10-13T12:01:23.000Z</time>
      </trkpt>
      <trkpt lat="44.57241" lon="6.00603">
        <ele>1345.8</ele>
        <time>2022-10-13T12:01:25.000Z</time>
      </trkpt>
      <trkpt lat="44.57246" lon="6.00601">
        <ele>1345.5</ele>
        <time>2022-10-13T12:01:25.667Z</time>
      </trkpt>
      <trkpt lat="44.57251" lon="6.006">
        <ele>1345.8</ele>
        <time>2022-10-13T12:01:27.195Z</time>
      </trkpt>
      <trkpt lat="44.57258" lon="6.00597">
        <ele>1348.4</ele>
        <time>2022-10-13T12:01:30.000Z</time>
      </trkpt>
      <trkpt lat="44.57262" lon="6.00595">
        <ele>1348.9</ele>
        <time>2022-10-13T12:01:30.913Z</time>
      </trkpt>
      <trkpt lat="44.5727" lon="6.00592">
        <ele>1350.2</ele>
        <time>2022-10-13T12:01:34.000Z</time>
      </trkpt>
      <trkpt lat="44.57277" lon="6.00589">
        <ele>1350.6</ele>
        <time>2022-10-13T12:01:35.294Z</time>
      </trkpt>
      <trkpt lat="44.57284" lon="6.00587">
        <ele>1350.9</ele>
        <time>2022-10-13T12:01:37.254Z</time>
      </trkpt>
      <trkpt lat="44.57291" lon="6.00588">
        <ele>1352.3</ele>
        <time>2022-10-13T12:01:40.000Z</time>
      </trkpt>
      <trkpt lat="44.57298" lon="6.00588">
        <ele>1353.2</ele>
        <time>2022-10-13T12:01:42.000Z</time>
      </trkpt>
      <trkpt lat="44.57305" lon="6.00587">
        <ele>1354.4</ele>
        <time>2022-10-13T12:01:44.000Z</time>
      </trkpt>
      <trkpt lat="44.57312" lon="6.00587">
        <ele>1354.1</ele>
        <time>2022-10-13T12:01:46.000Z</time>
      </trkpt>
      <trkpt lat="44.57319" lon="6.00587">
        <ele>1354.7</ele>
        <time>2022-10-13T12:01:48.000Z</time>
      </trkpt>
      <trkpt lat="44.57326" lon="6.00588">
        <ele>1354.6</ele>
        <time>2022-10-13T12:01:50.000Z</time>
      </trkpt>
      <trkpt lat="44.57332" lon="6.00589">
        <ele>1354</ele>
        <time>2022-10-13T12:01:52.000Z</time>
      </trkpt>
      <trkpt lat="44.57338" lon="6.00589">
        <ele>1354.2</ele>
        <time>2022-10-13T12:01:54.000Z</time>
      </trkpt>
      <trkpt lat="44.57347" lon="6.00589">
        <ele>1355.5</ele>
        <time>2022-10-13T12:01:55.716Z</time>
      </trkpt>
      <trkpt lat="44.57353" lon="6.00588">
        <ele>1355.2</ele>
        <time>2022-10-13T12:01:58.138Z</time>
      </trkpt>
      <trkpt lat="44.57358" lon="6.00587">
        <ele>1354.9</ele>
        <time>2022-10-13T12:01:59.291Z</time>
      </trkpt>
      <trkpt lat="44.57366" lon="6.00585">
        <ele>1353.9</ele>
        <time>2022-10-13T12:02:02.000Z</time>
      </trkpt>
      <trkpt lat="44.57373" lon="6.00582">
        <ele>1355.7</ele>
        <time>2022-10-13T12:02:04.000Z</time>
      </trkpt>
      <trkpt lat="44.57378" lon="6.0058">
        <ele>1357.4</ele>
        <time>2022-10-13T12:02:06.000Z</time>
      </trkpt>
      <trkpt lat="44.5738" lon="6.00574">
        <ele>1360.1</ele>
        <time>2022-10-13T12:02:26.275Z</time>
      </trkpt>
      <trkpt lat="44.57375" lon="6.0057">
        <ele>1355.8</ele>
        <time>2022-10-13T12:02:29.000Z</time>
      </trkpt>
      <trkpt lat="44.57365" lon="6.00572">
        <ele>1356.2</ele>
        <time>2022-10-13T12:02:30.635Z</time>
      </trkpt>
      <trkpt lat="44.57357" lon="6.00574">
        <ele>1354.9</ele>
        <time>2022-10-13T12:02:33.000Z</time>
      </trkpt>
      <trkpt lat="44.57352" lon="6.00572">
        <ele>1354.1</ele>
        <time>2022-10-13T12:02:33.810Z</time>
      </trkpt>
      <trkpt lat="44.57347" lon="6.0057">
        <ele>1353.8</ele>
        <time>2022-10-13T12:02:34.936Z</time>
      </trkpt>
      <trkpt lat="44.57332" lon="6.00568">
        <ele>1352.3</ele>
        <time>2022-10-13T12:02:38.000Z</time>
      </trkpt>
      <trkpt lat="44.57325" lon="6.00566">
        <ele>1353.2</ele>
        <time>2022-10-13T12:02:39.000Z</time>
      </trkpt>
      <trkpt lat="44.57317" lon="6.00564">
        <ele>1351</ele>
        <time>2022-10-13T12:02:40.000Z</time>
      </trkpt>
      <trkpt lat="44.5731" lon="6.00564">
        <ele>1348.1</ele>
        <time>2022-10-13T12:02:41.000Z</time>
      </trkpt>
      <trkpt lat="44.57303" lon="6.00565">
        <ele>1347.9</ele>
        <time>2022-10-13T12:02:42.000Z</time>
      </trkpt>
      <trkpt lat="44.57297" lon="6.00564">
        <ele>1348.3</ele>
        <time>2022-10-13T12:02:43.000Z</time>
      </trkpt>
      <trkpt lat="44.57291" lon="6.00563">
        <ele>1347.5</ele>
        <time>2022-10-13T12:02:44.000Z</time>
      </trkpt>
      <trkpt lat="44.57285" lon="6.00562">
        <ele>1346.5</ele>
        <time>2022-10-13T12:02:45.000Z</time>
      </trkpt>
      <trkpt lat="44.57279" lon="6.0056">
        <ele>1346.7</ele>
        <time>2022-10-13T12:02:46.000Z</time>
      </trkpt>
      <trkpt lat="44.57272" lon="6.0056">
        <ele>1345</ele>
        <time>2022-10-13T12:02:47.000Z</time>
      </trkpt>
      <trkpt lat="44.57266" lon="6.00558">
        <ele>1345.2</ele>
        <time>2022-10-13T12:02:48.000Z</time>
      </trkpt>
      <trkpt lat="44.5726" lon="6.00555">
        <ele>1344.5</ele>
        <time>2022-10-13T12:02:49.000Z</time>
      </trkpt>
      <trkpt lat="44.57256" lon="6.00551">
        <ele>1344.9</ele>
        <time>2022-10-13T12:02:50.000Z</time>
      </trkpt>
      <trkpt lat="44.57251" lon="6.00547">
        <ele>1342.3</ele>
        <time>2022-10-13T12:02:51.000Z</time>
      </trkpt>
      <trkpt lat="44.57243" lon="6.00543">
        <ele>1338.6</ele>
        <time>2022-10-13T12:02:53.000Z</time>
      </trkpt>
      <trkpt lat="44.57236" lon="6.00537">
        <ele>1335.7</ele>
        <time>2022-10-13T12:02:55.000Z</time>
      </trkpt>
      <trkpt lat="44.57235" lon="6.00527">
        <ele>1326.1</ele>
        <time>2022-10-13T12:02:57.000Z</time>
      </trkpt>
      <trkpt lat="44.57241" lon="6.00516">
        <ele>1326.8</ele>
        <time>2022-10-13T12:02:59.000Z</time>
      </trkpt>
      <trkpt lat="44.57251" lon="6.00518">
        <ele>1325.3</ele>
        <time>2022-10-13T12:03:01.000Z</time>
      </trkpt>
      <trkpt lat="44.57256" lon="6.00517">
        <ele>1322</ele>
        <time>2022-10-13T12:03:02.000Z</time>
      </trkpt>
      <trkpt lat="44.57262" lon="6.00517">
        <ele>1322.4</ele>
        <time>2022-10-13T12:03:03.000Z</time>
      </trkpt>
      <trkpt lat="44.57269" lon="6.00515">
        <ele>1321.1</ele>
        <time>2022-10-13T12:03:04.000Z</time>
      </trkpt>
      <trkpt lat="44.57276" lon="6.00511">
        <ele>1319.3</ele>
        <time>2022-10-13T12:03:05.000Z</time>
      </trkpt>
      <trkpt lat="44.57283" lon="6.00508">
        <ele>1319.9</ele>
        <time>2022-10-13T12:03:06.000Z</time>
      </trkpt>
      <trkpt lat="44.5729" lon="6.00506">
        <ele>1329</ele>
        <time>2022-10-13T12:03:07.000Z</time>
      </trkpt>
      <trkpt lat="44.57296" lon="6.00505">
        <ele>1329</ele>
        <time>2022-10-13T12:03:08.000Z</time>
      </trkpt>
      <trkpt lat="44.57302" lon="6.00503">
        <ele>1327.7</ele>
        <time>2022-10-13T12:03:09.000Z</time>
      </trkpt>
      <trkpt lat="44.57311" lon="6.00502">
        <ele>1327.4</ele>
        <time>2022-10-13T12:03:11.000Z</time>
      </trkpt>
      <trkpt lat="44.57318" lon="6.00496">
        <ele>1327.4</ele>
        <time>2022-10-13T12:03:13.000Z</time>
      </trkpt>
      <trkpt lat="44.57322" lon="6.00493">
        <ele>1325.8</ele>
        <time>2022-10-13T12:03:14.000Z</time>
      </trkpt>
      <trkpt lat="44.57326" lon="6.00489">
        <ele>1325.6</ele>
        <time>2022-10-13T12:03:15.000Z</time>
      </trkpt>
      <trkpt lat="44.57332" lon="6.00485">
        <ele>1323.9</ele>
        <time>2022-10-13T12:03:17.000Z</time>
      </trkpt>
      <trkpt lat="44.57336" lon="6.00482">
        <ele>1310.2</ele>
        <time>2022-10-13T12:03:18.000Z</time>
      </trkpt>
      <trkpt lat="44.5734" lon="6.00479">
        <ele>1309.8</ele>
        <time>2022-10-13T12:03:19.000Z</time>
      </trkpt>
      <trkpt lat="44.57346" lon="6.00478">
        <ele>1309.6</ele>
        <time>2022-10-13T12:03:21.000Z</time>
      </trkpt>
      <trkpt lat="44.57351" lon="6.00479">
        <ele>1315.5</ele>
        <time>2022-10-13T12:03:23.000Z</time>
      </trkpt>
      <trkpt lat="44.5736" lon="6.00481">
        <ele>1316.1</ele>
        <time>2022-10-13T12:03:24.878Z</time>
      </trkpt>
      <trkpt lat="44.57364" lon="6.00483">
        <ele>1314.5</ele>
        <time>2022-10-13T12:03:26.317Z</time>
      </trkpt>
      <trkpt lat="44.57372" lon="6.00482">
        <ele>1320.4</ele>
        <time>2022-10-13T12:03:29.018Z</time>
      </trkpt>
      <trkpt lat="44.57378" lon="6.00476">
        <ele>1321.8</ele>
        <time>2022-10-13T12:03:31.894Z</time>
      </trkpt>
      <trkpt lat="44.57383" lon="6.00473">
        <ele>1321</ele>
        <time>2022-10-13T12:03:34.621Z</time>
      </trkpt>
      <trkpt lat="44.57388" lon="6.0047">
        <ele>1324.4</ele>
        <time>2022-10-13T12:03:39.000Z</time>
      </trkpt>
      <trkpt lat="44.57393" lon="6.00466">
        <ele>1325.1</ele>
        <time>2022-10-13T12:03:42.035Z</time>
      </trkpt>
      <trkpt lat="44.57397" lon="6.00462">
        <ele>1322.8</ele>
        <time>2022-10-13T12:03:46.000Z</time>
      </trkpt>
      <trkpt lat="44.57403" lon="6.00458">
        <ele>1321.4</ele>
        <time>2022-10-13T12:03:47.820Z</time>
      </trkpt>
      <trkpt lat="44.57409" lon="6.0046">
        <ele>1320.4</ele>
        <time>2022-10-13T12:03:50.314Z</time>
      </trkpt>
      <trkpt lat="44.57415" lon="6.00459">
        <ele>1322.3</ele>
        <time>2022-10-13T12:03:53.000Z</time>
      </trkpt>
      <trkpt lat="44.57423" lon="6.00456">
        <ele>1321.3</ele>
        <time>2022-10-13T12:03:55.000Z</time>
      </trkpt>
      <trkpt lat="44.5743" lon="6.00458">
        <ele>1321</ele>
        <time>2022-10-13T12:03:57.000Z</time>
      </trkpt>
      <trkpt lat="44.57437" lon="6.0046">
        <ele>1321.7</ele>
        <time>2022-10-13T12:03:58.283Z</time>
      </trkpt>
      <trkpt lat="44.57445" lon="6.00458">
        <ele>1321.3</ele>
        <time>2022-10-13T12:04:01.000Z</time>
      </trkpt>
      <trkpt lat="44.57451" lon="6.00455">
        <ele>1320.3</ele>
        <time>2022-10-13T12:04:02.320Z</time>
      </trkpt>
      <trkpt lat="44.57457" lon="6.00452">
        <ele>1319.8</ele>
        <time>2022-10-13T12:04:05.000Z</time>
      </trkpt>
      <trkpt lat="44.57465" lon="6.00451">
        <ele>1320.5</ele>
        <time>2022-10-13T12:04:07.000Z</time>
      </trkpt>
      <trkpt lat="44.57474" lon="6.00454">
        <ele>1320.1</ele>
        <time>2022-10-13T12:04:08.994Z</time>
      </trkpt>
      <trkpt lat="44.57484" lon="6.00452">
        <ele>1321.2</ele>
        <time>2022-10-13T12:04:11.299Z</time>
      </trkpt>
      <trkpt lat="44.5749" lon="6.00445">
        <ele>1320.5</ele>
        <time>2022-10-13T12:04:13.000Z</time>
      </trkpt>
      <trkpt lat="44.57494" lon="6.00441">
        <ele>1321</ele>
        <time>2022-10-13T12:04:14.000Z</time>
      </trkpt>
      <trkpt lat="44.575" lon="6.00438">
        <ele>1318.6</ele>
        <time>2022-10-13T12:04:15.000Z</time>
      </trkpt>
      <trkpt lat="44.57507" lon="6.00436">
        <ele>1319.7</ele>
        <time>2022-10-13T12:04:16.000Z</time>
      </trkpt>
      <trkpt lat="44.57514" lon="6.00435">
        <ele>1318.3</ele>
        <time>2022-10-13T12:04:17.000Z</time>
      </trkpt>
      <trkpt lat="44.57521" lon="6.00433">
        <ele>1318.3</ele>
        <time>2022-10-13T12:04:18.000Z</time>
      </trkpt>
      <trkpt lat="44.57528" lon="6.00429">
        <ele>1318.5</ele>
        <time>2022-10-13T12:04:19.000Z</time>
      </trkpt>
      <trkpt lat="44.57534" lon="6.00426">
        <ele>1318.8</ele>
        <time>2022-10-13T12:04:20.000Z</time>
      </trkpt>
      <trkpt lat="44.5754" lon="6.00424">
        <ele>1318.3</ele>
        <time>2022-10-13T12:04:21.000Z</time>
      </trkpt>
      <trkpt lat="44.57544" lon="6.00421">
        <ele>1317.9</ele>
        <time>2022-10-13T12:04:22.000Z</time>
      </trkpt>
      <trkpt lat="44.57551" lon="6.00415">
        <ele>1318.7</ele>
        <time>2022-10-13T12:04:24.167Z</time>
      </trkpt>
      <trkpt lat="44.57556" lon="6.00412">
        <ele>1318.9</ele>
        <time>2022-10-13T12:04:25.332Z</time>
      </trkpt>
      <trkpt lat="44.57564" lon="6.00409">
        <ele>1317.8</ele>
        <time>2022-10-13T12:04:27.000Z</time>
      </trkpt>
      <trkpt lat="44.5757" lon="6.00406">
        <ele>1317.3</ele>
        <time>2022-10-13T12:04:28.000Z</time>
      </trkpt>
      <trkpt lat="44.57575" lon="6.00405">
        <ele>1316.9</ele>
        <time>2022-10-13T12:04:29.000Z</time>
      </trkpt>
      <trkpt lat="44.57583" lon="6.00406">
        <ele>1315.8</ele>
        <time>2022-10-13T12:04:30.609Z</time>
      </trkpt>
      <trkpt lat="44.57592" lon="6.00401">
        <ele>1314.5</ele>
        <time>2022-10-13T12:04:32.949Z</time>
      </trkpt>
      <trkpt lat="44.57597" lon="6.00396">
        <ele>1312.3</ele>
        <time>2022-10-13T12:04:36.000Z</time>
      </trkpt>
      <trkpt lat="44.57606" lon="6.0039">
        <ele>1310.2</ele>
        <time>2022-10-13T12:04:38.125Z</time>
      </trkpt>
      <trkpt lat="44.57608" lon="6.00385">
        <ele>1311.3</ele>
        <time>2022-10-13T12:04:39.171Z</time>
      </trkpt>
      <trkpt lat="44.57612" lon="6.00381">
        <ele>1311.8</ele>
        <time>2022-10-13T12:04:40.104Z</time>
      </trkpt>
      <trkpt lat="44.5762" lon="6.00384">
        <ele>1307.2</ele>
        <time>2022-10-13T12:04:42.000Z</time>
      </trkpt>
      <trkpt lat="44.57625" lon="6.00382">
        <ele>1306.4</ele>
        <time>2022-10-13T12:04:43.188Z</time>
      </trkpt>
      <trkpt lat="44.57634" lon="6.00371">
        <ele>1305.8</ele>
        <time>2022-10-13T12:04:46.003Z</time>
      </trkpt>
      <trkpt lat="44.57642" lon="6.00369">
        <ele>1301.7</ele>
        <time>2022-10-13T12:04:48.000Z</time>
      </trkpt>
      <trkpt lat="44.57647" lon="6.00365">
        <ele>1301.6</ele>
        <time>2022-10-13T12:04:49.000Z</time>
      </trkpt>
      <trkpt lat="44.57652" lon="6.00362">
        <ele>1300.2</ele>
        <time>2022-10-13T12:04:50.000Z</time>
      </trkpt>
      <trkpt lat="44.57656" lon="6.00357">
        <ele>1301.9</ele>
        <time>2022-10-13T12:04:51.000Z</time>
      </trkpt>
      <trkpt lat="44.57661" lon="6.00356">
        <ele>1300.6</ele>
        <time>2022-10-13T12:04:52.000Z</time>
      </trkpt>
      <trkpt lat="44.57667" lon="6.00355">
        <ele>1301</ele>
        <time>2022-10-13T12:04:53.000Z</time>
      </trkpt>
      <trkpt lat="44.57673" lon="6.00355">
        <ele>1300.3</ele>
        <time>2022-10-13T12:04:54.000Z</time>
      </trkpt>
      <trkpt lat="44.5768" lon="6.00352">
        <ele>1301.2</ele>
        <time>2022-10-13T12:04:55.000Z</time>
      </trkpt>
      <trkpt lat="44.57686" lon="6.0035">
        <ele>1301.1</ele>
        <time>2022-10-13T12:04:56.000Z</time>
      </trkpt>
      <trkpt lat="44.57694" lon="6.00348">
        <ele>1300.2</ele>
        <time>2022-10-13T12:04:58.000Z</time>
      </trkpt>
      <trkpt lat="44.57699" lon="6.00345">
        <ele>1299.7</ele>
        <time>2022-10-13T12:04:59.000Z</time>
      </trkpt>
      <trkpt lat="44.57704" lon="6.00344">
        <ele>1298.4</ele>
        <time>2022-10-13T12:05:00.000Z</time>
      </trkpt>
      <trkpt lat="44.57709" lon="6.00342">
        <ele>1298.9</ele>
        <time>2022-10-13T12:05:01.000Z</time>
      </trkpt>
      <trkpt lat="44.57715" lon="6.00343">
        <ele>1299.2</ele>
        <time>2022-10-13T12:05:03.000Z</time>
      </trkpt>
      <trkpt lat="44.57722" lon="6.00345">
        <ele>1299.4</ele>
        <time>2022-10-13T12:05:05.000Z</time>
      </trkpt>
      <trkpt lat="44.57728" lon="6.00342">
        <ele>1298.1</ele>
        <time>2022-10-13T12:05:07.000Z</time>
      </trkpt>
      <trkpt lat="44.57734" lon="6.00337">
        <ele>1287</ele>
        <time>2022-10-13T12:05:08.411Z</time>
      </trkpt>
      <trkpt lat="44.57739" lon="6.00335">
        <ele>1291.3</ele>
        <time>2022-10-13T12:05:09.576Z</time>
      </trkpt>
      <trkpt lat="44.57751" lon="6.00325">
        <ele>1286.4</ele>
        <time>2022-10-13T12:05:13.000Z</time>
      </trkpt>
      <trkpt lat="44.57756" lon="6.00323">
        <ele>1283.6</ele>
        <time>2022-10-13T12:05:14.000Z</time>
      </trkpt>
      <trkpt lat="44.57762" lon="6.00324">
        <ele>1283.1</ele>
        <time>2022-10-13T12:05:15.000Z</time>
      </trkpt>
      <trkpt lat="44.57766" lon="6.00321">
        <ele>1281.6</ele>
        <time>2022-10-13T12:05:16.309Z</time>
      </trkpt>
      <trkpt lat="44.57777" lon="6.00318">
        <ele>1289.9</ele>
        <time>2022-10-13T12:05:19.000Z</time>
      </trkpt>
      <trkpt lat="44.57783" lon="6.00317">
        <ele>1288.8</ele>
        <time>2022-10-13T12:05:20.000Z</time>
      </trkpt>
      <trkpt lat="44.57788" lon="6.00316">
        <ele>1288.8</ele>
        <time>2022-10-13T12:05:21.000Z</time>
      </trkpt>
      <trkpt lat="44.57793" lon="6.00315">
        <ele>1288.4</ele>
        <time>2022-10-13T12:05:22.342Z</time>
      </trkpt>
      <trkpt lat="44.57797" lon="6.00311">
        <ele>1287.8</ele>
        <time>2022-10-13T12:05:23.515Z</time>
      </trkpt>
      <trkpt lat="44.57805" lon="6.00308">
        <ele>1286.3</ele>
        <time>2022-10-13T12:05:25.085Z</time>
      </trkpt>
      <trkpt lat="44.57812" lon="6.00306">
        <ele>1283.3</ele>
        <time>2022-10-13T12:05:27.000Z</time>
      </trkpt>
      <trkpt lat="44.57822" lon="6.00306">
        <ele>1283.7</ele>
        <time>2022-10-13T12:05:28.981Z</time>
      </trkpt>
      <trkpt lat="44.57832" lon="6.00305">
        <ele>1283.4</ele>
        <time>2022-10-13T12:05:32.027Z</time>
      </trkpt>
      <trkpt lat="44.57835" lon="6.00298">
        <ele>1283.8</ele>
        <time>2022-10-13T12:05:34.000Z</time>
      </trkpt>
      <trkpt lat="44.57843" lon="6.00293">
        <ele>1283.1</ele>
        <time>2022-10-13T12:05:36.000Z</time>
      </trkpt>
      <trkpt lat="44.57851" lon="6.00294">
        <ele>1282.9</ele>
        <time>2022-10-13T12:05:36.880Z</time>
      </trkpt>
      <trkpt lat="44.57856" lon="6.00292">
        <ele>1282.4</ele>
        <time>2022-10-13T12:05:38.106Z</time>
      </trkpt>
      <trkpt lat="44.5786" lon="6.00287">
        <ele>1280.4</ele>
        <time>2022-10-13T12:05:40.000Z</time>
      </trkpt>
      <trkpt lat="44.57866" lon="6.00284">
        <ele>1278.5</ele>
        <time>2022-10-13T12:05:42.000Z</time>
      </trkpt>
      <trkpt lat="44.57873" lon="6.00285">
        <ele>1276.5</ele>
        <time>2022-10-13T12:05:44.000Z</time>
      </trkpt>
      <trkpt lat="44.57876" lon="6.0029">
        <ele>1274.6</ele>
        <time>2022-10-13T12:05:49.000Z</time>
      </trkpt>
      <trkpt lat="44.57879" lon="6.00296">
        <ele>1264.3</ele>
        <time>2022-10-13T12:05:58.495Z</time>
      </trkpt>
      <trkpt lat="44.57884" lon="6.00295">
        <ele>1264</ele>
        <time>2022-10-13T12:05:59.912Z</time>
      </trkpt>
      <trkpt lat="44.5789" lon="6.00294">
        <ele>1263.9</ele>
        <time>2022-10-13T12:06:01.329Z</time>
      </trkpt>
      <trkpt lat="44.57895" lon="6.00295">
        <ele>1265.8</ele>
        <time>2022-10-13T12:06:02.735Z</time>
      </trkpt>
      <trkpt lat="44.57904" lon="6.00299">
        <ele>1273.1</ele>
        <time>2022-10-13T12:06:06.000Z</time>
      </trkpt>
      <trkpt lat="44.57908" lon="6.00302">
        <ele>1273.4</ele>
        <time>2022-10-13T12:06:06.618Z</time>
      </trkpt>
      <trkpt lat="44.57913" lon="6.00305">
        <ele>1272.9</ele>
        <time>2022-10-13T12:06:08.058Z</time>
      </trkpt>
      <trkpt lat="44.5792" lon="6.00308">
        <ele>1274.4</ele>
        <time>2022-10-13T12:06:10.726Z</time>
      </trkpt>
      <trkpt lat="44.57927" lon="6.0031">
        <ele>1275</ele>
        <time>2022-10-13T12:06:14.000Z</time>
      </trkpt>
      <trkpt lat="44.57932" lon="6.00311">
        <ele>1274</ele>
        <time>2022-10-13T12:06:16.000Z</time>
      </trkpt>
      <trkpt lat="44.5794" lon="6.00313">
        <ele>1274</ele>
        <time>2022-10-13T12:06:17.868Z</time>
      </trkpt>
      <trkpt lat="44.57947" lon="6.00315">
        <ele>1276.1</ele>
        <time>2022-10-13T12:06:21.000Z</time>
      </trkpt>
      <trkpt lat="44.57954" lon="6.00317">
        <ele>1277.4</ele>
        <time>2022-10-13T12:06:22.915Z</time>
      </trkpt>
      <trkpt lat="44.5796" lon="6.00319">
        <ele>1279.2</ele>
        <time>2022-10-13T12:06:26.000Z</time>
      </trkpt>
      <trkpt lat="44.57965" lon="6.00319">
        <ele>1279.5</ele>
        <time>2022-10-13T12:06:26.792Z</time>
      </trkpt>
      <trkpt lat="44.57972" lon="6.00318">
        <ele>1279.6</ele>
        <time>2022-10-13T12:06:30.000Z</time>
      </trkpt>
      <trkpt lat="44.57977" lon="6.00318">
        <ele>1279.7</ele>
        <time>2022-10-13T12:06:32.000Z</time>
      </trkpt>
      <trkpt lat="44.57981" lon="6.00318">
        <ele>1280.9</ele>
        <time>2022-10-13T12:06:34.000Z</time>
      </trkpt>
      <trkpt lat="44.57987" lon="6.00318">
        <ele>1281.6</ele>
        <time>2022-10-13T12:06:36.000Z</time>
      </trkpt>
      <trkpt lat="44.57992" lon="6.00317">
        <ele>1282.2</ele>
        <time>2022-10-13T12:06:38.000Z</time>
      </trkpt>
      <trkpt lat="44.57999" lon="6.00317">
        <ele>1282.8</ele>
        <time>2022-10-13T12:06:41.000Z</time>
      </trkpt>
      <trkpt lat="44.58005" lon="6.00316">
        <ele>1284</ele>
        <time>2022-10-13T12:06:42.813Z</time>
      </trkpt>
      <trkpt lat="44.58011" lon="6.00316">
        <ele>1284</ele>
        <time>2022-10-13T12:06:45.193Z</time>
      </trkpt>
      <trkpt lat="44.58016" lon="6.00314">
        <ele>1286.1</ele>
        <time>2022-10-13T12:06:48.000Z</time>
      </trkpt>
      <trkpt lat="44.58023" lon="6.00311">
        <ele>1286.2</ele>
        <time>2022-10-13T12:06:50.168Z</time>
      </trkpt>
      <trkpt lat="44.5803" lon="6.0031">
        <ele>1287.2</ele>
        <time>2022-10-13T12:06:52.952Z</time>
      </trkpt>
      <trkpt lat="44.58036" lon="6.00309">
        <ele>1288</ele>
        <time>2022-10-13T12:06:56.000Z</time>
      </trkpt>
      <trkpt lat="44.58042" lon="6.00311">
        <ele>1288.6</ele>
        <time>2022-10-13T12:06:58.000Z</time>
      </trkpt>
      <trkpt lat="44.5805" lon="6.00314">
        <ele>1287.6</ele>
        <time>2022-10-13T12:07:00.000Z</time>
      </trkpt>
      <trkpt lat="44.58055" lon="6.00317">
        <ele>1287.8</ele>
        <time>2022-10-13T12:07:01.000Z</time>
      </trkpt>
      <trkpt lat="44.58059" lon="6.0032">
        <ele>1287.8</ele>
        <time>2022-10-13T12:07:02.000Z</time>
      </trkpt>
      <trkpt lat="44.58064" lon="6.00324">
        <ele>1288.2</ele>
        <time>2022-10-13T12:07:03.000Z</time>
      </trkpt>
      <trkpt lat="44.58068" lon="6.00328">
        <ele>1287.4</ele>
        <time>2022-10-13T12:07:04.330Z</time>
      </trkpt>
      <trkpt lat="44.58072" lon="6.00333">
        <ele>1286.2</ele>
        <time>2022-10-13T12:07:05.584Z</time>
      </trkpt>
      <trkpt lat="44.58077" lon="6.00336">
        <ele>1286.9</ele>
        <time>2022-10-13T12:07:06.830Z</time>
      </trkpt>
      <trkpt lat="44.58083" lon="6.00337">
        <ele>1285.5</ele>
        <time>2022-10-13T12:07:08.107Z</time>
      </trkpt>
      <trkpt lat="44.58093" lon="6.00343">
        <ele>1286.5</ele>
        <time>2022-10-13T12:07:10.788Z</time>
      </trkpt>
      <trkpt lat="44.58099" lon="6.00344">
        <ele>1286.7</ele>
        <time>2022-10-13T12:07:12.287Z</time>
      </trkpt>
      <trkpt lat="44.58106" lon="6.00348">
        <ele>1285.2</ele>
        <time>2022-10-13T12:07:15.000Z</time>
      </trkpt>
      <trkpt lat="44.58112" lon="6.00349">
        <ele>1286.6</ele>
        <time>2022-10-13T12:07:15.842Z</time>
      </trkpt>
      <trkpt lat="44.58116" lon="6.0035">
        <ele>1286.7</ele>
        <time>2022-10-13T12:07:17.290Z</time>
      </trkpt>
      <trkpt lat="44.58121" lon="6.00352">
        <ele>1288.5</ele>
        <time>2022-10-13T12:07:18.909Z</time>
      </trkpt>
      <trkpt lat="44.58126" lon="6.00353">
        <ele>1289.4</ele>
        <time>2022-10-13T12:07:20.305Z</time>
      </trkpt>
      <trkpt lat="44.58135" lon="6.00355">
        <ele>1291.8</ele>
        <time>2022-10-13T12:07:23.251Z</time>
      </trkpt>
      <trkpt lat="44.5814" lon="6.00353">
        <ele>1292</ele>
        <time>2022-10-13T12:07:24.628Z</time>
      </trkpt>
      <trkpt lat="44.58146" lon="6.00351">
        <ele>1292.2</ele>
        <time>2022-10-13T12:07:26.190Z</time>
      </trkpt>
      <trkpt lat="44.58154" lon="6.00349">
        <ele>1291.8</ele>
        <time>2022-10-13T12:07:29.000Z</time>
      </trkpt>
      <trkpt lat="44.58159" lon="6.00348">
        <ele>1292.1</ele>
        <time>2022-10-13T12:07:29.690Z</time>
      </trkpt>
      <trkpt lat="44.58165" lon="6.00348">
        <ele>1293.2</ele>
        <time>2022-10-13T12:07:31.891Z</time>
      </trkpt>
      <trkpt lat="44.58169" lon="6.00351">
        <ele>1291</ele>
        <time>2022-10-13T12:07:33.294Z</time>
      </trkpt>
      <trkpt lat="44.58174" lon="6.00356">
        <ele>1290.3</ele>
        <time>2022-10-13T12:07:36.000Z</time>
      </trkpt>
      <trkpt lat="44.58181" lon="6.00361">
        <ele>1290.1</ele>
        <time>2022-10-13T12:07:37.000Z</time>
      </trkpt>
      <trkpt lat="44.58187" lon="6.00366">
        <ele>1289.7</ele>
        <time>2022-10-13T12:07:38.000Z</time>
      </trkpt>
      <trkpt lat="44.58193" lon="6.00369">
        <ele>1288.1</ele>
        <time>2022-10-13T12:07:39.000Z</time>
      </trkpt>
      <trkpt lat="44.582" lon="6.00376">
        <ele>1286.9</ele>
        <time>2022-10-13T12:07:41.000Z</time>
      </trkpt>
      <trkpt lat="44.58208" lon="6.00383">
        <ele>1285.9</ele>
        <time>2022-10-13T12:07:41.840Z</time>
      </trkpt>
      <trkpt lat="44.58216" lon="6.00386">
        <ele>1283.1</ele>
        <time>2022-10-13T12:07:43.055Z</time>
      </trkpt>
      <trkpt lat="44.58221" lon="6.00388">
        <ele>1282.2</ele>
        <time>2022-10-13T12:07:44.301Z</time>
      </trkpt>
      <trkpt lat="44.58228" lon="6.00389">
        <ele>1278.5</ele>
        <time>2022-10-13T12:07:46.000Z</time>
      </trkpt>
      <trkpt lat="44.58235" lon="6.00391">
        <ele>1278.4</ele>
        <time>2022-10-13T12:07:47.000Z</time>
      </trkpt>
      <trkpt lat="44.58241" lon="6.00392">
        <ele>1279.5</ele>
        <time>2022-10-13T12:07:48.000Z</time>
      </trkpt>
      <trkpt lat="44.58247" lon="6.00392">
        <ele>1277.9</ele>
        <time>2022-10-13T12:07:49.000Z</time>
      </trkpt>
      <trkpt lat="44.58253" lon="6.00393">
        <ele>1276.8</ele>
        <time>2022-10-13T12:07:50.000Z</time>
      </trkpt>
      <trkpt lat="44.58259" lon="6.00395">
        <ele>1276</ele>
        <time>2022-10-13T12:07:51.000Z</time>
      </trkpt>
      <trkpt lat="44.58265" lon="6.00397">
        <ele>1276.2</ele>
        <time>2022-10-13T12:07:52.000Z</time>
      </trkpt>
      <trkpt lat="44.58271" lon="6.00399">
        <ele>1276.3</ele>
        <time>2022-10-13T12:07:53.000Z</time>
      </trkpt>
      <trkpt lat="44.58278" lon="6.00398">
        <ele>1276.2</ele>
        <time>2022-10-13T12:07:54.000Z</time>
      </trkpt>
      <trkpt lat="44.58284" lon="6.00396">
        <ele>1275.2</ele>
        <time>2022-10-13T12:07:55.000Z</time>
      </trkpt>
      <trkpt lat="44.58291" lon="6.00394">
        <ele>1274.7</ele>
        <time>2022-10-13T12:07:56.000Z</time>
      </trkpt>
      <trkpt lat="44.58298" lon="6.00391">
        <ele>1275.2</ele>
        <time>2022-10-13T12:07:57.000Z</time>
      </trkpt>
      <trkpt lat="44.58306" lon="6.0039">
        <ele>1274.7</ele>
        <time>2022-10-13T12:07:58.000Z</time>
      </trkpt>
      <trkpt lat="44.58314" lon="6.0039">
        <ele>1274.6</ele>
        <time>2022-10-13T12:07:59.000Z</time>
      </trkpt>
      <trkpt lat="44.58321" lon="6.00388">
        <ele>1274.7</ele>
        <time>2022-10-13T12:08:00.000Z</time>
      </trkpt>
      <trkpt lat="44.58328" lon="6.00386">
        <ele>1274.5</ele>
        <time>2022-10-13T12:08:01.000Z</time>
      </trkpt>
      <trkpt lat="44.58335" lon="6.00385">
        <ele>1273.3</ele>
        <time>2022-10-13T12:08:02.000Z</time>
      </trkpt>
      <trkpt lat="44.58341" lon="6.00384">
        <ele>1274</ele>
        <time>2022-10-13T12:08:03.000Z</time>
      </trkpt>
      <trkpt lat="44.58347" lon="6.00383">
        <ele>1273.3</ele>
        <time>2022-10-13T12:08:04.000Z</time>
      </trkpt>
      <trkpt lat="44.58353" lon="6.00383">
        <ele>1273.3</ele>
        <time>2022-10-13T12:08:05.000Z</time>
      </trkpt>
      <trkpt lat="44.58359" lon="6.00382">
        <ele>1272.2</ele>
        <time>2022-10-13T12:08:06.000Z</time>
      </trkpt>
      <trkpt lat="44.58365" lon="6.00382">
        <ele>1272.4</ele>
        <time>2022-10-13T12:08:07.000Z</time>
      </trkpt>
      <trkpt lat="44.5837" lon="6.00382">
        <ele>1271.9</ele>
        <time>2022-10-13T12:08:08.000Z</time>
      </trkpt>
      <trkpt lat="44.58376" lon="6.00382">
        <ele>1271.2</ele>
        <time>2022-10-13T12:08:09.000Z</time>
      </trkpt>
      <trkpt lat="44.58382" lon="6.00383">
        <ele>1270.9</ele>
        <time>2022-10-13T12:08:10.000Z</time>
      </trkpt>
      <trkpt lat="44.58387" lon="6.00383">
        <ele>1270.8</ele>
        <time>2022-10-13T12:08:11.000Z</time>
      </trkpt>
      <trkpt lat="44.58392" lon="6.00382">
        <ele>1271</ele>
        <time>2022-10-13T12:08:12.000Z</time>
      </trkpt>
      <trkpt lat="44.58398" lon="6.00382">
        <ele>1270.5</ele>
        <time>2022-10-13T12:08:13.000Z</time>
      </trkpt>
      <trkpt lat="44.58404" lon="6.00386">
        <ele>1270.6</ele>
        <time>2022-10-13T12:08:14.000Z</time>
      </trkpt>
      <trkpt lat="44.58408" lon="6.00392">
        <ele>1270.8</ele>
        <time>2022-10-13T12:08:15.000Z</time>
      </trkpt>
      <trkpt lat="44.58412" lon="6.00398">
        <ele>1270.9</ele>
        <time>2022-10-13T12:08:17.000Z</time>
      </trkpt>
      <trkpt lat="44.58415" lon="6.00403">
        <ele>1270.7</ele>
        <time>2022-10-13T12:08:18.000Z</time>
      </trkpt>
      <trkpt lat="44.58421" lon="6.00409">
        <ele>1270.8</ele>
        <time>2022-10-13T12:08:20.000Z</time>
      </trkpt>
      <trkpt lat="44.58429" lon="6.00416">
        <ele>1263.4</ele>
        <time>2022-10-13T12:08:22.000Z</time>
      </trkpt>
      <trkpt lat="44.58435" lon="6.00421">
        <ele>1269.3</ele>
        <time>2022-10-13T12:08:24.000Z</time>
      </trkpt>
      <trkpt lat="44.58438" lon="6.00428">
        <ele>1263.3</ele>
        <time>2022-10-13T12:08:25.000Z</time>
      </trkpt>
      <trkpt lat="44.58444" lon="6.00435">
        <ele>1263.2</ele>
        <time>2022-10-13T12:08:27.000Z</time>
      </trkpt>
      <trkpt lat="44.58449" lon="6.00442">
        <ele>1264</ele>
        <time>2022-10-13T12:08:29.000Z</time>
      </trkpt>
      <trkpt lat="44.58455" lon="6.0045">
        <ele>1263.4</ele>
        <time>2022-10-13T12:08:31.000Z</time>
      </trkpt>
      <trkpt lat="44.5846" lon="6.00457">
        <ele>1266.9</ele>
        <time>2022-10-13T12:08:33.000Z</time>
      </trkpt>
      <trkpt lat="44.58465" lon="6.00463">
        <ele>1267.2</ele>
        <time>2022-10-13T12:08:35.000Z</time>
      </trkpt>
      <trkpt lat="44.5847" lon="6.00471">
        <ele>1266.9</ele>
        <time>2022-10-13T12:08:37.000Z</time>
      </trkpt>
      <trkpt lat="44.58475" lon="6.00478">
        <ele>1265.9</ele>
        <time>2022-10-13T12:08:39.000Z</time>
      </trkpt>
      <trkpt lat="44.5848" lon="6.00484">
        <ele>1266</ele>
        <time>2022-10-13T12:08:41.000Z</time>
      </trkpt>
      <trkpt lat="44.58487" lon="6.00494">
        <ele>1266.8</ele>
        <time>2022-10-13T12:08:42.758Z</time>
      </trkpt>
      <trkpt lat="44.58491" lon="6.00499">
        <ele>1267.1</ele>
        <time>2022-10-13T12:08:44.063Z</time>
      </trkpt>
      <trkpt lat="44.58495" lon="6.00504">
        <ele>1267.1</ele>
        <time>2022-10-13T12:08:45.338Z</time>
      </trkpt>
      <trkpt lat="44.58502" lon="6.00514">
        <ele>1265.2</ele>
        <time>2022-10-13T12:08:47.840Z</time>
      </trkpt>
      <trkpt lat="44.58506" lon="6.00521">
        <ele>1265.3</ele>
        <time>2022-10-13T12:08:49.097Z</time>
      </trkpt>
      <trkpt lat="44.58509" lon="6.00527">
        <ele>1267.2</ele>
        <time>2022-10-13T12:08:51.000Z</time>
      </trkpt>
      <trkpt lat="44.58515" lon="6.00532">
        <ele>1267.6</ele>
        <time>2022-10-13T12:08:52.344Z</time>
      </trkpt>
      <trkpt lat="44.58521" lon="6.00538">
        <ele>1266.9</ele>
        <time>2022-10-13T12:08:55.000Z</time>
      </trkpt>
      <trkpt lat="44.58525" lon="6.00542">
        <ele>1267.1</ele>
        <time>2022-10-13T12:08:56.023Z</time>
      </trkpt>
      <trkpt lat="44.5853" lon="6.00547">
        <ele>1268.4</ele>
        <time>2022-10-13T12:08:59.000Z</time>
      </trkpt>
      <trkpt lat="44.58534" lon="6.00551">
        <ele>1270.1</ele>
        <time>2022-10-13T12:09:03.000Z</time>
      </trkpt>
      <trkpt lat="44.58538" lon="6.00549">
        <ele>1269.3</ele>
        <time>2022-10-13T12:09:27.000Z</time>
      </trkpt>
      <trkpt lat="44.58532" lon="6.00547">
        <ele>1269.5</ele>
        <time>2022-10-13T12:09:54.000Z</time>
      </trkpt>
      <trkpt lat="44.58538" lon="6.00549">
        <ele>1268.7</ele>
        <time>2022-10-13T12:11:22.000Z</time>
      </trkpt>
      <trkpt lat="44.58543" lon="6.00556">
        <ele>1271.1</ele>
        <time>2022-10-13T12:12:30.079Z</time>
      </trkpt>
      <trkpt lat="44.58541" lon="6.00576">
        <ele>1271</ele>
        <time>2022-10-13T12:12:33.423Z</time>
      </trkpt>
      <trkpt lat="44.58538" lon="6.00593">
        <ele>1270.8</ele>
        <time>2022-10-13T12:12:36.992Z</time>
      </trkpt>
      <trkpt lat="44.58537" lon="6.00607">
        <ele>1271.5</ele>
        <time>2022-10-13T12:12:40.423Z</time>
      </trkpt>
      <trkpt lat="44.58535" lon="6.00619">
        <ele>1268.1</ele>
        <time>2022-10-13T12:12:43.495Z</time>
      </trkpt>
      <trkpt lat="44.58533" lon="6.00629">
        <ele>1273.6</ele>
        <time>2022-10-13T12:12:46.582Z</time>
      </trkpt>
      <trkpt lat="44.58532" lon="6.00638">
        <ele>1273.8</ele>
        <time>2022-10-13T12:12:49.415Z</time>
      </trkpt>
      <trkpt lat="44.58533" lon="6.00646">
        <ele>1268</ele>
        <time>2022-10-13T12:12:52.480Z</time>
      </trkpt>
      <trkpt lat="44.58534" lon="6.0067">
        <ele>1274.1</ele>
        <time>2022-10-13T12:12:55.593Z</time>
      </trkpt>
      <trkpt lat="44.58537" lon="6.00689">
        <ele>1272.7</ele>
        <time>2022-10-13T12:12:58.427Z</time>
      </trkpt>
      <trkpt lat="44.58539" lon="6.00712">
        <ele>1269.1</ele>
        <time>2022-10-13T12:13:01.602Z</time>
      </trkpt>
      <trkpt lat="44.58536" lon="6.0073">
        <ele>1273.3</ele>
        <time>2022-10-13T12:13:04.497Z</time>
      </trkpt>
      <trkpt lat="44.58537" lon="6.00747">
        <ele>1273.5</ele>
        <time>2022-10-13T12:13:07.414Z</time>
      </trkpt>
      <trkpt lat="44.58543" lon="6.00756">
        <ele>1269.1</ele>
        <time>2022-10-13T12:13:10.426Z</time>
      </trkpt>
      <trkpt lat="44.58543" lon="6.00785">
        <ele>1273.7</ele>
        <time>2022-10-13T12:13:16.103Z</time>
      </trkpt>
      <trkpt lat="44.58548" lon="6.00809">
        <ele>1274.9</ele>
        <time>2022-10-13T12:13:19.429Z</time>
      </trkpt>
      <trkpt lat="44.58546" lon="6.00827">
        <ele>1272.5</ele>
        <time>2022-10-13T12:13:22.544Z</time>
      </trkpt>
      <trkpt lat="44.58545" lon="6.0084">
        <ele>1277.3</ele>
        <time>2022-10-13T12:13:25.559Z</time>
      </trkpt>
      <trkpt lat="44.58546" lon="6.00852">
        <ele>1275.4</ele>
        <time>2022-10-13T12:13:28.426Z</time>
      </trkpt>
      <trkpt lat="44.58548" lon="6.00865">
        <ele>1275.6</ele>
        <time>2022-10-13T12:13:31.459Z</time>
      </trkpt>
      <trkpt lat="44.58548" lon="6.00882">
        <ele>1278</ele>
        <time>2022-10-13T12:13:34.421Z</time>
      </trkpt>
      <trkpt lat="44.5855" lon="6.00896">
        <ele>1278</ele>
        <time>2022-10-13T12:13:37.423Z</time>
      </trkpt>
      <trkpt lat="44.58552" lon="6.00916">
        <ele>1278</ele>
        <time>2022-10-13T12:13:40.742Z</time>
      </trkpt>
      <trkpt lat="44.58555" lon="6.00939">
        <ele>1275</ele>
        <time>2022-10-13T12:13:44.425Z</time>
      </trkpt>
      <trkpt lat="44.58552" lon="6.00953">
        <ele>1275.7</ele>
        <time>2022-10-13T12:13:47.437Z</time>
      </trkpt>
      <trkpt lat="44.58548" lon="6.00967">
        <ele>1277.2</ele>
        <time>2022-10-13T12:13:50.435Z</time>
      </trkpt>
      <trkpt lat="44.5855" lon="6.00979">
        <ele>1277.6</ele>
        <time>2022-10-13T12:13:53.430Z</time>
      </trkpt>
      <trkpt lat="44.58554" lon="6.00994">
        <ele>1276.7</ele>
        <time>2022-10-13T12:13:56.429Z</time>
      </trkpt>
      <trkpt lat="44.58557" lon="6.01015">
        <ele>1277.2</ele>
        <time>2022-10-13T12:13:59.456Z</time>
      </trkpt>
      <trkpt lat="44.58555" lon="6.01035">
        <ele>1277.7</ele>
        <time>2022-10-13T12:14:02.432Z</time>
      </trkpt>
      <trkpt lat="44.58552" lon="6.01053">
        <ele>1277.8</ele>
        <time>2022-10-13T12:14:05.415Z</time>
      </trkpt>
      <trkpt lat="44.58552" lon="6.01063">
        <ele>1277</ele>
        <time>2022-10-13T12:14:08.450Z</time>
      </trkpt>
      <trkpt lat="44.58554" lon="6.0107">
        <ele>1275.4</ele>
        <time>2022-10-13T12:14:11.425Z</time>
      </trkpt>
      <trkpt lat="44.58553" lon="6.01083">
        <ele>1275.8</ele>
        <time>2022-10-13T12:14:14.424Z</time>
      </trkpt>
      <trkpt lat="44.58551" lon="6.01106">
        <ele>1264.5</ele>
        <time>2022-10-13T12:14:17.450Z</time>
      </trkpt>
      <trkpt lat="44.58552" lon="6.01127">
        <ele>1267.7</ele>
        <time>2022-10-13T12:14:20.463Z</time>
      </trkpt>
      <trkpt lat="44.58561" lon="6.0114">
        <ele>1266.2</ele>
        <time>2022-10-13T12:14:23.424Z</time>
      </trkpt>
      <trkpt lat="44.58565" lon="6.01154">
        <ele>1259.4</ele>
        <time>2022-10-13T12:14:26.427Z</time>
      </trkpt>
      <trkpt lat="44.58569" lon="6.01177">
        <ele>1255.3</ele>
        <time>2022-10-13T12:14:29.467Z</time>
      </trkpt>
      <trkpt lat="44.58566" lon="6.01221">
        <ele>1254.5</ele>
        <time>2022-10-13T12:14:34.000Z</time>
      </trkpt>
      <trkpt lat="44.58564" lon="6.01242">
        <ele>1247.7</ele>
        <time>2022-10-13T12:14:37.000Z</time>
      </trkpt>
      <trkpt lat="44.58567" lon="6.01255">
        <ele>1242</ele>
        <time>2022-10-13T12:14:40.000Z</time>
      </trkpt>
      <trkpt lat="44.58571" lon="6.01276">
        <ele>1241.6</ele>
        <time>2022-10-13T12:14:43.000Z</time>
      </trkpt>
      <trkpt lat="44.58577" lon="6.01277">
        <ele>1241.1</ele>
        <time>2022-10-13T12:14:46.000Z</time>
      </trkpt>
      <trkpt lat="44.58585" lon="6.01268">
        <ele>1241.1</ele>
        <time>2022-10-13T12:14:48.455Z</time>
      </trkpt>
      <trkpt lat="44.58606" lon="6.01256">
        <ele>1239.8</ele>
        <time>2022-10-13T12:14:52.000Z</time>
      </trkpt>
      <trkpt lat="44.58625" lon="6.01249">
        <ele>1242.6</ele>
        <time>2022-10-13T12:14:55.000Z</time>
      </trkpt>
      <trkpt lat="44.58641" lon="6.01241">
        <ele>1240.6</ele>
        <time>2022-10-13T12:14:58.000Z</time>
      </trkpt>
      <trkpt lat="44.58657" lon="6.01234">
        <ele>1243.9</ele>
        <time>2022-10-13T12:15:01.000Z</time>
      </trkpt>
      <trkpt lat="44.58669" lon="6.01226">
        <ele>1244.9</ele>
        <time>2022-10-13T12:15:04.000Z</time>
      </trkpt>
      <trkpt lat="44.5868" lon="6.01216">
        <ele>1247.4</ele>
        <time>2022-10-13T12:15:07.000Z</time>
      </trkpt>
      <trkpt lat="44.58686" lon="6.01209">
        <ele>1249.8</ele>
        <time>2022-10-13T12:15:10.000Z</time>
      </trkpt>
      <trkpt lat="44.58701" lon="6.01196">
        <ele>1241.4</ele>
        <time>2022-10-13T12:15:13.000Z</time>
      </trkpt>
      <trkpt lat="44.58719" lon="6.01176">
        <ele>1240.2</ele>
        <time>2022-10-13T12:15:16.000Z</time>
      </trkpt>
      <trkpt lat="44.58736" lon="6.01161">
        <ele>1238.1</ele>
        <time>2022-10-13T12:15:19.000Z</time>
      </trkpt>
      <trkpt lat="44.5875" lon="6.01143">
        <ele>1235.4</ele>
        <time>2022-10-13T12:15:22.000Z</time>
      </trkpt>
      <trkpt lat="44.5876" lon="6.01116">
        <ele>1232.4</ele>
        <time>2022-10-13T12:15:25.000Z</time>
      </trkpt>
      <trkpt lat="44.58766" lon="6.01089">
        <ele>1228.2</ele>
        <time>2022-10-13T12:15:28.000Z</time>
      </trkpt>
      <trkpt lat="44.58773" lon="6.01065">
        <ele>1239.4</ele>
        <time>2022-10-13T12:15:31.000Z</time>
      </trkpt>
      <trkpt lat="44.58786" lon="6.01042">
        <ele>1230.4</ele>
        <time>2022-10-13T12:15:34.000Z</time>
      </trkpt>
      <trkpt lat="44.58801" lon="6.01022">
        <ele>1225</ele>
        <time>2022-10-13T12:15:37.000Z</time>
      </trkpt>
      <trkpt lat="44.58817" lon="6.0101">
        <ele>1216.6</ele>
        <time>2022-10-13T12:15:40.000Z</time>
      </trkpt>
      <trkpt lat="44.58828" lon="6.01003">
        <ele>1212.4</ele>
        <time>2022-10-13T12:15:43.000Z</time>
      </trkpt>
      <trkpt lat="44.5883" lon="6.01023">
        <ele>1207</ele>
        <time>2022-10-13T12:15:49.000Z</time>
      </trkpt>
      <trkpt lat="44.58829" lon="6.01038">
        <ele>1208.9</ele>
        <time>2022-10-13T12:15:52.000Z</time>
      </trkpt>
      <trkpt lat="44.58825" lon="6.01069">
        <ele>1210.9</ele>
        <time>2022-10-13T12:15:57.788Z</time>
      </trkpt>
      <trkpt lat="44.58823" lon="6.01089">
        <ele>1211.5</ele>
        <time>2022-10-13T12:16:01.426Z</time>
      </trkpt>
      <trkpt lat="44.58825" lon="6.011">
        <ele>1207.4</ele>
        <time>2022-10-13T12:16:04.452Z</time>
      </trkpt>
      <trkpt lat="44.5883" lon="6.01112">
        <ele>1213.7</ele>
        <time>2022-10-13T12:16:07.610Z</time>
      </trkpt>
      <trkpt lat="44.58836" lon="6.01122">
        <ele>1212.9</ele>
        <time>2022-10-13T12:16:10.424Z</time>
      </trkpt>
      <trkpt lat="44.58842" lon="6.01136">
        <ele>1209.9</ele>
        <time>2022-10-13T12:16:13.732Z</time>
      </trkpt>
      <trkpt lat="44.5885" lon="6.01151">
        <ele>1213.9</ele>
        <time>2022-10-13T12:16:17.429Z</time>
      </trkpt>
      <trkpt lat="44.58855" lon="6.01163">
        <ele>1212.8</ele>
        <time>2022-10-13T12:16:20.421Z</time>
      </trkpt>
      <trkpt lat="44.5886" lon="6.01174">
        <ele>1211.8</ele>
        <time>2022-10-13T12:16:23.513Z</time>
      </trkpt>
      <trkpt lat="44.58866" lon="6.01185">
        <ele>1218.8</ele>
        <time>2022-10-13T12:16:26.424Z</time>
      </trkpt>
      <trkpt lat="44.5887" lon="6.01199">
        <ele>1218.1</ele>
        <time>2022-10-13T12:16:29.434Z</time>
      </trkpt>
      <trkpt lat="44.58871" lon="6.01211">
        <ele>1210.2</ele>
        <time>2022-10-13T12:16:32.142Z</time>
      </trkpt>
      <trkpt lat="44.58871" lon="6.01228">
        <ele>1220.7</ele>
        <time>2022-10-13T12:16:35.431Z</time>
      </trkpt>
      <trkpt lat="44.58867" lon="6.01241">
        <ele>1220.1</ele>
        <time>2022-10-13T12:16:38.467Z</time>
      </trkpt>
      <trkpt lat="44.58865" lon="6.01251">
        <ele>1210.9</ele>
        <time>2022-10-13T12:16:41.217Z</time>
      </trkpt>
      <trkpt lat="44.58863" lon="6.01267">
        <ele>1222.4</ele>
        <time>2022-10-13T12:16:44.429Z</time>
      </trkpt>
      <trkpt lat="44.58866" lon="6.01281">
        <ele>1222.1</ele>
        <time>2022-10-13T12:16:47.415Z</time>
      </trkpt>
      <trkpt lat="44.58866" lon="6.01295">
        <ele>1210.7</ele>
        <time>2022-10-13T12:16:50.472Z</time>
      </trkpt>
      <trkpt lat="44.58866" lon="6.01309">
        <ele>1223.9</ele>
        <time>2022-10-13T12:16:53.426Z</time>
      </trkpt>
      <trkpt lat="44.5887" lon="6.01321">
        <ele>1224.1</ele>
        <time>2022-10-13T12:16:56.426Z</time>
      </trkpt>
      <trkpt lat="44.58877" lon="6.01331">
        <ele>1210.7</ele>
        <time>2022-10-13T12:16:59.511Z</time>
      </trkpt>
      <trkpt lat="44.58884" lon="6.01342">
        <ele>1226.1</ele>
        <time>2022-10-13T12:17:02.423Z</time>
      </trkpt>
      <trkpt lat="44.58892" lon="6.01348">
        <ele>1226.1</ele>
        <time>2022-10-13T12:17:05.429Z</time>
      </trkpt>
      <trkpt lat="44.589" lon="6.01351">
        <ele>1209.8</ele>
        <time>2022-10-13T12:17:08.157Z</time>
      </trkpt>
      <trkpt lat="44.58908" lon="6.01361">
        <ele>1227.9</ele>
        <time>2022-10-13T12:17:11.423Z</time>
      </trkpt>
      <trkpt lat="44.58913" lon="6.01375">
        <ele>1227.1</ele>
        <time>2022-10-13T12:17:14.428Z</time>
      </trkpt>
      <trkpt lat="44.58914" lon="6.01389">
        <ele>1229.2</ele>
        <time>2022-10-13T12:17:17.564Z</time>
      </trkpt>
      <trkpt lat="44.58912" lon="6.01406">
        <ele>1228.5</ele>
        <time>2022-10-13T12:17:20.424Z</time>
      </trkpt>
      <trkpt lat="44.58907" lon="6.01421">
        <ele>1229.6</ele>
        <time>2022-10-13T12:17:23.422Z</time>
      </trkpt>
      <trkpt lat="44.58901" lon="6.0143">
        <ele>1218.1</ele>
        <time>2022-10-13T12:17:26.245Z</time>
      </trkpt>
      <trkpt lat="44.58895" lon="6.01443">
        <ele>1230.4</ele>
        <time>2022-10-13T12:17:29.431Z</time>
      </trkpt>
      <trkpt lat="44.58888" lon="6.01452">
        <ele>1231.1</ele>
        <time>2022-10-13T12:17:32.432Z</time>
      </trkpt>
      <trkpt lat="44.58883" lon="6.01464">
        <ele>1232.1</ele>
        <time>2022-10-13T12:17:35.631Z</time>
      </trkpt>
      <trkpt lat="44.58877" lon="6.01474">
        <ele>1232.3</ele>
        <time>2022-10-13T12:17:38.427Z</time>
      </trkpt>
      <trkpt lat="44.58872" lon="6.01486">
        <ele>1232.7</ele>
        <time>2022-10-13T12:17:41.423Z</time>
      </trkpt>
      <trkpt lat="44.58869" lon="6.01498">
        <ele>1224.2</ele>
        <time>2022-10-13T12:17:44.160Z</time>
      </trkpt>
      <trkpt lat="44.58869" lon="6.0151">
        <ele>1233.5</ele>
        <time>2022-10-13T12:17:47.453Z</time>
      </trkpt>
      <trkpt lat="44.58875" lon="6.01519">
        <ele>1234</ele>
        <time>2022-10-13T12:17:50.423Z</time>
      </trkpt>
      <trkpt lat="44.58888" lon="6.0152">
        <ele>1222.6</ele>
        <time>2022-10-13T12:17:53.466Z</time>
      </trkpt>
      <trkpt lat="44.58898" lon="6.01521">
        <ele>1237.1</ele>
        <time>2022-10-13T12:17:56.431Z</time>
      </trkpt>
      <trkpt lat="44.58909" lon="6.01523">
        <ele>1237.2</ele>
        <time>2022-10-13T12:17:59.418Z</time>
      </trkpt>
      <trkpt lat="44.58919" lon="6.01525">
        <ele>1237.3</ele>
        <time>2022-10-13T12:18:02.461Z</time>
      </trkpt>
      <trkpt lat="44.58928" lon="6.01531">
        <ele>1237.6</ele>
        <time>2022-10-13T12:18:05.416Z</time>
      </trkpt>
      <trkpt lat="44.58935" lon="6.01542">
        <ele>1238</ele>
        <time>2022-10-13T12:18:08.418Z</time>
      </trkpt>
      <trkpt lat="44.58939" lon="6.01552">
        <ele>1224</ele>
        <time>2022-10-13T12:18:11.433Z</time>
      </trkpt>
      <trkpt lat="44.58944" lon="6.01562">
        <ele>1237</ele>
        <time>2022-10-13T12:18:14.423Z</time>
      </trkpt>
      <trkpt lat="44.58948" lon="6.01577">
        <ele>1238.3</ele>
        <time>2022-10-13T12:18:17.425Z</time>
      </trkpt>
      <trkpt lat="44.58951" lon="6.01589">
        <ele>1228.5</ele>
        <time>2022-10-13T12:18:20.393Z</time>
      </trkpt>
      <trkpt lat="44.58955" lon="6.01603">
        <ele>1240.3</ele>
        <time>2022-10-13T12:18:23.429Z</time>
      </trkpt>
      <trkpt lat="44.58958" lon="6.01617">
        <ele>1241.9</ele>
        <time>2022-10-13T12:18:26.443Z</time>
      </trkpt>
      <trkpt lat="44.58961" lon="6.01629">
        <ele>1243.7</ele>
        <time>2022-10-13T12:18:29.589Z</time>
      </trkpt>
      <trkpt lat="44.58965" lon="6.01641">
        <ele>1242.9</ele>
        <time>2022-10-13T12:18:32.420Z</time>
      </trkpt>
      <trkpt lat="44.5897" lon="6.01652">
        <ele>1241.4</ele>
        <time>2022-10-13T12:18:35.425Z</time>
      </trkpt>
      <trkpt lat="44.58975" lon="6.01664">
        <ele>1241.2</ele>
        <time>2022-10-13T12:18:38.500Z</time>
      </trkpt>
      <trkpt lat="44.58982" lon="6.01676">
        <ele>1241.6</ele>
        <time>2022-10-13T12:18:41.830Z</time>
      </trkpt>
      <trkpt lat="44.58984" lon="6.01688">
        <ele>1242</ele>
        <time>2022-10-13T12:18:44.897Z</time>
      </trkpt>
      <trkpt lat="44.58987" lon="6.017">
        <ele>1234.3</ele>
        <time>2022-10-13T12:18:47.628Z</time>
      </trkpt>
      <trkpt lat="44.58993" lon="6.01711">
        <ele>1246.2</ele>
        <time>2022-10-13T12:18:50.404Z</time>
      </trkpt>
      <trkpt lat="44.59" lon="6.01721">
        <ele>1246.9</ele>
        <time>2022-10-13T12:18:54.430Z</time>
      </trkpt>
      <trkpt lat="44.59008" lon="6.01729">
        <ele>1247.5</ele>
        <time>2022-10-13T12:18:57.426Z</time>
      </trkpt>
      <trkpt lat="44.59019" lon="6.01729">
        <ele>1247.9</ele>
        <time>2022-10-13T12:19:01.000Z</time>
      </trkpt>
      <trkpt lat="44.59028" lon="6.01724">
        <ele>1247.2</ele>
        <time>2022-10-13T12:19:03.429Z</time>
      </trkpt>
      <trkpt lat="44.59036" lon="6.01714">
        <ele>1246.6</ele>
        <time>2022-10-13T12:19:06.417Z</time>
      </trkpt>
      <trkpt lat="44.59038" lon="6.017">
        <ele>1247.4</ele>
        <time>2022-10-13T12:19:10.000Z</time>
      </trkpt>
      <trkpt lat="44.59042" lon="6.01689">
        <ele>1247.3</ele>
        <time>2022-10-13T12:19:12.460Z</time>
      </trkpt>
      <trkpt lat="44.59045" lon="6.01677">
        <ele>1245.8</ele>
        <time>2022-10-13T12:19:15.423Z</time>
      </trkpt>
      <trkpt lat="44.59046" lon="6.01663">
        <ele>1247.2</ele>
        <time>2022-10-13T12:19:19.000Z</time>
      </trkpt>
      <trkpt lat="44.59048" lon="6.01652">
        <ele>1246.7</ele>
        <time>2022-10-13T12:19:21.438Z</time>
      </trkpt>
      <trkpt lat="44.59049" lon="6.01639">
        <ele>1247.9</ele>
        <time>2022-10-13T12:19:24.422Z</time>
      </trkpt>
      <trkpt lat="44.59053" lon="6.01625">
        <ele>1252.1</ele>
        <time>2022-10-13T12:19:28.000Z</time>
      </trkpt>
      <trkpt lat="44.59059" lon="6.0161">
        <ele>1252.4</ele>
        <time>2022-10-13T12:19:30.468Z</time>
      </trkpt>
      <trkpt lat="44.59067" lon="6.01594">
        <ele>1257.5</ele>
        <time>2022-10-13T12:19:33.752Z</time>
      </trkpt>
      <trkpt lat="44.59075" lon="6.01582">
        <ele>1251.4</ele>
        <time>2022-10-13T12:19:36.746Z</time>
      </trkpt>
      <trkpt lat="44.59085" lon="6.01569">
        <ele>1250.2</ele>
        <time>2022-10-13T12:19:40.012Z</time>
      </trkpt>
      <trkpt lat="44.59095" lon="6.01561">
        <ele>1250.9</ele>
        <time>2022-10-13T12:19:42.850Z</time>
      </trkpt>
      <trkpt lat="44.59107" lon="6.01549">
        <ele>1251.8</ele>
        <time>2022-10-13T12:19:46.419Z</time>
      </trkpt>
      <trkpt lat="44.59117" lon="6.0154">
        <ele>1244.4</ele>
        <time>2022-10-13T12:19:49.506Z</time>
      </trkpt>
      <trkpt lat="44.59129" lon="6.01525">
        <ele>1252.2</ele>
        <time>2022-10-13T12:19:53.420Z</time>
      </trkpt>
      <trkpt lat="44.59139" lon="6.01514">
        <ele>1252.3</ele>
        <time>2022-10-13T12:19:56.429Z</time>
      </trkpt>
      <trkpt lat="44.59146" lon="6.01504">
        <ele>1247</ele>
        <time>2022-10-13T12:19:59.155Z</time>
      </trkpt>
      <trkpt lat="44.59155" lon="6.01492">
        <ele>1252.3</ele>
        <time>2022-10-13T12:20:02.428Z</time>
      </trkpt>
      <trkpt lat="44.59165" lon="6.01484">
        <ele>1251.5</ele>
        <time>2022-10-13T12:20:05.428Z</time>
      </trkpt>
      <trkpt lat="44.59171" lon="6.01476">
        <ele>1256</ele>
        <time>2022-10-13T12:20:08.471Z</time>
      </trkpt>
      <trkpt lat="44.59177" lon="6.01467">
        <ele>1257</ele>
        <time>2022-10-13T12:20:11.454Z</time>
      </trkpt>
      <trkpt lat="44.59185" lon="6.01459">
        <ele>1257.9</ele>
        <time>2022-10-13T12:20:14.426Z</time>
      </trkpt>
      <trkpt lat="44.59192" lon="6.01457">
        <ele>1253.3</ele>
        <time>2022-10-13T12:20:17.432Z</time>
      </trkpt>
      <trkpt lat="44.59199" lon="6.01461">
        <ele>1255</ele>
        <time>2022-10-13T12:20:20.406Z</time>
      </trkpt>
      <trkpt lat="44.59206" lon="6.01463">
        <ele>1262</ele>
        <time>2022-10-13T12:20:23.425Z</time>
      </trkpt>
      <trkpt lat="44.59211" lon="6.01471">
        <ele>1261.9</ele>
        <time>2022-10-13T12:20:26.420Z</time>
      </trkpt>
      <trkpt lat="44.5921" lon="6.01482">
        <ele>1259.3</ele>
        <time>2022-10-13T12:20:29.409Z</time>
      </trkpt>
      <trkpt lat="44.59208" lon="6.01492">
        <ele>1265.7</ele>
        <time>2022-10-13T12:20:32.436Z</time>
      </trkpt>
      <trkpt lat="44.59208" lon="6.01504">
        <ele>1265.2</ele>
        <time>2022-10-13T12:20:35.419Z</time>
      </trkpt>
      <trkpt lat="44.59209" lon="6.01514">
        <ele>1261.4</ele>
        <time>2022-10-13T12:20:38.160Z</time>
      </trkpt>
      <trkpt lat="44.59209" lon="6.01526">
        <ele>1268.3</ele>
        <time>2022-10-13T12:20:41.426Z</time>
      </trkpt>
      <trkpt lat="44.59211" lon="6.01535">
        <ele>1270.1</ele>
        <time>2022-10-13T12:20:44.428Z</time>
      </trkpt>
      <trkpt lat="44.59219" lon="6.01533">
        <ele>1267.9</ele>
        <time>2022-10-13T12:20:47.307Z</time>
      </trkpt>
      <trkpt lat="44.59227" lon="6.0153">
        <ele>1272.6</ele>
        <time>2022-10-13T12:20:50.436Z</time>
      </trkpt>
      <trkpt lat="44.59237" lon="6.01531">
        <ele>1269.8</ele>
        <time>2022-10-13T12:20:53.434Z</time>
      </trkpt>
      <trkpt lat="44.59245" lon="6.01532">
        <ele>1265.9</ele>
        <time>2022-10-13T12:20:56.213Z</time>
      </trkpt>
      <trkpt lat="44.59256" lon="6.01532">
        <ele>1272.9</ele>
        <time>2022-10-13T12:20:59.432Z</time>
      </trkpt>
      <trkpt lat="44.59268" lon="6.01536">
        <ele>1273.8</ele>
        <time>2022-10-13T12:21:03.418Z</time>
      </trkpt>
      <trkpt lat="44.59277" lon="6.01538">
        <ele>1272.7</ele>
        <time>2022-10-13T12:21:07.000Z</time>
      </trkpt>
      <trkpt lat="44.5929" lon="6.01543">
        <ele>1271.7</ele>
        <time>2022-10-13T12:21:09.436Z</time>
      </trkpt>
      <trkpt lat="44.59303" lon="6.01535">
        <ele>1272.8</ele>
        <time>2022-10-13T12:21:12.412Z</time>
      </trkpt>
      <trkpt lat="44.59312" lon="6.01544">
        <ele>1273.6</ele>
        <time>2022-10-13T12:21:16.000Z</time>
      </trkpt>
      <trkpt lat="44.59308" lon="6.01545">
        <ele>1273.5</ele>
        <time>2022-10-13T12:21:18.425Z</time>
      </trkpt>
      <trkpt lat="44.59335" lon="6.01543">
        <ele>1272.3</ele>
        <time>2022-10-13T12:21:21.434Z</time>
      </trkpt>
      <trkpt lat="44.59345" lon="6.01549">
        <ele>1273.4</ele>
        <time>2022-10-13T12:21:25.000Z</time>
      </trkpt>
      <trkpt lat="44.59358" lon="6.01551">
        <ele>1272.2</ele>
        <time>2022-10-13T12:21:28.000Z</time>
      </trkpt>
      <trkpt lat="44.59369" lon="6.01556">
        <ele>1272.2</ele>
        <time>2022-10-13T12:21:31.000Z</time>
      </trkpt>
      <trkpt lat="44.59377" lon="6.01565">
        <ele>1273.5</ele>
        <time>2022-10-13T12:21:33.292Z</time>
      </trkpt>
      <trkpt lat="44.59385" lon="6.0158">
        <ele>1273.8</ele>
        <time>2022-10-13T12:21:36.437Z</time>
      </trkpt>
      <trkpt lat="44.59395" lon="6.01593">
        <ele>1273.8</ele>
        <time>2022-10-13T12:21:39.432Z</time>
      </trkpt>
      <trkpt lat="44.59402" lon="6.01605">
        <ele>1273.7</ele>
        <time>2022-10-13T12:21:42.236Z</time>
      </trkpt>
      <trkpt lat="44.59408" lon="6.0162">
        <ele>1275.7</ele>
        <time>2022-10-13T12:21:45.448Z</time>
      </trkpt>
      <trkpt lat="44.59414" lon="6.0163">
        <ele>1275.4</ele>
        <time>2022-10-13T12:21:48.429Z</time>
      </trkpt>
      <trkpt lat="44.5942" lon="6.01636">
        <ele>1278.5</ele>
        <time>2022-10-13T12:21:51.314Z</time>
      </trkpt>
      <trkpt lat="44.59428" lon="6.01645">
        <ele>1277.2</ele>
        <time>2022-10-13T12:21:54.459Z</time>
      </trkpt>
      <trkpt lat="44.59436" lon="6.01653">
        <ele>1276.7</ele>
        <time>2022-10-13T12:21:57.430Z</time>
      </trkpt>
      <trkpt lat="44.59445" lon="6.01661">
        <ele>1277.9</ele>
        <time>2022-10-13T12:22:00.831Z</time>
      </trkpt>
      <trkpt lat="44.59455" lon="6.01672">
        <ele>1279.5</ele>
        <time>2022-10-13T12:22:04.422Z</time>
      </trkpt>
      <trkpt lat="44.59461" lon="6.01679">
        <ele>1281.2</ele>
        <time>2022-10-13T12:22:07.152Z</time>
      </trkpt>
      <trkpt lat="44.59468" lon="6.01688">
        <ele>1281.4</ele>
        <time>2022-10-13T12:22:10.230Z</time>
      </trkpt>
      <trkpt lat="44.59476" lon="6.01698">
        <ele>1281.8</ele>
        <time>2022-10-13T12:22:13.445Z</time>
      </trkpt>
      <trkpt lat="44.59483" lon="6.0171">
        <ele>1284.1</ele>
        <time>2022-10-13T12:22:16.890Z</time>
      </trkpt>
      <trkpt lat="44.5949" lon="6.01721">
        <ele>1283.5</ele>
        <time>2022-10-13T12:22:20.422Z</time>
      </trkpt>
      <trkpt lat="44.59496" lon="6.0173">
        <ele>1283.3</ele>
        <time>2022-10-13T12:22:23.480Z</time>
      </trkpt>
      <trkpt lat="44.59501" lon="6.01741">
        <ele>1284.2</ele>
        <time>2022-10-13T12:22:26.184Z</time>
      </trkpt>
      <trkpt lat="44.59509" lon="6.01753">
        <ele>1284.8</ele>
        <time>2022-10-13T12:22:29.420Z</time>
      </trkpt>
      <trkpt lat="44.59514" lon="6.01765">
        <ele>1284.3</ele>
        <time>2022-10-13T12:22:32.437Z</time>
      </trkpt>
      <trkpt lat="44.59518" lon="6.01775">
        <ele>1284.8</ele>
        <time>2022-10-13T12:22:35.306Z</time>
      </trkpt>
      <trkpt lat="44.59523" lon="6.01788">
        <ele>1285</ele>
        <time>2022-10-13T12:22:38.440Z</time>
      </trkpt>
      <trkpt lat="44.5953" lon="6.01799">
        <ele>1286.2</ele>
        <time>2022-10-13T12:22:41.425Z</time>
      </trkpt>
      <trkpt lat="44.59536" lon="6.01809">
        <ele>1287.3</ele>
        <time>2022-10-13T12:22:44.490Z</time>
      </trkpt>
      <trkpt lat="44.59544" lon="6.01819">
        <ele>1289.3</ele>
        <time>2022-10-13T12:22:47.420Z</time>
      </trkpt>
      <trkpt lat="44.5955" lon="6.01832">
        <ele>1289.5</ele>
        <time>2022-10-13T12:22:50.426Z</time>
      </trkpt>
      <trkpt lat="44.59555" lon="6.01842">
        <ele>1289.3</ele>
        <time>2022-10-13T12:22:53.441Z</time>
      </trkpt>
      <trkpt lat="44.59562" lon="6.01854">
        <ele>1290.9</ele>
        <time>2022-10-13T12:22:56.455Z</time>
      </trkpt>
      <trkpt lat="44.59568" lon="6.01863">
        <ele>1291.2</ele>
        <time>2022-10-13T12:22:59.328Z</time>
      </trkpt>
      <trkpt lat="44.59576" lon="6.01871">
        <ele>1292.6</ele>
        <time>2022-10-13T12:23:02.458Z</time>
      </trkpt>
      <trkpt lat="44.59582" lon="6.01879">
        <ele>1292.9</ele>
        <time>2022-10-13T12:23:05.424Z</time>
      </trkpt>
      <trkpt lat="44.59589" lon="6.01887">
        <ele>1292.3</ele>
        <time>2022-10-13T12:23:08.419Z</time>
      </trkpt>
      <trkpt lat="44.59597" lon="6.01892">
        <ele>1289.3</ele>
        <time>2022-10-13T12:23:11.491Z</time>
      </trkpt>
      <trkpt lat="44.59607" lon="6.01898">
        <ele>1293.4</ele>
        <time>2022-10-13T12:23:14.425Z</time>
      </trkpt>
      <trkpt lat="44.59617" lon="6.01904">
        <ele>1294</ele>
        <time>2022-10-13T12:23:17.427Z</time>
      </trkpt>
      <trkpt lat="44.59625" lon="6.0191">
        <ele>1295.9</ele>
        <time>2022-10-13T12:23:20.593Z</time>
      </trkpt>
      <trkpt lat="44.59634" lon="6.01918">
        <ele>1296.2</ele>
        <time>2022-10-13T12:23:23.416Z</time>
      </trkpt>
      <trkpt lat="44.59642" lon="6.01925">
        <ele>1296.4</ele>
        <time>2022-10-13T12:23:26.405Z</time>
      </trkpt>
      <trkpt lat="44.59648" lon="6.01932">
        <ele>1257.2</ele>
        <time>2022-10-13T12:23:29.126Z</time>
      </trkpt>
      <trkpt lat="44.59657" lon="6.01942">
        <ele>1295.8</ele>
        <time>2022-10-13T12:23:32.419Z</time>
      </trkpt>
      <trkpt lat="44.59665" lon="6.01949">
        <ele>1296.4</ele>
        <time>2022-10-13T12:23:35.427Z</time>
      </trkpt>
      <trkpt lat="44.59671" lon="6.01958">
        <ele>1297.6</ele>
        <time>2022-10-13T12:23:38.461Z</time>
      </trkpt>
      <trkpt lat="44.59678" lon="6.01965">
        <ele>1299.4</ele>
        <time>2022-10-13T12:23:41.418Z</time>
      </trkpt>
      <trkpt lat="44.59686" lon="6.01973">
        <ele>1299.3</ele>
        <time>2022-10-13T12:23:44.422Z</time>
      </trkpt>
      <trkpt lat="44.59692" lon="6.01981">
        <ele>1301.1</ele>
        <time>2022-10-13T12:23:47.459Z</time>
      </trkpt>
      <trkpt lat="44.59698" lon="6.0199">
        <ele>1302.8</ele>
        <time>2022-10-13T12:23:50.428Z</time>
      </trkpt>
      <trkpt lat="44.59704" lon="6.01999">
        <ele>1302.6</ele>
        <time>2022-10-13T12:23:53.429Z</time>
      </trkpt>
      <trkpt lat="44.59708" lon="6.02006">
        <ele>1298.6</ele>
        <time>2022-10-13T12:23:56.189Z</time>
      </trkpt>
      <trkpt lat="44.59713" lon="6.02015">
        <ele>1304.8</ele>
        <time>2022-10-13T12:23:59.428Z</time>
      </trkpt>
      <trkpt lat="44.59719" lon="6.02023">
        <ele>1303.6</ele>
        <time>2022-10-13T12:24:02.440Z</time>
      </trkpt>
      <trkpt lat="44.59724" lon="6.02031">
        <ele>1301.3</ele>
        <time>2022-10-13T12:24:05.210Z</time>
      </trkpt>
      <trkpt lat="44.59728" lon="6.02041">
        <ele>1306.8</ele>
        <time>2022-10-13T12:24:08.453Z</time>
      </trkpt>
      <trkpt lat="44.59734" lon="6.0205">
        <ele>1307.2</ele>
        <time>2022-10-13T12:24:11.432Z</time>
      </trkpt>
      <trkpt lat="44.5974" lon="6.02059">
        <ele>1309.3</ele>
        <time>2022-10-13T12:24:14.596Z</time>
      </trkpt>
      <trkpt lat="44.59745" lon="6.02065">
        <ele>1309.2</ele>
        <time>2022-10-13T12:24:17.432Z</time>
      </trkpt>
      <trkpt lat="44.59751" lon="6.02073">
        <ele>1308.9</ele>
        <time>2022-10-13T12:24:21.194Z</time>
      </trkpt>
      <trkpt lat="44.59755" lon="6.0208">
        <ele>1312.3</ele>
        <time>2022-10-13T12:24:25.000Z</time>
      </trkpt>
      <trkpt lat="44.5976" lon="6.02088">
        <ele>1314.2</ele>
        <time>2022-10-13T12:24:27.378Z</time>
      </trkpt>
      <trkpt lat="44.59764" lon="6.02098">
        <ele>1314.9</ele>
        <time>2022-10-13T12:24:30.826Z</time>
      </trkpt>
      <trkpt lat="44.59769" lon="6.02108">
        <ele>1314.2</ele>
        <time>2022-10-13T12:24:34.422Z</time>
      </trkpt>
      <trkpt lat="44.59773" lon="6.02116">
        <ele>1257.2</ele>
        <time>2022-10-13T12:24:37.975Z</time>
      </trkpt>
      <trkpt lat="44.59779" lon="6.02125">
        <ele>1316.9</ele>
        <time>2022-10-13T12:24:41.421Z</time>
      </trkpt>
      <trkpt lat="44.59785" lon="6.02133">
        <ele>1317.1</ele>
        <time>2022-10-13T12:24:44.429Z</time>
      </trkpt>
      <trkpt lat="44.59789" lon="6.02141">
        <ele>1257.2</ele>
        <time>2022-10-13T12:24:47.549Z</time>
      </trkpt>
      <trkpt lat="44.59794" lon="6.02149">
        <ele>1320.9</ele>
        <time>2022-10-13T12:24:50.422Z</time>
      </trkpt>
      <trkpt lat="44.59798" lon="6.02158">
        <ele>1320.1</ele>
        <time>2022-10-13T12:24:53.423Z</time>
      </trkpt>
      <trkpt lat="44.59804" lon="6.02164">
        <ele>1314.6</ele>
        <time>2022-10-13T12:24:56.551Z</time>
      </trkpt>
      <trkpt lat="44.59811" lon="6.02171">
        <ele>1319.5</ele>
        <time>2022-10-13T12:24:59.430Z</time>
      </trkpt>
      <trkpt lat="44.59815" lon="6.02179">
        <ele>1320.2</ele>
        <time>2022-10-13T12:25:02.490Z</time>
      </trkpt>
      <trkpt lat="44.59821" lon="6.02185">
        <ele>1324.6</ele>
        <time>2022-10-13T12:25:05.427Z</time>
      </trkpt>
      <trkpt lat="44.59826" lon="6.02192">
        <ele>1322.3</ele>
        <time>2022-10-13T12:25:08.421Z</time>
      </trkpt>
      <trkpt lat="44.59831" lon="6.02199">
        <ele>1320.8</ele>
        <time>2022-10-13T12:25:11.212Z</time>
      </trkpt>
      <trkpt lat="44.59838" lon="6.02206">
        <ele>1328.8</ele>
        <time>2022-10-13T12:25:14.420Z</time>
      </trkpt>
      <trkpt lat="44.59844" lon="6.02211">
        <ele>1328.7</ele>
        <time>2022-10-13T12:25:17.438Z</time>
      </trkpt>
      <trkpt lat="44.5985" lon="6.02217">
        <ele>1330.3</ele>
        <time>2022-10-13T12:25:20.482Z</time>
      </trkpt>
      <trkpt lat="44.59854" lon="6.02224">
        <ele>1331.3</ele>
        <time>2022-10-13T12:25:23.432Z</time>
      </trkpt>
      <trkpt lat="44.5986" lon="6.02231">
        <ele>1330.8</ele>
        <time>2022-10-13T12:25:26.415Z</time>
      </trkpt>
      <trkpt lat="44.59864" lon="6.02238">
        <ele>1324.8</ele>
        <time>2022-10-13T12:25:29.173Z</time>
      </trkpt>
      <trkpt lat="44.59871" lon="6.02246">
        <ele>1333.5</ele>
        <time>2022-10-13T12:25:32.429Z</time>
      </trkpt>
      <trkpt lat="44.59878" lon="6.0225">
        <ele>1332.8</ele>
        <time>2022-10-13T12:25:35.437Z</time>
      </trkpt>
      <trkpt lat="44.59882" lon="6.02256">
        <ele>1327.6</ele>
        <time>2022-10-13T12:25:38.413Z</time>
      </trkpt>
      <trkpt lat="44.59892" lon="6.02265">
        <ele>1335.8</ele>
        <time>2022-10-13T12:25:45.413Z</time>
      </trkpt>
      <trkpt lat="44.59895" lon="6.02274">
        <ele>1339.1</ele>
        <time>2022-10-13T12:25:48.532Z</time>
      </trkpt>
      <trkpt lat="44.59898" lon="6.0228">
        <ele>1338.8</ele>
        <time>2022-10-13T12:25:51.425Z</time>
      </trkpt>
      <trkpt lat="44.59903" lon="6.02289">
        <ele>1338.9</ele>
        <time>2022-10-13T12:25:54.426Z</time>
      </trkpt>
      <trkpt lat="44.59909" lon="6.02299">
        <ele>1341.5</ele>
        <time>2022-10-13T12:25:57.593Z</time>
      </trkpt>
      <trkpt lat="44.59914" lon="6.02305">
        <ele>1340.9</ele>
        <time>2022-10-13T12:26:00.427Z</time>
      </trkpt>
      <trkpt lat="44.5992" lon="6.02311">
        <ele>1340.1</ele>
        <time>2022-10-13T12:26:03.454Z</time>
      </trkpt>
      <trkpt lat="44.59925" lon="6.0232">
        <ele>1341.6</ele>
        <time>2022-10-13T12:26:07.000Z</time>
      </trkpt>
      <trkpt lat="44.59931" lon="6.02329">
        <ele>1342.8</ele>
        <time>2022-10-13T12:26:09.429Z</time>
      </trkpt>
      <trkpt lat="44.59937" lon="6.02337">
        <ele>1344.5</ele>
        <time>2022-10-13T12:26:12.419Z</time>
      </trkpt>
      <trkpt lat="44.59935" lon="6.02349">
        <ele>1345.5</ele>
        <time>2022-10-13T12:26:16.000Z</time>
      </trkpt>
      <trkpt lat="44.59942" lon="6.02355">
        <ele>1345.5</ele>
        <time>2022-10-13T12:26:18.435Z</time>
      </trkpt>
      <trkpt lat="44.59947" lon="6.02361">
        <ele>1346.8</ele>
        <time>2022-10-13T12:26:21.436Z</time>
      </trkpt>
      <trkpt lat="44.59952" lon="6.02369">
        <ele>1347.8</ele>
        <time>2022-10-13T12:26:25.000Z</time>
      </trkpt>
      <trkpt lat="44.59957" lon="6.02377">
        <ele>1348.4</ele>
        <time>2022-10-13T12:26:27.427Z</time>
      </trkpt>
      <trkpt lat="44.59962" lon="6.02384">
        <ele>1347.6</ele>
        <time>2022-10-13T12:26:30.428Z</time>
      </trkpt>
      <trkpt lat="44.59968" lon="6.02393">
        <ele>1351.2</ele>
        <time>2022-10-13T12:26:33.987Z</time>
      </trkpt>
      <trkpt lat="44.59974" lon="6.02403">
        <ele>1351.2</ele>
        <time>2022-10-13T12:26:37.432Z</time>
      </trkpt>
      <trkpt lat="44.59979" lon="6.02408">
        <ele>1345.6</ele>
        <time>2022-10-13T12:26:40.513Z</time>
      </trkpt>
      <trkpt lat="44.59978" lon="6.02416">
        <ele>1350.3</ele>
        <time>2022-10-13T12:26:43.574Z</time>
      </trkpt>
      <trkpt lat="44.59974" lon="6.02422">
        <ele>1351</ele>
        <time>2022-10-13T12:26:46.423Z</time>
      </trkpt>
      <trkpt lat="44.59964" lon="6.02412">
        <ele>1346.8</ele>
        <time>2022-10-13T12:26:49.734Z</time>
      </trkpt>
      <trkpt lat="44.59956" lon="6.02404">
        <ele>1354.4</ele>
        <time>2022-10-13T12:26:53.418Z</time>
      </trkpt>
      <trkpt lat="44.59951" lon="6.02398">
        <ele>1353.2</ele>
        <time>2022-10-13T12:26:56.421Z</time>
      </trkpt>
      <trkpt lat="44.59945" lon="6.02394">
        <ele>1347.7</ele>
        <time>2022-10-13T12:26:59.292Z</time>
      </trkpt>
      <trkpt lat="44.59938" lon="6.02391">
        <ele>1356.8</ele>
        <time>2022-10-13T12:27:02.422Z</time>
      </trkpt>
      <trkpt lat="44.59931" lon="6.02388">
        <ele>1354.6</ele>
        <time>2022-10-13T12:27:05.448Z</time>
      </trkpt>
      <trkpt lat="44.59924" lon="6.02385">
        <ele>1350.2</ele>
        <time>2022-10-13T12:27:08.410Z</time>
      </trkpt>
      <trkpt lat="44.59917" lon="6.02382">
        <ele>1349.7</ele>
        <time>2022-10-13T12:27:11.151Z</time>
      </trkpt>
      <trkpt lat="44.59909" lon="6.02382">
        <ele>1357.9</ele>
        <time>2022-10-13T12:27:14.456Z</time>
      </trkpt>
      <trkpt lat="44.59902" lon="6.02381">
        <ele>1360</ele>
        <time>2022-10-13T12:27:17.418Z</time>
      </trkpt>
      <trkpt lat="44.59895" lon="6.02379">
        <ele>1360.1</ele>
        <time>2022-10-13T12:27:20.453Z</time>
      </trkpt>
      <trkpt lat="44.59889" lon="6.02376">
        <ele>1359.3</ele>
        <time>2022-10-13T12:27:23.417Z</time>
      </trkpt>
      <trkpt lat="44.59882" lon="6.02373">
        <ele>1359.1</ele>
        <time>2022-10-13T12:27:26.429Z</time>
      </trkpt>
      <trkpt lat="44.59876" lon="6.02369">
        <ele>1353.7</ele>
        <time>2022-10-13T12:27:29.432Z</time>
      </trkpt>
      <trkpt lat="44.5987" lon="6.02363">
        <ele>1360.2</ele>
        <time>2022-10-13T12:27:32.474Z</time>
      </trkpt>
      <trkpt lat="44.59863" lon="6.0236">
        <ele>1362.7</ele>
        <time>2022-10-13T12:27:35.427Z</time>
      </trkpt>
      <trkpt lat="44.59857" lon="6.02358">
        <ele>1351.8</ele>
        <time>2022-10-13T12:27:38.139Z</time>
      </trkpt>
      <trkpt lat="44.59851" lon="6.02353">
        <ele>1365.5</ele>
        <time>2022-10-13T12:27:41.420Z</time>
      </trkpt>
      <trkpt lat="44.59845" lon="6.02346">
        <ele>1365.1</ele>
        <time>2022-10-13T12:27:44.420Z</time>
      </trkpt>
      <trkpt lat="44.5984" lon="6.02344">
        <ele>1355.7</ele>
        <time>2022-10-13T12:27:47.272Z</time>
      </trkpt>
      <trkpt lat="44.59832" lon="6.02342">
        <ele>1364.4</ele>
        <time>2022-10-13T12:27:50.430Z</time>
      </trkpt>
      <trkpt lat="44.59824" lon="6.0234">
        <ele>1364.1</ele>
        <time>2022-10-13T12:27:53.435Z</time>
      </trkpt>
      <trkpt lat="44.59818" lon="6.02336">
        <ele>1364</ele>
        <time>2022-10-13T12:27:56.632Z</time>
      </trkpt>
      <trkpt lat="44.59813" lon="6.02333">
        <ele>1366.5</ele>
        <time>2022-10-13T12:27:59.420Z</time>
      </trkpt>
      <trkpt lat="44.59806" lon="6.02331">
        <ele>1365.6</ele>
        <time>2022-10-13T12:28:02.428Z</time>
      </trkpt>
      <trkpt lat="44.598" lon="6.02329">
        <ele>1358.2</ele>
        <time>2022-10-13T12:28:05.137Z</time>
      </trkpt>
      <trkpt lat="44.59792" lon="6.02325">
        <ele>1367.5</ele>
        <time>2022-10-13T12:28:08.473Z</time>
      </trkpt>
      <trkpt lat="44.59785" lon="6.0232">
        <ele>1368.4</ele>
        <time>2022-10-13T12:28:11.430Z</time>
      </trkpt>
      <trkpt lat="44.5978" lon="6.02317">
        <ele>1357.6</ele>
        <time>2022-10-13T12:28:14.327Z</time>
      </trkpt>
      <trkpt lat="44.59774" lon="6.02316">
        <ele>1372.1</ele>
        <time>2022-10-13T12:28:17.415Z</time>
      </trkpt>
      <trkpt lat="44.59767" lon="6.02313">
        <ele>1369.1</ele>
        <time>2022-10-13T12:28:20.425Z</time>
      </trkpt>
      <trkpt lat="44.5976" lon="6.0231">
        <ele>1358.2</ele>
        <time>2022-10-13T12:28:23.150Z</time>
      </trkpt>
      <trkpt lat="44.59752" lon="6.02309">
        <ele>1370.7</ele>
        <time>2022-10-13T12:28:26.462Z</time>
      </trkpt>
      <trkpt lat="44.59744" lon="6.02308">
        <ele>1372.7</ele>
        <time>2022-10-13T12:28:29.426Z</time>
      </trkpt>
      <trkpt lat="44.59739" lon="6.02303">
        <ele>1367.7</ele>
        <time>2022-10-13T12:28:32.392Z</time>
      </trkpt>
      <trkpt lat="44.59734" lon="6.02299">
        <ele>1372.6</ele>
        <time>2022-10-13T12:28:35.425Z</time>
      </trkpt>
      <trkpt lat="44.59727" lon="6.02294">
        <ele>1373.1</ele>
        <time>2022-10-13T12:28:38.425Z</time>
      </trkpt>
      <trkpt lat="44.59722" lon="6.02292">
        <ele>1367</ele>
        <time>2022-10-13T12:28:41.459Z</time>
      </trkpt>
      <trkpt lat="44.59715" lon="6.02288">
        <ele>1373.7</ele>
        <time>2022-10-13T12:28:44.421Z</time>
      </trkpt>
      <trkpt lat="44.59709" lon="6.02286">
        <ele>1373.6</ele>
        <time>2022-10-13T12:28:47.427Z</time>
      </trkpt>
      <trkpt lat="44.59702" lon="6.02283">
        <ele>1365.5</ele>
        <time>2022-10-13T12:28:50.549Z</time>
      </trkpt>
      <trkpt lat="44.59696" lon="6.02281">
        <ele>1375.4</ele>
        <time>2022-10-13T12:28:53.634Z</time>
      </trkpt>
      <trkpt lat="44.5969" lon="6.02279">
        <ele>1376.3</ele>
        <time>2022-10-13T12:28:56.426Z</time>
      </trkpt>
      <trkpt lat="44.59684" lon="6.02275">
        <ele>1378.1</ele>
        <time>2022-10-13T12:28:59.383Z</time>
      </trkpt>
      <trkpt lat="44.59677" lon="6.02274">
        <ele>1378.2</ele>
        <time>2022-10-13T12:29:02.266Z</time>
      </trkpt>
      <trkpt lat="44.5967" lon="6.02274">
        <ele>1378.6</ele>
        <time>2022-10-13T12:29:05.811Z</time>
      </trkpt>
      <trkpt lat="44.5966" lon="6.02273">
        <ele>1370.3</ele>
        <time>2022-10-13T12:29:09.423Z</time>
      </trkpt>
      <trkpt lat="44.59652" lon="6.02271">
        <ele>1380.6</ele>
        <time>2022-10-13T12:29:13.000Z</time>
      </trkpt>
      <trkpt lat="44.59646" lon="6.02266">
        <ele>1380.8</ele>
        <time>2022-10-13T12:29:15.464Z</time>
      </trkpt>
      <trkpt lat="44.59641" lon="6.02263">
        <ele>1379.3</ele>
        <time>2022-10-13T12:29:18.418Z</time>
      </trkpt>
      <trkpt lat="44.59634" lon="6.02262">
        <ele>1382.3</ele>
        <time>2022-10-13T12:29:21.568Z</time>
      </trkpt>
      <trkpt lat="44.59627" lon="6.02263">
        <ele>1381.9</ele>
        <time>2022-10-13T12:29:24.417Z</time>
      </trkpt>
      <trkpt lat="44.59621" lon="6.0226">
        <ele>1382.8</ele>
        <time>2022-10-13T12:29:27.418Z</time>
      </trkpt>
      <trkpt lat="44.5961" lon="6.0226">
        <ele>1383.2</ele>
        <time>2022-10-13T12:29:33.452Z</time>
      </trkpt>
      <trkpt lat="44.59604" lon="6.02264">
        <ele>1384.3</ele>
        <time>2022-10-13T12:29:36.424Z</time>
      </trkpt>
      <trkpt lat="44.59599" lon="6.02262">
        <ele>1386.2</ele>
        <time>2022-10-13T12:29:40.000Z</time>
      </trkpt>
      <trkpt lat="44.59594" lon="6.02267">
        <ele>1386.2</ele>
        <time>2022-10-13T12:29:42.431Z</time>
      </trkpt>
      <trkpt lat="44.59588" lon="6.02262">
        <ele>1386.7</ele>
        <time>2022-10-13T12:29:45.415Z</time>
      </trkpt>
      <trkpt lat="44.59577" lon="6.02258">
        <ele>1388</ele>
        <time>2022-10-13T12:29:51.476Z</time>
      </trkpt>
      <trkpt lat="44.5957" lon="6.02257">
        <ele>1388.6</ele>
        <time>2022-10-13T12:29:54.430Z</time>
      </trkpt>
      <trkpt lat="44.5956" lon="6.02264">
        <ele>1389.8</ele>
        <time>2022-10-13T12:30:00.426Z</time>
      </trkpt>
      <trkpt lat="44.59553" lon="6.0226">
        <ele>1390.1</ele>
        <time>2022-10-13T12:30:03.424Z</time>
      </trkpt>
      <trkpt lat="44.59546" lon="6.02251">
        <ele>1390.8</ele>
        <time>2022-10-13T12:30:07.000Z</time>
      </trkpt>
      <trkpt lat="44.59539" lon="6.02243">
        <ele>1390.8</ele>
        <time>2022-10-13T12:30:09.445Z</time>
      </trkpt>
      <trkpt lat="44.5953" lon="6.02238">
        <ele>1391.1</ele>
        <time>2022-10-13T12:30:12.419Z</time>
      </trkpt>
      <trkpt lat="44.59522" lon="6.02232">
        <ele>1392.5</ele>
        <time>2022-10-13T12:30:15.234Z</time>
      </trkpt>
      <trkpt lat="44.59515" lon="6.02229">
        <ele>1392.5</ele>
        <time>2022-10-13T12:30:18.447Z</time>
      </trkpt>
      <trkpt lat="44.59508" lon="6.02231">
        <ele>1392.1</ele>
        <time>2022-10-13T12:30:21.422Z</time>
      </trkpt>
      <trkpt lat="44.59502" lon="6.02228">
        <ele>1392.7</ele>
        <time>2022-10-13T12:30:24.167Z</time>
      </trkpt>
      <trkpt lat="44.59496" lon="6.02227">
        <ele>1395</ele>
        <time>2022-10-13T12:30:27.421Z</time>
      </trkpt>
      <trkpt lat="44.5949" lon="6.02229">
        <ele>1394.1</ele>
        <time>2022-10-13T12:30:30.425Z</time>
      </trkpt>
      <trkpt lat="44.59484" lon="6.02231">
        <ele>1394.3</ele>
        <time>2022-10-13T12:30:33.230Z</time>
      </trkpt>
      <trkpt lat="44.59478" lon="6.02225">
        <ele>1395.9</ele>
        <time>2022-10-13T12:30:36.458Z</time>
      </trkpt>
      <trkpt lat="44.59471" lon="6.02222">
        <ele>1396.1</ele>
        <time>2022-10-13T12:30:39.421Z</time>
      </trkpt>
      <trkpt lat="44.59466" lon="6.02222">
        <ele>1398.6</ele>
        <time>2022-10-13T12:30:42.318Z</time>
      </trkpt>
      <trkpt lat="44.5946" lon="6.02221">
        <ele>1397.8</ele>
        <time>2022-10-13T12:30:45.423Z</time>
      </trkpt>
      <trkpt lat="44.59453" lon="6.02223">
        <ele>1397.9</ele>
        <time>2022-10-13T12:30:48.434Z</time>
      </trkpt>
      <trkpt lat="44.59448" lon="6.02223">
        <ele>1399.4</ele>
        <time>2022-10-13T12:30:51.165Z</time>
      </trkpt>
      <trkpt lat="44.59442" lon="6.02221">
        <ele>1399.8</ele>
        <time>2022-10-13T12:30:54.464Z</time>
      </trkpt>
      <trkpt lat="44.59434" lon="6.02221">
        <ele>1399.2</ele>
        <time>2022-10-13T12:30:57.445Z</time>
      </trkpt>
      <trkpt lat="44.59427" lon="6.02218">
        <ele>1400.4</ele>
        <time>2022-10-13T12:31:00.278Z</time>
      </trkpt>
      <trkpt lat="44.59418" lon="6.0222">
        <ele>1402.1</ele>
        <time>2022-10-13T12:31:03.464Z</time>
      </trkpt>
      <trkpt lat="44.59411" lon="6.02213">
        <ele>1401.4</ele>
        <time>2022-10-13T12:31:06.428Z</time>
      </trkpt>
      <trkpt lat="44.59405" lon="6.0221">
        <ele>1404</ele>
        <time>2022-10-13T12:31:09.311Z</time>
      </trkpt>
      <trkpt lat="44.59399" lon="6.02209">
        <ele>1403.4</ele>
        <time>2022-10-13T12:31:12.164Z</time>
      </trkpt>
      <trkpt lat="44.59391" lon="6.02207">
        <ele>1401.8</ele>
        <time>2022-10-13T12:31:15.423Z</time>
      </trkpt>
      <trkpt lat="44.59385" lon="6.02209">
        <ele>1403.6</ele>
        <time>2022-10-13T12:31:19.000Z</time>
      </trkpt>
      <trkpt lat="44.59378" lon="6.02209">
        <ele>1403.6</ele>
        <time>2022-10-13T12:31:21.427Z</time>
      </trkpt>
      <trkpt lat="44.59371" lon="6.02215">
        <ele>1405.1</ele>
        <time>2022-10-13T12:31:24.423Z</time>
      </trkpt>
      <trkpt lat="44.59366" lon="6.02209">
        <ele>1406.4</ele>
        <time>2022-10-13T12:31:27.191Z</time>
      </trkpt>
      <trkpt lat="44.59361" lon="6.02211">
        <ele>1406.3</ele>
        <time>2022-10-13T12:31:30.428Z</time>
      </trkpt>
      <trkpt lat="44.59353" lon="6.02212">
        <ele>1406.3</ele>
        <time>2022-10-13T12:31:33.434Z</time>
      </trkpt>
      <trkpt lat="44.59346" lon="6.02217">
        <ele>1406.7</ele>
        <time>2022-10-13T12:31:37.000Z</time>
      </trkpt>
      <trkpt lat="44.59339" lon="6.02216">
        <ele>1407.4</ele>
        <time>2022-10-13T12:31:39.473Z</time>
      </trkpt>
      <trkpt lat="44.5933" lon="6.02215">
        <ele>1407.7</ele>
        <time>2022-10-13T12:31:42.420Z</time>
      </trkpt>
      <trkpt lat="44.59324" lon="6.02217">
        <ele>1407.5</ele>
        <time>2022-10-13T12:31:46.000Z</time>
      </trkpt>
      <trkpt lat="44.59318" lon="6.02212">
        <ele>1409.1</ele>
        <time>2022-10-13T12:31:48.430Z</time>
      </trkpt>
      <trkpt lat="44.5931" lon="6.02212">
        <ele>1409.3</ele>
        <time>2022-10-13T12:31:51.417Z</time>
      </trkpt>
      <trkpt lat="44.59304" lon="6.02211">
        <ele>1410.2</ele>
        <time>2022-10-13T12:31:54.307Z</time>
      </trkpt>
      <trkpt lat="44.59297" lon="6.02214">
        <ele>1411</ele>
        <time>2022-10-13T12:31:57.477Z</time>
      </trkpt>
      <trkpt lat="44.5929" lon="6.02213">
        <ele>1409.8</ele>
        <time>2022-10-13T12:32:00.431Z</time>
      </trkpt>
      <trkpt lat="44.59283" lon="6.0221">
        <ele>1410.5</ele>
        <time>2022-10-13T12:32:04.000Z</time>
      </trkpt>
      <trkpt lat="44.59276" lon="6.0221">
        <ele>1412</ele>
        <time>2022-10-13T12:32:06.464Z</time>
      </trkpt>
      <trkpt lat="44.59269" lon="6.02213">
        <ele>1411.6</ele>
        <time>2022-10-13T12:32:09.426Z</time>
      </trkpt>
      <trkpt lat="44.59262" lon="6.02215">
        <ele>1412.8</ele>
        <time>2022-10-13T12:32:13.000Z</time>
      </trkpt>
      <trkpt lat="44.59256" lon="6.02223">
        <ele>1414.2</ele>
        <time>2022-10-13T12:32:15.467Z</time>
      </trkpt>
      <trkpt lat="44.59254" lon="6.02234">
        <ele>1414.4</ele>
        <time>2022-10-13T12:32:18.419Z</time>
      </trkpt>
      <trkpt lat="44.59247" lon="6.02236">
        <ele>1414.1</ele>
        <time>2022-10-13T12:32:22.000Z</time>
      </trkpt>
      <trkpt lat="44.59241" lon="6.02235">
        <ele>1414</ele>
        <time>2022-10-13T12:32:39.131Z</time>
      </trkpt>
      <trkpt lat="44.5923" lon="6.02244">
        <ele>1416.2</ele>
        <time>2022-10-13T12:32:42.239Z</time>
      </trkpt>
      <trkpt lat="44.59223" lon="6.0225">
        <ele>1416.3</ele>
        <time>2022-10-13T12:32:45.462Z</time>
      </trkpt>
      <trkpt lat="44.59217" lon="6.02256">
        <ele>1418.2</ele>
        <time>2022-10-13T12:32:48.425Z</time>
      </trkpt>
      <trkpt lat="44.59211" lon="6.02259">
        <ele>1418.2</ele>
        <time>2022-10-13T12:32:51.236Z</time>
      </trkpt>
      <trkpt lat="44.59207" lon="6.02264">
        <ele>1418.9</ele>
        <time>2022-10-13T12:32:54.425Z</time>
      </trkpt>
      <trkpt lat="44.59203" lon="6.02269">
        <ele>1420</ele>
        <time>2022-10-13T12:32:57.424Z</time>
      </trkpt>
      <trkpt lat="44.592" lon="6.02275">
        <ele>1421.5</ele>
        <time>2022-10-13T12:33:01.000Z</time>
      </trkpt>
      <trkpt lat="44.59194" lon="6.0228">
        <ele>1421.6</ele>
        <time>2022-10-13T12:33:03.454Z</time>
      </trkpt>
      <trkpt lat="44.5919" lon="6.02287">
        <ele>1422.5</ele>
        <time>2022-10-13T12:33:06.428Z</time>
      </trkpt>
      <trkpt lat="44.59183" lon="6.02301">
        <ele>1423.9</ele>
        <time>2022-10-13T12:33:12.460Z</time>
      </trkpt>
      <trkpt lat="44.59179" lon="6.0231">
        <ele>1424.5</ele>
        <time>2022-10-13T12:33:15.429Z</time>
      </trkpt>
      <trkpt lat="44.59177" lon="6.02319">
        <ele>1424.2</ele>
        <time>2022-10-13T12:33:18.249Z</time>
      </trkpt>
      <trkpt lat="44.59178" lon="6.0233">
        <ele>1424.7</ele>
        <time>2022-10-13T12:33:21.429Z</time>
      </trkpt>
      <trkpt lat="44.59181" lon="6.02341">
        <ele>1424.4</ele>
        <time>2022-10-13T12:33:24.431Z</time>
      </trkpt>
      <trkpt lat="44.59183" lon="6.02347">
        <ele>1427.8</ele>
        <time>2022-10-13T12:33:27.293Z</time>
      </trkpt>
      <trkpt lat="44.5919" lon="6.02357">
        <ele>1426.4</ele>
        <time>2022-10-13T12:33:30.460Z</time>
      </trkpt>
      <trkpt lat="44.59192" lon="6.02364">
        <ele>1426</ele>
        <time>2022-10-13T12:33:33.425Z</time>
      </trkpt>
      <trkpt lat="44.59195" lon="6.02373">
        <ele>1429.6</ele>
        <time>2022-10-13T12:33:36.170Z</time>
      </trkpt>
      <trkpt lat="44.59204" lon="6.02383">
        <ele>1429.9</ele>
        <time>2022-10-13T12:33:39.464Z</time>
      </trkpt>
      <trkpt lat="44.59208" lon="6.0239">
        <ele>1429.6</ele>
        <time>2022-10-13T12:33:42.480Z</time>
      </trkpt>
      <trkpt lat="44.5921" lon="6.02396">
        <ele>1432.2</ele>
        <time>2022-10-13T12:33:46.000Z</time>
      </trkpt>
      <trkpt lat="44.59215" lon="6.02407">
        <ele>1432.2</ele>
        <time>2022-10-13T12:33:48.422Z</time>
      </trkpt>
      <trkpt lat="44.59215" lon="6.02419">
        <ele>1431.6</ele>
        <time>2022-10-13T12:33:51.463Z</time>
      </trkpt>
      <trkpt lat="44.59216" lon="6.02431">
        <ele>1434.9</ele>
        <time>2022-10-13T12:33:54.571Z</time>
      </trkpt>
      <trkpt lat="44.59217" lon="6.02442">
        <ele>1435.6</ele>
        <time>2022-10-13T12:33:57.461Z</time>
      </trkpt>
      <trkpt lat="44.59217" lon="6.02454">
        <ele>1434.2</ele>
        <time>2022-10-13T12:34:00.424Z</time>
      </trkpt>
      <trkpt lat="44.59217" lon="6.02466">
        <ele>1436.6</ele>
        <time>2022-10-13T12:34:03.912Z</time>
      </trkpt>
      <trkpt lat="44.59217" lon="6.0248">
        <ele>1437.4</ele>
        <time>2022-10-13T12:34:07.432Z</time>
      </trkpt>
      <trkpt lat="44.59217" lon="6.02491">
        <ele>1437.1</ele>
        <time>2022-10-13T12:34:10.574Z</time>
      </trkpt>
      <trkpt lat="44.59217" lon="6.02503">
        <ele>1440.2</ele>
        <time>2022-10-13T12:34:13.548Z</time>
      </trkpt>
      <trkpt lat="44.59216" lon="6.02514">
        <ele>1439.7</ele>
        <time>2022-10-13T12:34:16.427Z</time>
      </trkpt>
      <trkpt lat="44.59215" lon="6.02523">
        <ele>1441.6</ele>
        <time>2022-10-13T12:34:19.869Z</time>
      </trkpt>
      <trkpt lat="44.59214" lon="6.02536">
        <ele>1442.4</ele>
        <time>2022-10-13T12:34:23.432Z</time>
      </trkpt>
      <trkpt lat="44.59213" lon="6.02548">
        <ele>1441.8</ele>
        <time>2022-10-13T12:34:26.425Z</time>
      </trkpt>
      <trkpt lat="44.59213" lon="6.02559">
        <ele>1441.7</ele>
        <time>2022-10-13T12:34:29.523Z</time>
      </trkpt>
      <trkpt lat="44.59213" lon="6.02569">
        <ele>1443.8</ele>
        <time>2022-10-13T12:34:32.415Z</time>
      </trkpt>
      <trkpt lat="44.59211" lon="6.02579">
        <ele>1443.9</ele>
        <time>2022-10-13T12:34:35.434Z</time>
      </trkpt>
      <trkpt lat="44.59211" lon="6.02589">
        <ele>1446</ele>
        <time>2022-10-13T12:34:38.459Z</time>
      </trkpt>
      <trkpt lat="44.59211" lon="6.02603">
        <ele>1447.2</ele>
        <time>2022-10-13T12:34:41.425Z</time>
      </trkpt>
      <trkpt lat="44.5921" lon="6.02611">
        <ele>1446.7</ele>
        <time>2022-10-13T12:34:44.433Z</time>
      </trkpt>
      <trkpt lat="44.59207" lon="6.0262">
        <ele>1447.7</ele>
        <time>2022-10-13T12:34:47.455Z</time>
      </trkpt>
      <trkpt lat="44.59205" lon="6.0263">
        <ele>1448.7</ele>
        <time>2022-10-13T12:34:50.467Z</time>
      </trkpt>
      <trkpt lat="44.59203" lon="6.0264">
        <ele>1449.4</ele>
        <time>2022-10-13T12:34:53.430Z</time>
      </trkpt>
      <trkpt lat="44.59202" lon="6.02649">
        <ele>1450.9</ele>
        <time>2022-10-13T12:34:56.232Z</time>
      </trkpt>
      <trkpt lat="44.592" lon="6.0266">
        <ele>1450.5</ele>
        <time>2022-10-13T12:34:59.442Z</time>
      </trkpt>
      <trkpt lat="44.59197" lon="6.02671">
        <ele>1451.8</ele>
        <time>2022-10-13T12:35:02.428Z</time>
      </trkpt>
      <trkpt lat="44.59195" lon="6.02681">
        <ele>1455</ele>
        <time>2022-10-13T12:35:05.345Z</time>
      </trkpt>
      <trkpt lat="44.59194" lon="6.02692">
        <ele>1452.5</ele>
        <time>2022-10-13T12:35:08.411Z</time>
      </trkpt>
      <trkpt lat="44.59192" lon="6.02701">
        <ele>1453.9</ele>
        <time>2022-10-13T12:35:11.432Z</time>
      </trkpt>
      <trkpt lat="44.59188" lon="6.02709">
        <ele>1459</ele>
        <time>2022-10-13T12:35:14.532Z</time>
      </trkpt>
      <trkpt lat="44.59186" lon="6.0272">
        <ele>1454.9</ele>
        <time>2022-10-13T12:35:17.456Z</time>
      </trkpt>
      <trkpt lat="44.59185" lon="6.02732">
        <ele>1455.5</ele>
        <time>2022-10-13T12:35:20.430Z</time>
      </trkpt>
      <trkpt lat="44.59181" lon="6.02742">
        <ele>1457.3</ele>
        <time>2022-10-13T12:35:23.611Z</time>
      </trkpt>
      <trkpt lat="44.59177" lon="6.0275">
        <ele>1457.4</ele>
        <time>2022-10-13T12:35:26.417Z</time>
      </trkpt>
      <trkpt lat="44.59172" lon="6.02759">
        <ele>1457.3</ele>
        <time>2022-10-13T12:35:29.434Z</time>
      </trkpt>
      <trkpt lat="44.59167" lon="6.02767">
        <ele>1460.8</ele>
        <time>2022-10-13T12:35:32.573Z</time>
      </trkpt>
      <trkpt lat="44.59163" lon="6.02774">
        <ele>1460.1</ele>
        <time>2022-10-13T12:35:35.438Z</time>
      </trkpt>
      <trkpt lat="44.59159" lon="6.02784">
        <ele>1459.4</ele>
        <time>2022-10-13T12:35:38.427Z</time>
      </trkpt>
      <trkpt lat="44.59157" lon="6.02792">
        <ele>1463.8</ele>
        <time>2022-10-13T12:35:41.254Z</time>
      </trkpt>
      <trkpt lat="44.59154" lon="6.02803">
        <ele>1461.9</ele>
        <time>2022-10-13T12:35:44.424Z</time>
      </trkpt>
      <trkpt lat="44.59151" lon="6.02812">
        <ele>1462.8</ele>
        <time>2022-10-13T12:35:47.441Z</time>
      </trkpt>
      <trkpt lat="44.5915" lon="6.02821">
        <ele>1465.2</ele>
        <time>2022-10-13T12:35:50.454Z</time>
      </trkpt>
      <trkpt lat="44.59146" lon="6.0283">
        <ele>1465.5</ele>
        <time>2022-10-13T12:35:53.418Z</time>
      </trkpt>
      <trkpt lat="44.59143" lon="6.02838">
        <ele>1464.9</ele>
        <time>2022-10-13T12:35:56.433Z</time>
      </trkpt>
      <trkpt lat="44.59139" lon="6.02846">
        <ele>1467.2</ele>
        <time>2022-10-13T12:35:59.464Z</time>
      </trkpt>
      <trkpt lat="44.59135" lon="6.02855">
        <ele>1467.9</ele>
        <time>2022-10-13T12:36:02.442Z</time>
      </trkpt>
      <trkpt lat="44.59132" lon="6.02863">
        <ele>1467.7</ele>
        <time>2022-10-13T12:36:05.295Z</time>
      </trkpt>
      <trkpt lat="44.5913" lon="6.02869">
        <ele>1470.4</ele>
        <time>2022-10-13T12:36:08.033Z</time>
      </trkpt>
      <trkpt lat="44.59128" lon="6.02877">
        <ele>1470.1</ele>
        <time>2022-10-13T12:36:11.045Z</time>
      </trkpt>
      <trkpt lat="44.59124" lon="6.02888">
        <ele>1468.9</ele>
        <time>2022-10-13T12:36:14.424Z</time>
      </trkpt>
      <trkpt lat="44.59122" lon="6.02898">
        <ele>1469.6</ele>
        <time>2022-10-13T12:36:17.392Z</time>
      </trkpt>
      <trkpt lat="44.59119" lon="6.0291">
        <ele>1471.7</ele>
        <time>2022-10-13T12:36:20.935Z</time>
      </trkpt>
      <trkpt lat="44.59116" lon="6.02922">
        <ele>1470.9</ele>
        <time>2022-10-13T12:36:24.424Z</time>
      </trkpt>
      <trkpt lat="44.59114" lon="6.02933">
        <ele>1467.6</ele>
        <time>2022-10-13T12:36:27.428Z</time>
      </trkpt>
      <trkpt lat="44.59111" lon="6.02943">
        <ele>1473.1</ele>
        <time>2022-10-13T12:36:30.914Z</time>
      </trkpt>
      <trkpt lat="44.59108" lon="6.02956">
        <ele>1474.1</ele>
        <time>2022-10-13T12:36:34.425Z</time>
      </trkpt>
      <trkpt lat="44.59103" lon="6.02965">
        <ele>1474.3</ele>
        <time>2022-10-13T12:36:37.827Z</time>
      </trkpt>
      <trkpt lat="44.59099" lon="6.02976">
        <ele>1475.9</ele>
        <time>2022-10-13T12:36:40.588Z</time>
      </trkpt>
      <trkpt lat="44.59096" lon="6.02986">
        <ele>1475.1</ele>
        <time>2022-10-13T12:36:43.435Z</time>
      </trkpt>
      <trkpt lat="44.59092" lon="6.02994">
        <ele>1477.9</ele>
        <time>2022-10-13T12:36:46.666Z</time>
      </trkpt>
      <trkpt lat="44.59087" lon="6.03004">
        <ele>1478.4</ele>
        <time>2022-10-13T12:36:49.654Z</time>
      </trkpt>
      <trkpt lat="44.59081" lon="6.03013">
        <ele>1477.6</ele>
        <time>2022-10-13T12:36:52.428Z</time>
      </trkpt>
      <trkpt lat="44.59074" lon="6.03021">
        <ele>1478</ele>
        <time>2022-10-13T12:36:55.951Z</time>
      </trkpt>
      <trkpt lat="44.59066" lon="6.0303">
        <ele>1479.1</ele>
        <time>2022-10-13T12:36:59.476Z</time>
      </trkpt>
      <trkpt lat="44.59059" lon="6.03036">
        <ele>1479.5</ele>
        <time>2022-10-13T12:37:02.426Z</time>
      </trkpt>
      <trkpt lat="44.59055" lon="6.03043">
        <ele>1481.4</ele>
        <time>2022-10-13T12:37:05.175Z</time>
      </trkpt>
      <trkpt lat="44.59048" lon="6.03051">
        <ele>1481.1</ele>
        <time>2022-10-13T12:37:08.407Z</time>
      </trkpt>
      <trkpt lat="44.59042" lon="6.03063">
        <ele>1481.6</ele>
        <time>2022-10-13T12:37:11.429Z</time>
      </trkpt>
      <trkpt lat="44.59037" lon="6.03071">
        <ele>1482</ele>
        <time>2022-10-13T12:37:14.197Z</time>
      </trkpt>
      <trkpt lat="44.5903" lon="6.03081">
        <ele>1482.7</ele>
        <time>2022-10-13T12:37:17.436Z</time>
      </trkpt>
      <trkpt lat="44.59026" lon="6.03089">
        <ele>1483.3</ele>
        <time>2022-10-13T12:37:20.430Z</time>
      </trkpt>
      <trkpt lat="44.59022" lon="6.03096">
        <ele>1484.6</ele>
        <time>2022-10-13T12:37:23.171Z</time>
      </trkpt>
      <trkpt lat="44.59016" lon="6.03102">
        <ele>1484.7</ele>
        <time>2022-10-13T12:37:26.428Z</time>
      </trkpt>
      <trkpt lat="44.59009" lon="6.03109">
        <ele>1484.9</ele>
        <time>2022-10-13T12:37:29.441Z</time>
      </trkpt>
      <trkpt lat="44.59001" lon="6.03115">
        <ele>1484.6</ele>
        <time>2022-10-13T12:37:32.462Z</time>
      </trkpt>
      <trkpt lat="44.58995" lon="6.03123">
        <ele>1487.4</ele>
        <time>2022-10-13T12:37:35.435Z</time>
      </trkpt>
      <trkpt lat="44.58989" lon="6.03132">
        <ele>1487.1</ele>
        <time>2022-10-13T12:37:38.432Z</time>
      </trkpt>
      <trkpt lat="44.58984" lon="6.03139">
        <ele>1489</ele>
        <time>2022-10-13T12:37:41.166Z</time>
      </trkpt>
      <trkpt lat="44.58978" lon="6.03147">
        <ele>1488.7</ele>
        <time>2022-10-13T12:37:44.422Z</time>
      </trkpt>
      <trkpt lat="44.58971" lon="6.03154">
        <ele>1489.8</ele>
        <time>2022-10-13T12:37:47.423Z</time>
      </trkpt>
      <trkpt lat="44.58964" lon="6.03163">
        <ele>1491.1</ele>
        <time>2022-10-13T12:37:50.631Z</time>
      </trkpt>
      <trkpt lat="44.58957" lon="6.0317">
        <ele>1490.6</ele>
        <time>2022-10-13T12:37:53.436Z</time>
      </trkpt>
      <trkpt lat="44.58953" lon="6.03177">
        <ele>1490.2</ele>
        <time>2022-10-13T12:37:56.433Z</time>
      </trkpt>
      <trkpt lat="44.58945" lon="6.03184">
        <ele>1493.7</ele>
        <time>2022-10-13T12:37:59.537Z</time>
      </trkpt>
      <trkpt lat="44.58938" lon="6.03192">
        <ele>1493.6</ele>
        <time>2022-10-13T12:38:02.433Z</time>
      </trkpt>
      <trkpt lat="44.58932" lon="6.03196">
        <ele>1492.7</ele>
        <time>2022-10-13T12:38:05.421Z</time>
      </trkpt>
      <trkpt lat="44.58926" lon="6.03203">
        <ele>1494.8</ele>
        <time>2022-10-13T12:38:08.457Z</time>
      </trkpt>
      <trkpt lat="44.5892" lon="6.03216">
        <ele>1494.9</ele>
        <time>2022-10-13T12:38:11.421Z</time>
      </trkpt>
      <trkpt lat="44.58912" lon="6.03224">
        <ele>1494.7</ele>
        <time>2022-10-13T12:38:14.469Z</time>
      </trkpt>
      <trkpt lat="44.58905" lon="6.03228">
        <ele>1493.3</ele>
        <time>2022-10-13T12:38:17.189Z</time>
      </trkpt>
      <trkpt lat="44.58898" lon="6.03235">
        <ele>1495.6</ele>
        <time>2022-10-13T12:38:20.430Z</time>
      </trkpt>
      <trkpt lat="44.58891" lon="6.03238">
        <ele>1495.1</ele>
        <time>2022-10-13T12:38:23.420Z</time>
      </trkpt>
      <trkpt lat="44.58885" lon="6.03243">
        <ele>1498.4</ele>
        <time>2022-10-13T12:38:26.353Z</time>
      </trkpt>
      <trkpt lat="44.5888" lon="6.03249">
        <ele>1495.9</ele>
        <time>2022-10-13T12:38:29.431Z</time>
      </trkpt>
      <trkpt lat="44.58874" lon="6.03253">
        <ele>1495.9</ele>
        <time>2022-10-13T12:38:33.425Z</time>
      </trkpt>
      <trkpt lat="44.58865" lon="6.03247">
        <ele>1496</ele>
        <time>2022-10-13T12:38:39.439Z</time>
      </trkpt>
      <trkpt lat="44.58859" lon="6.03241">
        <ele>1496.2</ele>
        <time>2022-10-13T12:38:42.413Z</time>
      </trkpt>
      <trkpt lat="44.58858" lon="6.03231">
        <ele>1497.4</ele>
        <time>2022-10-13T12:38:45.210Z</time>
      </trkpt>
      <trkpt lat="44.58855" lon="6.03219">
        <ele>1496.9</ele>
        <time>2022-10-13T12:38:48.013Z</time>
      </trkpt>
      <trkpt lat="44.58852" lon="6.03208">
        <ele>1496.4</ele>
        <time>2022-10-13T12:38:50.807Z</time>
      </trkpt>
      <trkpt lat="44.58846" lon="6.03197">
        <ele>1497.7</ele>
        <time>2022-10-13T12:38:54.275Z</time>
      </trkpt>
      <trkpt lat="44.58846" lon="6.0319">
        <ele>1497.6</ele>
        <time>2022-10-13T12:38:57.448Z</time>
      </trkpt>
      <trkpt lat="44.58844" lon="6.03181">
        <ele>1498.1</ele>
        <time>2022-10-13T12:39:00.422Z</time>
      </trkpt>
      <trkpt lat="44.58844" lon="6.03171">
        <ele>1500.3</ele>
        <time>2022-10-13T12:39:04.050Z</time>
      </trkpt>
      <trkpt lat="44.58845" lon="6.03161">
        <ele>1500.3</ele>
        <time>2022-10-13T12:39:07.437Z</time>
      </trkpt>
      <trkpt lat="44.58845" lon="6.03149">
        <ele>1504.2</ele>
        <time>2022-10-13T12:39:10.994Z</time>
      </trkpt>
      <trkpt lat="44.58844" lon="6.03137">
        <ele>1502.6</ele>
        <time>2022-10-13T12:39:14.428Z</time>
      </trkpt>
      <trkpt lat="44.58843" lon="6.03127">
        <ele>1502.4</ele>
        <time>2022-10-13T12:39:17.420Z</time>
      </trkpt>
      <trkpt lat="44.58845" lon="6.03118">
        <ele>1503.9</ele>
        <time>2022-10-13T12:39:20.191Z</time>
      </trkpt>
      <trkpt lat="44.58846" lon="6.03109">
        <ele>1503.6</ele>
        <time>2022-10-13T12:39:23.411Z</time>
      </trkpt>
      <trkpt lat="44.58844" lon="6.031">
        <ele>1503.5</ele>
        <time>2022-10-13T12:39:26.419Z</time>
      </trkpt>
      <trkpt lat="44.58843" lon="6.03093">
        <ele>1502.6</ele>
        <time>2022-10-13T12:39:29.168Z</time>
      </trkpt>
      <trkpt lat="44.58841" lon="6.03079">
        <ele>1505.4</ele>
        <time>2022-10-13T12:39:32.748Z</time>
      </trkpt>
      <trkpt lat="44.58838" lon="6.03067">
        <ele>1505.7</ele>
        <time>2022-10-13T12:39:36.281Z</time>
      </trkpt>
      <trkpt lat="44.58835" lon="6.03055">
        <ele>1505.7</ele>
        <time>2022-10-13T12:39:39.472Z</time>
      </trkpt>
      <trkpt lat="44.58833" lon="6.03044">
        <ele>1506.7</ele>
        <time>2022-10-13T12:39:42.450Z</time>
      </trkpt>
      <trkpt lat="44.5883" lon="6.03035">
        <ele>1507.3</ele>
        <time>2022-10-13T12:39:46.000Z</time>
      </trkpt>
      <trkpt lat="44.58829" lon="6.03024">
        <ele>1507.7</ele>
        <time>2022-10-13T12:39:48.434Z</time>
      </trkpt>
      <trkpt lat="44.58827" lon="6.03013">
        <ele>1507.4</ele>
        <time>2022-10-13T12:39:51.422Z</time>
      </trkpt>
      <trkpt lat="44.58823" lon="6.03003">
        <ele>1508.3</ele>
        <time>2022-10-13T12:39:54.821Z</time>
      </trkpt>
      <trkpt lat="44.58817" lon="6.02992">
        <ele>1508.9</ele>
        <time>2022-10-13T12:39:58.434Z</time>
      </trkpt>
      <trkpt lat="44.58815" lon="6.02983">
        <ele>1511.7</ele>
        <time>2022-10-13T12:40:01.624Z</time>
      </trkpt>
      <trkpt lat="44.5881" lon="6.02972">
        <ele>1510.9</ele>
        <time>2022-10-13T12:40:04.853Z</time>
      </trkpt>
      <trkpt lat="44.58804" lon="6.02965">
        <ele>1510.7</ele>
        <time>2022-10-13T12:40:07.884Z</time>
      </trkpt>
      <trkpt lat="44.58798" lon="6.02952">
        <ele>1509.7</ele>
        <time>2022-10-13T12:40:11.141Z</time>
      </trkpt>
      <trkpt lat="44.58793" lon="6.02944">
        <ele>1511.7</ele>
        <time>2022-10-13T12:40:14.407Z</time>
      </trkpt>
      <trkpt lat="44.58789" lon="6.02937">
        <ele>1510.5</ele>
        <time>2022-10-13T12:40:17.393Z</time>
      </trkpt>
      <trkpt lat="44.58785" lon="6.02934">
        <ele>1512.4</ele>
        <time>2022-10-13T12:40:20.419Z</time>
      </trkpt>
      <trkpt lat="44.58782" lon="6.02922">
        <ele>1511.8</ele>
        <time>2022-10-13T12:40:23.431Z</time>
      </trkpt>
      <trkpt lat="44.5878" lon="6.02911">
        <ele>1512.2</ele>
        <time>2022-10-13T12:40:26.442Z</time>
      </trkpt>
      <trkpt lat="44.5878" lon="6.02897">
        <ele>1514.5</ele>
        <time>2022-10-13T12:40:30.140Z</time>
      </trkpt>
      <trkpt lat="44.58777" lon="6.02885">
        <ele>1510.9</ele>
        <time>2022-10-13T12:40:34.000Z</time>
      </trkpt>
      <trkpt lat="44.58776" lon="6.02874">
        <ele>1514.9</ele>
        <time>2022-10-13T12:40:37.000Z</time>
      </trkpt>
      <trkpt lat="44.58775" lon="6.02865">
        <ele>1514.9</ele>
        <time>2022-10-13T12:40:39.174Z</time>
      </trkpt>
      <trkpt lat="44.58774" lon="6.02852">
        <ele>1517.8</ele>
        <time>2022-10-13T12:40:43.000Z</time>
      </trkpt>
      <trkpt lat="44.58769" lon="6.02843">
        <ele>1515.9</ele>
        <time>2022-10-13T12:40:46.000Z</time>
      </trkpt>
      <trkpt lat="44.58765" lon="6.02832">
        <ele>1515.9</ele>
        <time>2022-10-13T12:40:49.000Z</time>
      </trkpt>
      <trkpt lat="44.5876" lon="6.02823">
        <ele>1520.2</ele>
        <time>2022-10-13T12:40:52.000Z</time>
      </trkpt>
      <trkpt lat="44.58756" lon="6.02815">
        <ele>1517.9</ele>
        <time>2022-10-13T12:40:55.000Z</time>
      </trkpt>
      <trkpt lat="44.58751" lon="6.02805">
        <ele>1518.3</ele>
        <time>2022-10-13T12:40:57.434Z</time>
      </trkpt>
      <trkpt lat="44.58745" lon="6.02795">
        <ele>1519.3</ele>
        <time>2022-10-13T12:41:00.430Z</time>
      </trkpt>
      <trkpt lat="44.5874" lon="6.02787">
        <ele>1519.6</ele>
        <time>2022-10-13T12:41:04.000Z</time>
      </trkpt>
      <trkpt lat="44.58735" lon="6.02778">
        <ele>1519.9</ele>
        <time>2022-10-13T12:41:06.086Z</time>
      </trkpt>
      <trkpt lat="44.58734" lon="6.02766">
        <ele>1519.9</ele>
        <time>2022-10-13T12:41:09.432Z</time>
      </trkpt>
      <trkpt lat="44.58726" lon="6.02761">
        <ele>1520.9</ele>
        <time>2022-10-13T12:41:13.000Z</time>
      </trkpt>
      <trkpt lat="44.58722" lon="6.02751">
        <ele>1521.2</ele>
        <time>2022-10-13T12:41:15.431Z</time>
      </trkpt>
      <trkpt lat="44.58717" lon="6.02739">
        <ele>1523.4</ele>
        <time>2022-10-13T12:41:18.757Z</time>
      </trkpt>
      <trkpt lat="44.58715" lon="6.02726">
        <ele>1521.3</ele>
        <time>2022-10-13T12:41:22.250Z</time>
      </trkpt>
      <trkpt lat="44.58709" lon="6.02711">
        <ele>1521.5</ele>
        <time>2022-10-13T12:41:25.442Z</time>
      </trkpt>
      <trkpt lat="44.58707" lon="6.02701">
        <ele>1526.2</ele>
        <time>2022-10-13T12:41:28.151Z</time>
      </trkpt>
      <trkpt lat="44.58705" lon="6.0269">
        <ele>1522.5</ele>
        <time>2022-10-13T12:41:31.309Z</time>
      </trkpt>
      <trkpt lat="44.587" lon="6.0268">
        <ele>1522.6</ele>
        <time>2022-10-13T12:41:34.423Z</time>
      </trkpt>
      <trkpt lat="44.58698" lon="6.02667">
        <ele>1527.1</ele>
        <time>2022-10-13T12:41:37.654Z</time>
      </trkpt>
      <trkpt lat="44.58696" lon="6.02654">
        <ele>1524.2</ele>
        <time>2022-10-13T12:41:40.613Z</time>
      </trkpt>
      <trkpt lat="44.58693" lon="6.02643">
        <ele>1524.1</ele>
        <time>2022-10-13T12:41:43.426Z</time>
      </trkpt>
      <trkpt lat="44.5869" lon="6.02634">
        <ele>1530.7</ele>
        <time>2022-10-13T12:41:46.227Z</time>
      </trkpt>
      <trkpt lat="44.58685" lon="6.02623">
        <ele>1524.4</ele>
        <time>2022-10-13T12:41:49.276Z</time>
      </trkpt>
      <trkpt lat="44.58681" lon="6.02612">
        <ele>1524.6</ele>
        <time>2022-10-13T12:41:52.430Z</time>
      </trkpt>
      <trkpt lat="44.58677" lon="6.02603">
        <ele>1530.5</ele>
        <time>2022-10-13T12:41:55.248Z</time>
      </trkpt>
      <trkpt lat="44.58671" lon="6.02593">
        <ele>1525.3</ele>
        <time>2022-10-13T12:41:58.013Z</time>
      </trkpt>
      <trkpt lat="44.58666" lon="6.02582">
        <ele>1525.4</ele>
        <time>2022-10-13T12:42:01.433Z</time>
      </trkpt>
      <trkpt lat="44.58662" lon="6.02572">
        <ele>1533.6</ele>
        <time>2022-10-13T12:42:04.173Z</time>
      </trkpt>
      <trkpt lat="44.58659" lon="6.02562">
        <ele>1526.3</ele>
        <time>2022-10-13T12:42:06.895Z</time>
      </trkpt>
      <trkpt lat="44.58653" lon="6.02549">
        <ele>1526.2</ele>
        <time>2022-10-13T12:42:10.431Z</time>
      </trkpt>
      <trkpt lat="44.58646" lon="6.02536">
        <ele>1533.5</ele>
        <time>2022-10-13T12:42:13.830Z</time>
      </trkpt>
      <trkpt lat="44.58641" lon="6.02525">
        <ele>1528.3</ele>
        <time>2022-10-13T12:42:16.652Z</time>
      </trkpt>
      <trkpt lat="44.58638" lon="6.02516">
        <ele>1528.2</ele>
        <time>2022-10-13T12:42:19.418Z</time>
      </trkpt>
      <trkpt lat="44.58633" lon="6.02506">
        <ele>1536.7</ele>
        <time>2022-10-13T12:42:22.491Z</time>
      </trkpt>
      <trkpt lat="44.58628" lon="6.02493">
        <ele>1530</ele>
        <time>2022-10-13T12:42:25.413Z</time>
      </trkpt>
      <trkpt lat="44.58626" lon="6.02481">
        <ele>1529</ele>
        <time>2022-10-13T12:42:28.432Z</time>
      </trkpt>
      <trkpt lat="44.5862" lon="6.02473">
        <ele>1534</ele>
        <time>2022-10-13T12:42:31.455Z</time>
      </trkpt>
      <trkpt lat="44.58616" lon="6.02462">
        <ele>1531</ele>
        <time>2022-10-13T12:42:34.388Z</time>
      </trkpt>
      <trkpt lat="44.58613" lon="6.02449">
        <ele>1531.1</ele>
        <time>2022-10-13T12:42:37.430Z</time>
      </trkpt>
      <trkpt lat="44.5861" lon="6.0244">
        <ele>1535</ele>
        <time>2022-10-13T12:42:40.235Z</time>
      </trkpt>
      <trkpt lat="44.58606" lon="6.02428">
        <ele>1532.1</ele>
        <time>2022-10-13T12:42:43.259Z</time>
      </trkpt>
      <trkpt lat="44.58602" lon="6.02418">
        <ele>1532.5</ele>
        <time>2022-10-13T12:42:46.235Z</time>
      </trkpt>
      <trkpt lat="44.586" lon="6.02405">
        <ele>1537.8</ele>
        <time>2022-10-13T12:42:49.368Z</time>
      </trkpt>
      <trkpt lat="44.58597" lon="6.02396">
        <ele>1533.1</ele>
        <time>2022-10-13T12:42:52.353Z</time>
      </trkpt>
      <trkpt lat="44.58592" lon="6.02386">
        <ele>1533.7</ele>
        <time>2022-10-13T12:42:55.430Z</time>
      </trkpt>
      <trkpt lat="44.58586" lon="6.02378">
        <ele>1537.6</ele>
        <time>2022-10-13T12:42:58.334Z</time>
      </trkpt>
      <trkpt lat="44.5858" lon="6.02367">
        <ele>1534.8</ele>
        <time>2022-10-13T12:43:01.514Z</time>
      </trkpt>
      <trkpt lat="44.58576" lon="6.02357">
        <ele>1535.5</ele>
        <time>2022-10-13T12:43:04.431Z</time>
      </trkpt>
      <trkpt lat="44.58572" lon="6.02346">
        <ele>1535.9</ele>
        <time>2022-10-13T12:43:07.273Z</time>
      </trkpt>
      <trkpt lat="44.58571" lon="6.02332">
        <ele>1534.8</ele>
        <time>2022-10-13T12:43:10.276Z</time>
      </trkpt>
      <trkpt lat="44.5857" lon="6.02318">
        <ele>1536.3</ele>
        <time>2022-10-13T12:43:13.429Z</time>
      </trkpt>
      <trkpt lat="44.58565" lon="6.02309">
        <ele>1537</ele>
        <time>2022-10-13T12:43:16.509Z</time>
      </trkpt>
      <trkpt lat="44.58559" lon="6.02303">
        <ele>1536.3</ele>
        <time>2022-10-13T12:43:19.315Z</time>
      </trkpt>
      <trkpt lat="44.58549" lon="6.02298">
        <ele>1537.2</ele>
        <time>2022-10-13T12:43:22.427Z</time>
      </trkpt>
      <trkpt lat="44.58541" lon="6.02295">
        <ele>1483.9</ele>
        <time>2022-10-13T12:43:25.390Z</time>
      </trkpt>
      <trkpt lat="44.58532" lon="6.02294">
        <ele>1537.2</ele>
        <time>2022-10-13T12:43:28.567Z</time>
      </trkpt>
      <trkpt lat="44.58525" lon="6.02293">
        <ele>1538</ele>
        <time>2022-10-13T12:43:31.432Z</time>
      </trkpt>
      <trkpt lat="44.58518" lon="6.02288">
        <ele>1527.1</ele>
        <time>2022-10-13T12:43:34.575Z</time>
      </trkpt>
      <trkpt lat="44.58512" lon="6.02286">
        <ele>1537.7</ele>
        <time>2022-10-13T12:43:37.608Z</time>
      </trkpt>
      <trkpt lat="44.58505" lon="6.02288">
        <ele>1538</ele>
        <time>2022-10-13T12:43:40.423Z</time>
      </trkpt>
      <trkpt lat="44.58495" lon="6.02289">
        <ele>1536.2</ele>
        <time>2022-10-13T12:43:43.592Z</time>
      </trkpt>
      <trkpt lat="44.58487" lon="6.02289">
        <ele>1540.4</ele>
        <time>2022-10-13T12:43:46.475Z</time>
      </trkpt>
      <trkpt lat="44.58477" lon="6.02286">
        <ele>1540.9</ele>
        <time>2022-10-13T12:43:49.423Z</time>
      </trkpt>
      <trkpt lat="44.58469" lon="6.02276">
        <ele>1537.3</ele>
        <time>2022-10-13T12:43:53.192Z</time>
      </trkpt>
      <trkpt lat="44.58459" lon="6.02262">
        <ele>1541.8</ele>
        <time>2022-10-13T12:43:57.272Z</time>
      </trkpt>
      <trkpt lat="44.58454" lon="6.02246">
        <ele>1541.7</ele>
        <time>2022-10-13T12:44:00.421Z</time>
      </trkpt>
      <trkpt lat="44.58449" lon="6.02241">
        <ele>1543.4</ele>
        <time>2022-10-13T12:44:03.417Z</time>
      </trkpt>
      <trkpt lat="44.58444" lon="6.02243">
        <ele>1542.4</ele>
        <time>2022-10-13T12:44:07.000Z</time>
      </trkpt>
      <trkpt lat="44.5844" lon="6.02238">
        <ele>1542.9</ele>
        <time>2022-10-13T12:44:10.000Z</time>
      </trkpt>
      <trkpt lat="44.58442" lon="6.02251">
        <ele>1542.9</ele>
        <time>2022-10-13T12:44:12.432Z</time>
      </trkpt>
      <trkpt lat="44.58447" lon="6.02248">
        <ele>1542.7</ele>
        <time>2022-10-13T12:44:34.000Z</time>
      </trkpt>
      <trkpt lat="44.58452" lon="6.02245">
        <ele>1543.6</ele>
        <time>2022-10-13T12:45:22.000Z</time>
      </trkpt>
      <trkpt lat="44.58455" lon="6.02249">
        <ele>1542.8</ele>
        <time>2022-10-13T12:45:31.000Z</time>
      </trkpt>
      <trkpt lat="44.58449" lon="6.02247">
        <ele>1543.3</ele>
        <time>2022-10-13T12:45:43.000Z</time>
      </trkpt>
      <trkpt lat="44.58449" lon="6.0224">
        <ele>1544</ele>
        <time>2022-10-13T12:46:25.000Z</time>
      </trkpt>
      <trkpt lat="44.58447" lon="6.02247">
        <ele>1544</ele>
        <time>2022-10-13T12:47:18.030Z</time>
      </trkpt>
      <trkpt lat="44.5845" lon="6.0226">
        <ele>1546.5</ele>
        <time>2022-10-13T12:47:22.000Z</time>
      </trkpt>
      <trkpt lat="44.58456" lon="6.0227">
        <ele>1547.2</ele>
        <time>2022-10-13T12:47:25.000Z</time>
      </trkpt>
      <trkpt lat="44.58461" lon="6.02278">
        <ele>1547.2</ele>
        <time>2022-10-13T12:47:27.444Z</time>
      </trkpt>
      <trkpt lat="44.58465" lon="6.02287">
        <ele>1547.3</ele>
        <time>2022-10-13T12:47:30.428Z</time>
      </trkpt>
      <trkpt lat="44.5847" lon="6.02292">
        <ele>1549.7</ele>
        <time>2022-10-13T12:47:33.309Z</time>
      </trkpt>
      <trkpt lat="44.58476" lon="6.02296">
        <ele>1550.8</ele>
        <time>2022-10-13T12:47:36.432Z</time>
      </trkpt>
      <trkpt lat="44.58481" lon="6.02302">
        <ele>1550.6</ele>
        <time>2022-10-13T12:47:39.433Z</time>
      </trkpt>
      <trkpt lat="44.58492" lon="6.02303">
        <ele>1552.6</ele>
        <time>2022-10-13T12:47:45.485Z</time>
      </trkpt>
      <trkpt lat="44.58499" lon="6.02304">
        <ele>1552.5</ele>
        <time>2022-10-13T12:47:48.421Z</time>
      </trkpt>
      <trkpt lat="44.58505" lon="6.02307">
        <ele>1554.9</ele>
        <time>2022-10-13T12:47:51.317Z</time>
      </trkpt>
      <trkpt lat="44.58512" lon="6.02308">
        <ele>1555.5</ele>
        <time>2022-10-13T12:47:54.462Z</time>
      </trkpt>
      <trkpt lat="44.58517" lon="6.0231">
        <ele>1554.7</ele>
        <time>2022-10-13T12:47:57.425Z</time>
      </trkpt>
      <trkpt lat="44.58529" lon="6.02316">
        <ele>1557.8</ele>
        <time>2022-10-13T12:48:03.471Z</time>
      </trkpt>
      <trkpt lat="44.58536" lon="6.02328">
        <ele>1558.2</ele>
        <time>2022-10-13T12:48:06.483Z</time>
      </trkpt>
      <trkpt lat="44.58544" lon="6.02338">
        <ele>1560.5</ele>
        <time>2022-10-13T12:48:10.210Z</time>
      </trkpt>
      <trkpt lat="44.58548" lon="6.02348">
        <ele>1561</ele>
        <time>2022-10-13T12:48:13.437Z</time>
      </trkpt>
      <trkpt lat="44.58548" lon="6.02359">
        <ele>1560.7</ele>
        <time>2022-10-13T12:48:16.190Z</time>
      </trkpt>
      <trkpt lat="44.58551" lon="6.02369">
        <ele>1562.7</ele>
        <time>2022-10-13T12:48:19.153Z</time>
      </trkpt>
      <trkpt lat="44.58553" lon="6.02379">
        <ele>1563.6</ele>
        <time>2022-10-13T12:48:22.432Z</time>
      </trkpt>
      <trkpt lat="44.58553" lon="6.02389">
        <ele>1560.7</ele>
        <time>2022-10-13T12:48:25.809Z</time>
      </trkpt>
      <trkpt lat="44.58553" lon="6.02398">
        <ele>1565.2</ele>
        <time>2022-10-13T12:48:28.649Z</time>
      </trkpt>
      <trkpt lat="44.58558" lon="6.02406">
        <ele>1565.7</ele>
        <time>2022-10-13T12:48:31.423Z</time>
      </trkpt>
      <trkpt lat="44.58562" lon="6.02416">
        <ele>1565.9</ele>
        <time>2022-10-13T12:48:34.388Z</time>
      </trkpt>
      <trkpt lat="44.58565" lon="6.02427">
        <ele>1568.6</ele>
        <time>2022-10-13T12:48:37.189Z</time>
      </trkpt>
      <trkpt lat="44.58569" lon="6.02436">
        <ele>1569.2</ele>
        <time>2022-10-13T12:48:40.438Z</time>
      </trkpt>
      <trkpt lat="44.5857" lon="6.02443">
        <ele>1568.4</ele>
        <time>2022-10-13T12:48:43.671Z</time>
      </trkpt>
      <trkpt lat="44.5857" lon="6.02454">
        <ele>1570.4</ele>
        <time>2022-10-13T12:48:46.605Z</time>
      </trkpt>
      <trkpt lat="44.5857" lon="6.02464">
        <ele>1571.1</ele>
        <time>2022-10-13T12:48:49.431Z</time>
      </trkpt>
      <trkpt lat="44.5857" lon="6.02473">
        <ele>1567.9</ele>
        <time>2022-10-13T12:48:52.332Z</time>
      </trkpt>
      <trkpt lat="44.58574" lon="6.02483">
        <ele>1572.2</ele>
        <time>2022-10-13T12:48:55.247Z</time>
      </trkpt>
      <trkpt lat="44.58578" lon="6.02493">
        <ele>1573.3</ele>
        <time>2022-10-13T12:48:58.429Z</time>
      </trkpt>
      <trkpt lat="44.58581" lon="6.02501">
        <ele>1571.1</ele>
        <time>2022-10-13T12:49:01.205Z</time>
      </trkpt>
      <trkpt lat="44.58585" lon="6.0251">
        <ele>1576</ele>
        <time>2022-10-13T12:49:04.008Z</time>
      </trkpt>
      <trkpt lat="44.58587" lon="6.02522">
        <ele>1575.3</ele>
        <time>2022-10-13T12:49:07.423Z</time>
      </trkpt>
      <trkpt lat="44.58589" lon="6.02533">
        <ele>1576</ele>
        <time>2022-10-13T12:49:10.597Z</time>
      </trkpt>
      <trkpt lat="44.5859" lon="6.02542">
        <ele>1577.8</ele>
        <time>2022-10-13T12:49:13.334Z</time>
      </trkpt>
      <trkpt lat="44.58588" lon="6.02552">
        <ele>1577.7</ele>
        <time>2022-10-13T12:49:16.366Z</time>
      </trkpt>
      <trkpt lat="44.58587" lon="6.0256">
        <ele>1578.8</ele>
        <time>2022-10-13T12:49:19.093Z</time>
      </trkpt>
      <trkpt lat="44.58587" lon="6.0257">
        <ele>1538.3</ele>
        <time>2022-10-13T12:49:22.024Z</time>
      </trkpt>
      <trkpt lat="44.58589" lon="6.0258">
        <ele>1580.7</ele>
        <time>2022-10-13T12:49:25.051Z</time>
      </trkpt>
      <trkpt lat="44.58592" lon="6.0259">
        <ele>1582</ele>
        <time>2022-10-13T12:49:28.423Z</time>
      </trkpt>
      <trkpt lat="44.58596" lon="6.02599">
        <ele>1571.9</ele>
        <time>2022-10-13T12:49:31.590Z</time>
      </trkpt>
      <trkpt lat="44.58593" lon="6.02608">
        <ele>1583.2</ele>
        <time>2022-10-13T12:49:34.474Z</time>
      </trkpt>
      <trkpt lat="44.58593" lon="6.02617">
        <ele>1584.2</ele>
        <time>2022-10-13T12:49:37.434Z</time>
      </trkpt>
      <trkpt lat="44.58593" lon="6.02628">
        <ele>1578.3</ele>
        <time>2022-10-13T12:49:41.007Z</time>
      </trkpt>
      <trkpt lat="44.58595" lon="6.0264">
        <ele>1586.5</ele>
        <time>2022-10-13T12:49:44.441Z</time>
      </trkpt>
      <trkpt lat="44.58599" lon="6.02651">
        <ele>1586.4</ele>
        <time>2022-10-13T12:49:47.547Z</time>
      </trkpt>
      <trkpt lat="44.58601" lon="6.02658">
        <ele>1583.7</ele>
        <time>2022-10-13T12:49:50.329Z</time>
      </trkpt>
      <trkpt lat="44.58605" lon="6.02666">
        <ele>1587.2</ele>
        <time>2022-10-13T12:49:53.172Z</time>
      </trkpt>
      <trkpt lat="44.5861" lon="6.02676">
        <ele>1588.1</ele>
        <time>2022-10-13T12:49:56.427Z</time>
      </trkpt>
      <trkpt lat="44.58614" lon="6.02685">
        <ele>1587.3</ele>
        <time>2022-10-13T12:49:59.354Z</time>
      </trkpt>
      <trkpt lat="44.58618" lon="6.02697">
        <ele>1589.9</ele>
        <time>2022-10-13T12:50:02.430Z</time>
      </trkpt>
      <trkpt lat="44.5862" lon="6.02707">
        <ele>1590.2</ele>
        <time>2022-10-13T12:50:05.430Z</time>
      </trkpt>
      <trkpt lat="44.58621" lon="6.02715">
        <ele>1588.4</ele>
        <time>2022-10-13T12:50:08.291Z</time>
      </trkpt>
      <trkpt lat="44.58623" lon="6.02726">
        <ele>1590.9</ele>
        <time>2022-10-13T12:50:11.464Z</time>
      </trkpt>
      <trkpt lat="44.58625" lon="6.02735">
        <ele>1591.8</ele>
        <time>2022-10-13T12:50:14.436Z</time>
      </trkpt>
      <trkpt lat="44.58625" lon="6.02745">
        <ele>1589.4</ele>
        <time>2022-10-13T12:50:17.449Z</time>
      </trkpt>
      <trkpt lat="44.58625" lon="6.02757">
        <ele>1594.4</ele>
        <time>2022-10-13T12:50:21.458Z</time>
      </trkpt>
      <trkpt lat="44.58625" lon="6.02768">
        <ele>1593.7</ele>
        <time>2022-10-13T12:50:24.429Z</time>
      </trkpt>
      <trkpt lat="44.58625" lon="6.02776">
        <ele>1596.1</ele>
        <time>2022-10-13T12:50:27.287Z</time>
      </trkpt>
      <trkpt lat="44.58626" lon="6.02787">
        <ele>1596</ele>
        <time>2022-10-13T12:50:30.425Z</time>
      </trkpt>
      <trkpt lat="44.58626" lon="6.02797">
        <ele>1596.3</ele>
        <time>2022-10-13T12:50:33.423Z</time>
      </trkpt>
      <trkpt lat="44.58627" lon="6.02805">
        <ele>1598.4</ele>
        <time>2022-10-13T12:50:36.652Z</time>
      </trkpt>
      <trkpt lat="44.58627" lon="6.02815">
        <ele>1597.7</ele>
        <time>2022-10-13T12:50:39.458Z</time>
      </trkpt>
      <trkpt lat="44.58626" lon="6.02824">
        <ele>1556.3</ele>
        <time>2022-10-13T12:50:43.000Z</time>
      </trkpt>
      <trkpt lat="44.58626" lon="6.02831">
        <ele>1600.4</ele>
        <time>2022-10-13T12:50:46.000Z</time>
      </trkpt>
      <trkpt lat="44.5863" lon="6.02839">
        <ele>1600.7</ele>
        <time>2022-10-13T12:50:48.467Z</time>
      </trkpt>
      <trkpt lat="44.5863" lon="6.0285">
        <ele>1599.9</ele>
        <time>2022-10-13T12:50:51.431Z</time>
      </trkpt>
      <trkpt lat="44.58629" lon="6.02859">
        <ele>1601.6</ele>
        <time>2022-10-13T12:50:54.144Z</time>
      </trkpt>
      <trkpt lat="44.5863" lon="6.0287">
        <ele>1602.6</ele>
        <time>2022-10-13T12:50:57.429Z</time>
      </trkpt>
      <trkpt lat="44.5863" lon="6.02881">
        <ele>1602.8</ele>
        <time>2022-10-13T12:51:00.424Z</time>
      </trkpt>
      <trkpt lat="44.5863" lon="6.02889">
        <ele>1604.5</ele>
        <time>2022-10-13T12:51:04.000Z</time>
      </trkpt>
      <trkpt lat="44.5863" lon="6.029">
        <ele>1605.1</ele>
        <time>2022-10-13T12:51:07.426Z</time>
      </trkpt>
      <trkpt lat="44.5863" lon="6.02909">
        <ele>1600.5</ele>
        <time>2022-10-13T12:51:10.533Z</time>
      </trkpt>
      <trkpt lat="44.58629" lon="6.0292">
        <ele>1607.6</ele>
        <time>2022-10-13T12:51:13.552Z</time>
      </trkpt>
      <trkpt lat="44.58625" lon="6.02932">
        <ele>1608.2</ele>
        <time>2022-10-13T12:51:16.553Z</time>
      </trkpt>
      <trkpt lat="44.58622" lon="6.02942">
        <ele>1602.5</ele>
        <time>2022-10-13T12:51:19.566Z</time>
      </trkpt>
      <trkpt lat="44.58622" lon="6.02951">
        <ele>1609.7</ele>
        <time>2022-10-13T12:51:23.437Z</time>
      </trkpt>
      <trkpt lat="44.58621" lon="6.02961">
        <ele>1610.7</ele>
        <time>2022-10-13T12:51:26.591Z</time>
      </trkpt>
      <trkpt lat="44.58618" lon="6.0297">
        <ele>1611.6</ele>
        <time>2022-10-13T12:51:29.451Z</time>
      </trkpt>
      <trkpt lat="44.58616" lon="6.02978">
        <ele>1611.3</ele>
        <time>2022-10-13T12:51:32.348Z</time>
      </trkpt>
      <trkpt lat="44.58616" lon="6.02986">
        <ele>1612.3</ele>
        <time>2022-10-13T12:51:35.098Z</time>
      </trkpt>
      <trkpt lat="44.58614" lon="6.02995">
        <ele>1607.8</ele>
        <time>2022-10-13T12:51:38.406Z</time>
      </trkpt>
      <trkpt lat="44.58614" lon="6.03004">
        <ele>1610.5</ele>
        <time>2022-10-13T12:51:41.778Z</time>
      </trkpt>
      <trkpt lat="44.5861" lon="6.03001">
        <ele>1614</ele>
        <time>2022-10-13T12:51:52.000Z</time>
      </trkpt>
      <trkpt lat="44.58607" lon="6.03008">
        <ele>1616.6</ele>
        <time>2022-10-13T12:52:12.229Z</time>
      </trkpt>
      <trkpt lat="44.58599" lon="6.03011">
        <ele>1616.7</ele>
        <time>2022-10-13T12:52:16.000Z</time>
      </trkpt>
      <trkpt lat="44.58614" lon="6.03046">
        <ele>1617.5</ele>
        <time>2022-10-13T12:52:18.111Z</time>
      </trkpt>
      <trkpt lat="44.58613" lon="6.03063">
        <ele>1617.5</ele>
        <time>2022-10-13T12:52:21.422Z</time>
      </trkpt>
      <trkpt lat="44.58612" lon="6.03075">
        <ele>1607.2</ele>
        <time>2022-10-13T12:52:24.427Z</time>
      </trkpt>
      <trkpt lat="44.5861" lon="6.03087">
        <ele>1619.3</ele>
        <time>2022-10-13T12:52:27.891Z</time>
      </trkpt>
      <trkpt lat="44.58607" lon="6.031">
        <ele>1621</ele>
        <time>2022-10-13T12:52:31.427Z</time>
      </trkpt>
      <trkpt lat="44.58607" lon="6.03109">
        <ele>1615.8</ele>
        <time>2022-10-13T12:52:34.590Z</time>
      </trkpt>
      <trkpt lat="44.58607" lon="6.03118">
        <ele>1621.6</ele>
        <time>2022-10-13T12:52:37.636Z</time>
      </trkpt>
      <trkpt lat="44.58604" lon="6.03126">
        <ele>1623</ele>
        <time>2022-10-13T12:52:40.453Z</time>
      </trkpt>
      <trkpt lat="44.58601" lon="6.03135">
        <ele>1618.4</ele>
        <time>2022-10-13T12:52:43.249Z</time>
      </trkpt>
      <trkpt lat="44.58598" lon="6.03146">
        <ele>1619.2</ele>
        <time>2022-10-13T12:52:46.429Z</time>
      </trkpt>
      <trkpt lat="44.58597" lon="6.03154">
        <ele>1620.1</ele>
        <time>2022-10-13T12:52:49.466Z</time>
      </trkpt>
      <trkpt lat="44.58593" lon="6.03166">
        <ele>1626.9</ele>
        <time>2022-10-13T12:52:53.437Z</time>
      </trkpt>
      <trkpt lat="44.5859" lon="6.03175">
        <ele>1627.1</ele>
        <time>2022-10-13T12:52:56.431Z</time>
      </trkpt>
      <trkpt lat="44.58589" lon="6.03183">
        <ele>1623.4</ele>
        <time>2022-10-13T12:52:59.214Z</time>
      </trkpt>
      <trkpt lat="44.58588" lon="6.03192">
        <ele>1629.5</ele>
        <time>2022-10-13T12:53:02.427Z</time>
      </trkpt>
      <trkpt lat="44.58588" lon="6.03201">
        <ele>1628.9</ele>
        <time>2022-10-13T12:53:05.306Z</time>
      </trkpt>
      <trkpt lat="44.58587" lon="6.03209">
        <ele>1628.2</ele>
        <time>2022-10-13T12:53:08.033Z</time>
      </trkpt>
      <trkpt lat="44.58587" lon="6.03218">
        <ele>1630.3</ele>
        <time>2022-10-13T12:53:11.168Z</time>
      </trkpt>
      <trkpt lat="44.58587" lon="6.03227">
        <ele>1631.2</ele>
        <time>2022-10-13T12:53:14.428Z</time>
      </trkpt>
      <trkpt lat="44.58586" lon="6.03236">
        <ele>1632.3</ele>
        <time>2022-10-13T12:53:17.668Z</time>
      </trkpt>
      <trkpt lat="44.58583" lon="6.03243">
        <ele>1633.1</ele>
        <time>2022-10-13T12:53:20.422Z</time>
      </trkpt>
      <trkpt lat="44.5858" lon="6.03252">
        <ele>1634.5</ele>
        <time>2022-10-13T12:53:23.226Z</time>
      </trkpt>
      <trkpt lat="44.58576" lon="6.03262">
        <ele>1635.3</ele>
        <time>2022-10-13T12:53:26.426Z</time>
      </trkpt>
      <trkpt lat="44.58573" lon="6.0327">
        <ele>1634.8</ele>
        <time>2022-10-13T12:53:29.610Z</time>
      </trkpt>
      <trkpt lat="44.58572" lon="6.03278">
        <ele>1635.9</ele>
        <time>2022-10-13T12:53:32.432Z</time>
      </trkpt>
      <trkpt lat="44.5857" lon="6.0329">
        <ele>1635.6</ele>
        <time>2022-10-13T12:53:36.468Z</time>
      </trkpt>
      <trkpt lat="44.5857" lon="6.03298">
        <ele>1636.7</ele>
        <time>2022-10-13T12:53:39.172Z</time>
      </trkpt>
      <trkpt lat="44.5857" lon="6.03308">
        <ele>1639</ele>
        <time>2022-10-13T12:53:42.467Z</time>
      </trkpt>
      <trkpt lat="44.58571" lon="6.03317">
        <ele>1640.1</ele>
        <time>2022-10-13T12:53:46.000Z</time>
      </trkpt>
      <trkpt lat="44.58572" lon="6.03326">
        <ele>1641</ele>
        <time>2022-10-13T12:53:49.000Z</time>
      </trkpt>
      <trkpt lat="44.58571" lon="6.03336">
        <ele>1641.5</ele>
        <time>2022-10-13T12:53:52.000Z</time>
      </trkpt>
      <trkpt lat="44.58569" lon="6.03344">
        <ele>1641.4</ele>
        <time>2022-10-13T12:53:55.000Z</time>
      </trkpt>
      <trkpt lat="44.58567" lon="6.03356">
        <ele>1641.4</ele>
        <time>2022-10-13T12:53:57.432Z</time>
      </trkpt>
      <trkpt lat="44.58565" lon="6.03366">
        <ele>1643.9</ele>
        <time>2022-10-13T12:54:00.299Z</time>
      </trkpt>
      <trkpt lat="44.58564" lon="6.03376">
        <ele>1644.4</ele>
        <time>2022-10-13T12:54:04.000Z</time>
      </trkpt>
      <trkpt lat="44.58563" lon="6.03386">
        <ele>1644.4</ele>
        <time>2022-10-13T12:54:06.421Z</time>
      </trkpt>
      <trkpt lat="44.5856" lon="6.03396">
        <ele>1646.9</ele>
        <time>2022-10-13T12:54:09.731Z</time>
      </trkpt>
      <trkpt lat="44.58559" lon="6.03406">
        <ele>1646.6</ele>
        <time>2022-10-13T12:54:13.436Z</time>
      </trkpt>
      <trkpt lat="44.5856" lon="6.03414">
        <ele>1641.2</ele>
        <time>2022-10-13T12:54:16.152Z</time>
      </trkpt>
      <trkpt lat="44.58558" lon="6.03425">
        <ele>1649.1</ele>
        <time>2022-10-13T12:54:19.172Z</time>
      </trkpt>
      <trkpt lat="44.58558" lon="6.03434">
        <ele>1649.6</ele>
        <time>2022-10-13T12:54:22.436Z</time>
      </trkpt>
      <trkpt lat="44.58558" lon="6.03443">
        <ele>1646.4</ele>
        <time>2022-10-13T12:54:25.596Z</time>
      </trkpt>
      <trkpt lat="44.58557" lon="6.03453">
        <ele>1651.5</ele>
        <time>2022-10-13T12:54:29.425Z</time>
      </trkpt>
      <trkpt lat="44.58557" lon="6.03463">
        <ele>1651.2</ele>
        <time>2022-10-13T12:54:32.432Z</time>
      </trkpt>
      <trkpt lat="44.58556" lon="6.03473">
        <ele>1652.2</ele>
        <time>2022-10-13T12:54:35.463Z</time>
      </trkpt>
      <trkpt lat="44.58555" lon="6.03482">
        <ele>1652.7</ele>
        <time>2022-10-13T12:54:38.437Z</time>
      </trkpt>
      <trkpt lat="44.58554" lon="6.03493">
        <ele>1653.5</ele>
        <time>2022-10-13T12:54:41.424Z</time>
      </trkpt>
      <trkpt lat="44.58553" lon="6.03501">
        <ele>1651.1</ele>
        <time>2022-10-13T12:54:44.414Z</time>
      </trkpt>
      <trkpt lat="44.58553" lon="6.03511">
        <ele>1655.7</ele>
        <time>2022-10-13T12:54:47.430Z</time>
      </trkpt>
      <trkpt lat="44.58554" lon="6.0352">
        <ele>1656.3</ele>
        <time>2022-10-13T12:54:50.441Z</time>
      </trkpt>
      <trkpt lat="44.58552" lon="6.03527">
        <ele>1657.5</ele>
        <time>2022-10-13T12:54:53.474Z</time>
      </trkpt>
      <trkpt lat="44.58548" lon="6.03537">
        <ele>1658.1</ele>
        <time>2022-10-13T12:54:56.427Z</time>
      </trkpt>
      <trkpt lat="44.58548" lon="6.03546">
        <ele>1657.9</ele>
        <time>2022-10-13T12:54:59.436Z</time>
      </trkpt>
      <trkpt lat="44.58547" lon="6.03553">
        <ele>1656.5</ele>
        <time>2022-10-13T12:55:02.167Z</time>
      </trkpt>
      <trkpt lat="44.58544" lon="6.03561">
        <ele>1659.8</ele>
        <time>2022-10-13T12:55:05.426Z</time>
      </trkpt>
      <trkpt lat="44.58541" lon="6.0357">
        <ele>1660.9</ele>
        <time>2022-10-13T12:55:08.414Z</time>
      </trkpt>
      <trkpt lat="44.58541" lon="6.03578">
        <ele>1659</ele>
        <time>2022-10-13T12:55:11.211Z</time>
      </trkpt>
      <trkpt lat="44.58538" lon="6.03588">
        <ele>1663.4</ele>
        <time>2022-10-13T12:55:14.433Z</time>
      </trkpt>
      <trkpt lat="44.58537" lon="6.03597">
        <ele>1663.6</ele>
        <time>2022-10-13T12:55:17.440Z</time>
      </trkpt>
      <trkpt lat="44.58535" lon="6.03605">
        <ele>1659.7</ele>
        <time>2022-10-13T12:55:20.195Z</time>
      </trkpt>
      <trkpt lat="44.58533" lon="6.03616">
        <ele>1665.5</ele>
        <time>2022-10-13T12:55:23.430Z</time>
      </trkpt>
      <trkpt lat="44.58532" lon="6.03624">
        <ele>1665.1</ele>
        <time>2022-10-13T12:55:26.430Z</time>
      </trkpt>
      <trkpt lat="44.58533" lon="6.03635">
        <ele>1667.1</ele>
        <time>2022-10-13T12:55:29.460Z</time>
      </trkpt>
      <trkpt lat="44.58532" lon="6.03642">
        <ele>1667.2</ele>
        <time>2022-10-13T12:55:32.430Z</time>
      </trkpt>
      <trkpt lat="44.58532" lon="6.03651">
        <ele>1667.3</ele>
        <time>2022-10-13T12:55:35.506Z</time>
      </trkpt>
      <trkpt lat="44.58532" lon="6.03664">
        <ele>1668.8</ele>
        <time>2022-10-13T12:55:41.274Z</time>
      </trkpt>
      <trkpt lat="44.58531" lon="6.03671">
        <ele>1669</ele>
        <time>2022-10-13T12:55:44.349Z</time>
      </trkpt>
      <trkpt lat="44.5853" lon="6.03678">
        <ele>1669.6</ele>
        <time>2022-10-13T12:55:47.445Z</time>
      </trkpt>
      <trkpt lat="44.58531" lon="6.03684">
        <ele>1669.7</ele>
        <time>2022-10-13T12:55:50.428Z</time>
      </trkpt>
      <trkpt lat="44.58532" lon="6.03691">
        <ele>1666.1</ele>
        <time>2022-10-13T12:55:53.552Z</time>
      </trkpt>
      <trkpt lat="44.58528" lon="6.03697">
        <ele>1672.6</ele>
        <time>2022-10-13T12:55:56.430Z</time>
      </trkpt>
      <trkpt lat="44.58525" lon="6.03704">
        <ele>1672.4</ele>
        <time>2022-10-13T12:55:59.430Z</time>
      </trkpt>
      <trkpt lat="44.58523" lon="6.03709">
        <ele>1674.3</ele>
        <time>2022-10-13T12:56:02.626Z</time>
      </trkpt>
      <trkpt lat="44.58521" lon="6.03717">
        <ele>1674.3</ele>
        <time>2022-10-13T12:56:05.425Z</time>
      </trkpt>
      <trkpt lat="44.58522" lon="6.03728">
        <ele>1674.9</ele>
        <time>2022-10-13T12:56:09.431Z</time>
      </trkpt>
      <trkpt lat="44.58519" lon="6.03742">
        <ele>1675.5</ele>
        <time>2022-10-13T12:56:13.000Z</time>
      </trkpt>
      <trkpt lat="44.58518" lon="6.03754">
        <ele>1675.9</ele>
        <time>2022-10-13T12:56:15.452Z</time>
      </trkpt>
      <trkpt lat="44.58519" lon="6.03767">
        <ele>1671.6</ele>
        <time>2022-10-13T12:56:19.000Z</time>
      </trkpt>
      <trkpt lat="44.58517" lon="6.03775">
        <ele>1677.6</ele>
        <time>2022-10-13T12:56:21.345Z</time>
      </trkpt>
      <trkpt lat="44.58513" lon="6.03779">
        <ele>1677.3</ele>
        <time>2022-10-13T12:56:24.430Z</time>
      </trkpt>
      <trkpt lat="44.58514" lon="6.03786">
        <ele>1677.7</ele>
        <time>2022-10-13T12:56:27.429Z</time>
      </trkpt>
      <trkpt lat="44.58513" lon="6.03798">
        <ele>1681.3</ele>
        <time>2022-10-13T12:56:33.313Z</time>
      </trkpt>
      <trkpt lat="44.58511" lon="6.03806">
        <ele>1680</ele>
        <time>2022-10-13T12:56:36.397Z</time>
      </trkpt>
      <trkpt lat="44.58509" lon="6.03818">
        <ele>1679.5</ele>
        <time>2022-10-13T12:56:39.418Z</time>
      </trkpt>
      <trkpt lat="44.58508" lon="6.03828">
        <ele>1681.4</ele>
        <time>2022-10-13T12:56:42.265Z</time>
      </trkpt>
      <trkpt lat="44.58506" lon="6.03837">
        <ele>1681.8</ele>
        <time>2022-10-13T12:56:45.427Z</time>
      </trkpt>
      <trkpt lat="44.58503" lon="6.03845">
        <ele>1681.7</ele>
        <time>2022-10-13T12:56:48.465Z</time>
      </trkpt>
      <trkpt lat="44.58504" lon="6.03852">
        <ele>1684.3</ele>
        <time>2022-10-13T12:56:51.671Z</time>
      </trkpt>
      <trkpt lat="44.58502" lon="6.0386">
        <ele>1684.4</ele>
        <time>2022-10-13T12:56:54.480Z</time>
      </trkpt>
      <trkpt lat="44.58503" lon="6.0387">
        <ele>1684.4</ele>
        <time>2022-10-13T12:56:57.467Z</time>
      </trkpt>
      <trkpt lat="44.58502" lon="6.03887">
        <ele>1685.7</ele>
        <time>2022-10-13T12:57:03.475Z</time>
      </trkpt>
      <trkpt lat="44.58502" lon="6.03896">
        <ele>1685.7</ele>
        <time>2022-10-13T12:57:06.438Z</time>
      </trkpt>
      <trkpt lat="44.58503" lon="6.03903">
        <ele>1688.1</ele>
        <time>2022-10-13T12:57:09.505Z</time>
      </trkpt>
      <trkpt lat="44.58501" lon="6.0391">
        <ele>1687.9</ele>
        <time>2022-10-13T12:57:12.470Z</time>
      </trkpt>
      <trkpt lat="44.585" lon="6.03918">
        <ele>1693.6</ele>
        <time>2022-10-13T12:57:18.336Z</time>
      </trkpt>
      <trkpt lat="44.58499" lon="6.03927">
        <ele>1692.2</ele>
        <time>2022-10-13T12:57:21.457Z</time>
      </trkpt>
      <trkpt lat="44.58499" lon="6.03938">
        <ele>1694.7</ele>
        <time>2022-10-13T12:57:28.000Z</time>
      </trkpt>
      <trkpt lat="44.58498" lon="6.03946">
        <ele>1695.3</ele>
        <time>2022-10-13T12:57:30.432Z</time>
      </trkpt>
      <trkpt lat="44.58498" lon="6.03955">
        <ele>1699.4</ele>
        <time>2022-10-13T12:57:43.000Z</time>
      </trkpt>
      <trkpt lat="44.58497" lon="6.03964">
        <ele>1702.7</ele>
        <time>2022-10-13T12:57:48.128Z</time>
      </trkpt>
      <trkpt lat="44.58496" lon="6.03971">
        <ele>1702.8</ele>
        <time>2022-10-13T12:57:51.429Z</time>
      </trkpt>
      <trkpt lat="44.58491" lon="6.03973">
        <ele>1703.6</ele>
        <time>2022-10-13T12:57:54.438Z</time>
      </trkpt>
      <trkpt lat="44.58485" lon="6.03966">
        <ele>1705.3</ele>
        <time>2022-10-13T12:57:58.000Z</time>
      </trkpt>
      <trkpt lat="44.5848" lon="6.03963">
        <ele>1705.4</ele>
        <time>2022-10-13T12:58:00.384Z</time>
      </trkpt>
      <trkpt lat="44.58483" lon="6.03958">
        <ele>1704.7</ele>
        <time>2022-10-13T12:59:37.000Z</time>
      </trkpt>
      <trkpt lat="44.58488" lon="6.03975">
        <ele>1706</ele>
        <time>2022-10-13T12:59:39.168Z</time>
      </trkpt>
      <trkpt lat="44.5849" lon="6.03985">
        <ele>1706.3</ele>
        <time>2022-10-13T12:59:42.170Z</time>
      </trkpt>
      <trkpt lat="44.58491" lon="6.03993">
        <ele>1704</ele>
        <time>2022-10-13T12:59:45.105Z</time>
      </trkpt>
      <trkpt lat="44.58496" lon="6.04005">
        <ele>1711.9</ele>
        <time>2022-10-13T12:59:50.994Z</time>
      </trkpt>
      <trkpt lat="44.585" lon="6.04012">
        <ele>1712.2</ele>
        <time>2022-10-13T12:59:55.000Z</time>
      </trkpt>
      <trkpt lat="44.58503" lon="6.04018">
        <ele>1712.2</ele>
        <time>2022-10-13T12:59:57.153Z</time>
      </trkpt>
      <trkpt lat="44.5851" lon="6.04027">
        <ele>1715.6</ele>
        <time>2022-10-13T13:00:03.089Z</time>
      </trkpt>
      <trkpt lat="44.58517" lon="6.0403">
        <ele>1714.8</ele>
        <time>2022-10-13T13:00:06.248Z</time>
      </trkpt>
      <trkpt lat="44.58523" lon="6.04039">
        <ele>1714.5</ele>
        <time>2022-10-13T13:00:12.167Z</time>
      </trkpt>
      <trkpt lat="44.58527" lon="6.04043">
        <ele>1721</ele>
        <time>2022-10-13T13:00:15.107Z</time>
      </trkpt>
      <trkpt lat="44.58529" lon="6.04048">
        <ele>1720.8</ele>
        <time>2022-10-13T13:00:18.428Z</time>
      </trkpt>
      <trkpt lat="44.58533" lon="6.04054">
        <ele>1723.1</ele>
        <time>2022-10-13T13:00:39.430Z</time>
      </trkpt>
      <trkpt lat="44.58541" lon="6.04056">
        <ele>1725.2</ele>
        <time>2022-10-13T13:00:42.274Z</time>
      </trkpt>
      <trkpt lat="44.5855" lon="6.04061">
        <ele>1726</ele>
        <time>2022-10-13T13:00:56.952Z</time>
      </trkpt>
      <trkpt lat="44.58554" lon="6.04065">
        <ele>1726.3</ele>
        <time>2022-10-13T13:01:00.473Z</time>
      </trkpt>
      <trkpt lat="44.58555" lon="6.04072">
        <ele>1730.1</ele>
        <time>2022-10-13T13:01:18.096Z</time>
      </trkpt>
      <trkpt lat="44.5856" lon="6.04076">
        <ele>1730.3</ele>
        <time>2022-10-13T13:01:28.431Z</time>
      </trkpt>
      <trkpt lat="44.58566" lon="6.04082">
        <ele>1731</ele>
        <time>2022-10-13T13:01:31.592Z</time>
      </trkpt>
      <trkpt lat="44.58571" lon="6.04086">
        <ele>1731.6</ele>
        <time>2022-10-13T13:01:34.651Z</time>
      </trkpt>
      <trkpt lat="44.58576" lon="6.04091">
        <ele>1733.6</ele>
        <time>2022-10-13T13:01:37.585Z</time>
      </trkpt>
      <trkpt lat="44.58581" lon="6.04095">
        <ele>1733.9</ele>
        <time>2022-10-13T13:01:40.632Z</time>
      </trkpt>
      <trkpt lat="44.58586" lon="6.04097">
        <ele>1734.9</ele>
        <time>2022-10-13T13:01:44.067Z</time>
      </trkpt>
      <trkpt lat="44.58591" lon="6.04099">
        <ele>1736.4</ele>
        <time>2022-10-13T13:01:48.473Z</time>
      </trkpt>
      <trkpt lat="44.58597" lon="6.04102">
        <ele>1736</ele>
        <time>2022-10-13T13:01:51.439Z</time>
      </trkpt>
      <trkpt lat="44.58604" lon="6.04106">
        <ele>1736.9</ele>
        <time>2022-10-13T13:01:58.000Z</time>
      </trkpt>
      <trkpt lat="44.58609" lon="6.04109">
        <ele>1739.3</ele>
        <time>2022-10-13T13:02:15.307Z</time>
      </trkpt>
      <trkpt lat="44.58612" lon="6.04113">
        <ele>1738.9</ele>
        <time>2022-10-13T13:02:27.533Z</time>
      </trkpt>
      <trkpt lat="44.58618" lon="6.04116">
        <ele>1739.5</ele>
        <time>2022-10-13T13:02:36.447Z</time>
      </trkpt>
      <trkpt lat="44.58625" lon="6.04119">
        <ele>1739.7</ele>
        <time>2022-10-13T13:02:46.000Z</time>
      </trkpt>
      <trkpt lat="44.58631" lon="6.04122">
        <ele>1740.3</ele>
        <time>2022-10-13T13:02:48.513Z</time>
      </trkpt>
      <trkpt lat="44.58636" lon="6.04124">
        <ele>1741.2</ele>
        <time>2022-10-13T13:02:51.473Z</time>
      </trkpt>
      <trkpt lat="44.58642" lon="6.0413">
        <ele>1740.3</ele>
        <time>2022-10-13T13:02:54.439Z</time>
      </trkpt>
      <trkpt lat="44.58646" lon="6.04134">
        <ele>1740.3</ele>
        <time>2022-10-13T13:02:58.000Z</time>
      </trkpt>
      <trkpt lat="44.58652" lon="6.04138">
        <ele>1737.5</ele>
        <time>2022-10-13T13:03:04.000Z</time>
      </trkpt>
      <trkpt lat="44.58663" lon="6.04146">
        <ele>1744.3</ele>
        <time>2022-10-13T13:03:12.426Z</time>
      </trkpt>
      <trkpt lat="44.58668" lon="6.04149">
        <ele>1739.4</ele>
        <time>2022-10-13T13:03:16.000Z</time>
      </trkpt>
      <trkpt lat="44.58674" lon="6.04152">
        <ele>1744</ele>
        <time>2022-10-13T13:03:19.000Z</time>
      </trkpt>
      <trkpt lat="44.5868" lon="6.04157">
        <ele>1744.1</ele>
        <time>2022-10-13T13:03:21.417Z</time>
      </trkpt>
      <trkpt lat="44.58684" lon="6.04161">
        <ele>1745.8</ele>
        <time>2022-10-13T13:03:27.195Z</time>
      </trkpt>
      <trkpt lat="44.58693" lon="6.04165">
        <ele>1748.1</ele>
        <time>2022-10-13T13:03:37.000Z</time>
      </trkpt>
      <trkpt lat="44.58701" lon="6.0417">
        <ele>1747.6</ele>
        <time>2022-10-13T13:03:40.427Z</time>
      </trkpt>
      <trkpt lat="44.58706" lon="6.04171">
        <ele>1743.8</ele>
        <time>2022-10-13T13:03:43.365Z</time>
      </trkpt>
      <trkpt lat="44.58712" lon="6.04175">
        <ele>1749.7</ele>
        <time>2022-10-13T13:03:46.617Z</time>
      </trkpt>
      <trkpt lat="44.58717" lon="6.04179">
        <ele>1748.8</ele>
        <time>2022-10-13T13:03:49.433Z</time>
      </trkpt>
      <trkpt lat="44.58722" lon="6.04181">
        <ele>1744.6</ele>
        <time>2022-10-13T13:03:52.817Z</time>
      </trkpt>
      <trkpt lat="44.58726" lon="6.04183">
        <ele>1751.8</ele>
        <time>2022-10-13T13:03:57.474Z</time>
      </trkpt>
      <trkpt lat="44.58731" lon="6.04186">
        <ele>1753.4</ele>
        <time>2022-10-13T13:04:10.000Z</time>
      </trkpt>
      <trkpt lat="44.58739" lon="6.04188">
        <ele>1754</ele>
        <time>2022-10-13T13:04:13.000Z</time>
      </trkpt>
      <trkpt lat="44.58745" lon="6.04192">
        <ele>1754.5</ele>
        <time>2022-10-13T13:04:15.425Z</time>
      </trkpt>
      <trkpt lat="44.58751" lon="6.04194">
        <ele>1754.3</ele>
        <time>2022-10-13T13:04:18.470Z</time>
      </trkpt>
      <trkpt lat="44.58755" lon="6.04196">
        <ele>1753.6</ele>
        <time>2022-10-13T13:04:21.214Z</time>
      </trkpt>
      <trkpt lat="44.58761" lon="6.04196">
        <ele>1756.3</ele>
        <time>2022-10-13T13:04:24.422Z</time>
      </trkpt>
      <trkpt lat="44.58766" lon="6.04198">
        <ele>1756</ele>
        <time>2022-10-13T13:04:27.474Z</time>
      </trkpt>
      <trkpt lat="44.58771" lon="6.04197">
        <ele>1759.3</ele>
        <time>2022-10-13T13:04:31.000Z</time>
      </trkpt>
      <trkpt lat="44.58777" lon="6.04197">
        <ele>1759.1</ele>
        <time>2022-10-13T13:04:33.430Z</time>
      </trkpt>
      <trkpt lat="44.58782" lon="6.04198">
        <ele>1758.3</ele>
        <time>2022-10-13T13:04:36.430Z</time>
      </trkpt>
      <trkpt lat="44.58787" lon="6.04195">
        <ele>1761.7</ele>
        <time>2022-10-13T13:04:40.000Z</time>
      </trkpt>
      <trkpt lat="44.58792" lon="6.04196">
        <ele>1762.4</ele>
        <time>2022-10-13T13:04:42.454Z</time>
      </trkpt>
      <trkpt lat="44.58802" lon="6.04197">
        <ele>1763.5</ele>
        <time>2022-10-13T13:04:49.000Z</time>
      </trkpt>
      <trkpt lat="44.58807" lon="6.04196">
        <ele>1763.5</ele>
        <time>2022-10-13T13:04:51.455Z</time>
      </trkpt>
      <trkpt lat="44.58814" lon="6.04201">
        <ele>1766.7</ele>
        <time>2022-10-13T13:04:58.000Z</time>
      </trkpt>
      <trkpt lat="44.58817" lon="6.04196">
        <ele>1768.4</ele>
        <time>2022-10-13T13:05:10.000Z</time>
      </trkpt>
      <trkpt lat="44.58826" lon="6.04198">
        <ele>1768.7</ele>
        <time>2022-10-13T13:05:22.000Z</time>
      </trkpt>
      <trkpt lat="44.58833" lon="6.04201">
        <ele>1769.5</ele>
        <time>2022-10-13T13:05:24.827Z</time>
      </trkpt>
      <trkpt lat="44.58839" lon="6.04203">
        <ele>1772.7</ele>
        <time>2022-10-13T13:05:28.428Z</time>
      </trkpt>
      <trkpt lat="44.58848" lon="6.04205">
        <ele>1775</ele>
        <time>2022-10-13T13:05:34.423Z</time>
      </trkpt>
      <trkpt lat="44.58852" lon="6.04205">
        <ele>1775.6</ele>
        <time>2022-10-13T13:05:37.687Z</time>
      </trkpt>
      <trkpt lat="44.58859" lon="6.04208">
        <ele>1778.1</ele>
        <time>2022-10-13T13:05:41.469Z</time>
      </trkpt>
      <trkpt lat="44.58864" lon="6.04207">
        <ele>1778.5</ele>
        <time>2022-10-13T13:05:44.436Z</time>
      </trkpt>
      <trkpt lat="44.58868" lon="6.04212">
        <ele>1778.7</ele>
        <time>2022-10-13T13:05:47.477Z</time>
      </trkpt>
      <trkpt lat="44.5887" lon="6.04221">
        <ele>1780.8</ele>
        <time>2022-10-13T13:05:50.433Z</time>
      </trkpt>
      <trkpt lat="44.5887" lon="6.04229">
        <ele>1781.9</ele>
        <time>2022-10-13T13:05:53.435Z</time>
      </trkpt>
      <trkpt lat="44.58869" lon="6.0424">
        <ele>1784</ele>
        <time>2022-10-13T13:06:01.000Z</time>
      </trkpt>
      <trkpt lat="44.58869" lon="6.04233">
        <ele>1784.1</ele>
        <time>2022-10-13T13:06:22.000Z</time>
      </trkpt>
      <trkpt lat="44.58875" lon="6.04232">
        <ele>1783.1</ele>
        <time>2022-10-13T13:06:33.433Z</time>
      </trkpt>
      <trkpt lat="44.5888" lon="6.04227">
        <ele>1783.6</ele>
        <time>2022-10-13T13:06:36.351Z</time>
      </trkpt>
      <trkpt lat="44.58887" lon="6.04222">
        <ele>1785.4</ele>
        <time>2022-10-13T13:06:39.815Z</time>
      </trkpt>
      <trkpt lat="44.58892" lon="6.04219">
        <ele>1785.3</ele>
        <time>2022-10-13T13:06:42.716Z</time>
      </trkpt>
      <trkpt lat="44.58896" lon="6.04215">
        <ele>1785.2</ele>
        <time>2022-10-13T13:06:45.607Z</time>
      </trkpt>
      <trkpt lat="44.58905" lon="6.04216">
        <ele>1786.1</ele>
        <time>2022-10-13T13:06:51.425Z</time>
      </trkpt>
      <trkpt lat="44.58912" lon="6.04221">
        <ele>1789.6</ele>
        <time>2022-10-13T13:06:54.835Z</time>
      </trkpt>
      <trkpt lat="44.5892" lon="6.04224">
        <ele>1788.9</ele>
        <time>2022-10-13T13:06:58.436Z</time>
      </trkpt>
      <trkpt lat="44.58926" lon="6.04226">
        <ele>1765.2</ele>
        <time>2022-10-13T13:07:01.259Z</time>
      </trkpt>
      <trkpt lat="44.58932" lon="6.0423">
        <ele>1790.5</ele>
        <time>2022-10-13T13:07:04.055Z</time>
      </trkpt>
      <trkpt lat="44.58942" lon="6.04234">
        <ele>1789.5</ele>
        <time>2022-10-13T13:07:07.426Z</time>
      </trkpt>
      <trkpt lat="44.58949" lon="6.04247">
        <ele>1782.3</ele>
        <time>2022-10-13T13:07:10.905Z</time>
      </trkpt>
      <trkpt lat="44.58956" lon="6.04256">
        <ele>1784.4</ele>
        <time>2022-10-13T13:07:13.875Z</time>
      </trkpt>
      <trkpt lat="44.58964" lon="6.04271">
        <ele>1783.1</ele>
        <time>2022-10-13T13:07:17.451Z</time>
      </trkpt>
      <trkpt lat="44.58968" lon="6.0428">
        <ele>1779.2</ele>
        <time>2022-10-13T13:07:20.415Z</time>
      </trkpt>
      <trkpt lat="44.58974" lon="6.04293">
        <ele>1776.2</ele>
        <time>2022-10-13T13:07:23.214Z</time>
      </trkpt>
      <trkpt lat="44.58981" lon="6.04307">
        <ele>1770.8</ele>
        <time>2022-10-13T13:07:26.422Z</time>
      </trkpt>
      <trkpt lat="44.5899" lon="6.04322">
        <ele>1769.9</ele>
        <time>2022-10-13T13:07:29.429Z</time>
      </trkpt>
      <trkpt lat="44.58998" lon="6.04335">
        <ele>1756.4</ele>
        <time>2022-10-13T13:07:32.455Z</time>
      </trkpt>
      <trkpt lat="44.59001" lon="6.04343">
        <ele>1754.6</ele>
        <time>2022-10-13T13:07:35.433Z</time>
      </trkpt>
      <trkpt lat="44.59011" lon="6.04367">
        <ele>1755.1</ele>
        <time>2022-10-13T13:07:38.436Z</time>
      </trkpt>
      <trkpt lat="44.59018" lon="6.04385">
        <ele>1741.4</ele>
        <time>2022-10-13T13:07:41.449Z</time>
      </trkpt>
      <trkpt lat="44.59032" lon="6.04414">
        <ele>1739.1</ele>
        <time>2022-10-13T13:07:46.000Z</time>
      </trkpt>
      <trkpt lat="44.59045" lon="6.0444">
        <ele>1723.2</ele>
        <time>2022-10-13T13:07:49.000Z</time>
      </trkpt>
      <trkpt lat="44.59059" lon="6.04472">
        <ele>1716.9</ele>
        <time>2022-10-13T13:07:52.000Z</time>
      </trkpt>
      <trkpt lat="44.59071" lon="6.04498">
        <ele>1711.1</ele>
        <time>2022-10-13T13:07:55.000Z</time>
      </trkpt>
      <trkpt lat="44.59084" lon="6.0452">
        <ele>1710.1</ele>
        <time>2022-10-13T13:07:58.000Z</time>
      </trkpt>
      <trkpt lat="44.59098" lon="6.04535">
        <ele>1707.1</ele>
        <time>2022-10-13T13:08:01.000Z</time>
      </trkpt>
      <trkpt lat="44.59115" lon="6.04535">
        <ele>1705</ele>
        <time>2022-10-13T13:08:04.000Z</time>
      </trkpt>
      <trkpt lat="44.59133" lon="6.0452">
        <ele>1703.7</ele>
        <time>2022-10-13T13:08:07.000Z</time>
      </trkpt>
      <trkpt lat="44.59145" lon="6.04507">
        <ele>1700.3</ele>
        <time>2022-10-13T13:08:10.000Z</time>
      </trkpt>
      <trkpt lat="44.59149" lon="6.04494">
        <ele>1699</ele>
        <time>2022-10-13T13:08:13.000Z</time>
      </trkpt>
      <trkpt lat="44.5915" lon="6.04487">
        <ele>1702.6</ele>
        <time>2022-10-13T13:08:16.000Z</time>
      </trkpt>
      <trkpt lat="44.59156" lon="6.04471">
        <ele>1693.5</ele>
        <time>2022-10-13T13:08:19.000Z</time>
      </trkpt>
      <trkpt lat="44.59159" lon="6.04461">
        <ele>1692.6</ele>
        <time>2022-10-13T13:08:22.000Z</time>
      </trkpt>
      <trkpt lat="44.59165" lon="6.04443">
        <ele>1689.2</ele>
        <time>2022-10-13T13:08:25.000Z</time>
      </trkpt>
      <trkpt lat="44.5917" lon="6.04432">
        <ele>1687.7</ele>
        <time>2022-10-13T13:08:28.000Z</time>
      </trkpt>
      <trkpt lat="44.59174" lon="6.0442">
        <ele>1686.2</ele>
        <time>2022-10-13T13:08:31.000Z</time>
      </trkpt>
      <trkpt lat="44.59177" lon="6.04408">
        <ele>1684.7</ele>
        <time>2022-10-13T13:08:34.000Z</time>
      </trkpt>
      <trkpt lat="44.59185" lon="6.04387">
        <ele>1680.9</ele>
        <time>2022-10-13T13:08:37.000Z</time>
      </trkpt>
      <trkpt lat="44.59188" lon="6.0438">
        <ele>1679.9</ele>
        <time>2022-10-13T13:08:40.000Z</time>
      </trkpt>
      <trkpt lat="44.59191" lon="6.04372">
        <ele>1680.8</ele>
        <time>2022-10-13T13:08:43.000Z</time>
      </trkpt>
      <trkpt lat="44.59192" lon="6.04365">
        <ele>1676.6</ele>
        <time>2022-10-13T13:08:46.000Z</time>
      </trkpt>
      <trkpt lat="44.59193" lon="6.04358">
        <ele>1620.8</ele>
        <time>2022-10-13T13:08:52.000Z</time>
      </trkpt>
      <trkpt lat="44.59194" lon="6.04347">
        <ele>1675.6</ele>
        <time>2022-10-13T13:08:58.000Z</time>
      </trkpt>
      <trkpt lat="44.59197" lon="6.04341">
        <ele>1666.6</ele>
        <time>2022-10-13T13:09:01.000Z</time>
      </trkpt>
      <trkpt lat="44.59199" lon="6.04332">
        <ele>1674</ele>
        <time>2022-10-13T13:09:04.000Z</time>
      </trkpt>
      <trkpt lat="44.592" lon="6.04324">
        <ele>1674.3</ele>
        <time>2022-10-13T13:09:07.000Z</time>
      </trkpt>
      <trkpt lat="44.59203" lon="6.04312">
        <ele>1672</ele>
        <time>2022-10-13T13:09:13.000Z</time>
      </trkpt>
      <trkpt lat="44.59207" lon="6.04303">
        <ele>1673.2</ele>
        <time>2022-10-13T13:09:19.000Z</time>
      </trkpt>
      <trkpt lat="44.59212" lon="6.04296">
        <ele>1670.9</ele>
        <time>2022-10-13T13:09:22.000Z</time>
      </trkpt>
      <trkpt lat="44.59217" lon="6.04287">
        <ele>1671.8</ele>
        <time>2022-10-13T13:09:25.000Z</time>
      </trkpt>
      <trkpt lat="44.59221" lon="6.04279">
        <ele>1670</ele>
        <time>2022-10-13T13:09:28.000Z</time>
      </trkpt>
      <trkpt lat="44.59227" lon="6.0427">
        <ele>1671.1</ele>
        <time>2022-10-13T13:09:34.000Z</time>
      </trkpt>
      <trkpt lat="44.59231" lon="6.04264">
        <ele>1668</ele>
        <time>2022-10-13T13:09:37.000Z</time>
      </trkpt>
      <trkpt lat="44.59237" lon="6.0426">
        <ele>1673.2</ele>
        <time>2022-10-13T13:09:43.000Z</time>
      </trkpt>
      <trkpt lat="44.59233" lon="6.04255">
        <ele>1668.1</ele>
        <time>2022-10-13T13:09:55.000Z</time>
      </trkpt>
      <trkpt lat="44.59229" lon="6.04249">
        <ele>1669.4</ele>
        <time>2022-10-13T13:10:05.942Z</time>
      </trkpt>
      <trkpt lat="44.5923" lon="6.0424">
        <ele>1669.5</ele>
        <time>2022-10-13T13:10:13.000Z</time>
      </trkpt>
      <trkpt lat="44.59234" lon="6.04236">
        <ele>1671.1</ele>
        <time>2022-10-13T13:10:24.347Z</time>
      </trkpt>
      <trkpt lat="44.59235" lon="6.04226">
        <ele>1671.6</ele>
        <time>2022-10-13T13:10:33.502Z</time>
      </trkpt>
      <trkpt lat="44.59233" lon="6.0422">
        <ele>1670.7</ele>
        <time>2022-10-13T13:10:37.000Z</time>
      </trkpt>
      <trkpt lat="44.5923" lon="6.04215">
        <ele>1670.7</ele>
        <time>2022-10-13T13:10:39.266Z</time>
      </trkpt>
      <trkpt lat="44.5923" lon="6.04204">
        <ele>1671.1</ele>
        <time>2022-10-13T13:10:46.000Z</time>
      </trkpt>
      <trkpt lat="44.59232" lon="6.04195">
        <ele>1670.9</ele>
        <time>2022-10-13T13:10:52.000Z</time>
      </trkpt>
      <trkpt lat="44.59239" lon="6.04188">
        <ele>1671.1</ele>
        <time>2022-10-13T13:10:57.424Z</time>
      </trkpt>
      <trkpt lat="44.59243" lon="6.04182">
        <ele>1671.2</ele>
        <time>2022-10-13T13:11:04.000Z</time>
      </trkpt>
      <trkpt lat="44.59247" lon="6.04174">
        <ele>1668.9</ele>
        <time>2022-10-13T13:11:22.000Z</time>
      </trkpt>
      <trkpt lat="44.5925" lon="6.04169">
        <ele>1668.9</ele>
        <time>2022-10-13T13:11:25.000Z</time>
      </trkpt>
      <trkpt lat="44.59258" lon="6.04163">
        <ele>1669.2</ele>
        <time>2022-10-13T13:11:28.000Z</time>
      </trkpt>
      <trkpt lat="44.59264" lon="6.04159">
        <ele>1668.5</ele>
        <time>2022-10-13T13:11:31.000Z</time>
      </trkpt>
      <trkpt lat="44.59272" lon="6.04153">
        <ele>1667.6</ele>
        <time>2022-10-13T13:11:34.000Z</time>
      </trkpt>
      <trkpt lat="44.59277" lon="6.04148">
        <ele>1667.5</ele>
        <time>2022-10-13T13:11:36.246Z</time>
      </trkpt>
      <trkpt lat="44.59284" lon="6.04145">
        <ele>1668</ele>
        <time>2022-10-13T13:11:39.420Z</time>
      </trkpt>
      <trkpt lat="44.59289" lon="6.04143">
        <ele>1670.2</ele>
        <time>2022-10-13T13:11:43.000Z</time>
      </trkpt>
      <trkpt lat="44.59296" lon="6.0414">
        <ele>1669.2</ele>
        <time>2022-10-13T13:11:49.000Z</time>
      </trkpt>
      <trkpt lat="44.593" lon="6.04132">
        <ele>1667.8</ele>
        <time>2022-10-13T13:12:04.000Z</time>
      </trkpt>
      <trkpt lat="44.59304" lon="6.04126">
        <ele>1666.6</ele>
        <time>2022-10-13T13:12:07.000Z</time>
      </trkpt>
      <trkpt lat="44.59307" lon="6.04121">
        <ele>1666.6</ele>
        <time>2022-10-13T13:12:09.467Z</time>
      </trkpt>
      <trkpt lat="44.59312" lon="6.04114">
        <ele>1664.1</ele>
        <time>2022-10-13T13:12:16.000Z</time>
      </trkpt>
      <trkpt lat="44.59317" lon="6.04114">
        <ele>1662.1</ele>
        <time>2022-10-13T13:12:32.130Z</time>
      </trkpt>
      <trkpt lat="44.59322" lon="6.04115">
        <ele>1658.8</ele>
        <time>2022-10-13T13:12:35.567Z</time>
      </trkpt>
      <trkpt lat="44.5933" lon="6.04108">
        <ele>1659.2</ele>
        <time>2022-10-13T13:12:38.566Z</time>
      </trkpt>
      <trkpt lat="44.59338" lon="6.04101">
        <ele>1658.3</ele>
        <time>2022-10-13T13:12:41.699Z</time>
      </trkpt>
      <trkpt lat="44.59346" lon="6.04098">
        <ele>1657.3</ele>
        <time>2022-10-13T13:12:45.476Z</time>
      </trkpt>
      <trkpt lat="44.59353" lon="6.04095">
        <ele>1655</ele>
        <time>2022-10-13T13:12:48.284Z</time>
      </trkpt>
      <trkpt lat="44.5936" lon="6.04098">
        <ele>1655.4</ele>
        <time>2022-10-13T13:12:51.466Z</time>
      </trkpt>
      <trkpt lat="44.59365" lon="6.04096">
        <ele>1654.3</ele>
        <time>2022-10-13T13:12:54.475Z</time>
      </trkpt>
      <trkpt lat="44.5937" lon="6.04094">
        <ele>1651.7</ele>
        <time>2022-10-13T13:12:58.000Z</time>
      </trkpt>
      <trkpt lat="44.59378" lon="6.04092">
        <ele>1648.3</ele>
        <time>2022-10-13T13:13:03.159Z</time>
      </trkpt>
      <trkpt lat="44.59386" lon="6.04088">
        <ele>1648.6</ele>
        <time>2022-10-13T13:13:07.000Z</time>
      </trkpt>
      <trkpt lat="44.59391" lon="6.04084">
        <ele>1647.6</ele>
        <time>2022-10-13T13:13:09.088Z</time>
      </trkpt>
      <trkpt lat="44.59399" lon="6.04086">
        <ele>1647.4</ele>
        <time>2022-10-13T13:13:12.469Z</time>
      </trkpt>
      <trkpt lat="44.59405" lon="6.04085">
        <ele>1645.8</ele>
        <time>2022-10-13T13:13:15.429Z</time>
      </trkpt>
      <trkpt lat="44.59408" lon="6.04079">
        <ele>1643.3</ele>
        <time>2022-10-13T13:13:18.501Z</time>
      </trkpt>
      <trkpt lat="44.59417" lon="6.04076">
        <ele>1642.9</ele>
        <time>2022-10-13T13:13:24.427Z</time>
      </trkpt>
      <trkpt lat="44.59422" lon="6.04074">
        <ele>1639.3</ele>
        <time>2022-10-13T13:13:27.712Z</time>
      </trkpt>
      <trkpt lat="44.59427" lon="6.04071">
        <ele>1639.3</ele>
        <time>2022-10-13T13:13:30.434Z</time>
      </trkpt>
      <trkpt lat="44.59433" lon="6.04066">
        <ele>1638</ele>
        <time>2022-10-13T13:13:33.473Z</time>
      </trkpt>
      <trkpt lat="44.59443" lon="6.04066">
        <ele>1636.4</ele>
        <time>2022-10-13T13:13:39.435Z</time>
      </trkpt>
      <trkpt lat="44.59448" lon="6.04067">
        <ele>1634.3</ele>
        <time>2022-10-13T13:13:46.000Z</time>
      </trkpt>
      <trkpt lat="44.59456" lon="6.04062">
        <ele>1634.1</ele>
        <time>2022-10-13T13:13:48.457Z</time>
      </trkpt>
      <trkpt lat="44.59459" lon="6.04056">
        <ele>1633.5</ele>
        <time>2022-10-13T13:13:51.467Z</time>
      </trkpt>
      <trkpt lat="44.5947" lon="6.04057">
        <ele>1628.4</ele>
        <time>2022-10-13T13:13:57.564Z</time>
      </trkpt>
      <trkpt lat="44.59475" lon="6.04055">
        <ele>1628.2</ele>
        <time>2022-10-13T13:14:00.418Z</time>
      </trkpt>
      <trkpt lat="44.59484" lon="6.04057">
        <ele>1628.1</ele>
        <time>2022-10-13T13:14:03.429Z</time>
      </trkpt>
      <trkpt lat="44.59494" lon="6.04055">
        <ele>1623.8</ele>
        <time>2022-10-13T13:14:06.313Z</time>
      </trkpt>
      <trkpt lat="44.59507" lon="6.04059">
        <ele>1622.9</ele>
        <time>2022-10-13T13:14:09.482Z</time>
      </trkpt>
      <trkpt lat="44.59516" lon="6.04058">
        <ele>1623.4</ele>
        <time>2022-10-13T13:14:12.441Z</time>
      </trkpt>
      <trkpt lat="44.5952" lon="6.04053">
        <ele>1623.2</ele>
        <time>2022-10-13T13:14:22.000Z</time>
      </trkpt>
      <trkpt lat="44.59524" lon="6.04061">
        <ele>1616.3</ele>
        <time>2022-10-13T13:14:27.996Z</time>
      </trkpt>
      <trkpt lat="44.5953" lon="6.04063">
        <ele>1616</ele>
        <time>2022-10-13T13:14:34.149Z</time>
      </trkpt>
      <trkpt lat="44.59537" lon="6.04065">
        <ele>1613.5</ele>
        <time>2022-10-13T13:14:37.419Z</time>
      </trkpt>
      <trkpt lat="44.59541" lon="6.04061">
        <ele>1616.7</ele>
        <time>2022-10-13T13:14:40.141Z</time>
      </trkpt>
      <trkpt lat="44.59547" lon="6.04057">
        <ele>1609.6</ele>
        <time>2022-10-13T13:14:43.297Z</time>
      </trkpt>
      <trkpt lat="44.59552" lon="6.04052">
        <ele>1609.4</ele>
        <time>2022-10-13T13:14:46.430Z</time>
      </trkpt>
      <trkpt lat="44.59556" lon="6.0405">
        <ele>1614.8</ele>
        <time>2022-10-13T13:14:49.376Z</time>
      </trkpt>
      <trkpt lat="44.59562" lon="6.04057">
        <ele>1605.1</ele>
        <time>2022-10-13T13:14:55.000Z</time>
      </trkpt>
      <trkpt lat="44.59573" lon="6.04062">
        <ele>1601.6</ele>
        <time>2022-10-13T13:15:01.000Z</time>
      </trkpt>
      <trkpt lat="44.59578" lon="6.04066">
        <ele>1602.6</ele>
        <time>2022-10-13T13:15:04.000Z</time>
      </trkpt>
      <trkpt lat="44.59586" lon="6.0407">
        <ele>1600.1</ele>
        <time>2022-10-13T13:15:13.000Z</time>
      </trkpt>
      <trkpt lat="44.59592" lon="6.04075">
        <ele>1599.1</ele>
        <time>2022-10-13T13:15:16.000Z</time>
      </trkpt>
      <trkpt lat="44.59596" lon="6.0408">
        <ele>1599.4</ele>
        <time>2022-10-13T13:15:19.000Z</time>
      </trkpt>
      <trkpt lat="44.59605" lon="6.04084">
        <ele>1599.2</ele>
        <time>2022-10-13T13:15:22.000Z</time>
      </trkpt>
      <trkpt lat="44.5961" lon="6.04089">
        <ele>1599.2</ele>
        <time>2022-10-13T13:15:24.064Z</time>
      </trkpt>
      <trkpt lat="44.59617" lon="6.04093">
        <ele>1598.7</ele>
        <time>2022-10-13T13:15:27.416Z</time>
      </trkpt>
      <trkpt lat="44.59621" lon="6.04098">
        <ele>1598.1</ele>
        <time>2022-10-13T13:15:30.477Z</time>
      </trkpt>
      <trkpt lat="44.59624" lon="6.04102">
        <ele>1597.7</ele>
        <time>2022-10-13T13:15:40.000Z</time>
      </trkpt>
      <trkpt lat="44.59623" lon="6.04108">
        <ele>1599.3</ele>
        <time>2022-10-13T13:15:49.000Z</time>
      </trkpt>
      <trkpt lat="44.5962" lon="6.04102">
        <ele>1599.1</ele>
        <time>2022-10-13T13:16:07.000Z</time>
      </trkpt>
      <trkpt lat="44.59627" lon="6.04106">
        <ele>1599.2</ele>
        <time>2022-10-13T13:17:01.000Z</time>
      </trkpt>
      <trkpt lat="44.59626" lon="6.04099">
        <ele>1599.1</ele>
        <time>2022-10-13T13:17:07.000Z</time>
      </trkpt>
      <trkpt lat="44.59623" lon="6.04094">
        <ele>1599.3</ele>
        <time>2022-10-13T13:17:13.000Z</time>
      </trkpt>
      <trkpt lat="44.59635" lon="6.04105">
        <ele>1597.3</ele>
        <time>2022-10-13T13:17:30.911Z</time>
      </trkpt>
      <trkpt lat="44.5965" lon="6.04124">
        <ele>1594.8</ele>
        <time>2022-10-13T13:17:33.824Z</time>
      </trkpt>
      <trkpt lat="44.59683" lon="6.04142">
        <ele>1597.1</ele>
        <time>2022-10-13T13:17:40.000Z</time>
      </trkpt>
      <trkpt lat="44.59696" lon="6.04157">
        <ele>1596.8</ele>
        <time>2022-10-13T13:17:43.000Z</time>
      </trkpt>
      <trkpt lat="44.59699" lon="6.04172">
        <ele>1579.9</ele>
        <time>2022-10-13T13:17:46.000Z</time>
      </trkpt>
      <trkpt lat="44.59702" lon="6.04181">
        <ele>1586.8</ele>
        <time>2022-10-13T13:17:49.000Z</time>
      </trkpt>
      <trkpt lat="44.59708" lon="6.04185">
        <ele>1588.3</ele>
        <time>2022-10-13T13:17:52.000Z</time>
      </trkpt>
      <trkpt lat="44.59713" lon="6.04188">
        <ele>1588.4</ele>
        <time>2022-10-13T13:17:54.571Z</time>
      </trkpt>
      <trkpt lat="44.59727" lon="6.04186">
        <ele>1589.4</ele>
        <time>2022-10-13T13:17:58.435Z</time>
      </trkpt>
      <trkpt lat="44.59733" lon="6.04186">
        <ele>1588.8</ele>
        <time>2022-10-13T13:18:08.421Z</time>
      </trkpt>
      <trkpt lat="44.59738" lon="6.04187">
        <ele>1588.4</ele>
        <time>2022-10-13T13:18:24.414Z</time>
      </trkpt>
      <trkpt lat="44.59747" lon="6.04184">
        <ele>1587.9</ele>
        <time>2022-10-13T13:18:31.000Z</time>
      </trkpt>
      <trkpt lat="44.59754" lon="6.04189">
        <ele>1587.6</ele>
        <time>2022-10-13T13:18:34.000Z</time>
      </trkpt>
      <trkpt lat="44.5976" lon="6.04194">
        <ele>1588.5</ele>
        <time>2022-10-13T13:18:37.000Z</time>
      </trkpt>
      <trkpt lat="44.59765" lon="6.042">
        <ele>1587</ele>
        <time>2022-10-13T13:18:40.000Z</time>
      </trkpt>
      <trkpt lat="44.59769" lon="6.04205">
        <ele>1592.1</ele>
        <time>2022-10-13T13:18:43.000Z</time>
      </trkpt>
      <trkpt lat="44.5977" lon="6.04213">
        <ele>1585.5</ele>
        <time>2022-10-13T13:18:46.000Z</time>
      </trkpt>
      <trkpt lat="44.59771" lon="6.04221">
        <ele>1585.1</ele>
        <time>2022-10-13T13:18:49.000Z</time>
      </trkpt>
      <trkpt lat="44.59778" lon="6.04224">
        <ele>1585.8</ele>
        <time>2022-10-13T13:18:55.000Z</time>
      </trkpt>
      <trkpt lat="44.59783" lon="6.04216">
        <ele>1584.6</ele>
        <time>2022-10-13T13:19:01.000Z</time>
      </trkpt>
      <trkpt lat="44.59786" lon="6.04211">
        <ele>1585.2</ele>
        <time>2022-10-13T13:19:04.000Z</time>
      </trkpt>
      <trkpt lat="44.59791" lon="6.04197">
        <ele>1585.2</ele>
        <time>2022-10-13T13:19:10.000Z</time>
      </trkpt>
      <trkpt lat="44.59793" lon="6.0419">
        <ele>1585.2</ele>
        <time>2022-10-13T13:19:13.000Z</time>
      </trkpt>
      <trkpt lat="44.59797" lon="6.04185">
        <ele>1591.2</ele>
        <time>2022-10-13T13:19:16.000Z</time>
      </trkpt>
      <trkpt lat="44.598" lon="6.0418">
        <ele>1585.7</ele>
        <time>2022-10-13T13:19:37.000Z</time>
      </trkpt>
      <trkpt lat="44.59805" lon="6.04179">
        <ele>1586.3</ele>
        <time>2022-10-13T13:20:06.279Z</time>
      </trkpt>
      <trkpt lat="44.59807" lon="6.04168">
        <ele>1588.4</ele>
        <time>2022-10-13T13:20:09.410Z</time>
      </trkpt>
      <trkpt lat="44.59811" lon="6.0416">
        <ele>1588.3</ele>
        <time>2022-10-13T13:20:12.460Z</time>
      </trkpt>
      <trkpt lat="44.59808" lon="6.04157">
        <ele>1586.5</ele>
        <time>2022-10-13T13:20:33.086Z</time>
      </trkpt>
      <trkpt lat="44.59802" lon="6.04147">
        <ele>1584.3</ele>
        <time>2022-10-13T13:20:36.421Z</time>
      </trkpt>
      <trkpt lat="44.59804" lon="6.04134">
        <ele>1582.6</ele>
        <time>2022-10-13T13:20:40.000Z</time>
      </trkpt>
      <trkpt lat="44.59805" lon="6.04117">
        <ele>1582.1</ele>
        <time>2022-10-13T13:20:43.485Z</time>
      </trkpt>
      <trkpt lat="44.59807" lon="6.04108">
        <ele>1581.2</ele>
        <time>2022-10-13T13:20:48.259Z</time>
      </trkpt>
      <trkpt lat="44.59816" lon="6.04103">
        <ele>1581</ele>
        <time>2022-10-13T13:21:24.438Z</time>
      </trkpt>
      <trkpt lat="44.59817" lon="6.04092">
        <ele>1581.6</ele>
        <time>2022-10-13T13:21:28.000Z</time>
      </trkpt>
      <trkpt lat="44.59815" lon="6.04081">
        <ele>1581.6</ele>
        <time>2022-10-13T13:21:30.358Z</time>
      </trkpt>
      <trkpt lat="44.59816" lon="6.04067">
        <ele>1581.1</ele>
        <time>2022-10-13T13:21:34.000Z</time>
      </trkpt>
      <trkpt lat="44.5982" lon="6.04054">
        <ele>1581.3</ele>
        <time>2022-10-13T13:21:36.581Z</time>
      </trkpt>
      <trkpt lat="44.59824" lon="6.04045">
        <ele>1581.5</ele>
        <time>2022-10-13T13:21:42.427Z</time>
      </trkpt>
      <trkpt lat="44.59827" lon="6.04034">
        <ele>1580</ele>
        <time>2022-10-13T13:21:45.703Z</time>
      </trkpt>
      <trkpt lat="44.59827" lon="6.04022">
        <ele>1579.7</ele>
        <time>2022-10-13T13:21:48.460Z</time>
      </trkpt>
      <trkpt lat="44.59825" lon="6.04006">
        <ele>1579.6</ele>
        <time>2022-10-13T13:21:51.415Z</time>
      </trkpt>
      <trkpt lat="44.59826" lon="6.03987">
        <ele>1575.6</ele>
        <time>2022-10-13T13:21:54.288Z</time>
      </trkpt>
      <trkpt lat="44.5983" lon="6.03966">
        <ele>1575.5</ele>
        <time>2022-10-13T13:21:57.474Z</time>
      </trkpt>
      <trkpt lat="44.59837" lon="6.03954">
        <ele>1575.4</ele>
        <time>2022-10-13T13:22:00.412Z</time>
      </trkpt>
      <trkpt lat="44.59841" lon="6.0395">
        <ele>1576.4</ele>
        <time>2022-10-13T13:22:09.435Z</time>
      </trkpt>
      <trkpt lat="44.59848" lon="6.03945">
        <ele>1576.8</ele>
        <time>2022-10-13T13:22:22.000Z</time>
      </trkpt>
      <trkpt lat="44.59846" lon="6.03935">
        <ele>1576.8</ele>
        <time>2022-10-13T13:22:24.299Z</time>
      </trkpt>
      <trkpt lat="44.59851" lon="6.03929">
        <ele>1578.2</ele>
        <time>2022-10-13T13:22:28.000Z</time>
      </trkpt>
      <trkpt lat="44.59855" lon="6.03917">
        <ele>1578.2</ele>
        <time>2022-10-13T13:22:30.415Z</time>
      </trkpt>
      <trkpt lat="44.5986" lon="6.03913">
        <ele>1579.3</ele>
        <time>2022-10-13T13:22:33.168Z</time>
      </trkpt>
      <trkpt lat="44.59865" lon="6.03904">
        <ele>1579.3</ele>
        <time>2022-10-13T13:22:36.413Z</time>
      </trkpt>
      <trkpt lat="44.5987" lon="6.039">
        <ele>1578.6</ele>
        <time>2022-10-13T13:22:39.458Z</time>
      </trkpt>
      <trkpt lat="44.59869" lon="6.0389">
        <ele>1579</ele>
        <time>2022-10-13T13:22:43.000Z</time>
      </trkpt>
      <trkpt lat="44.5987" lon="6.03873">
        <ele>1579</ele>
        <time>2022-10-13T13:22:45.474Z</time>
      </trkpt>
      <trkpt lat="44.59871" lon="6.03856">
        <ele>1581</ele>
        <time>2022-10-13T13:22:48.419Z</time>
      </trkpt>
      <trkpt lat="44.59872" lon="6.03845">
        <ele>1583.3</ele>
        <time>2022-10-13T13:22:51.259Z</time>
      </trkpt>
      <trkpt lat="44.59873" lon="6.0383">
        <ele>1580.7</ele>
        <time>2022-10-13T13:22:54.423Z</time>
      </trkpt>
      <trkpt lat="44.59878" lon="6.03818">
        <ele>1581.3</ele>
        <time>2022-10-13T13:22:57.428Z</time>
      </trkpt>
      <trkpt lat="44.5988" lon="6.03812">
        <ele>1581.9</ele>
        <time>2022-10-13T13:23:00.462Z</time>
      </trkpt>
      <trkpt lat="44.59885" lon="6.03816">
        <ele>1582.3</ele>
        <time>2022-10-13T13:23:13.000Z</time>
      </trkpt>
      <trkpt lat="44.5989" lon="6.03813">
        <ele>1584.9</ele>
        <time>2022-10-13T13:23:24.760Z</time>
      </trkpt>
      <trkpt lat="44.59895" lon="6.03808">
        <ele>1585.5</ele>
        <time>2022-10-13T13:23:47.803Z</time>
      </trkpt>
      <trkpt lat="44.59901" lon="6.03802">
        <ele>1586.3</ele>
        <time>2022-10-13T13:23:54.160Z</time>
      </trkpt>
      <trkpt lat="44.59907" lon="6.03797">
        <ele>1587</ele>
        <time>2022-10-13T13:24:01.000Z</time>
      </trkpt>
      <trkpt lat="44.59913" lon="6.03794">
        <ele>1587</ele>
        <time>2022-10-13T13:24:07.000Z</time>
      </trkpt>
      <trkpt lat="44.5992" lon="6.0379">
        <ele>1588.3</ele>
        <time>2022-10-13T13:24:16.000Z</time>
      </trkpt>
      <trkpt lat="44.59926" lon="6.03783">
        <ele>1587.8</ele>
        <time>2022-10-13T13:24:19.023Z</time>
      </trkpt>
      <trkpt lat="44.59927" lon="6.03775">
        <ele>1587.5</ele>
        <time>2022-10-13T13:24:21.836Z</time>
      </trkpt>
      <trkpt lat="44.59928" lon="6.03762">
        <ele>1586.7</ele>
        <time>2022-10-13T13:24:25.044Z</time>
      </trkpt>
      <trkpt lat="44.59934" lon="6.03752">
        <ele>1585.3</ele>
        <time>2022-10-13T13:24:28.155Z</time>
      </trkpt>
      <trkpt lat="44.59938" lon="6.03743">
        <ele>1584.9</ele>
        <time>2022-10-13T13:24:31.144Z</time>
      </trkpt>
      <trkpt lat="44.59944" lon="6.03738">
        <ele>1584.8</ele>
        <time>2022-10-13T13:24:35.017Z</time>
      </trkpt>
      <trkpt lat="44.59946" lon="6.0373">
        <ele>1584</ele>
        <time>2022-10-13T13:24:38.420Z</time>
      </trkpt>
      <trkpt lat="44.59959" lon="6.03719">
        <ele>1583.9</ele>
        <time>2022-10-13T13:24:41.425Z</time>
      </trkpt>
      <trkpt lat="44.59966" lon="6.03714">
        <ele>1581.5</ele>
        <time>2022-10-13T13:24:44.305Z</time>
      </trkpt>
      <trkpt lat="44.5997" lon="6.03704">
        <ele>1584.6</ele>
        <time>2022-10-13T13:24:47.411Z</time>
      </trkpt>
      <trkpt lat="44.59973" lon="6.03693">
        <ele>1584.1</ele>
        <time>2022-10-13T13:24:50.479Z</time>
      </trkpt>
      <trkpt lat="44.59979" lon="6.03679">
        <ele>1580.8</ele>
        <time>2022-10-13T13:24:53.281Z</time>
      </trkpt>
      <trkpt lat="44.59985" lon="6.03667">
        <ele>1581.6</ele>
        <time>2022-10-13T13:24:56.100Z</time>
      </trkpt>
      <trkpt lat="44.59987" lon="6.03653">
        <ele>1581.3</ele>
        <time>2022-10-13T13:24:59.287Z</time>
      </trkpt>
      <trkpt lat="44.59988" lon="6.03646">
        <ele>1584.5</ele>
        <time>2022-10-13T13:25:02.224Z</time>
      </trkpt>
      <trkpt lat="44.59991" lon="6.03631">
        <ele>1575.2</ele>
        <time>2022-10-13T13:25:05.420Z</time>
      </trkpt>
      <trkpt lat="44.60007" lon="6.03606">
        <ele>1580.2</ele>
        <time>2022-10-13T13:25:10.000Z</time>
      </trkpt>
      <trkpt lat="44.60009" lon="6.03598">
        <ele>1569.7</ele>
        <time>2022-10-13T13:25:12.360Z</time>
      </trkpt>
      <trkpt lat="44.60031" lon="6.03578">
        <ele>1569.5</ele>
        <time>2022-10-13T13:25:16.000Z</time>
      </trkpt>
      <trkpt lat="44.60043" lon="6.03568">
        <ele>1455.4</ele>
        <time>2022-10-13T13:25:19.000Z</time>
      </trkpt>
      <trkpt lat="44.60047" lon="6.03566">
        <ele>1455.4</ele>
        <time>2022-10-13T13:25:21.127Z</time>
      </trkpt>
      <trkpt lat="44.60058" lon="6.03561">
        <ele>1508.3</ele>
        <time>2022-10-13T13:25:24.040Z</time>
      </trkpt>
      <trkpt lat="44.60064" lon="6.03556">
        <ele>1540.7</ele>
        <time>2022-10-13T13:25:26.764Z</time>
      </trkpt>
      <trkpt lat="44.60077" lon="6.03547">
        <ele>1556.3</ele>
        <time>2022-10-13T13:25:31.000Z</time>
      </trkpt>
      <trkpt lat="44.60087" lon="6.03548">
        <ele>1558.4</ele>
        <time>2022-10-13T13:25:34.000Z</time>
      </trkpt>
      <trkpt lat="44.6009" lon="6.03541">
        <ele>1557.6</ele>
        <time>2022-10-13T13:25:37.000Z</time>
      </trkpt>
      <trkpt lat="44.60096" lon="6.03535">
        <ele>1557.6</ele>
        <time>2022-10-13T13:25:39.449Z</time>
      </trkpt>
      <trkpt lat="44.6011" lon="6.03518">
        <ele>1555.7</ele>
        <time>2022-10-13T13:25:43.000Z</time>
      </trkpt>
      <trkpt lat="44.60124" lon="6.03508">
        <ele>1555.9</ele>
        <time>2022-10-13T13:25:46.000Z</time>
      </trkpt>
      <trkpt lat="44.60131" lon="6.03503">
        <ele>1562.3</ele>
        <time>2022-10-13T13:25:49.000Z</time>
      </trkpt>
      <trkpt lat="44.60136" lon="6.03496">
        <ele>1562.3</ele>
        <time>2022-10-13T13:25:51.429Z</time>
      </trkpt>
      <trkpt lat="44.60146" lon="6.03496">
        <ele>1562.2</ele>
        <time>2022-10-13T13:25:54.425Z</time>
      </trkpt>
      <trkpt lat="44.60153" lon="6.03492">
        <ele>1557</ele>
        <time>2022-10-13T13:25:58.000Z</time>
      </trkpt>
      <trkpt lat="44.60157" lon="6.03492">
        <ele>1557</ele>
        <time>2022-10-13T13:26:01.000Z</time>
      </trkpt>
      <trkpt lat="44.60166" lon="6.03491">
        <ele>1562.6</ele>
        <time>2022-10-13T13:26:04.000Z</time>
      </trkpt>
      <trkpt lat="44.60175" lon="6.03491">
        <ele>1561.3</ele>
        <time>2022-10-13T13:26:07.000Z</time>
      </trkpt>
      <trkpt lat="44.60185" lon="6.03481">
        <ele>1563</ele>
        <time>2022-10-13T13:26:13.000Z</time>
      </trkpt>
      <trkpt lat="44.60193" lon="6.0347">
        <ele>1560.9</ele>
        <time>2022-10-13T13:26:16.000Z</time>
      </trkpt>
      <trkpt lat="44.60197" lon="6.03465">
        <ele>1560.2</ele>
        <time>2022-10-13T13:26:19.000Z</time>
      </trkpt>
      <trkpt lat="44.60201" lon="6.03461">
        <ele>1561.7</ele>
        <time>2022-10-13T13:26:22.000Z</time>
      </trkpt>
      <trkpt lat="44.60207" lon="6.03456">
        <ele>1559.7</ele>
        <time>2022-10-13T13:26:24.233Z</time>
      </trkpt>
      <trkpt lat="44.60212" lon="6.03461">
        <ele>1559.4</ele>
        <time>2022-10-13T13:26:37.000Z</time>
      </trkpt>
      <trkpt lat="44.60216" lon="6.03464">
        <ele>1561.1</ele>
        <time>2022-10-13T13:26:44.221Z</time>
      </trkpt>
      <trkpt lat="44.60221" lon="6.03467">
        <ele>1561.8</ele>
        <time>2022-10-13T13:27:01.000Z</time>
      </trkpt>
      <trkpt lat="44.6023" lon="6.03469">
        <ele>1561.6</ele>
        <time>2022-10-13T13:27:06.229Z</time>
      </trkpt>
      <trkpt lat="44.60234" lon="6.03469">
        <ele>1562.2</ele>
        <time>2022-10-13T13:27:43.000Z</time>
      </trkpt>
      <trkpt lat="44.60239" lon="6.0347">
        <ele>1563.3</ele>
        <time>2022-10-13T13:27:55.000Z</time>
      </trkpt>
      <trkpt lat="44.60234" lon="6.03463">
        <ele>1562.2</ele>
        <time>2022-10-13T13:29:08.862Z</time>
      </trkpt>
      <trkpt lat="44.60227" lon="6.03455">
        <ele>1561.2</ele>
        <time>2022-10-13T13:29:15.217Z</time>
      </trkpt>
      <trkpt lat="44.60223" lon="6.03452">
        <ele>1560.8</ele>
        <time>2022-10-13T13:29:20.985Z</time>
      </trkpt>
      <trkpt lat="44.6022" lon="6.03445">
        <ele>1557.8</ele>
        <time>2022-10-13T13:29:28.000Z</time>
      </trkpt>
      <trkpt lat="44.60228" lon="6.03436">
        <ele>1555.8</ele>
        <time>2022-10-13T13:29:33.132Z</time>
      </trkpt>
      <trkpt lat="44.60237" lon="6.03437">
        <ele>1554.2</ele>
        <time>2022-10-13T13:29:36.170Z</time>
      </trkpt>
      <trkpt lat="44.60245" lon="6.0344">
        <ele>1553.3</ele>
        <time>2022-10-13T13:29:39.188Z</time>
      </trkpt>
      <trkpt lat="44.60251" lon="6.03447">
        <ele>1554.5</ele>
        <time>2022-10-13T13:29:43.000Z</time>
      </trkpt>
      <trkpt lat="44.60257" lon="6.03451">
        <ele>1556.6</ele>
        <time>2022-10-13T13:29:46.000Z</time>
      </trkpt>
      <trkpt lat="44.60261" lon="6.03448">
        <ele>1556.6</ele>
        <time>2022-10-13T13:29:48.285Z</time>
      </trkpt>
      <trkpt lat="44.60276" lon="6.03445">
        <ele>1557.5</ele>
        <time>2022-10-13T13:29:52.000Z</time>
      </trkpt>
      <trkpt lat="44.60287" lon="6.03448">
        <ele>1557.5</ele>
        <time>2022-10-13T13:29:54.201Z</time>
      </trkpt>
      <trkpt lat="44.60294" lon="6.03452">
        <ele>1554.3</ele>
        <time>2022-10-13T13:29:57.268Z</time>
      </trkpt>
      <trkpt lat="44.60299" lon="6.0345">
        <ele>1552.6</ele>
        <time>2022-10-13T13:30:04.000Z</time>
      </trkpt>
      <trkpt lat="44.60309" lon="6.03451">
        <ele>1552.6</ele>
        <time>2022-10-13T13:30:07.000Z</time>
      </trkpt>
      <trkpt lat="44.60323" lon="6.03445">
        <ele>1553.6</ele>
        <time>2022-10-13T13:30:10.000Z</time>
      </trkpt>
      <trkpt lat="44.60338" lon="6.03442">
        <ele>1554.7</ele>
        <time>2022-10-13T13:30:16.000Z</time>
      </trkpt>
      <trkpt lat="44.60347" lon="6.03443">
        <ele>1550.3</ele>
        <time>2022-10-13T13:30:18.126Z</time>
      </trkpt>
      <trkpt lat="44.60354" lon="6.03448">
        <ele>1550.2</ele>
        <time>2022-10-13T13:30:20.989Z</time>
      </trkpt>
      <trkpt lat="44.60364" lon="6.03455">
        <ele>1547.3</ele>
        <time>2022-10-13T13:30:25.000Z</time>
      </trkpt>
      <trkpt lat="44.60375" lon="6.03458">
        <ele>1547.1</ele>
        <time>2022-10-13T13:30:28.000Z</time>
      </trkpt>
      <trkpt lat="44.60379" lon="6.03466">
        <ele>1547.1</ele>
        <time>2022-10-13T13:30:30.262Z</time>
      </trkpt>
      <trkpt lat="44.60391" lon="6.03472">
        <ele>1545.8</ele>
        <time>2022-10-13T13:30:33.106Z</time>
      </trkpt>
      <trkpt lat="44.60403" lon="6.03476">
        <ele>1547.2</ele>
        <time>2022-10-13T13:30:35.989Z</time>
      </trkpt>
      <trkpt lat="44.60413" lon="6.03488">
        <ele>1548.3</ele>
        <time>2022-10-13T13:30:38.825Z</time>
      </trkpt>
      <trkpt lat="44.60419" lon="6.03489">
        <ele>1550.1</ele>
        <time>2022-10-13T13:30:41.866Z</time>
      </trkpt>
      <trkpt lat="44.60426" lon="6.03489">
        <ele>1551.2</ele>
        <time>2022-10-13T13:30:44.922Z</time>
      </trkpt>
      <trkpt lat="44.60436" lon="6.03497">
        <ele>1550.7</ele>
        <time>2022-10-13T13:30:47.683Z</time>
      </trkpt>
      <trkpt lat="44.60447" lon="6.03504">
        <ele>1550.7</ele>
        <time>2022-10-13T13:30:51.050Z</time>
      </trkpt>
      <trkpt lat="44.60458" lon="6.03507">
        <ele>1550.2</ele>
        <time>2022-10-13T13:30:53.803Z</time>
      </trkpt>
      <trkpt lat="44.60464" lon="6.03506">
        <ele>1551.6</ele>
        <time>2022-10-13T13:30:57.329Z</time>
      </trkpt>
      <trkpt lat="44.6047" lon="6.03503">
        <ele>1551.1</ele>
        <time>2022-10-13T13:31:04.000Z</time>
      </trkpt>
      <trkpt lat="44.60475" lon="6.03501">
        <ele>1552.1</ele>
        <time>2022-10-13T13:31:12.941Z</time>
      </trkpt>
      <trkpt lat="44.60482" lon="6.03499">
        <ele>1552.9</ele>
        <time>2022-10-13T13:31:19.106Z</time>
      </trkpt>
      <trkpt lat="44.60488" lon="6.03502">
        <ele>1552.4</ele>
        <time>2022-10-13T13:31:25.052Z</time>
      </trkpt>
      <trkpt lat="44.60492" lon="6.03504">
        <ele>1552.6</ele>
        <time>2022-10-13T13:31:31.662Z</time>
      </trkpt>
      <trkpt lat="44.60499" lon="6.03505">
        <ele>1554.1</ele>
        <time>2022-10-13T13:31:38.426Z</time>
      </trkpt>
      <trkpt lat="44.60506" lon="6.03505">
        <ele>1554.4</ele>
        <time>2022-10-13T13:31:44.420Z</time>
      </trkpt>
      <trkpt lat="44.60514" lon="6.03504">
        <ele>1554.2</ele>
        <time>2022-10-13T13:31:47.223Z</time>
      </trkpt>
      <trkpt lat="44.60523" lon="6.03506">
        <ele>1554.2</ele>
        <time>2022-10-13T13:31:50.425Z</time>
      </trkpt>
      <trkpt lat="44.60533" lon="6.03511">
        <ele>1554.9</ele>
        <time>2022-10-13T13:31:53.454Z</time>
      </trkpt>
      <trkpt lat="44.6054" lon="6.03513">
        <ele>1555.2</ele>
        <time>2022-10-13T13:31:56.416Z</time>
      </trkpt>
      <trkpt lat="44.60548" lon="6.03513">
        <ele>1554.3</ele>
        <time>2022-10-13T13:31:59.411Z</time>
      </trkpt>
      <trkpt lat="44.60563" lon="6.03518">
        <ele>1546.7</ele>
        <time>2022-10-13T13:32:02.424Z</time>
      </trkpt>
      <trkpt lat="44.60573" lon="6.03527">
        <ele>1548.5</ele>
        <time>2022-10-13T13:32:05.424Z</time>
      </trkpt>
      <trkpt lat="44.60579" lon="6.03521">
        <ele>1552.1</ele>
        <time>2022-10-13T13:32:08.417Z</time>
      </trkpt>
      <trkpt lat="44.60585" lon="6.0352">
        <ele>1551.6</ele>
        <time>2022-10-13T13:32:11.430Z</time>
      </trkpt>
      <trkpt lat="44.60592" lon="6.03522">
        <ele>1556.6</ele>
        <time>2022-10-13T13:32:14.411Z</time>
      </trkpt>
      <trkpt lat="44.60598" lon="6.03529">
        <ele>1556.7</ele>
        <time>2022-10-13T13:32:17.417Z</time>
      </trkpt>
      <trkpt lat="44.60602" lon="6.03534">
        <ele>1559.5</ele>
        <time>2022-10-13T13:32:20.449Z</time>
      </trkpt>
      <trkpt lat="44.60605" lon="6.03539">
        <ele>1558.9</ele>
        <time>2022-10-13T13:32:23.425Z</time>
      </trkpt>
      <trkpt lat="44.60609" lon="6.03545">
        <ele>1559.8</ele>
        <time>2022-10-13T13:32:26.429Z</time>
      </trkpt>
      <trkpt lat="44.60613" lon="6.0355">
        <ele>1560.8</ele>
        <time>2022-10-13T13:32:29.460Z</time>
      </trkpt>
      <trkpt lat="44.60617" lon="6.03555">
        <ele>1563.3</ele>
        <time>2022-10-13T13:32:32.428Z</time>
      </trkpt>
      <trkpt lat="44.60621" lon="6.0356">
        <ele>1563.1</ele>
        <time>2022-10-13T13:32:35.424Z</time>
      </trkpt>
      <trkpt lat="44.60628" lon="6.03568">
        <ele>1566.7</ele>
        <time>2022-10-13T13:32:41.430Z</time>
      </trkpt>
      <trkpt lat="44.60633" lon="6.03573">
        <ele>1567</ele>
        <time>2022-10-13T13:32:44.426Z</time>
      </trkpt>
      <trkpt lat="44.60637" lon="6.03581">
        <ele>1569.5</ele>
        <time>2022-10-13T13:32:50.430Z</time>
      </trkpt>
      <trkpt lat="44.60641" lon="6.03586">
        <ele>1569</ele>
        <time>2022-10-13T13:32:53.429Z</time>
      </trkpt>
      <trkpt lat="44.60646" lon="6.03595">
        <ele>1570.5</ele>
        <time>2022-10-13T13:32:59.458Z</time>
      </trkpt>
      <trkpt lat="44.60649" lon="6.036">
        <ele>1571.7</ele>
        <time>2022-10-13T13:33:02.417Z</time>
      </trkpt>
      <trkpt lat="44.60654" lon="6.03603">
        <ele>1574.4</ele>
        <time>2022-10-13T13:33:05.456Z</time>
      </trkpt>
      <trkpt lat="44.60659" lon="6.03609">
        <ele>1575</ele>
        <time>2022-10-13T13:33:08.422Z</time>
      </trkpt>
      <trkpt lat="44.60664" lon="6.03612">
        <ele>1575.1</ele>
        <time>2022-10-13T13:33:11.425Z</time>
      </trkpt>
      <trkpt lat="44.60669" lon="6.0362">
        <ele>1577</ele>
        <time>2022-10-13T13:33:17.426Z</time>
      </trkpt>
      <trkpt lat="44.60675" lon="6.03628">
        <ele>1569</ele>
        <time>2022-10-13T13:33:23.448Z</time>
      </trkpt>
      <trkpt lat="44.60678" lon="6.03631">
        <ele>1578.8</ele>
        <time>2022-10-13T13:33:26.426Z</time>
      </trkpt>
      <trkpt lat="44.60682" lon="6.03637">
        <ele>1580.1</ele>
        <time>2022-10-13T13:33:29.424Z</time>
      </trkpt>
      <trkpt lat="44.60687" lon="6.03646">
        <ele>1583.8</ele>
        <time>2022-10-13T13:33:35.423Z</time>
      </trkpt>
      <trkpt lat="44.60692" lon="6.03648">
        <ele>1583.4</ele>
        <time>2022-10-13T13:33:38.413Z</time>
      </trkpt>
      <trkpt lat="44.60698" lon="6.03653">
        <ele>1585.5</ele>
        <time>2022-10-13T13:33:44.426Z</time>
      </trkpt>
      <trkpt lat="44.60703" lon="6.03659">
        <ele>1585.8</ele>
        <time>2022-10-13T13:33:47.423Z</time>
      </trkpt>
      <trkpt lat="44.60709" lon="6.03673">
        <ele>1586.3</ele>
        <time>2022-10-13T13:33:54.416Z</time>
      </trkpt>
      <trkpt lat="44.60711" lon="6.03679">
        <ele>1585.3</ele>
        <time>2022-10-13T13:33:57.432Z</time>
      </trkpt>
      <trkpt lat="44.60713" lon="6.03687">
        <ele>1587.8</ele>
        <time>2022-10-13T13:34:03.419Z</time>
      </trkpt>
      <trkpt lat="44.6071" lon="6.0368">
        <ele>1588.6</ele>
        <time>2022-10-13T13:34:06.423Z</time>
      </trkpt>
      <trkpt lat="44.60708" lon="6.03687">
        <ele>1588.2</ele>
        <time>2022-10-13T13:34:34.000Z</time>
      </trkpt>
      <trkpt lat="44.60707" lon="6.03681">
        <ele>1588.5</ele>
        <time>2022-10-13T13:35:34.000Z</time>
      </trkpt>
      <trkpt lat="44.60703" lon="6.03696">
        <ele>1587.2</ele>
        <time>2022-10-13T13:36:48.163Z</time>
      </trkpt>
      <trkpt lat="44.60698" lon="6.03703">
        <ele>1587.5</ele>
        <time>2022-10-13T13:36:51.249Z</time>
      </trkpt>
      <trkpt lat="44.60693" lon="6.03713">
        <ele>1582.1</ele>
        <time>2022-10-13T13:36:55.000Z</time>
      </trkpt>
      <trkpt lat="44.60688" lon="6.03719">
        <ele>1582.1</ele>
        <time>2022-10-13T13:36:57.247Z</time>
      </trkpt>
      <trkpt lat="44.60685" lon="6.03725">
        <ele>1582.6</ele>
        <time>2022-10-13T13:37:00.019Z</time>
      </trkpt>
      <trkpt lat="44.6068" lon="6.03729">
        <ele>1587.4</ele>
        <time>2022-10-13T13:37:02.870Z</time>
      </trkpt>
      <trkpt lat="44.60672" lon="6.03735">
        <ele>1589.5</ele>
        <time>2022-10-13T13:37:09.142Z</time>
      </trkpt>
      <trkpt lat="44.60669" lon="6.03741">
        <ele>1554</ele>
        <time>2022-10-13T13:37:13.000Z</time>
      </trkpt>
      <trkpt lat="44.60666" lon="6.03747">
        <ele>1554</ele>
        <time>2022-10-13T13:37:15.087Z</time>
      </trkpt>
      <trkpt lat="44.60662" lon="6.03752">
        <ele>1590.6</ele>
        <time>2022-10-13T13:37:18.305Z</time>
      </trkpt>
      <trkpt lat="44.60657" lon="6.03764">
        <ele>1592.6</ele>
        <time>2022-10-13T13:37:24.305Z</time>
      </trkpt>
      <trkpt lat="44.60654" lon="6.03771">
        <ele>1596.8</ele>
        <time>2022-10-13T13:37:30.046Z</time>
      </trkpt>
      <trkpt lat="44.6065" lon="6.03776">
        <ele>1596.4</ele>
        <time>2022-10-13T13:37:32.887Z</time>
      </trkpt>
      <trkpt lat="44.60649" lon="6.03782">
        <ele>1598.6</ele>
        <time>2022-10-13T13:37:36.003Z</time>
      </trkpt>
      <trkpt lat="44.60646" lon="6.03789">
        <ele>1599.6</ele>
        <time>2022-10-13T13:37:40.000Z</time>
      </trkpt>
      <trkpt lat="44.60643" lon="6.03794">
        <ele>1600.6</ele>
        <time>2022-10-13T13:37:42.079Z</time>
      </trkpt>
      <trkpt lat="44.60645" lon="6.03803">
        <ele>1600.7</ele>
        <time>2022-10-13T13:37:49.000Z</time>
      </trkpt>
      <trkpt lat="44.60648" lon="6.03813">
        <ele>1601.7</ele>
        <time>2022-10-13T13:37:51.835Z</time>
      </trkpt>
      <trkpt lat="44.60647" lon="6.03824">
        <ele>1604.7</ele>
        <time>2022-10-13T13:37:57.914Z</time>
      </trkpt>
      <trkpt lat="44.60644" lon="6.03831">
        <ele>1603.4</ele>
        <time>2022-10-13T13:38:01.000Z</time>
      </trkpt>
      <trkpt lat="44.60641" lon="6.03836">
        <ele>1600.9</ele>
        <time>2022-10-13T13:38:03.782Z</time>
      </trkpt>
      <trkpt lat="44.60642" lon="6.03849">
        <ele>1604.7</ele>
        <time>2022-10-13T13:38:10.041Z</time>
      </trkpt>
      <trkpt lat="44.60643" lon="6.03857">
        <ele>1603.8</ele>
        <time>2022-10-13T13:38:13.435Z</time>
      </trkpt>
      <trkpt lat="44.60652" lon="6.03854">
        <ele>1605.7</ele>
        <time>2022-10-13T13:38:19.367Z</time>
      </trkpt>
      <trkpt lat="44.60658" lon="6.03854">
        <ele>1606.1</ele>
        <time>2022-10-13T13:38:22.430Z</time>
      </trkpt>
      <trkpt lat="44.60664" lon="6.03857">
        <ele>1609.6</ele>
        <time>2022-10-13T13:38:25.869Z</time>
      </trkpt>
      <trkpt lat="44.60672" lon="6.03851">
        <ele>1605.4</ele>
        <time>2022-10-13T13:38:35.181Z</time>
      </trkpt>
      <trkpt lat="44.60677" lon="6.03851">
        <ele>1611.9</ele>
        <time>2022-10-13T13:38:38.425Z</time>
      </trkpt>
      <trkpt lat="44.60678" lon="6.03858">
        <ele>1611.6</ele>
        <time>2022-10-13T13:38:44.451Z</time>
      </trkpt>
      <trkpt lat="44.60682" lon="6.03867">
        <ele>1613</ele>
        <time>2022-10-13T13:39:03.066Z</time>
      </trkpt>
      <trkpt lat="44.60686" lon="6.03874">
        <ele>1614.3</ele>
        <time>2022-10-13T13:39:06.127Z</time>
      </trkpt>
      <trkpt lat="44.6069" lon="6.03883">
        <ele>1612.8</ele>
        <time>2022-10-13T13:39:10.000Z</time>
      </trkpt>
      <trkpt lat="44.60695" lon="6.03902">
        <ele>1609.1</ele>
        <time>2022-10-13T13:39:12.418Z</time>
      </trkpt>
      <trkpt lat="44.60705" lon="6.03923">
        <ele>1605.7</ele>
        <time>2022-10-13T13:39:16.000Z</time>
      </trkpt>
      <trkpt lat="44.60711" lon="6.03928">
        <ele>1610.3</ele>
        <time>2022-10-13T13:39:18.561Z</time>
      </trkpt>
      <trkpt lat="44.60719" lon="6.03935">
        <ele>1612.3</ele>
        <time>2022-10-13T13:39:22.000Z</time>
      </trkpt>
      <trkpt lat="44.60716" lon="6.03942">
        <ele>1602.6</ele>
        <time>2022-10-13T13:39:25.000Z</time>
      </trkpt>
      <trkpt lat="44.60717" lon="6.0395">
        <ele>1613</ele>
        <time>2022-10-13T13:39:27.204Z</time>
      </trkpt>
      <trkpt lat="44.60719" lon="6.03957">
        <ele>1612.7</ele>
        <time>2022-10-13T13:39:29.987Z</time>
      </trkpt>
      <trkpt lat="44.60721" lon="6.03965">
        <ele>1614</ele>
        <time>2022-10-13T13:39:32.979Z</time>
      </trkpt>
      <trkpt lat="44.60722" lon="6.03973">
        <ele>1614</ele>
        <time>2022-10-13T13:39:36.105Z</time>
      </trkpt>
      <trkpt lat="44.60725" lon="6.0398">
        <ele>1612.4</ele>
        <time>2022-10-13T13:39:39.350Z</time>
      </trkpt>
      <trkpt lat="44.60726" lon="6.03988">
        <ele>1612.9</ele>
        <time>2022-10-13T13:39:43.000Z</time>
      </trkpt>
      <trkpt lat="44.60728" lon="6.04">
        <ele>1612.2</ele>
        <time>2022-10-13T13:39:48.422Z</time>
      </trkpt>
      <trkpt lat="44.60729" lon="6.04008">
        <ele>1596</ele>
        <time>2022-10-13T13:39:51.271Z</time>
      </trkpt>
      <trkpt lat="44.60736" lon="6.04016">
        <ele>1614.3</ele>
        <time>2022-10-13T13:39:54.140Z</time>
      </trkpt>
      <trkpt lat="44.60741" lon="6.04025">
        <ele>1614.1</ele>
        <time>2022-10-13T13:39:57.442Z</time>
      </trkpt>
      <trkpt lat="44.60745" lon="6.04032">
        <ele>1613.9</ele>
        <time>2022-10-13T13:40:00.423Z</time>
      </trkpt>
      <trkpt lat="44.60751" lon="6.04036">
        <ele>1616.4</ele>
        <time>2022-10-13T13:40:03.746Z</time>
      </trkpt>
      <trkpt lat="44.60757" lon="6.04044">
        <ele>1616</ele>
        <time>2022-10-13T13:40:07.431Z</time>
      </trkpt>
      <trkpt lat="44.60761" lon="6.04047">
        <ele>1604.6</ele>
        <time>2022-10-13T13:40:10.567Z</time>
      </trkpt>
      <trkpt lat="44.6077" lon="6.0406">
        <ele>1617.2</ele>
        <time>2022-10-13T13:40:17.425Z</time>
      </trkpt>
      <trkpt lat="44.60774" lon="6.04066">
        <ele>1618</ele>
        <time>2022-10-13T13:40:20.825Z</time>
      </trkpt>
      <trkpt lat="44.60777" lon="6.04074">
        <ele>1619.7</ele>
        <time>2022-10-13T13:40:24.429Z</time>
      </trkpt>
      <trkpt lat="44.60782" lon="6.04081">
        <ele>1621.6</ele>
        <time>2022-10-13T13:40:31.000Z</time>
      </trkpt>
      <trkpt lat="44.60784" lon="6.04089">
        <ele>1621.7</ele>
        <time>2022-10-13T13:40:34.000Z</time>
      </trkpt>
      <trkpt lat="44.60783" lon="6.04098">
        <ele>1621.7</ele>
        <time>2022-10-13T13:40:36.434Z</time>
      </trkpt>
      <trkpt lat="44.60788" lon="6.04102">
        <ele>1622.5</ele>
        <time>2022-10-13T13:40:39.190Z</time>
      </trkpt>
      <trkpt lat="44.60792" lon="6.04114">
        <ele>1614.8</ele>
        <time>2022-10-13T13:40:46.000Z</time>
      </trkpt>
      <trkpt lat="44.60796" lon="6.04121">
        <ele>1624.1</ele>
        <time>2022-10-13T13:40:48.332Z</time>
      </trkpt>
      <trkpt lat="44.60798" lon="6.04127">
        <ele>1624.9</ele>
        <time>2022-10-13T13:40:52.000Z</time>
      </trkpt>
      <trkpt lat="44.60803" lon="6.04133">
        <ele>1624.9</ele>
        <time>2022-10-13T13:40:54.425Z</time>
      </trkpt>
      <trkpt lat="44.60808" lon="6.04133">
        <ele>1625.1</ele>
        <time>2022-10-13T13:40:58.000Z</time>
      </trkpt>
      <trkpt lat="44.60813" lon="6.04144">
        <ele>1625.3</ele>
        <time>2022-10-13T13:41:00.429Z</time>
      </trkpt>
      <trkpt lat="44.60819" lon="6.04147">
        <ele>1624.7</ele>
        <time>2022-10-13T13:41:03.438Z</time>
      </trkpt>
      <trkpt lat="44.60827" lon="6.04152">
        <ele>1625.7</ele>
        <time>2022-10-13T13:41:09.436Z</time>
      </trkpt>
      <trkpt lat="44.60831" lon="6.04158">
        <ele>1626.1</ele>
        <time>2022-10-13T13:41:12.427Z</time>
      </trkpt>
      <trkpt lat="44.60839" lon="6.04166">
        <ele>1628.9</ele>
        <time>2022-10-13T13:41:19.412Z</time>
      </trkpt>
      <trkpt lat="44.60845" lon="6.04167">
        <ele>1617.8</ele>
        <time>2022-10-13T13:41:22.566Z</time>
      </trkpt>
      <trkpt lat="44.6085" lon="6.04173">
        <ele>1631.7</ele>
        <time>2022-10-13T13:41:26.437Z</time>
      </trkpt>
      <trkpt lat="44.60858" lon="6.04175">
        <ele>1618</ele>
        <time>2022-10-13T13:41:32.484Z</time>
      </trkpt>
      <trkpt lat="44.60863" lon="6.04178">
        <ele>1633.1</ele>
        <time>2022-10-13T13:41:38.419Z</time>
      </trkpt>
      <trkpt lat="44.60868" lon="6.04178">
        <ele>1636.9</ele>
        <time>2022-10-13T13:41:57.262Z</time>
      </trkpt>
      <trkpt lat="44.60875" lon="6.04183">
        <ele>1637.8</ele>
        <time>2022-10-13T13:42:00.433Z</time>
      </trkpt>
      <trkpt lat="44.60878" lon="6.04188">
        <ele>1640.6</ele>
        <time>2022-10-13T13:42:03.822Z</time>
      </trkpt>
      <trkpt lat="44.60885" lon="6.04192">
        <ele>1640.4</ele>
        <time>2022-10-13T13:42:10.000Z</time>
      </trkpt>
      <trkpt lat="44.60891" lon="6.04196">
        <ele>1642.7</ele>
        <time>2022-10-13T13:42:43.000Z</time>
      </trkpt>
      <trkpt lat="44.60896" lon="6.04199">
        <ele>1644.5</ele>
        <time>2022-10-13T13:42:45.432Z</time>
      </trkpt>
      <trkpt lat="44.60901" lon="6.04202">
        <ele>1645.8</ele>
        <time>2022-10-13T13:42:48.244Z</time>
      </trkpt>
      <trkpt lat="44.60905" lon="6.04207">
        <ele>1646.5</ele>
        <time>2022-10-13T13:42:51.429Z</time>
      </trkpt>
      <trkpt lat="44.60909" lon="6.04214">
        <ele>1648.3</ele>
        <time>2022-10-13T13:42:54.183Z</time>
      </trkpt>
      <trkpt lat="44.60911" lon="6.04222">
        <ele>1648.3</ele>
        <time>2022-10-13T13:42:57.162Z</time>
      </trkpt>
      <trkpt lat="44.6091" lon="6.0423">
        <ele>1648.3</ele>
        <time>2022-10-13T13:43:03.432Z</time>
      </trkpt>
      <trkpt lat="44.60914" lon="6.04235">
        <ele>1650.4</ele>
        <time>2022-10-13T13:43:16.000Z</time>
      </trkpt>
      <trkpt lat="44.60917" lon="6.04246">
        <ele>1652.8</ele>
        <time>2022-10-13T13:43:31.000Z</time>
      </trkpt>
      <trkpt lat="44.60922" lon="6.04251">
        <ele>1653.7</ele>
        <time>2022-10-13T13:43:34.000Z</time>
      </trkpt>
      <trkpt lat="44.60926" lon="6.04255">
        <ele>1653.5</ele>
        <time>2022-10-13T13:43:40.000Z</time>
      </trkpt>
      <trkpt lat="44.60931" lon="6.04258">
        <ele>1655.3</ele>
        <time>2022-10-13T13:43:46.000Z</time>
      </trkpt>
      <trkpt lat="44.60936" lon="6.04263">
        <ele>1655</ele>
        <time>2022-10-13T13:43:48.284Z</time>
      </trkpt>
      <trkpt lat="44.6094" lon="6.04266">
        <ele>1655.6</ele>
        <time>2022-10-13T13:43:52.000Z</time>
      </trkpt>
      <trkpt lat="44.60945" lon="6.0427">
        <ele>1655.7</ele>
        <time>2022-10-13T13:43:54.446Z</time>
      </trkpt>
      <trkpt lat="44.60949" lon="6.04276">
        <ele>1655.5</ele>
        <time>2022-10-13T13:44:00.437Z</time>
      </trkpt>
      <trkpt lat="44.60955" lon="6.04279">
        <ele>1654.9</ele>
        <time>2022-10-13T13:44:03.436Z</time>
      </trkpt>
      <trkpt lat="44.6096" lon="6.04283">
        <ele>1653.1</ele>
        <time>2022-10-13T13:44:06.249Z</time>
      </trkpt>
      <trkpt lat="44.60967" lon="6.04288">
        <ele>1654.3</ele>
        <time>2022-10-13T13:44:09.433Z</time>
      </trkpt>
      <trkpt lat="44.60973" lon="6.04291">
        <ele>1655.3</ele>
        <time>2022-10-13T13:44:12.443Z</time>
      </trkpt>
      <trkpt lat="44.60984" lon="6.04285">
        <ele>1653.5</ele>
        <time>2022-10-13T13:44:18.437Z</time>
      </trkpt>
      <trkpt lat="44.6099" lon="6.0429">
        <ele>1645.5</ele>
        <time>2022-10-13T13:44:21.683Z</time>
      </trkpt>
      <trkpt lat="44.60996" lon="6.04295">
        <ele>1652.4</ele>
        <time>2022-10-13T13:44:24.694Z</time>
      </trkpt>
      <trkpt lat="44.61002" lon="6.04298">
        <ele>1650.9</ele>
        <time>2022-10-13T13:44:27.435Z</time>
      </trkpt>
      <trkpt lat="44.61007" lon="6.04303">
        <ele>1646</ele>
        <time>2022-10-13T13:44:31.000Z</time>
      </trkpt>
      <trkpt lat="44.61014" lon="6.04304">
        <ele>1646.3</ele>
        <time>2022-10-13T13:44:34.000Z</time>
      </trkpt>
      <trkpt lat="44.6102" lon="6.04306">
        <ele>1646.3</ele>
        <time>2022-10-13T13:44:36.440Z</time>
      </trkpt>
      <trkpt lat="44.61028" lon="6.04311">
        <ele>1645.3</ele>
        <time>2022-10-13T13:44:39.437Z</time>
      </trkpt>
      <trkpt lat="44.61036" lon="6.04317">
        <ele>1644.6</ele>
        <time>2022-10-13T13:44:43.000Z</time>
      </trkpt>
      <trkpt lat="44.61043" lon="6.04321">
        <ele>1644.9</ele>
        <time>2022-10-13T13:44:45.441Z</time>
      </trkpt>
      <trkpt lat="44.61048" lon="6.04323">
        <ele>1643.4</ele>
        <time>2022-10-13T13:44:58.000Z</time>
      </trkpt>
      <trkpt lat="44.61053" lon="6.04327">
        <ele>1641.3</ele>
        <time>2022-10-13T13:45:04.000Z</time>
      </trkpt>
      <trkpt lat="44.61065" lon="6.04334">
        <ele>1643.7</ele>
        <time>2022-10-13T13:45:09.700Z</time>
      </trkpt>
      <trkpt lat="44.61077" lon="6.04332">
        <ele>1643.6</ele>
        <time>2022-10-13T13:45:16.000Z</time>
      </trkpt>
      <trkpt lat="44.61083" lon="6.04331">
        <ele>1644.5</ele>
        <time>2022-10-13T13:45:22.000Z</time>
      </trkpt>
      <trkpt lat="44.61089" lon="6.04327">
        <ele>1644.1</ele>
        <time>2022-10-13T13:45:28.000Z</time>
      </trkpt>
      <trkpt lat="44.61095" lon="6.04325">
        <ele>1646.9</ele>
        <time>2022-10-13T13:45:37.000Z</time>
      </trkpt>
      <trkpt lat="44.61101" lon="6.04321">
        <ele>1648</ele>
        <time>2022-10-13T13:45:42.225Z</time>
      </trkpt>
      <trkpt lat="44.61107" lon="6.04317">
        <ele>1648.8</ele>
        <time>2022-10-13T13:45:49.000Z</time>
      </trkpt>
      <trkpt lat="44.61112" lon="6.04314">
        <ele>1649.6</ele>
        <time>2022-10-13T13:46:04.000Z</time>
      </trkpt>
      <trkpt lat="44.61116" lon="6.0432">
        <ele>1652.1</ele>
        <time>2022-10-13T13:46:10.000Z</time>
      </trkpt>
      <trkpt lat="44.61119" lon="6.04326">
        <ele>1652.5</ele>
        <time>2022-10-13T13:46:19.000Z</time>
      </trkpt>
      <trkpt lat="44.6112" lon="6.04332">
        <ele>1650.2</ele>
        <time>2022-10-13T13:46:28.000Z</time>
      </trkpt>
      <trkpt lat="44.61123" lon="6.04339">
        <ele>1652.5</ele>
        <time>2022-10-13T13:46:42.334Z</time>
      </trkpt>
      <trkpt lat="44.61128" lon="6.04348">
        <ele>1653.6</ele>
        <time>2022-10-13T13:46:45.444Z</time>
      </trkpt>
      <trkpt lat="44.61136" lon="6.04347">
        <ele>1654.2</ele>
        <time>2022-10-13T13:46:48.365Z</time>
      </trkpt>
      <trkpt lat="44.61144" lon="6.04346">
        <ele>1653.5</ele>
        <time>2022-10-13T13:46:51.067Z</time>
      </trkpt>
      <trkpt lat="44.6115" lon="6.04345">
        <ele>1653.9</ele>
        <time>2022-10-13T13:46:54.435Z</time>
      </trkpt>
      <trkpt lat="44.61158" lon="6.04342">
        <ele>1655.2</ele>
        <time>2022-10-13T13:46:58.043Z</time>
      </trkpt>
      <trkpt lat="44.61163" lon="6.0434">
        <ele>1654.6</ele>
        <time>2022-10-13T13:47:01.826Z</time>
      </trkpt>
      <trkpt lat="44.61169" lon="6.04344">
        <ele>1656.2</ele>
        <time>2022-10-13T13:47:31.000Z</time>
      </trkpt>
      <trkpt lat="44.61175" lon="6.04347">
        <ele>1656.3</ele>
        <time>2022-10-13T13:47:50.436Z</time>
      </trkpt>
      <trkpt lat="44.6118" lon="6.04348">
        <ele>1657.7</ele>
        <time>2022-10-13T13:47:53.952Z</time>
      </trkpt>
      <trkpt lat="44.61186" lon="6.04349">
        <ele>1654.8</ele>
        <time>2022-10-13T13:47:57.000Z</time>
      </trkpt>
      <trkpt lat="44.61193" lon="6.04351">
        <ele>1659</ele>
        <time>2022-10-13T13:48:00.429Z</time>
      </trkpt>
      <trkpt lat="44.61199" lon="6.04351">
        <ele>1658.3</ele>
        <time>2022-10-13T13:48:03.357Z</time>
      </trkpt>
      <trkpt lat="44.61206" lon="6.0435">
        <ele>1659.4</ele>
        <time>2022-10-13T13:48:06.432Z</time>
      </trkpt>
      <trkpt lat="44.61212" lon="6.04353">
        <ele>1659.9</ele>
        <time>2022-10-13T13:48:09.439Z</time>
      </trkpt>
      <trkpt lat="44.61216" lon="6.04358">
        <ele>1658.9</ele>
        <time>2022-10-13T13:48:13.000Z</time>
      </trkpt>
      <trkpt lat="44.61222" lon="6.04354">
        <ele>1658.7</ele>
        <time>2022-10-13T13:48:15.428Z</time>
      </trkpt>
      <trkpt lat="44.61227" lon="6.04356">
        <ele>1659.2</ele>
        <time>2022-10-13T13:48:18.440Z</time>
      </trkpt>
      <trkpt lat="44.61232" lon="6.04358">
        <ele>1662.3</ele>
        <time>2022-10-13T13:48:22.000Z</time>
      </trkpt>
      <trkpt lat="44.61239" lon="6.04357">
        <ele>1661.6</ele>
        <time>2022-10-13T13:48:24.434Z</time>
      </trkpt>
      <trkpt lat="44.61246" lon="6.04365">
        <ele>1662.9</ele>
        <time>2022-10-13T13:48:30.269Z</time>
      </trkpt>
      <trkpt lat="44.61254" lon="6.04367">
        <ele>1664.5</ele>
        <time>2022-10-13T13:48:33.448Z</time>
      </trkpt>
      <trkpt lat="44.61258" lon="6.04364">
        <ele>1652.3</ele>
        <time>2022-10-13T13:48:37.000Z</time>
      </trkpt>
      <trkpt lat="44.61261" lon="6.04358">
        <ele>1662.8</ele>
        <time>2022-10-13T13:48:39.346Z</time>
      </trkpt>
      <trkpt lat="44.61268" lon="6.04362">
        <ele>1662</ele>
        <time>2022-10-13T13:48:42.471Z</time>
      </trkpt>
      <trkpt lat="44.61276" lon="6.04363">
        <ele>1662</ele>
        <time>2022-10-13T13:48:45.436Z</time>
      </trkpt>
      <trkpt lat="44.61286" lon="6.04366">
        <ele>1659.8</ele>
        <time>2022-10-13T13:48:49.000Z</time>
      </trkpt>
      <trkpt lat="44.61295" lon="6.04369">
        <ele>1659.9</ele>
        <time>2022-10-13T13:48:51.440Z</time>
      </trkpt>
      <trkpt lat="44.61303" lon="6.04364">
        <ele>1659.8</ele>
        <time>2022-10-13T13:48:54.433Z</time>
      </trkpt>
      <trkpt lat="44.61309" lon="6.04362">
        <ele>1659.2</ele>
        <time>2022-10-13T13:48:57.744Z</time>
      </trkpt>
      <trkpt lat="44.61318" lon="6.04358">
        <ele>1660.3</ele>
        <time>2022-10-13T13:49:01.439Z</time>
      </trkpt>
      <trkpt lat="44.61324" lon="6.04359">
        <ele>1661</ele>
        <time>2022-10-13T13:49:10.436Z</time>
      </trkpt>
      <trkpt lat="44.6133" lon="6.04355">
        <ele>1661</ele>
        <time>2022-10-13T13:49:19.585Z</time>
      </trkpt>
      <trkpt lat="44.61337" lon="6.04346">
        <ele>1659.9</ele>
        <time>2022-10-13T13:49:22.440Z</time>
      </trkpt>
      <trkpt lat="44.61343" lon="6.04346">
        <ele>1664.9</ele>
        <time>2022-10-13T13:49:32.084Z</time>
      </trkpt>
      <trkpt lat="44.6135" lon="6.04341">
        <ele>1661.7</ele>
        <time>2022-10-13T13:49:38.265Z</time>
      </trkpt>
      <trkpt lat="44.61357" lon="6.04335">
        <ele>1661.7</ele>
        <time>2022-10-13T13:49:41.045Z</time>
      </trkpt>
      <trkpt lat="44.61364" lon="6.04333">
        <ele>1661</ele>
        <time>2022-10-13T13:49:43.880Z</time>
      </trkpt>
      <trkpt lat="44.6137" lon="6.04331">
        <ele>1660.9</ele>
        <time>2022-10-13T13:49:47.396Z</time>
      </trkpt>
      <trkpt lat="44.61379" lon="6.04322">
        <ele>1659.4</ele>
        <time>2022-10-13T13:49:53.434Z</time>
      </trkpt>
      <trkpt lat="44.61383" lon="6.04319">
        <ele>1659.4</ele>
        <time>2022-10-13T13:49:56.442Z</time>
      </trkpt>
      <trkpt lat="44.61391" lon="6.04315">
        <ele>1659.3</ele>
        <time>2022-10-13T13:50:02.428Z</time>
      </trkpt>
      <trkpt lat="44.61396" lon="6.04312">
        <ele>1660.3</ele>
        <time>2022-10-13T13:50:05.433Z</time>
      </trkpt>
      <trkpt lat="44.61401" lon="6.04309">
        <ele>1656.7</ele>
        <time>2022-10-13T13:50:08.509Z</time>
      </trkpt>
      <trkpt lat="44.61406" lon="6.04306">
        <ele>1658.8</ele>
        <time>2022-10-13T13:50:17.308Z</time>
      </trkpt>
      <trkpt lat="44.6141" lon="6.04304">
        <ele>1656.1</ele>
        <time>2022-10-13T13:50:30.431Z</time>
      </trkpt>
      <trkpt lat="44.61415" lon="6.04302">
        <ele>1656</ele>
        <time>2022-10-13T13:50:40.000Z</time>
      </trkpt>
      <trkpt lat="44.61421" lon="6.04301">
        <ele>1657.4</ele>
        <time>2022-10-13T13:50:49.000Z</time>
      </trkpt>
      <trkpt lat="44.61426" lon="6.04302">
        <ele>1657.7</ele>
        <time>2022-10-13T13:50:54.105Z</time>
      </trkpt>
      <trkpt lat="44.61431" lon="6.04298">
        <ele>1659</ele>
        <time>2022-10-13T13:51:01.000Z</time>
      </trkpt>
      <trkpt lat="44.61435" lon="6.04293">
        <ele>1658.2</ele>
        <time>2022-10-13T13:51:07.000Z</time>
      </trkpt>
      <trkpt lat="44.6144" lon="6.0429">
        <ele>1658</ele>
        <time>2022-10-13T13:51:12.274Z</time>
      </trkpt>
      <trkpt lat="44.61446" lon="6.04288">
        <ele>1657.3</ele>
        <time>2022-10-13T13:51:19.000Z</time>
      </trkpt>
      <trkpt lat="44.61454" lon="6.04288">
        <ele>1657.9</ele>
        <time>2022-10-13T13:51:23.946Z</time>
      </trkpt>
      <trkpt lat="44.6146" lon="6.0429">
        <ele>1657.7</ele>
        <time>2022-10-13T13:51:30.443Z</time>
      </trkpt>
      <trkpt lat="44.61464" lon="6.0429">
        <ele>1658.2</ele>
        <time>2022-10-13T13:51:36.447Z</time>
      </trkpt>
      <trkpt lat="44.61469" lon="6.0429">
        <ele>1659</ele>
        <time>2022-10-13T13:51:43.000Z</time>
      </trkpt>
      <trkpt lat="44.61476" lon="6.04288">
        <ele>1658</ele>
        <time>2022-10-13T13:51:49.000Z</time>
      </trkpt>
      <trkpt lat="44.61481" lon="6.04283">
        <ele>1659.7</ele>
        <time>2022-10-13T13:51:54.245Z</time>
      </trkpt>
      <trkpt lat="44.61487" lon="6.04278">
        <ele>1660.3</ele>
        <time>2022-10-13T13:52:29.894Z</time>
      </trkpt>
      <trkpt lat="44.61494" lon="6.04284">
        <ele>1656.8</ele>
        <time>2022-10-13T13:52:35.784Z</time>
      </trkpt>
      <trkpt lat="44.61502" lon="6.04289">
        <ele>1654.7</ele>
        <time>2022-10-13T13:52:42.478Z</time>
      </trkpt>
      <trkpt lat="44.61509" lon="6.0429">
        <ele>1652.6</ele>
        <time>2022-10-13T13:52:46.000Z</time>
      </trkpt>
      <trkpt lat="44.61519" lon="6.04292">
        <ele>1652.6</ele>
        <time>2022-10-13T13:52:48.452Z</time>
      </trkpt>
      <trkpt lat="44.61523" lon="6.04297">
        <ele>1652</ele>
        <time>2022-10-13T13:52:52.000Z</time>
      </trkpt>
      <trkpt lat="44.61527" lon="6.04302">
        <ele>1651.9</ele>
        <time>2022-10-13T13:52:54.440Z</time>
      </trkpt>
      <trkpt lat="44.61535" lon="6.043">
        <ele>1651.9</ele>
        <time>2022-10-13T13:52:57.449Z</time>
      </trkpt>
      <trkpt lat="44.6154" lon="6.04295">
        <ele>1652.2</ele>
        <time>2022-10-13T13:53:00.889Z</time>
      </trkpt>
      <trkpt lat="44.61546" lon="6.04294">
        <ele>1652.2</ele>
        <time>2022-10-13T13:53:04.432Z</time>
      </trkpt>
      <trkpt lat="44.61551" lon="6.04293">
        <ele>1647.1</ele>
        <time>2022-10-13T13:53:07.308Z</time>
      </trkpt>
      <trkpt lat="44.61557" lon="6.04294">
        <ele>1652.1</ele>
        <time>2022-10-13T13:53:10.124Z</time>
      </trkpt>
      <trkpt lat="44.61564" lon="6.04294">
        <ele>1652.3</ele>
        <time>2022-10-13T13:53:13.440Z</time>
      </trkpt>
      <trkpt lat="44.61572" lon="6.04292">
        <ele>1645.7</ele>
        <time>2022-10-13T13:53:16.262Z</time>
      </trkpt>
      <trkpt lat="44.61581" lon="6.04296">
        <ele>1650</ele>
        <time>2022-10-13T13:53:19.403Z</time>
      </trkpt>
      <trkpt lat="44.61589" lon="6.04299">
        <ele>1651</ele>
        <time>2022-10-13T13:53:22.440Z</time>
      </trkpt>
      <trkpt lat="44.61595" lon="6.043">
        <ele>1641.7</ele>
        <time>2022-10-13T13:53:25.428Z</time>
      </trkpt>
      <trkpt lat="44.61604" lon="6.04304">
        <ele>1651</ele>
        <time>2022-10-13T13:53:28.628Z</time>
      </trkpt>
      <trkpt lat="44.61614" lon="6.04305">
        <ele>1649.9</ele>
        <time>2022-10-13T13:53:31.800Z</time>
      </trkpt>
      <trkpt lat="44.61622" lon="6.04304">
        <ele>1639.3</ele>
        <time>2022-10-13T13:53:34.909Z</time>
      </trkpt>
      <trkpt lat="44.61628" lon="6.04305">
        <ele>1648.9</ele>
        <time>2022-10-13T13:53:38.446Z</time>
      </trkpt>
      <trkpt lat="44.61637" lon="6.04307">
        <ele>1648.1</ele>
        <time>2022-10-13T13:53:41.431Z</time>
      </trkpt>
      <trkpt lat="44.61645" lon="6.04306">
        <ele>1638.7</ele>
        <time>2022-10-13T13:53:44.327Z</time>
      </trkpt>
      <trkpt lat="44.61652" lon="6.04306">
        <ele>1649.7</ele>
        <time>2022-10-13T13:53:47.411Z</time>
      </trkpt>
      <trkpt lat="44.61656" lon="6.04311">
        <ele>1649.7</ele>
        <time>2022-10-13T13:53:50.428Z</time>
      </trkpt>
      <trkpt lat="44.61661" lon="6.04315">
        <ele>1636.5</ele>
        <time>2022-10-13T13:53:53.563Z</time>
      </trkpt>
      <trkpt lat="44.61667" lon="6.04318">
        <ele>1653.1</ele>
        <time>2022-10-13T13:53:57.439Z</time>
      </trkpt>
      <trkpt lat="44.61674" lon="6.04321">
        <ele>1652.8</ele>
        <time>2022-10-13T13:54:00.425Z</time>
      </trkpt>
      <trkpt lat="44.61679" lon="6.04323">
        <ele>1652.9</ele>
        <time>2022-10-13T13:54:06.435Z</time>
      </trkpt>
      <trkpt lat="44.61683" lon="6.0433">
        <ele>1653.7</ele>
        <time>2022-10-13T13:54:15.988Z</time>
      </trkpt>
      <trkpt lat="44.61687" lon="6.04331">
        <ele>1656.1</ele>
        <time>2022-10-13T13:54:24.439Z</time>
      </trkpt>
      <trkpt lat="44.61693" lon="6.04333">
        <ele>1656.7</ele>
        <time>2022-10-13T13:54:28.000Z</time>
      </trkpt>
      <trkpt lat="44.61699" lon="6.04333">
        <ele>1655.8</ele>
        <time>2022-10-13T13:54:31.000Z</time>
      </trkpt>
      <trkpt lat="44.61707" lon="6.04334">
        <ele>1656</ele>
        <time>2022-10-13T13:54:33.606Z</time>
      </trkpt>
      <trkpt lat="44.6171" lon="6.0434">
        <ele>1656</ele>
        <time>2022-10-13T13:54:36.440Z</time>
      </trkpt>
      <trkpt lat="44.61715" lon="6.04341">
        <ele>1656.3</ele>
        <time>2022-10-13T13:54:39.436Z</time>
      </trkpt>
      <trkpt lat="44.61723" lon="6.04347">
        <ele>1657.1</ele>
        <time>2022-10-13T13:54:46.440Z</time>
      </trkpt>
      <trkpt lat="44.61728" lon="6.04352">
        <ele>1656.8</ele>
        <time>2022-10-13T13:54:49.572Z</time>
      </trkpt>
      <trkpt lat="44.61734" lon="6.04351">
        <ele>1660</ele>
        <time>2022-10-13T13:54:53.445Z</time>
      </trkpt>
      <trkpt lat="44.61741" lon="6.04357">
        <ele>1658.9</ele>
        <time>2022-10-13T13:54:59.440Z</time>
      </trkpt>
      <trkpt lat="44.61746" lon="6.0436">
        <ele>1659.1</ele>
        <time>2022-10-13T13:55:02.444Z</time>
      </trkpt>
      <trkpt lat="44.61756" lon="6.04361">
        <ele>1660.9</ele>
        <time>2022-10-13T13:55:08.438Z</time>
      </trkpt>
      <trkpt lat="44.61762" lon="6.04361">
        <ele>1662</ele>
        <time>2022-10-13T13:55:11.161Z</time>
      </trkpt>
      <trkpt lat="44.6177" lon="6.04361">
        <ele>1662.8</ele>
        <time>2022-10-13T13:55:14.445Z</time>
      </trkpt>
      <trkpt lat="44.61778" lon="6.04361">
        <ele>1664.6</ele>
        <time>2022-10-13T13:55:20.434Z</time>
      </trkpt>
      <trkpt lat="44.61783" lon="6.04364">
        <ele>1666.6</ele>
        <time>2022-10-13T13:55:23.436Z</time>
      </trkpt>
      <trkpt lat="44.61788" lon="6.04367">
        <ele>1669.1</ele>
        <time>2022-10-13T13:55:26.465Z</time>
      </trkpt>
      <trkpt lat="44.61793" lon="6.0437">
        <ele>1668.4</ele>
        <time>2022-10-13T13:55:29.429Z</time>
      </trkpt>
      <trkpt lat="44.61798" lon="6.04373">
        <ele>1667.7</ele>
        <time>2022-10-13T13:55:32.435Z</time>
      </trkpt>
      <trkpt lat="44.61804" lon="6.04374">
        <ele>1668.2</ele>
        <time>2022-10-13T13:55:35.665Z</time>
      </trkpt>
      <trkpt lat="44.61812" lon="6.0438">
        <ele>1670.2</ele>
        <time>2022-10-13T13:55:41.429Z</time>
      </trkpt>
      <trkpt lat="44.61816" lon="6.04384">
        <ele>1673.3</ele>
        <time>2022-10-13T13:55:44.626Z</time>
      </trkpt>
      <trkpt lat="44.61821" lon="6.04387">
        <ele>1672</ele>
        <time>2022-10-13T13:55:47.432Z</time>
      </trkpt>
      <trkpt lat="44.61826" lon="6.0439">
        <ele>1672.7</ele>
        <time>2022-10-13T13:55:50.424Z</time>
      </trkpt>
      <trkpt lat="44.61831" lon="6.04396">
        <ele>1675.6</ele>
        <time>2022-10-13T13:55:56.440Z</time>
      </trkpt>
      <trkpt lat="44.61837" lon="6.04397">
        <ele>1663.3</ele>
        <time>2022-10-13T13:56:02.141Z</time>
      </trkpt>
      <trkpt lat="44.61847" lon="6.04397">
        <ele>1679.1</ele>
        <time>2022-10-13T13:56:08.435Z</time>
      </trkpt>
      <trkpt lat="44.61855" lon="6.04398">
        <ele>1679.5</ele>
        <time>2022-10-13T13:56:14.441Z</time>
      </trkpt>
      <trkpt lat="44.61862" lon="6.04399">
        <ele>1680</ele>
        <time>2022-10-13T13:56:17.530Z</time>
      </trkpt>
      <trkpt lat="44.61866" lon="6.04404">
        <ele>1682.5</ele>
        <time>2022-10-13T13:56:23.141Z</time>
      </trkpt>
      <trkpt lat="44.61871" lon="6.04409">
        <ele>1683.1</ele>
        <time>2022-10-13T13:56:26.435Z</time>
      </trkpt>
      <trkpt lat="44.6188" lon="6.04407">
        <ele>1684.9</ele>
        <time>2022-10-13T13:56:32.432Z</time>
      </trkpt>
      <trkpt lat="44.61886" lon="6.04406">
        <ele>1685.6</ele>
        <time>2022-10-13T13:56:35.328Z</time>
      </trkpt>
      <trkpt lat="44.61892" lon="6.04407">
        <ele>1686.3</ele>
        <time>2022-10-13T13:56:40.000Z</time>
      </trkpt>
      <trkpt lat="44.61889" lon="6.04414">
        <ele>1687.8</ele>
        <time>2022-10-13T13:56:49.000Z</time>
      </trkpt>
      <trkpt lat="44.61883" lon="6.04418">
        <ele>1686.2</ele>
        <time>2022-10-13T13:56:58.000Z</time>
      </trkpt>
      <trkpt lat="44.61878" lon="6.04421">
        <ele>1685.9</ele>
        <time>2022-10-13T13:57:01.000Z</time>
      </trkpt>
      <trkpt lat="44.6188" lon="6.04415">
        <ele>1686.3</ele>
        <time>2022-10-13T14:00:21.164Z</time>
      </trkpt>
      <trkpt lat="44.61887" lon="6.04415">
        <ele>1687.3</ele>
        <time>2022-10-13T14:00:24.445Z</time>
      </trkpt>
      <trkpt lat="44.61892" lon="6.04417">
        <ele>1688.7</ele>
        <time>2022-10-13T14:00:27.644Z</time>
      </trkpt>
      <trkpt lat="44.61897" lon="6.0442">
        <ele>1689.2</ele>
        <time>2022-10-13T14:00:31.000Z</time>
      </trkpt>
      <trkpt lat="44.61907" lon="6.04424">
        <ele>1689</ele>
        <time>2022-10-13T14:00:33.089Z</time>
      </trkpt>
      <trkpt lat="44.61913" lon="6.04427">
        <ele>1689.3</ele>
        <time>2022-10-13T14:00:36.453Z</time>
      </trkpt>
      <trkpt lat="44.6192" lon="6.04432">
        <ele>1692.3</ele>
        <time>2022-10-13T14:00:40.000Z</time>
      </trkpt>
      <trkpt lat="44.61927" lon="6.04437">
        <ele>1692.3</ele>
        <time>2022-10-13T14:00:42.443Z</time>
      </trkpt>
      <trkpt lat="44.61933" lon="6.04442">
        <ele>1690.8</ele>
        <time>2022-10-13T14:00:45.433Z</time>
      </trkpt>
      <trkpt lat="44.61941" lon="6.04447">
        <ele>1693</ele>
        <time>2022-10-13T14:00:49.000Z</time>
      </trkpt>
      <trkpt lat="44.61949" lon="6.04452">
        <ele>1693</ele>
        <time>2022-10-13T14:00:51.431Z</time>
      </trkpt>
      <trkpt lat="44.61955" lon="6.04458">
        <ele>1691.8</ele>
        <time>2022-10-13T14:00:54.442Z</time>
      </trkpt>
      <trkpt lat="44.61963" lon="6.0446">
        <ele>1693.1</ele>
        <time>2022-10-13T14:00:58.000Z</time>
      </trkpt>
      <trkpt lat="44.6197" lon="6.04459">
        <ele>1693.8</ele>
        <time>2022-10-13T14:01:00.440Z</time>
      </trkpt>
      <trkpt lat="44.61976" lon="6.04458">
        <ele>1694.1</ele>
        <time>2022-10-13T14:01:03.420Z</time>
      </trkpt>
      <trkpt lat="44.61983" lon="6.04457">
        <ele>1696.1</ele>
        <time>2022-10-13T14:01:06.815Z</time>
      </trkpt>
      <trkpt lat="44.6199" lon="6.04463">
        <ele>1695.8</ele>
        <time>2022-10-13T14:01:10.441Z</time>
      </trkpt>
      <trkpt lat="44.61997" lon="6.04472">
        <ele>1679.8</ele>
        <time>2022-10-13T14:01:13.781Z</time>
      </trkpt>
      <trkpt lat="44.62003" lon="6.04481">
        <ele>1697.3</ele>
        <time>2022-10-13T14:01:17.471Z</time>
      </trkpt>
      <trkpt lat="44.62009" lon="6.04483">
        <ele>1697</ele>
        <time>2022-10-13T14:01:20.450Z</time>
      </trkpt>
      <trkpt lat="44.62015" lon="6.04485">
        <ele>1685.5</ele>
        <time>2022-10-13T14:01:23.385Z</time>
      </trkpt>
      <trkpt lat="44.62022" lon="6.04487">
        <ele>1698.8</ele>
        <time>2022-10-13T14:01:26.440Z</time>
      </trkpt>
      <trkpt lat="44.62029" lon="6.04489">
        <ele>1699.6</ele>
        <time>2022-10-13T14:01:29.472Z</time>
      </trkpt>
      <trkpt lat="44.62036" lon="6.04491">
        <ele>1687.4</ele>
        <time>2022-10-13T14:01:32.577Z</time>
      </trkpt>
      <trkpt lat="44.62039" lon="6.04496">
        <ele>1701.7</ele>
        <time>2022-10-13T14:01:35.565Z</time>
      </trkpt>
      <trkpt lat="44.62044" lon="6.04502">
        <ele>1701.5</ele>
        <time>2022-10-13T14:01:38.441Z</time>
      </trkpt>
      <trkpt lat="44.62051" lon="6.04506">
        <ele>1686.1</ele>
        <time>2022-10-13T14:01:41.301Z</time>
      </trkpt>
      <trkpt lat="44.62057" lon="6.04509">
        <ele>1702</ele>
        <time>2022-10-13T14:01:44.429Z</time>
      </trkpt>
      <trkpt lat="44.62063" lon="6.04512">
        <ele>1702.6</ele>
        <time>2022-10-13T14:01:47.432Z</time>
      </trkpt>
      <trkpt lat="44.62069" lon="6.04517">
        <ele>1700.9</ele>
        <time>2022-10-13T14:01:50.462Z</time>
      </trkpt>
      <trkpt lat="44.62073" lon="6.04523">
        <ele>1705.1</ele>
        <time>2022-10-13T14:01:53.244Z</time>
      </trkpt>
      <trkpt lat="44.62081" lon="6.04522">
        <ele>1704.9</ele>
        <time>2022-10-13T14:01:56.439Z</time>
      </trkpt>
      <trkpt lat="44.62088" lon="6.04521">
        <ele>1627.5</ele>
        <time>2022-10-13T14:01:59.386Z</time>
      </trkpt>
      <trkpt lat="44.62092" lon="6.04522">
        <ele>1707.2</ele>
        <time>2022-10-13T14:02:02.444Z</time>
      </trkpt>
      <trkpt lat="44.62098" lon="6.04525">
        <ele>1707</ele>
        <time>2022-10-13T14:02:05.434Z</time>
      </trkpt>
      <trkpt lat="44.62104" lon="6.04531">
        <ele>1680.7</ele>
        <time>2022-10-13T14:02:08.247Z</time>
      </trkpt>
      <trkpt lat="44.62108" lon="6.04536">
        <ele>1706.3</ele>
        <time>2022-10-13T14:02:11.440Z</time>
      </trkpt>
      <trkpt lat="44.62114" lon="6.04542">
        <ele>1707.2</ele>
        <time>2022-10-13T14:02:14.489Z</time>
      </trkpt>
      <trkpt lat="44.62122" lon="6.04548">
        <ele>1691.5</ele>
        <time>2022-10-13T14:02:17.522Z</time>
      </trkpt>
      <trkpt lat="44.62128" lon="6.04551">
        <ele>1707.9</ele>
        <time>2022-10-13T14:02:20.436Z</time>
      </trkpt>
      <trkpt lat="44.62133" lon="6.04555">
        <ele>1708.1</ele>
        <time>2022-10-13T14:02:23.444Z</time>
      </trkpt>
      <trkpt lat="44.62133" lon="6.04568">
        <ele>1710.1</ele>
        <time>2022-10-13T14:02:29.445Z</time>
      </trkpt>
      <trkpt lat="44.62132" lon="6.04575">
        <ele>1710.3</ele>
        <time>2022-10-13T14:02:32.436Z</time>
      </trkpt>
      <trkpt lat="44.62139" lon="6.04579">
        <ele>1708</ele>
        <time>2022-10-13T14:02:35.457Z</time>
      </trkpt>
      <trkpt lat="44.62148" lon="6.04584">
        <ele>1711.6</ele>
        <time>2022-10-13T14:02:38.484Z</time>
      </trkpt>
      <trkpt lat="44.62154" lon="6.04591">
        <ele>1711.7</ele>
        <time>2022-10-13T14:02:41.428Z</time>
      </trkpt>
      <trkpt lat="44.62158" lon="6.04597">
        <ele>1705.9</ele>
        <time>2022-10-13T14:02:44.167Z</time>
      </trkpt>
      <trkpt lat="44.62169" lon="6.04603">
        <ele>1716.4</ele>
        <time>2022-10-13T14:02:58.000Z</time>
      </trkpt>
      <trkpt lat="44.62175" lon="6.04619">
        <ele>1718.5</ele>
        <time>2022-10-13T14:03:01.435Z</time>
      </trkpt>
      <trkpt lat="44.62177" lon="6.04633">
        <ele>1719.2</ele>
        <time>2022-10-13T14:03:04.360Z</time>
      </trkpt>
      <trkpt lat="44.62179" lon="6.04643">
        <ele>1719.6</ele>
        <time>2022-10-13T14:03:07.449Z</time>
      </trkpt>
      <trkpt lat="44.6218" lon="6.0465">
        <ele>1721</ele>
        <time>2022-10-13T14:03:10.227Z</time>
      </trkpt>
      <trkpt lat="44.62179" lon="6.04658">
        <ele>1721.3</ele>
        <time>2022-10-13T14:03:13.485Z</time>
      </trkpt>
      <trkpt lat="44.62179" lon="6.04665">
        <ele>1722.6</ele>
        <time>2022-10-13T14:03:16.484Z</time>
      </trkpt>
      <trkpt lat="44.62179" lon="6.04674">
        <ele>1723.9</ele>
        <time>2022-10-13T14:03:19.604Z</time>
      </trkpt>
      <trkpt lat="44.62181" lon="6.0468">
        <ele>1724.2</ele>
        <time>2022-10-13T14:03:22.305Z</time>
      </trkpt>
      <trkpt lat="44.62183" lon="6.04686">
        <ele>1725.8</ele>
        <time>2022-10-13T14:03:25.561Z</time>
      </trkpt>
      <trkpt lat="44.6219" lon="6.0469">
        <ele>1727.8</ele>
        <time>2022-10-13T14:03:31.438Z</time>
      </trkpt>
      <trkpt lat="44.62192" lon="6.04698">
        <ele>1727.2</ele>
        <time>2022-10-13T14:03:34.436Z</time>
      </trkpt>
      <trkpt lat="44.62193" lon="6.04709">
        <ele>1729.3</ele>
        <time>2022-10-13T14:03:40.621Z</time>
      </trkpt>
      <trkpt lat="44.62196" lon="6.04716">
        <ele>1729.2</ele>
        <time>2022-10-13T14:03:43.441Z</time>
      </trkpt>
      <trkpt lat="44.62198" lon="6.04728">
        <ele>1729.9</ele>
        <time>2022-10-13T14:03:49.384Z</time>
      </trkpt>
      <trkpt lat="44.62201" lon="6.04735">
        <ele>1730.3</ele>
        <time>2022-10-13T14:03:52.427Z</time>
      </trkpt>
      <trkpt lat="44.62206" lon="6.04737">
        <ele>1724.6</ele>
        <time>2022-10-13T14:03:55.543Z</time>
      </trkpt>
      <trkpt lat="44.62205" lon="6.04744">
        <ele>1732.6</ele>
        <time>2022-10-13T14:03:58.509Z</time>
      </trkpt>
      <trkpt lat="44.62204" lon="6.04751">
        <ele>1733.7</ele>
        <time>2022-10-13T14:04:01.436Z</time>
      </trkpt>
      <trkpt lat="44.62212" lon="6.04757">
        <ele>1727.1</ele>
        <time>2022-10-13T14:04:04.787Z</time>
      </trkpt>
      <trkpt lat="44.62215" lon="6.04762">
        <ele>1734.4</ele>
        <time>2022-10-13T14:04:07.497Z</time>
      </trkpt>
      <trkpt lat="44.62218" lon="6.04774">
        <ele>1730.2</ele>
        <time>2022-10-13T14:04:13.566Z</time>
      </trkpt>
      <trkpt lat="44.62217" lon="6.04782">
        <ele>1737.8</ele>
        <time>2022-10-13T14:04:35.990Z</time>
      </trkpt>
      <trkpt lat="44.62217" lon="6.04789">
        <ele>1737.8</ele>
        <time>2022-10-13T14:04:42.456Z</time>
      </trkpt>
      <trkpt lat="44.62216" lon="6.04797">
        <ele>1738.8</ele>
        <time>2022-10-13T14:04:57.441Z</time>
      </trkpt>
      <trkpt lat="44.62211" lon="6.048">
        <ele>1738.2</ele>
        <time>2022-10-13T14:06:10.000Z</time>
      </trkpt>
      <trkpt lat="44.62207" lon="6.04798">
        <ele>1738.5</ele>
        <time>2022-10-13T14:06:53.000Z</time>
      </trkpt>
      <trkpt lat="44.62211" lon="6.04803">
        <ele>1737.9</ele>
        <time>2022-10-13T14:08:19.442Z</time>
      </trkpt>
      <trkpt lat="44.6221" lon="6.04809">
        <ele>1738</ele>
        <time>2022-10-13T14:08:29.186Z</time>
      </trkpt>
      <trkpt lat="44.62209" lon="6.04801">
        <ele>1737.6</ele>
        <time>2022-10-13T14:08:38.432Z</time>
      </trkpt>
      <trkpt lat="44.62205" lon="6.04799">
        <ele>1738.4</ele>
        <time>2022-10-13T14:11:00.000Z</time>
      </trkpt>
      <trkpt lat="44.62206" lon="6.04813">
        <ele>1740.4</ele>
        <time>2022-10-13T14:11:29.161Z</time>
      </trkpt>
      <trkpt lat="44.62206" lon="6.04827">
        <ele>1739.4</ele>
        <time>2022-10-13T14:11:32.232Z</time>
      </trkpt>
      <trkpt lat="44.62202" lon="6.04839">
        <ele>1739.7</ele>
        <time>2022-10-13T14:11:36.000Z</time>
      </trkpt>
      <trkpt lat="44.62198" lon="6.04847">
        <ele>1739.6</ele>
        <time>2022-10-13T14:11:39.000Z</time>
      </trkpt>
      <trkpt lat="44.62196" lon="6.04853">
        <ele>1731.7</ele>
        <time>2022-10-13T14:11:42.000Z</time>
      </trkpt>
      <trkpt lat="44.62191" lon="6.04852">
        <ele>1741.4</ele>
        <time>2022-10-13T14:11:51.000Z</time>
      </trkpt>
      <trkpt lat="44.62183" lon="6.04856">
        <ele>1739.5</ele>
        <time>2022-10-13T14:12:12.000Z</time>
      </trkpt>
      <trkpt lat="44.62174" lon="6.04866">
        <ele>1738.8</ele>
        <time>2022-10-13T14:12:14.327Z</time>
      </trkpt>
      <trkpt lat="44.6216" lon="6.04882">
        <ele>1738.8</ele>
        <time>2022-10-13T14:12:17.424Z</time>
      </trkpt>
      <trkpt lat="44.62138" lon="6.04903">
        <ele>1736.8</ele>
        <time>2022-10-13T14:12:21.000Z</time>
      </trkpt>
      <trkpt lat="44.62122" lon="6.04915">
        <ele>1736.3</ele>
        <time>2022-10-13T14:12:24.000Z</time>
      </trkpt>
      <trkpt lat="44.62106" lon="6.04926">
        <ele>1737.1</ele>
        <time>2022-10-13T14:12:27.000Z</time>
      </trkpt>
      <trkpt lat="44.62093" lon="6.04934">
        <ele>1736</ele>
        <time>2022-10-13T14:12:30.000Z</time>
      </trkpt>
      <trkpt lat="44.62078" lon="6.04937">
        <ele>1733.2</ele>
        <time>2022-10-13T14:12:33.000Z</time>
      </trkpt>
      <trkpt lat="44.6206" lon="6.04943">
        <ele>1733.7</ele>
        <time>2022-10-13T14:12:36.000Z</time>
      </trkpt>
      <trkpt lat="44.62042" lon="6.04955">
        <ele>1735.4</ele>
        <time>2022-10-13T14:12:39.000Z</time>
      </trkpt>
      <trkpt lat="44.62027" lon="6.04974">
        <ele>1735.9</ele>
        <time>2022-10-13T14:12:42.000Z</time>
      </trkpt>
      <trkpt lat="44.6201" lon="6.04988">
        <ele>1734.5</ele>
        <time>2022-10-13T14:12:45.000Z</time>
      </trkpt>
      <trkpt lat="44.61992" lon="6.04998">
        <ele>1731.8</ele>
        <time>2022-10-13T14:12:48.000Z</time>
      </trkpt>
      <trkpt lat="44.61974" lon="6.05011">
        <ele>1731.6</ele>
        <time>2022-10-13T14:12:51.000Z</time>
      </trkpt>
      <trkpt lat="44.61953" lon="6.05017">
        <ele>1732.4</ele>
        <time>2022-10-13T14:12:54.000Z</time>
      </trkpt>
      <trkpt lat="44.61932" lon="6.05024">
        <ele>1735.2</ele>
        <time>2022-10-13T14:12:57.000Z</time>
      </trkpt>
      <trkpt lat="44.61911" lon="6.0503">
        <ele>1730.8</ele>
        <time>2022-10-13T14:13:00.000Z</time>
      </trkpt>
      <trkpt lat="44.6189" lon="6.0504">
        <ele>1731.8</ele>
        <time>2022-10-13T14:13:03.000Z</time>
      </trkpt>
      <trkpt lat="44.61869" lon="6.05049">
        <ele>1727.3</ele>
        <time>2022-10-13T14:13:06.000Z</time>
      </trkpt>
      <trkpt lat="44.61849" lon="6.05058">
        <ele>1726.6</ele>
        <time>2022-10-13T14:13:09.000Z</time>
      </trkpt>
      <trkpt lat="44.61827" lon="6.05071">
        <ele>1727.2</ele>
        <time>2022-10-13T14:13:12.000Z</time>
      </trkpt>
      <trkpt lat="44.61806" lon="6.05086">
        <ele>1725.1</ele>
        <time>2022-10-13T14:13:15.000Z</time>
      </trkpt>
      <trkpt lat="44.61783" lon="6.05095">
        <ele>1722</ele>
        <time>2022-10-13T14:13:18.000Z</time>
      </trkpt>
      <trkpt lat="44.61759" lon="6.05102">
        <ele>1718.9</ele>
        <time>2022-10-13T14:13:21.000Z</time>
      </trkpt>
      <trkpt lat="44.61737" lon="6.05112">
        <ele>1720</ele>
        <time>2022-10-13T14:13:24.000Z</time>
      </trkpt>
      <trkpt lat="44.61712" lon="6.05121">
        <ele>1716.4</ele>
        <time>2022-10-13T14:13:27.000Z</time>
      </trkpt>
      <trkpt lat="44.61686" lon="6.05129">
        <ele>1716</ele>
        <time>2022-10-13T14:13:30.000Z</time>
      </trkpt>
      <trkpt lat="44.6166" lon="6.05142">
        <ele>1713.9</ele>
        <time>2022-10-13T14:13:33.000Z</time>
      </trkpt>
      <trkpt lat="44.61635" lon="6.05158">
        <ele>1716.8</ele>
        <time>2022-10-13T14:13:36.000Z</time>
      </trkpt>
      <trkpt lat="44.61613" lon="6.0517">
        <ele>1715.2</ele>
        <time>2022-10-13T14:13:39.000Z</time>
      </trkpt>
      <trkpt lat="44.61597" lon="6.05175">
        <ele>1714.8</ele>
        <time>2022-10-13T14:13:42.000Z</time>
      </trkpt>
      <trkpt lat="44.61578" lon="6.05177">
        <ele>1713.1</ele>
        <time>2022-10-13T14:13:45.000Z</time>
      </trkpt>
      <trkpt lat="44.61557" lon="6.05178">
        <ele>1711.6</ele>
        <time>2022-10-13T14:13:48.000Z</time>
      </trkpt>
      <trkpt lat="44.61532" lon="6.05186">
        <ele>1710.3</ele>
        <time>2022-10-13T14:13:51.000Z</time>
      </trkpt>
      <trkpt lat="44.61509" lon="6.05196">
        <ele>1709.9</ele>
        <time>2022-10-13T14:13:54.000Z</time>
      </trkpt>
      <trkpt lat="44.61486" lon="6.05196">
        <ele>1704.4</ele>
        <time>2022-10-13T14:13:57.000Z</time>
      </trkpt>
      <trkpt lat="44.61462" lon="6.05197">
        <ele>1703.1</ele>
        <time>2022-10-13T14:14:00.000Z</time>
      </trkpt>
      <trkpt lat="44.61437" lon="6.05205">
        <ele>1702.9</ele>
        <time>2022-10-13T14:14:03.000Z</time>
      </trkpt>
      <trkpt lat="44.61413" lon="6.0522">
        <ele>1700.9</ele>
        <time>2022-10-13T14:14:06.000Z</time>
      </trkpt>
      <trkpt lat="44.61389" lon="6.05243">
        <ele>1698.6</ele>
        <time>2022-10-13T14:14:09.000Z</time>
      </trkpt>
      <trkpt lat="44.61368" lon="6.05261">
        <ele>1695.1</ele>
        <time>2022-10-13T14:14:12.000Z</time>
      </trkpt>
      <trkpt lat="44.61345" lon="6.05275">
        <ele>1692.9</ele>
        <time>2022-10-13T14:14:15.000Z</time>
      </trkpt>
      <trkpt lat="44.61321" lon="6.05282">
        <ele>1691.8</ele>
        <time>2022-10-13T14:14:18.000Z</time>
      </trkpt>
      <trkpt lat="44.61297" lon="6.05284">
        <ele>1688.9</ele>
        <time>2022-10-13T14:14:21.000Z</time>
      </trkpt>
      <trkpt lat="44.61273" lon="6.05283">
        <ele>1685.9</ele>
        <time>2022-10-13T14:14:24.000Z</time>
      </trkpt>
      <trkpt lat="44.61252" lon="6.05304">
        <ele>1683.1</ele>
        <time>2022-10-13T14:14:27.000Z</time>
      </trkpt>
      <trkpt lat="44.61233" lon="6.05321">
        <ele>1683.1</ele>
        <time>2022-10-13T14:14:30.000Z</time>
      </trkpt>
      <trkpt lat="44.61211" lon="6.0533">
        <ele>1680.8</ele>
        <time>2022-10-13T14:14:33.000Z</time>
      </trkpt>
      <trkpt lat="44.61193" lon="6.05355">
        <ele>1679.4</ele>
        <time>2022-10-13T14:14:36.000Z</time>
      </trkpt>
      <trkpt lat="44.61172" lon="6.05377">
        <ele>1678.6</ele>
        <time>2022-10-13T14:14:39.000Z</time>
      </trkpt>
      <trkpt lat="44.61148" lon="6.05392">
        <ele>1678.4</ele>
        <time>2022-10-13T14:14:42.000Z</time>
      </trkpt>
      <trkpt lat="44.61129" lon="6.05402">
        <ele>1674.9</ele>
        <time>2022-10-13T14:14:45.000Z</time>
      </trkpt>
      <trkpt lat="44.61114" lon="6.05417">
        <ele>1673.2</ele>
        <time>2022-10-13T14:14:48.000Z</time>
      </trkpt>
      <trkpt lat="44.61098" lon="6.05425">
        <ele>1671.8</ele>
        <time>2022-10-13T14:14:51.000Z</time>
      </trkpt>
      <trkpt lat="44.61084" lon="6.05431">
        <ele>1669.6</ele>
        <time>2022-10-13T14:14:54.000Z</time>
      </trkpt>
      <trkpt lat="44.6107" lon="6.05439">
        <ele>1669.1</ele>
        <time>2022-10-13T14:14:57.000Z</time>
      </trkpt>
      <trkpt lat="44.61053" lon="6.05451">
        <ele>1668</ele>
        <time>2022-10-13T14:15:00.000Z</time>
      </trkpt>
      <trkpt lat="44.61034" lon="6.05464">
        <ele>1666.6</ele>
        <time>2022-10-13T14:15:03.000Z</time>
      </trkpt>
      <trkpt lat="44.61016" lon="6.05478">
        <ele>1665.4</ele>
        <time>2022-10-13T14:15:06.000Z</time>
      </trkpt>
      <trkpt lat="44.61001" lon="6.05491">
        <ele>1661.8</ele>
        <time>2022-10-13T14:15:09.000Z</time>
      </trkpt>
      <trkpt lat="44.60985" lon="6.05499">
        <ele>1659.6</ele>
        <time>2022-10-13T14:15:12.000Z</time>
      </trkpt>
      <trkpt lat="44.60967" lon="6.05505">
        <ele>1655.9</ele>
        <time>2022-10-13T14:15:15.000Z</time>
      </trkpt>
      <trkpt lat="44.60947" lon="6.05507">
        <ele>1651.6</ele>
        <time>2022-10-13T14:15:18.000Z</time>
      </trkpt>
      <trkpt lat="44.60929" lon="6.05513">
        <ele>1651.3</ele>
        <time>2022-10-13T14:15:21.000Z</time>
      </trkpt>
      <trkpt lat="44.60912" lon="6.05521">
        <ele>1649.8</ele>
        <time>2022-10-13T14:15:24.000Z</time>
      </trkpt>
      <trkpt lat="44.60894" lon="6.05531">
        <ele>1647.6</ele>
        <time>2022-10-13T14:15:27.000Z</time>
      </trkpt>
      <trkpt lat="44.60873" lon="6.0554">
        <ele>1648.3</ele>
        <time>2022-10-13T14:15:30.000Z</time>
      </trkpt>
      <trkpt lat="44.60853" lon="6.05547">
        <ele>1644.9</ele>
        <time>2022-10-13T14:15:33.000Z</time>
      </trkpt>
      <trkpt lat="44.60833" lon="6.05551">
        <ele>1643.7</ele>
        <time>2022-10-13T14:15:36.000Z</time>
      </trkpt>
      <trkpt lat="44.6081" lon="6.05556">
        <ele>1642.6</ele>
        <time>2022-10-13T14:15:39.000Z</time>
      </trkpt>
      <trkpt lat="44.60788" lon="6.05559">
        <ele>1642</ele>
        <time>2022-10-13T14:15:42.000Z</time>
      </trkpt>
      <trkpt lat="44.60767" lon="6.05563">
        <ele>1641.1</ele>
        <time>2022-10-13T14:15:45.000Z</time>
      </trkpt>
      <trkpt lat="44.60747" lon="6.05569">
        <ele>1641.2</ele>
        <time>2022-10-13T14:15:48.000Z</time>
      </trkpt>
      <trkpt lat="44.60727" lon="6.05573">
        <ele>1640.9</ele>
        <time>2022-10-13T14:15:51.000Z</time>
      </trkpt>
      <trkpt lat="44.60707" lon="6.05581">
        <ele>1639.4</ele>
        <time>2022-10-13T14:15:54.000Z</time>
      </trkpt>
      <trkpt lat="44.60688" lon="6.0559">
        <ele>1637.8</ele>
        <time>2022-10-13T14:15:57.000Z</time>
      </trkpt>
      <trkpt lat="44.60672" lon="6.05604">
        <ele>1636.8</ele>
        <time>2022-10-13T14:16:00.000Z</time>
      </trkpt>
      <trkpt lat="44.60655" lon="6.05601">
        <ele>1633.6</ele>
        <time>2022-10-13T14:16:03.000Z</time>
      </trkpt>
      <trkpt lat="44.60636" lon="6.05595">
        <ele>1632.5</ele>
        <time>2022-10-13T14:16:06.000Z</time>
      </trkpt>
      <trkpt lat="44.60617" lon="6.05603">
        <ele>1631.7</ele>
        <time>2022-10-13T14:16:09.000Z</time>
      </trkpt>
      <trkpt lat="44.60596" lon="6.0561">
        <ele>1632.4</ele>
        <time>2022-10-13T14:16:12.000Z</time>
      </trkpt>
      <trkpt lat="44.60577" lon="6.05615">
        <ele>1631.7</ele>
        <time>2022-10-13T14:16:15.000Z</time>
      </trkpt>
      <trkpt lat="44.60563" lon="6.05617">
        <ele>1631.7</ele>
        <time>2022-10-13T14:16:18.000Z</time>
      </trkpt>
      <trkpt lat="44.60558" lon="6.0562">
        <ele>1628.4</ele>
        <time>2022-10-13T14:16:24.000Z</time>
      </trkpt>
      <trkpt lat="44.60554" lon="6.05622">
        <ele>1627.7</ele>
        <time>2022-10-13T14:16:57.000Z</time>
      </trkpt>
      <trkpt lat="44.60535" lon="6.05621">
        <ele>1625.1</ele>
        <time>2022-10-13T14:17:08.435Z</time>
      </trkpt>
      <trkpt lat="44.60519" lon="6.05608">
        <ele>1630.2</ele>
        <time>2022-10-13T14:17:12.000Z</time>
      </trkpt>
      <trkpt lat="44.60509" lon="6.056">
        <ele>1624.2</ele>
        <time>2022-10-13T14:17:15.000Z</time>
      </trkpt>
      <trkpt lat="44.60505" lon="6.05596">
        <ele>1623.7</ele>
        <time>2022-10-13T14:17:18.000Z</time>
      </trkpt>
      <trkpt lat="44.60496" lon="6.05588">
        <ele>1628.1</ele>
        <time>2022-10-13T14:17:21.000Z</time>
      </trkpt>
      <trkpt lat="44.60485" lon="6.05583">
        <ele>1620.7</ele>
        <time>2022-10-13T14:17:24.000Z</time>
      </trkpt>
      <trkpt lat="44.60478" lon="6.05581">
        <ele>1621.3</ele>
        <time>2022-10-13T14:17:27.000Z</time>
      </trkpt>
      <trkpt lat="44.60467" lon="6.05586">
        <ele>1618.6</ele>
        <time>2022-10-13T14:17:30.000Z</time>
      </trkpt>
      <trkpt lat="44.60461" lon="6.05591">
        <ele>1618.1</ele>
        <time>2022-10-13T14:17:33.000Z</time>
      </trkpt>
      <trkpt lat="44.60452" lon="6.05591">
        <ele>1627.5</ele>
        <time>2022-10-13T14:17:36.000Z</time>
      </trkpt>
      <trkpt lat="44.60442" lon="6.05595">
        <ele>1616.8</ele>
        <time>2022-10-13T14:17:39.000Z</time>
      </trkpt>
      <trkpt lat="44.60434" lon="6.05598">
        <ele>1616.7</ele>
        <time>2022-10-13T14:17:42.000Z</time>
      </trkpt>
      <trkpt lat="44.60427" lon="6.056">
        <ele>1623.6</ele>
        <time>2022-10-13T14:17:45.000Z</time>
      </trkpt>
      <trkpt lat="44.6042" lon="6.05602">
        <ele>1615.9</ele>
        <time>2022-10-13T14:17:48.000Z</time>
      </trkpt>
      <trkpt lat="44.60415" lon="6.05605">
        <ele>1614.6</ele>
        <time>2022-10-13T14:18:03.000Z</time>
      </trkpt>
      <trkpt lat="44.60409" lon="6.05605">
        <ele>1615.2</ele>
        <time>2022-10-13T14:18:08.398Z</time>
      </trkpt>
      <trkpt lat="44.60404" lon="6.05605">
        <ele>1614.3</ele>
        <time>2022-10-13T14:18:11.161Z</time>
      </trkpt>
      <trkpt lat="44.6039" lon="6.05607">
        <ele>1615.2</ele>
        <time>2022-10-13T14:18:13.950Z</time>
      </trkpt>
      <trkpt lat="44.60378" lon="6.05609">
        <ele>1614.6</ele>
        <time>2022-10-13T14:18:17.111Z</time>
      </trkpt>
      <trkpt lat="44.60367" lon="6.05613">
        <ele>1614.5</ele>
        <time>2022-10-13T14:18:20.427Z</time>
      </trkpt>
      <trkpt lat="44.60356" lon="6.05615">
        <ele>1615.3</ele>
        <time>2022-10-13T14:18:23.434Z</time>
      </trkpt>
      <trkpt lat="44.60346" lon="6.05614">
        <ele>1613.6</ele>
        <time>2022-10-13T14:18:27.000Z</time>
      </trkpt>
      <trkpt lat="44.60335" lon="6.05615">
        <ele>1613.6</ele>
        <time>2022-10-13T14:18:29.434Z</time>
      </trkpt>
      <trkpt lat="44.60323" lon="6.05618">
        <ele>1612.2</ele>
        <time>2022-10-13T14:18:32.427Z</time>
      </trkpt>
      <trkpt lat="44.60311" lon="6.05609">
        <ele>1608.3</ele>
        <time>2022-10-13T14:18:36.000Z</time>
      </trkpt>
      <trkpt lat="44.60299" lon="6.05606">
        <ele>1608.3</ele>
        <time>2022-10-13T14:18:38.105Z</time>
      </trkpt>
      <trkpt lat="44.60285" lon="6.05605">
        <ele>1608.3</ele>
        <time>2022-10-13T14:18:41.424Z</time>
      </trkpt>
      <trkpt lat="44.60268" lon="6.05599">
        <ele>1605.4</ele>
        <time>2022-10-13T14:18:45.000Z</time>
      </trkpt>
      <trkpt lat="44.60254" lon="6.05596">
        <ele>1604.8</ele>
        <time>2022-10-13T14:18:48.000Z</time>
      </trkpt>
      <trkpt lat="44.60247" lon="6.05602">
        <ele>1604.8</ele>
        <time>2022-10-13T14:18:50.424Z</time>
      </trkpt>
      <trkpt lat="44.60229" lon="6.05599">
        <ele>1599.8</ele>
        <time>2022-10-13T14:18:54.000Z</time>
      </trkpt>
      <trkpt lat="44.6023" lon="6.05588">
        <ele>1601.1</ele>
        <time>2022-10-13T14:18:57.000Z</time>
      </trkpt>
      <trkpt lat="44.60216" lon="6.05585">
        <ele>1600.9</ele>
        <time>2022-10-13T14:18:59.417Z</time>
      </trkpt>
      <trkpt lat="44.60205" lon="6.05589">
        <ele>1599.2</ele>
        <time>2022-10-13T14:19:02.442Z</time>
      </trkpt>
      <trkpt lat="44.60194" lon="6.05583">
        <ele>1595.9</ele>
        <time>2022-10-13T14:19:05.213Z</time>
      </trkpt>
      <trkpt lat="44.60181" lon="6.05581">
        <ele>1595.9</ele>
        <time>2022-10-13T14:19:08.426Z</time>
      </trkpt>
      <trkpt lat="44.60172" lon="6.05581">
        <ele>1596.1</ele>
        <time>2022-10-13T14:19:11.420Z</time>
      </trkpt>
      <trkpt lat="44.60168" lon="6.05584">
        <ele>1592.3</ele>
        <time>2022-10-13T14:19:14.140Z</time>
      </trkpt>
      <trkpt lat="44.60157" lon="6.05586">
        <ele>1592</ele>
        <time>2022-10-13T14:19:17.426Z</time>
      </trkpt>
      <trkpt lat="44.60143" lon="6.05586">
        <ele>1591.6</ele>
        <time>2022-10-13T14:19:20.428Z</time>
      </trkpt>
      <trkpt lat="44.60132" lon="6.05581">
        <ele>1589</ele>
        <time>2022-10-13T14:19:24.000Z</time>
      </trkpt>
      <trkpt lat="44.60119" lon="6.05579">
        <ele>1588.6</ele>
        <time>2022-10-13T14:19:26.418Z</time>
      </trkpt>
      <trkpt lat="44.60108" lon="6.05577">
        <ele>1589.1</ele>
        <time>2022-10-13T14:19:29.440Z</time>
      </trkpt>
      <trkpt lat="44.60096" lon="6.05572">
        <ele>1583.9</ele>
        <time>2022-10-13T14:19:32.210Z</time>
      </trkpt>
      <trkpt lat="44.60089" lon="6.05573">
        <ele>1583.7</ele>
        <time>2022-10-13T14:19:35.037Z</time>
      </trkpt>
      <trkpt lat="44.60081" lon="6.05569">
        <ele>1583.2</ele>
        <time>2022-10-13T14:19:41.178Z</time>
      </trkpt>
      <trkpt lat="44.60074" lon="6.05563">
        <ele>1582.7</ele>
        <time>2022-10-13T14:19:44.420Z</time>
      </trkpt>
      <trkpt lat="44.6007" lon="6.05559">
        <ele>1582.9</ele>
        <time>2022-10-13T14:19:47.408Z</time>
      </trkpt>
      <trkpt lat="44.60064" lon="6.05553">
        <ele>1583.2</ele>
        <time>2022-10-13T14:19:53.445Z</time>
      </trkpt>
      <trkpt lat="44.60055" lon="6.05553">
        <ele>1580.4</ele>
        <time>2022-10-13T14:20:02.427Z</time>
      </trkpt>
      <trkpt lat="44.60048" lon="6.0555">
        <ele>1580.1</ele>
        <time>2022-10-13T14:20:05.422Z</time>
      </trkpt>
      <trkpt lat="44.60038" lon="6.0554">
        <ele>1578</ele>
        <time>2022-10-13T14:20:09.000Z</time>
      </trkpt>
      <trkpt lat="44.60026" lon="6.0553">
        <ele>1578</ele>
        <time>2022-10-13T14:20:11.423Z</time>
      </trkpt>
      <trkpt lat="44.60007" lon="6.05518">
        <ele>1584</ele>
        <time>2022-10-13T14:20:15.000Z</time>
      </trkpt>
      <trkpt lat="44.60005" lon="6.05512">
        <ele>1578.4</ele>
        <time>2022-10-13T14:20:18.000Z</time>
      </trkpt>
      <trkpt lat="44.59994" lon="6.05512">
        <ele>1578.6</ele>
        <time>2022-10-13T14:20:23.426Z</time>
      </trkpt>
      <trkpt lat="44.59979" lon="6.05511">
        <ele>1574.5</ele>
        <time>2022-10-13T14:20:27.000Z</time>
      </trkpt>
      <trkpt lat="44.59964" lon="6.05505">
        <ele>1574.5</ele>
        <time>2022-10-13T14:20:29.421Z</time>
      </trkpt>
      <trkpt lat="44.59954" lon="6.05502">
        <ele>1573</ele>
        <time>2022-10-13T14:20:32.427Z</time>
      </trkpt>
      <trkpt lat="44.59943" lon="6.05497">
        <ele>1567.2</ele>
        <time>2022-10-13T14:20:36.000Z</time>
      </trkpt>
      <trkpt lat="44.59934" lon="6.05492">
        <ele>1567.2</ele>
        <time>2022-10-13T14:20:38.471Z</time>
      </trkpt>
      <trkpt lat="44.59925" lon="6.05482">
        <ele>1568.6</ele>
        <time>2022-10-13T14:20:41.421Z</time>
      </trkpt>
      <trkpt lat="44.59914" lon="6.05474">
        <ele>1563.8</ele>
        <time>2022-10-13T14:20:44.635Z</time>
      </trkpt>
      <trkpt lat="44.59906" lon="6.05467">
        <ele>1563.6</ele>
        <time>2022-10-13T14:20:48.000Z</time>
      </trkpt>
      <trkpt lat="44.59899" lon="6.05462">
        <ele>1563.6</ele>
        <time>2022-10-13T14:20:50.418Z</time>
      </trkpt>
      <trkpt lat="44.59895" lon="6.05455">
        <ele>1560</ele>
        <time>2022-10-13T14:20:53.665Z</time>
      </trkpt>
      <trkpt lat="44.5989" lon="6.05452">
        <ele>1560</ele>
        <time>2022-10-13T14:20:56.424Z</time>
      </trkpt>
      <trkpt lat="44.59883" lon="6.05451">
        <ele>1565.6</ele>
        <time>2022-10-13T14:21:00.000Z</time>
      </trkpt>
      <trkpt lat="44.59875" lon="6.05451">
        <ele>1554.8</ele>
        <time>2022-10-13T14:21:02.218Z</time>
      </trkpt>
      <trkpt lat="44.59864" lon="6.05452">
        <ele>1554.8</ele>
        <time>2022-10-13T14:21:05.457Z</time>
      </trkpt>
      <trkpt lat="44.59851" lon="6.05456">
        <ele>1554.3</ele>
        <time>2022-10-13T14:21:08.465Z</time>
      </trkpt>
      <trkpt lat="44.5984" lon="6.05455">
        <ele>1550.9</ele>
        <time>2022-10-13T14:21:12.000Z</time>
      </trkpt>
      <trkpt lat="44.59835" lon="6.05456">
        <ele>1550.9</ele>
        <time>2022-10-13T14:21:14.424Z</time>
      </trkpt>
      <trkpt lat="44.59831" lon="6.0546">
        <ele>1547.7</ele>
        <time>2022-10-13T14:21:32.429Z</time>
      </trkpt>
      <trkpt lat="44.59818" lon="6.05462">
        <ele>1543.6</ele>
        <time>2022-10-13T14:21:36.000Z</time>
      </trkpt>
      <trkpt lat="44.59804" lon="6.05462">
        <ele>1543.1</ele>
        <time>2022-10-13T14:21:38.479Z</time>
      </trkpt>
      <trkpt lat="44.5979" lon="6.05461">
        <ele>1543.9</ele>
        <time>2022-10-13T14:21:41.420Z</time>
      </trkpt>
      <trkpt lat="44.59773" lon="6.05456">
        <ele>1536.2</ele>
        <time>2022-10-13T14:21:45.000Z</time>
      </trkpt>
      <trkpt lat="44.59766" lon="6.0546">
        <ele>1536.2</ele>
        <time>2022-10-13T14:21:47.409Z</time>
      </trkpt>
      <trkpt lat="44.59758" lon="6.05456">
        <ele>1535.6</ele>
        <time>2022-10-13T14:21:50.420Z</time>
      </trkpt>
      <trkpt lat="44.59747" lon="6.05442">
        <ele>1529.7</ele>
        <time>2022-10-13T14:21:53.177Z</time>
      </trkpt>
      <trkpt lat="44.59736" lon="6.0544">
        <ele>1528.6</ele>
        <time>2022-10-13T14:21:56.432Z</time>
      </trkpt>
      <trkpt lat="44.59724" lon="6.05442">
        <ele>1528.5</ele>
        <time>2022-10-13T14:21:59.430Z</time>
      </trkpt>
      <trkpt lat="44.59708" lon="6.05443">
        <ele>1522.4</ele>
        <time>2022-10-13T14:22:03.000Z</time>
      </trkpt>
      <trkpt lat="44.59703" lon="6.05441">
        <ele>1522.2</ele>
        <time>2022-10-13T14:22:05.432Z</time>
      </trkpt>
      <trkpt lat="44.59689" lon="6.05444">
        <ele>1521.6</ele>
        <time>2022-10-13T14:22:08.422Z</time>
      </trkpt>
      <trkpt lat="44.59663" lon="6.05444">
        <ele>1513.5</ele>
        <time>2022-10-13T14:22:12.000Z</time>
      </trkpt>
      <trkpt lat="44.59642" lon="6.05448">
        <ele>1511.7</ele>
        <time>2022-10-13T14:22:15.000Z</time>
      </trkpt>
      <trkpt lat="44.59625" lon="6.05453">
        <ele>1514.1</ele>
        <time>2022-10-13T14:22:18.000Z</time>
      </trkpt>
      <trkpt lat="44.59609" lon="6.05461">
        <ele>1513.3</ele>
        <time>2022-10-13T14:22:21.000Z</time>
      </trkpt>
      <trkpt lat="44.59595" lon="6.0547">
        <ele>1511</ele>
        <time>2022-10-13T14:22:24.000Z</time>
      </trkpt>
      <trkpt lat="44.59583" lon="6.05479">
        <ele>1508.3</ele>
        <time>2022-10-13T14:22:27.000Z</time>
      </trkpt>
      <trkpt lat="44.59578" lon="6.05481">
        <ele>1503.8</ele>
        <time>2022-10-13T14:22:30.000Z</time>
      </trkpt>
      <trkpt lat="44.59564" lon="6.05483">
        <ele>1496.3</ele>
        <time>2022-10-13T14:22:33.000Z</time>
      </trkpt>
      <trkpt lat="44.59549" lon="6.05486">
        <ele>1496.3</ele>
        <time>2022-10-13T14:22:36.000Z</time>
      </trkpt>
      <trkpt lat="44.59541" lon="6.0549">
        <ele>1493.1</ele>
        <time>2022-10-13T14:22:39.000Z</time>
      </trkpt>
      <trkpt lat="44.59532" lon="6.05483">
        <ele>1493.1</ele>
        <time>2022-10-13T14:22:41.424Z</time>
      </trkpt>
      <trkpt lat="44.59508" lon="6.05481">
        <ele>1486.4</ele>
        <time>2022-10-13T14:22:45.000Z</time>
      </trkpt>
      <trkpt lat="44.59487" lon="6.05481">
        <ele>1485.9</ele>
        <time>2022-10-13T14:22:48.000Z</time>
      </trkpt>
      <trkpt lat="44.59467" lon="6.05483">
        <ele>1485.8</ele>
        <time>2022-10-13T14:22:51.000Z</time>
      </trkpt>
      <trkpt lat="44.5945" lon="6.05486">
        <ele>1483.9</ele>
        <time>2022-10-13T14:22:54.000Z</time>
      </trkpt>
      <trkpt lat="44.59437" lon="6.05493">
        <ele>1481.8</ele>
        <time>2022-10-13T14:22:57.000Z</time>
      </trkpt>
      <trkpt lat="44.5943" lon="6.05498">
        <ele>1481.4</ele>
        <time>2022-10-13T14:23:00.000Z</time>
      </trkpt>
      <trkpt lat="44.59409" lon="6.05506">
        <ele>1471.9</ele>
        <time>2022-10-13T14:23:03.000Z</time>
      </trkpt>
      <trkpt lat="44.59382" lon="6.05519">
        <ele>1472.3</ele>
        <time>2022-10-13T14:23:06.000Z</time>
      </trkpt>
      <trkpt lat="44.5936" lon="6.0553">
        <ele>1470.2</ele>
        <time>2022-10-13T14:23:09.000Z</time>
      </trkpt>
      <trkpt lat="44.59339" lon="6.05535">
        <ele>1470.3</ele>
        <time>2022-10-13T14:23:12.000Z</time>
      </trkpt>
      <trkpt lat="44.59316" lon="6.05531">
        <ele>1471.6</ele>
        <time>2022-10-13T14:23:15.000Z</time>
      </trkpt>
      <trkpt lat="44.59298" lon="6.05516">
        <ele>1472.2</ele>
        <time>2022-10-13T14:23:18.000Z</time>
      </trkpt>
      <trkpt lat="44.59289" lon="6.05498">
        <ele>1538.8</ele>
        <time>2022-10-13T14:23:21.000Z</time>
      </trkpt>
      <trkpt lat="44.59287" lon="6.05492">
        <ele>1462.4</ele>
        <time>2022-10-13T14:23:27.000Z</time>
      </trkpt>
      <trkpt lat="44.59284" lon="6.05482">
        <ele>1469.2</ele>
        <time>2022-10-13T14:23:39.000Z</time>
      </trkpt>
      <trkpt lat="44.59285" lon="6.05473">
        <ele>1465</ele>
        <time>2022-10-13T14:23:45.000Z</time>
      </trkpt>
      <trkpt lat="44.59283" lon="6.05464">
        <ele>1407.8</ele>
        <time>2022-10-13T14:23:48.000Z</time>
      </trkpt>
      <trkpt lat="44.5928" lon="6.05454">
        <ele>1465.6</ele>
        <time>2022-10-13T14:23:51.000Z</time>
      </trkpt>
      <trkpt lat="44.59275" lon="6.05445">
        <ele>1466.6</ele>
        <time>2022-10-13T14:23:57.000Z</time>
      </trkpt>
      <trkpt lat="44.59273" lon="6.05439">
        <ele>1468</ele>
        <time>2022-10-13T14:24:12.000Z</time>
      </trkpt>
      <trkpt lat="44.59269" lon="6.05435">
        <ele>1466.9</ele>
        <time>2022-10-13T14:24:18.000Z</time>
      </trkpt>
      <trkpt lat="44.59264" lon="6.0543">
        <ele>1467.5</ele>
        <time>2022-10-13T14:24:21.000Z</time>
      </trkpt>
      <trkpt lat="44.59255" lon="6.05417">
        <ele>1472.9</ele>
        <time>2022-10-13T14:24:27.000Z</time>
      </trkpt>
      <trkpt lat="44.59249" lon="6.05408">
        <ele>1473.4</ele>
        <time>2022-10-13T14:24:30.000Z</time>
      </trkpt>
      <trkpt lat="44.59242" lon="6.05395">
        <ele>1467.6</ele>
        <time>2022-10-13T14:24:32.223Z</time>
      </trkpt>
      <trkpt lat="44.59235" lon="6.05382">
        <ele>1468.6</ele>
        <time>2022-10-13T14:24:35.421Z</time>
      </trkpt>
      <trkpt lat="44.59227" lon="6.0537">
        <ele>1468.9</ele>
        <time>2022-10-13T14:24:38.425Z</time>
      </trkpt>
      <trkpt lat="44.59222" lon="6.05357">
        <ele>1469</ele>
        <time>2022-10-13T14:24:41.380Z</time>
      </trkpt>
      <trkpt lat="44.59217" lon="6.0534">
        <ele>1468.7</ele>
        <time>2022-10-13T14:24:44.431Z</time>
      </trkpt>
      <trkpt lat="44.59215" lon="6.05318">
        <ele>1467.1</ele>
        <time>2022-10-13T14:24:47.412Z</time>
      </trkpt>
      <trkpt lat="44.59208" lon="6.05307">
        <ele>1468</ele>
        <time>2022-10-13T14:24:51.000Z</time>
      </trkpt>
      <trkpt lat="44.59201" lon="6.05302">
        <ele>1467.7</ele>
        <time>2022-10-13T14:24:53.425Z</time>
      </trkpt>
      <trkpt lat="44.59187" lon="6.05284">
        <ele>1467</ele>
        <time>2022-10-13T14:24:56.426Z</time>
      </trkpt>
      <trkpt lat="44.59177" lon="6.05276">
        <ele>1468.4</ele>
        <time>2022-10-13T14:25:00.000Z</time>
      </trkpt>
      <trkpt lat="44.59161" lon="6.05259">
        <ele>1470.3</ele>
        <time>2022-10-13T14:25:05.423Z</time>
      </trkpt>
      <trkpt lat="44.59156" lon="6.05255">
        <ele>1472.4</ele>
        <time>2022-10-13T14:25:08.517Z</time>
      </trkpt>
      <trkpt lat="44.5915" lon="6.05247">
        <ele>1472.4</ele>
        <time>2022-10-13T14:25:11.425Z</time>
      </trkpt>
      <trkpt lat="44.59145" lon="6.0524">
        <ele>1472.7</ele>
        <time>2022-10-13T14:25:14.422Z</time>
      </trkpt>
      <trkpt lat="44.59141" lon="6.05234">
        <ele>1473.7</ele>
        <time>2022-10-13T14:25:18.000Z</time>
      </trkpt>
      <trkpt lat="44.59136" lon="6.05228">
        <ele>1474</ele>
        <time>2022-10-13T14:25:23.425Z</time>
      </trkpt>
      <trkpt lat="44.59132" lon="6.05222">
        <ele>1476.4</ele>
        <time>2022-10-13T14:25:26.280Z</time>
      </trkpt>
      <trkpt lat="44.5913" lon="6.05213">
        <ele>1477.2</ele>
        <time>2022-10-13T14:25:30.000Z</time>
      </trkpt>
      <trkpt lat="44.59128" lon="6.05207">
        <ele>1479.7</ele>
        <time>2022-10-13T14:25:33.000Z</time>
      </trkpt>
      <trkpt lat="44.59127" lon="6.05199">
        <ele>1479.1</ele>
        <time>2022-10-13T14:25:36.000Z</time>
      </trkpt>
      <trkpt lat="44.59123" lon="6.05184">
        <ele>1480.4</ele>
        <time>2022-10-13T14:25:41.318Z</time>
      </trkpt>
      <trkpt lat="44.59122" lon="6.05178">
        <ele>1483.5</ele>
        <time>2022-10-13T14:25:44.070Z</time>
      </trkpt>
      <trkpt lat="44.59119" lon="6.05165">
        <ele>1484.3</ele>
        <time>2022-10-13T14:25:49.600Z</time>
      </trkpt>
      <trkpt lat="44.59115" lon="6.0516">
        <ele>1485.4</ele>
        <time>2022-10-13T14:25:52.642Z</time>
      </trkpt>
      <trkpt lat="44.59113" lon="6.05148">
        <ele>1490.7</ele>
        <time>2022-10-13T14:26:04.557Z</time>
      </trkpt>
      <trkpt lat="44.59111" lon="6.05143">
        <ele>1489.1</ele>
        <time>2022-10-13T14:26:07.425Z</time>
      </trkpt>
      <trkpt lat="44.59109" lon="6.05135">
        <ele>1488.8</ele>
        <time>2022-10-13T14:26:10.433Z</time>
      </trkpt>
      <trkpt lat="44.59106" lon="6.05129">
        <ele>1491.6</ele>
        <time>2022-10-13T14:26:13.282Z</time>
      </trkpt>
      <trkpt lat="44.59103" lon="6.05121">
        <ele>1490.2</ele>
        <time>2022-10-13T14:26:16.422Z</time>
      </trkpt>
      <trkpt lat="44.591" lon="6.05111">
        <ele>1489.8</ele>
        <time>2022-10-13T14:26:19.425Z</time>
      </trkpt>
      <trkpt lat="44.59096" lon="6.05102">
        <ele>1488.6</ele>
        <time>2022-10-13T14:26:22.519Z</time>
      </trkpt>
      <trkpt lat="44.59093" lon="6.05098">
        <ele>1491.1</ele>
        <time>2022-10-13T14:26:25.463Z</time>
      </trkpt>
      <trkpt lat="44.59088" lon="6.05094">
        <ele>1491</ele>
        <time>2022-10-13T14:26:28.421Z</time>
      </trkpt>
      <trkpt lat="44.59083" lon="6.05088">
        <ele>1493.8</ele>
        <time>2022-10-13T14:26:31.465Z</time>
      </trkpt>
      <trkpt lat="44.5908" lon="6.05083">
        <ele>1495.2</ele>
        <time>2022-10-13T14:26:34.421Z</time>
      </trkpt>
      <trkpt lat="44.59075" lon="6.05076">
        <ele>1502.7</ele>
        <time>2022-10-13T14:26:39.000Z</time>
      </trkpt>
      <trkpt lat="44.59071" lon="6.05072">
        <ele>1496</ele>
        <time>2022-10-13T14:26:45.000Z</time>
      </trkpt>
      <trkpt lat="44.59075" lon="6.05077">
        <ele>1493.6</ele>
        <time>2022-10-13T14:26:48.000Z</time>
      </trkpt>
      <trkpt lat="44.59069" lon="6.05055">
        <ele>1492.2</ele>
        <time>2022-10-13T14:26:56.077Z</time>
      </trkpt>
      <trkpt lat="44.59064" lon="6.05045">
        <ele>1494</ele>
        <time>2022-10-13T14:26:59.431Z</time>
      </trkpt>
      <trkpt lat="44.59057" lon="6.05039">
        <ele>1499.8</ele>
        <time>2022-10-13T14:27:03.000Z</time>
      </trkpt>
      <trkpt lat="44.5905" lon="6.05035">
        <ele>1499.9</ele>
        <time>2022-10-13T14:27:05.787Z</time>
      </trkpt>
      <trkpt lat="44.59043" lon="6.05031">
        <ele>1500.3</ele>
        <time>2022-10-13T14:27:09.428Z</time>
      </trkpt>
      <trkpt lat="44.59039" lon="6.05024">
        <ele>1493.5</ele>
        <time>2022-10-13T14:27:12.343Z</time>
      </trkpt>
      <trkpt lat="44.59035" lon="6.05019">
        <ele>1503.8</ele>
        <time>2022-10-13T14:27:15.253Z</time>
      </trkpt>
      <trkpt lat="44.59029" lon="6.05011">
        <ele>1502.1</ele>
        <time>2022-10-13T14:27:18.438Z</time>
      </trkpt>
      <trkpt lat="44.59023" lon="6.04993">
        <ele>1500.2</ele>
        <time>2022-10-13T14:27:22.344Z</time>
      </trkpt>
      <trkpt lat="44.59016" lon="6.04977">
        <ele>1497.6</ele>
        <time>2022-10-13T14:27:25.469Z</time>
      </trkpt>
      <trkpt lat="44.59007" lon="6.04969">
        <ele>1499.7</ele>
        <time>2022-10-13T14:27:28.418Z</time>
      </trkpt>
      <trkpt lat="44.59003" lon="6.04964">
        <ele>1495.4</ele>
        <time>2022-10-13T14:27:31.466Z</time>
      </trkpt>
      <trkpt lat="44.58995" lon="6.04955">
        <ele>1503.9</ele>
        <time>2022-10-13T14:27:34.429Z</time>
      </trkpt>
      <trkpt lat="44.58991" lon="6.04947">
        <ele>1504.1</ele>
        <time>2022-10-13T14:27:37.426Z</time>
      </trkpt>
      <trkpt lat="44.58984" lon="6.04944">
        <ele>1506.8</ele>
        <time>2022-10-13T14:27:43.471Z</time>
      </trkpt>
      <trkpt lat="44.58978" lon="6.04941">
        <ele>1507.3</ele>
        <time>2022-10-13T14:27:46.262Z</time>
      </trkpt>
      <trkpt lat="44.58974" lon="6.04936">
        <ele>1507.3</ele>
        <time>2022-10-13T14:27:49.427Z</time>
      </trkpt>
      <trkpt lat="44.58971" lon="6.04931">
        <ele>1508.7</ele>
        <time>2022-10-13T14:27:52.283Z</time>
      </trkpt>
      <trkpt lat="44.58968" lon="6.04922">
        <ele>1508.4</ele>
        <time>2022-10-13T14:27:55.430Z</time>
      </trkpt>
      <trkpt lat="44.58968" lon="6.04914">
        <ele>1511.2</ele>
        <time>2022-10-13T14:27:58.420Z</time>
      </trkpt>
      <trkpt lat="44.58966" lon="6.04908">
        <ele>1513.2</ele>
        <time>2022-10-13T14:28:01.583Z</time>
      </trkpt>
      <trkpt lat="44.58961" lon="6.04904">
        <ele>1513.6</ele>
        <time>2022-10-13T14:28:04.476Z</time>
      </trkpt>
      <trkpt lat="44.58955" lon="6.04896">
        <ele>1516.3</ele>
        <time>2022-10-13T14:28:09.000Z</time>
      </trkpt>
      <trkpt lat="44.5895" lon="6.04891">
        <ele>1514.4</ele>
        <time>2022-10-13T14:28:12.000Z</time>
      </trkpt>
      <trkpt lat="44.5895" lon="6.04884">
        <ele>1513.7</ele>
        <time>2022-10-13T14:28:20.263Z</time>
      </trkpt>
      <trkpt lat="44.58946" lon="6.04877">
        <ele>1514</ele>
        <time>2022-10-13T14:28:23.431Z</time>
      </trkpt>
      <trkpt lat="44.58943" lon="6.04868">
        <ele>1512.1</ele>
        <time>2022-10-13T14:28:26.423Z</time>
      </trkpt>
      <trkpt lat="44.58939" lon="6.04862">
        <ele>1513.5</ele>
        <time>2022-10-13T14:28:30.000Z</time>
      </trkpt>
      <trkpt lat="44.58935" lon="6.04852">
        <ele>1513.5</ele>
        <time>2022-10-13T14:28:32.429Z</time>
      </trkpt>
      <trkpt lat="44.58928" lon="6.04842">
        <ele>1509</ele>
        <time>2022-10-13T14:28:36.000Z</time>
      </trkpt>
      <trkpt lat="44.58924" lon="6.04837">
        <ele>1513.9</ele>
        <time>2022-10-13T14:28:39.000Z</time>
      </trkpt>
      <trkpt lat="44.58917" lon="6.04835">
        <ele>1513.9</ele>
        <time>2022-10-13T14:28:41.366Z</time>
      </trkpt>
      <trkpt lat="44.58908" lon="6.04825">
        <ele>1513.7</ele>
        <time>2022-10-13T14:28:44.412Z</time>
      </trkpt>
      <trkpt lat="44.58904" lon="6.04813">
        <ele>1514.6</ele>
        <time>2022-10-13T14:28:48.000Z</time>
      </trkpt>
      <trkpt lat="44.58897" lon="6.04806">
        <ele>1515.8</ele>
        <time>2022-10-13T14:28:51.000Z</time>
      </trkpt>
      <trkpt lat="44.58892" lon="6.04794">
        <ele>1515.8</ele>
        <time>2022-10-13T14:28:53.429Z</time>
      </trkpt>
      <trkpt lat="44.58885" lon="6.04791">
        <ele>1514.7</ele>
        <time>2022-10-13T14:28:56.199Z</time>
      </trkpt>
      <trkpt lat="44.58879" lon="6.04781">
        <ele>1515.3</ele>
        <time>2022-10-13T14:28:59.422Z</time>
      </trkpt>
      <trkpt lat="44.58872" lon="6.04777">
        <ele>1515.4</ele>
        <time>2022-10-13T14:29:02.431Z</time>
      </trkpt>
      <trkpt lat="44.58866" lon="6.04772">
        <ele>1515.9</ele>
        <time>2022-10-13T14:29:05.341Z</time>
      </trkpt>
      <trkpt lat="44.58856" lon="6.04771">
        <ele>1516.2</ele>
        <time>2022-10-13T14:29:08.440Z</time>
      </trkpt>
      <trkpt lat="44.58849" lon="6.0477">
        <ele>1516.1</ele>
        <time>2022-10-13T14:29:11.433Z</time>
      </trkpt>
      <trkpt lat="44.58836" lon="6.04767">
        <ele>1508.4</ele>
        <time>2022-10-13T14:29:14.289Z</time>
      </trkpt>
      <trkpt lat="44.58831" lon="6.04762">
        <ele>1508.9</ele>
        <time>2022-10-13T14:29:17.429Z</time>
      </trkpt>
      <trkpt lat="44.58822" lon="6.0476">
        <ele>1506.5</ele>
        <time>2022-10-13T14:29:20.436Z</time>
      </trkpt>
      <trkpt lat="44.58816" lon="6.0475">
        <ele>1497.9</ele>
        <time>2022-10-13T14:29:24.000Z</time>
      </trkpt>
      <trkpt lat="44.58805" lon="6.04745">
        <ele>1497.8</ele>
        <time>2022-10-13T14:29:26.415Z</time>
      </trkpt>
      <trkpt lat="44.58794" lon="6.04734">
        <ele>1499</ele>
        <time>2022-10-13T14:29:29.434Z</time>
      </trkpt>
      <trkpt lat="44.5878" lon="6.0473">
        <ele>1493.8</ele>
        <time>2022-10-13T14:29:32.218Z</time>
      </trkpt>
      <trkpt lat="44.58771" lon="6.0473">
        <ele>1495.1</ele>
        <time>2022-10-13T14:29:35.418Z</time>
      </trkpt>
      <trkpt lat="44.58756" lon="6.04735">
        <ele>1489.8</ele>
        <time>2022-10-13T14:29:44.430Z</time>
      </trkpt>
      <trkpt lat="44.58743" lon="6.04736">
        <ele>1488.8</ele>
        <time>2022-10-13T14:29:47.406Z</time>
      </trkpt>
      <trkpt lat="44.58715" lon="6.04748">
        <ele>1476.8</ele>
        <time>2022-10-13T14:29:51.000Z</time>
      </trkpt>
      <trkpt lat="44.58696" lon="6.04754">
        <ele>1476</ele>
        <time>2022-10-13T14:29:54.000Z</time>
      </trkpt>
      <trkpt lat="44.58679" lon="6.04753">
        <ele>1475.2</ele>
        <time>2022-10-13T14:29:57.000Z</time>
      </trkpt>
      <trkpt lat="44.58663" lon="6.04747">
        <ele>1470.6</ele>
        <time>2022-10-13T14:30:00.000Z</time>
      </trkpt>
      <trkpt lat="44.58645" lon="6.04744">
        <ele>1465.9</ele>
        <time>2022-10-13T14:30:03.000Z</time>
      </trkpt>
      <trkpt lat="44.5863" lon="6.04743">
        <ele>1460.1</ele>
        <time>2022-10-13T14:30:06.000Z</time>
      </trkpt>
      <trkpt lat="44.58622" lon="6.04743">
        <ele>1453.5</ele>
        <time>2022-10-13T14:30:09.000Z</time>
      </trkpt>
      <trkpt lat="44.58605" lon="6.04744">
        <ele>1450.5</ele>
        <time>2022-10-13T14:30:12.000Z</time>
      </trkpt>
      <trkpt lat="44.58592" lon="6.04744">
        <ele>1448.5</ele>
        <time>2022-10-13T14:30:15.000Z</time>
      </trkpt>
      <trkpt lat="44.58589" lon="6.04737">
        <ele>1441.4</ele>
        <time>2022-10-13T14:30:17.161Z</time>
      </trkpt>
      <trkpt lat="44.58573" lon="6.04738">
        <ele>1441.4</ele>
        <time>2022-10-13T14:30:20.245Z</time>
      </trkpt>
      <trkpt lat="44.58556" lon="6.04739">
        <ele>1435.3</ele>
        <time>2022-10-13T14:30:23.421Z</time>
      </trkpt>
      <trkpt lat="44.58539" lon="6.04726">
        <ele>1434.7</ele>
        <time>2022-10-13T14:30:26.474Z</time>
      </trkpt>
      <trkpt lat="44.58517" lon="6.04711">
        <ele>1428.2</ele>
        <time>2022-10-13T14:30:30.000Z</time>
      </trkpt>
      <trkpt lat="44.58495" lon="6.04698">
        <ele>1427.5</ele>
        <time>2022-10-13T14:30:33.000Z</time>
      </trkpt>
      <trkpt lat="44.58482" lon="6.04693">
        <ele>1424.5</ele>
        <time>2022-10-13T14:30:36.000Z</time>
      </trkpt>
      <trkpt lat="44.58481" lon="6.04705">
        <ele>1424.5</ele>
        <time>2022-10-13T14:30:41.420Z</time>
      </trkpt>
      <trkpt lat="44.58486" lon="6.04721">
        <ele>1418</ele>
        <time>2022-10-13T14:30:44.577Z</time>
      </trkpt>
      <trkpt lat="44.58492" lon="6.04739">
        <ele>1418</ele>
        <time>2022-10-13T14:30:47.442Z</time>
      </trkpt>
      <trkpt lat="44.58505" lon="6.04772">
        <ele>1420.8</ele>
        <time>2022-10-13T14:30:51.000Z</time>
      </trkpt>
      <trkpt lat="44.58511" lon="6.0479">
        <ele>1407.4</ele>
        <time>2022-10-13T14:30:54.000Z</time>
      </trkpt>
      <trkpt lat="44.5852" lon="6.04811">
        <ele>1407.9</ele>
        <time>2022-10-13T14:30:57.000Z</time>
      </trkpt>
      <trkpt lat="44.58529" lon="6.04829">
        <ele>1416</ele>
        <time>2022-10-13T14:31:00.000Z</time>
      </trkpt>
      <trkpt lat="44.58534" lon="6.04843">
        <ele>1410.9</ele>
        <time>2022-10-13T14:31:03.000Z</time>
      </trkpt>
      <trkpt lat="44.5853" lon="6.04855">
        <ele>1396.3</ele>
        <time>2022-10-13T14:31:09.000Z</time>
      </trkpt>
      <trkpt lat="44.58523" lon="6.04857">
        <ele>1396.9</ele>
        <time>2022-10-13T14:31:12.000Z</time>
      </trkpt>
      <trkpt lat="44.58518" lon="6.04867">
        <ele>1393.9</ele>
        <time>2022-10-13T14:31:18.000Z</time>
      </trkpt>
      <trkpt lat="44.58512" lon="6.04871">
        <ele>1392.6</ele>
        <time>2022-10-13T14:31:24.000Z</time>
      </trkpt>
      <trkpt lat="44.58506" lon="6.04863">
        <ele>1404.5</ele>
        <time>2022-10-13T14:31:30.000Z</time>
      </trkpt>
      <trkpt lat="44.58497" lon="6.04858">
        <ele>1393.5</ele>
        <time>2022-10-13T14:31:33.000Z</time>
      </trkpt>
      <trkpt lat="44.58489" lon="6.0485">
        <ele>1394.4</ele>
        <time>2022-10-13T14:31:36.000Z</time>
      </trkpt>
      <trkpt lat="44.58485" lon="6.04839">
        <ele>1396.1</ele>
        <time>2022-10-13T14:31:39.000Z</time>
      </trkpt>
      <trkpt lat="44.58477" lon="6.04822">
        <ele>1393.2</ele>
        <time>2022-10-13T14:31:42.000Z</time>
      </trkpt>
      <trkpt lat="44.58466" lon="6.04806">
        <ele>1393</ele>
        <time>2022-10-13T14:31:45.000Z</time>
      </trkpt>
      <trkpt lat="44.58452" lon="6.04791">
        <ele>1333.3</ele>
        <time>2022-10-13T14:31:48.000Z</time>
      </trkpt>
      <trkpt lat="44.58438" lon="6.04773">
        <ele>1386.3</ele>
        <time>2022-10-13T14:31:51.000Z</time>
      </trkpt>
      <trkpt lat="44.58434" lon="6.04764">
        <ele>1386.5</ele>
        <time>2022-10-13T14:31:54.000Z</time>
      </trkpt>
      <trkpt lat="44.58428" lon="6.04753">
        <ele>1368.5</ele>
        <time>2022-10-13T14:31:57.000Z</time>
      </trkpt>
      <trkpt lat="44.58419" lon="6.04742">
        <ele>1388.6</ele>
        <time>2022-10-13T14:32:00.000Z</time>
      </trkpt>
      <trkpt lat="44.5841" lon="6.04737">
        <ele>1389.9</ele>
        <time>2022-10-13T14:32:03.000Z</time>
      </trkpt>
      <trkpt lat="44.58402" lon="6.0473">
        <ele>1385</ele>
        <time>2022-10-13T14:32:06.000Z</time>
      </trkpt>
      <trkpt lat="44.58395" lon="6.04721">
        <ele>1390.1</ele>
        <time>2022-10-13T14:32:09.000Z</time>
      </trkpt>
      <trkpt lat="44.58388" lon="6.04713">
        <ele>1390.6</ele>
        <time>2022-10-13T14:32:12.000Z</time>
      </trkpt>
      <trkpt lat="44.58379" lon="6.04702">
        <ele>1380.6</ele>
        <time>2022-10-13T14:32:15.000Z</time>
      </trkpt>
      <trkpt lat="44.58372" lon="6.04691">
        <ele>1384.8</ele>
        <time>2022-10-13T14:32:18.000Z</time>
      </trkpt>
      <trkpt lat="44.58357" lon="6.04678">
        <ele>1384.8</ele>
        <time>2022-10-13T14:32:20.424Z</time>
      </trkpt>
      <trkpt lat="44.58348" lon="6.04666">
        <ele>1385.1</ele>
        <time>2022-10-13T14:32:23.430Z</time>
      </trkpt>
      <trkpt lat="44.58337" lon="6.04657">
        <ele>1381.7</ele>
        <time>2022-10-13T14:32:27.000Z</time>
      </trkpt>
      <trkpt lat="44.58326" lon="6.04644">
        <ele>1381.7</ele>
        <time>2022-10-13T14:32:29.427Z</time>
      </trkpt>
      <trkpt lat="44.58317" lon="6.04634">
        <ele>1381</ele>
        <time>2022-10-13T14:32:32.432Z</time>
      </trkpt>
      <trkpt lat="44.58299" lon="6.04632">
        <ele>1376.1</ele>
        <time>2022-10-13T14:32:35.560Z</time>
      </trkpt>
      <trkpt lat="44.58284" lon="6.04622">
        <ele>1375.8</ele>
        <time>2022-10-13T14:32:38.480Z</time>
      </trkpt>
      <trkpt lat="44.58259" lon="6.04603">
        <ele>1375.5</ele>
        <time>2022-10-13T14:32:42.000Z</time>
      </trkpt>
      <trkpt lat="44.58244" lon="6.04589">
        <ele>1369.8</ele>
        <time>2022-10-13T14:32:45.000Z</time>
      </trkpt>
      <trkpt lat="44.58227" lon="6.04574">
        <ele>1369.9</ele>
        <time>2022-10-13T14:32:48.000Z</time>
      </trkpt>
      <trkpt lat="44.58211" lon="6.04561">
        <ele>1368.6</ele>
        <time>2022-10-13T14:32:51.000Z</time>
      </trkpt>
      <trkpt lat="44.58195" lon="6.04551">
        <ele>1366.6</ele>
        <time>2022-10-13T14:32:54.000Z</time>
      </trkpt>
      <trkpt lat="44.58188" lon="6.04553">
        <ele>1364.9</ele>
        <time>2022-10-13T14:32:57.000Z</time>
      </trkpt>
      <trkpt lat="44.58185" lon="6.04558">
        <ele>1366.7</ele>
        <time>2022-10-13T14:33:03.000Z</time>
      </trkpt>
      <trkpt lat="44.5818" lon="6.0456">
        <ele>1363.7</ele>
        <time>2022-10-13T14:33:08.332Z</time>
      </trkpt>
      <trkpt lat="44.5817" lon="6.0455">
        <ele>1363.7</ele>
        <time>2022-10-13T14:33:11.429Z</time>
      </trkpt>
      <trkpt lat="44.58161" lon="6.04541">
        <ele>1363.5</ele>
        <time>2022-10-13T14:33:14.416Z</time>
      </trkpt>
      <trkpt lat="44.58153" lon="6.04522">
        <ele>1358.6</ele>
        <time>2022-10-13T14:33:18.000Z</time>
      </trkpt>
      <trkpt lat="44.58149" lon="6.04511">
        <ele>1359</ele>
        <time>2022-10-13T14:33:21.000Z</time>
      </trkpt>
      <trkpt lat="44.5814" lon="6.04497">
        <ele>1355.7</ele>
        <time>2022-10-13T14:33:24.000Z</time>
      </trkpt>
      <trkpt lat="44.58126" lon="6.04479">
        <ele>1354.3</ele>
        <time>2022-10-13T14:33:27.000Z</time>
      </trkpt>
      <trkpt lat="44.58118" lon="6.04469">
        <ele>1354.1</ele>
        <time>2022-10-13T14:33:30.000Z</time>
      </trkpt>
      <trkpt lat="44.58102" lon="6.04447">
        <ele>1352.9</ele>
        <time>2022-10-13T14:33:33.000Z</time>
      </trkpt>
      <trkpt lat="44.58087" lon="6.04436">
        <ele>1348.8</ele>
        <time>2022-10-13T14:33:36.000Z</time>
      </trkpt>
      <trkpt lat="44.58078" lon="6.04438">
        <ele>1349.8</ele>
        <time>2022-10-13T14:33:39.000Z</time>
      </trkpt>
      <trkpt lat="44.58079" lon="6.04447">
        <ele>1332.6</ele>
        <time>2022-10-13T14:33:42.000Z</time>
      </trkpt>
      <trkpt lat="44.58083" lon="6.04456">
        <ele>1343.9</ele>
        <time>2022-10-13T14:33:44.286Z</time>
      </trkpt>
      <trkpt lat="44.58085" lon="6.04471">
        <ele>1344.2</ele>
        <time>2022-10-13T14:33:47.426Z</time>
      </trkpt>
      <trkpt lat="44.58094" lon="6.04485">
        <ele>1344.3</ele>
        <time>2022-10-13T14:33:50.464Z</time>
      </trkpt>
      <trkpt lat="44.58098" lon="6.04503">
        <ele>1339.6</ele>
        <time>2022-10-13T14:33:54.000Z</time>
      </trkpt>
      <trkpt lat="44.58102" lon="6.04525">
        <ele>1339.6</ele>
        <time>2022-10-13T14:33:56.432Z</time>
      </trkpt>
      <trkpt lat="44.58111" lon="6.0455">
        <ele>1337.8</ele>
        <time>2022-10-13T14:34:00.000Z</time>
      </trkpt>
      <trkpt lat="44.58117" lon="6.04568">
        <ele>1334.7</ele>
        <time>2022-10-13T14:34:03.000Z</time>
      </trkpt>
      <trkpt lat="44.58123" lon="6.0458">
        <ele>1334.7</ele>
        <time>2022-10-13T14:34:05.408Z</time>
      </trkpt>
      <trkpt lat="44.5813" lon="6.04592">
        <ele>1333.1</ele>
        <time>2022-10-13T14:34:08.434Z</time>
      </trkpt>
      <trkpt lat="44.58125" lon="6.04581">
        <ele>1295.8</ele>
        <time>2022-10-13T14:34:17.777Z</time>
      </trkpt>
      <trkpt lat="44.58117" lon="6.04564">
        <ele>1326</ele>
        <time>2022-10-13T14:34:21.241Z</time>
      </trkpt>
      <trkpt lat="44.58091" lon="6.04537">
        <ele>1319.8</ele>
        <time>2022-10-13T14:34:27.000Z</time>
      </trkpt>
      <trkpt lat="44.58079" lon="6.04527">
        <ele>1321.3</ele>
        <time>2022-10-13T14:34:30.000Z</time>
      </trkpt>
      <trkpt lat="44.58073" lon="6.04535">
        <ele>1321.3</ele>
        <time>2022-10-13T14:34:32.415Z</time>
      </trkpt>
      <trkpt lat="44.58058" lon="6.04531">
        <ele>1321.2</ele>
        <time>2022-10-13T14:34:35.470Z</time>
      </trkpt>
      <trkpt lat="44.58046" lon="6.0452">
        <ele>1316.3</ele>
        <time>2022-10-13T14:34:39.000Z</time>
      </trkpt>
      <trkpt lat="44.58039" lon="6.04512">
        <ele>1316.3</ele>
        <time>2022-10-13T14:34:41.431Z</time>
      </trkpt>
      <trkpt lat="44.58033" lon="6.04504">
        <ele>1316.1</ele>
        <time>2022-10-13T14:34:44.429Z</time>
      </trkpt>
      <trkpt lat="44.5803" lon="6.04495">
        <ele>1313</ele>
        <time>2022-10-13T14:34:48.000Z</time>
      </trkpt>
      <trkpt lat="44.5802" lon="6.04482">
        <ele>1312.5</ele>
        <time>2022-10-13T14:34:50.424Z</time>
      </trkpt>
      <trkpt lat="44.58006" lon="6.04483">
        <ele>1312.5</ele>
        <time>2022-10-13T14:34:53.457Z</time>
      </trkpt>
      <trkpt lat="44.57993" lon="6.04475">
        <ele>1309.6</ele>
        <time>2022-10-13T14:34:56.281Z</time>
      </trkpt>
      <trkpt lat="44.57979" lon="6.0447">
        <ele>1307.8</ele>
        <time>2022-10-13T14:34:59.479Z</time>
      </trkpt>
      <trkpt lat="44.57973" lon="6.04477">
        <ele>1286.3</ele>
        <time>2022-10-13T14:35:03.000Z</time>
      </trkpt>
      <trkpt lat="44.57978" lon="6.04487">
        <ele>1305.9</ele>
        <time>2022-10-13T14:35:06.000Z</time>
      </trkpt>
      <trkpt lat="44.57982" lon="6.04496">
        <ele>1303.9</ele>
        <time>2022-10-13T14:35:09.000Z</time>
      </trkpt>
      <trkpt lat="44.57985" lon="6.04507">
        <ele>1300.7</ele>
        <time>2022-10-13T14:35:12.000Z</time>
      </trkpt>
      <trkpt lat="44.57987" lon="6.04523">
        <ele>1300.2</ele>
        <time>2022-10-13T14:35:15.000Z</time>
      </trkpt>
      <trkpt lat="44.57984" lon="6.04535">
        <ele>1300.3</ele>
        <time>2022-10-13T14:35:18.000Z</time>
      </trkpt>
      <trkpt lat="44.57984" lon="6.04548">
        <ele>1300</ele>
        <time>2022-10-13T14:35:21.000Z</time>
      </trkpt>
      <trkpt lat="44.57988" lon="6.04558">
        <ele>1297.9</ele>
        <time>2022-10-13T14:35:24.000Z</time>
      </trkpt>
      <trkpt lat="44.57995" lon="6.04565">
        <ele>1296.5</ele>
        <time>2022-10-13T14:35:27.000Z</time>
      </trkpt>
      <trkpt lat="44.58005" lon="6.04572">
        <ele>1296.2</ele>
        <time>2022-10-13T14:35:30.000Z</time>
      </trkpt>
      <trkpt lat="44.58016" lon="6.04586">
        <ele>1292.2</ele>
        <time>2022-10-13T14:35:33.000Z</time>
      </trkpt>
      <trkpt lat="44.58025" lon="6.046">
        <ele>1292.2</ele>
        <time>2022-10-13T14:35:36.000Z</time>
      </trkpt>
      <trkpt lat="44.58036" lon="6.0462">
        <ele>1293</ele>
        <time>2022-10-13T14:35:39.000Z</time>
      </trkpt>
      <trkpt lat="44.5805" lon="6.04642">
        <ele>1286.1</ele>
        <time>2022-10-13T14:35:42.000Z</time>
      </trkpt>
      <trkpt lat="44.58058" lon="6.04656">
        <ele>1285.9</ele>
        <time>2022-10-13T14:35:45.000Z</time>
      </trkpt>
      <trkpt lat="44.58071" lon="6.04686">
        <ele>1290.5</ele>
        <time>2022-10-13T14:35:48.000Z</time>
      </trkpt>
      <trkpt lat="44.58084" lon="6.04714">
        <ele>1279.4</ele>
        <time>2022-10-13T14:35:51.000Z</time>
      </trkpt>
      <trkpt lat="44.58096" lon="6.04741">
        <ele>1279.8</ele>
        <time>2022-10-13T14:35:54.000Z</time>
      </trkpt>
      <trkpt lat="44.58109" lon="6.04761">
        <ele>1286.8</ele>
        <time>2022-10-13T14:35:57.000Z</time>
      </trkpt>
      <trkpt lat="44.58119" lon="6.0477">
        <ele>1285.2</ele>
        <time>2022-10-13T14:36:00.000Z</time>
      </trkpt>
      <trkpt lat="44.58124" lon="6.04773">
        <ele>1275</ele>
        <time>2022-10-13T14:36:06.000Z</time>
      </trkpt>
      <trkpt lat="44.58103" lon="6.04766">
        <ele>1269.6</ele>
        <time>2022-10-13T14:36:27.000Z</time>
      </trkpt>
      <trkpt lat="44.58083" lon="6.04761">
        <ele>1269.5</ele>
        <time>2022-10-13T14:36:30.000Z</time>
      </trkpt>
      <trkpt lat="44.58072" lon="6.04758">
        <ele>1267.2</ele>
        <time>2022-10-13T14:36:33.000Z</time>
      </trkpt>
      <trkpt lat="44.58067" lon="6.04752">
        <ele>1257.6</ele>
        <time>2022-10-13T14:36:36.000Z</time>
      </trkpt>
      <trkpt lat="44.58059" lon="6.04742">
        <ele>1258.9</ele>
        <time>2022-10-13T14:36:39.000Z</time>
      </trkpt>
      <trkpt lat="44.58047" lon="6.04737">
        <ele>1258.4</ele>
        <time>2022-10-13T14:36:42.000Z</time>
      </trkpt>
      <trkpt lat="44.58038" lon="6.04736">
        <ele>1257.5</ele>
        <time>2022-10-13T14:36:45.000Z</time>
      </trkpt>
      <trkpt lat="44.5802" lon="6.04727">
        <ele>1251.3</ele>
        <time>2022-10-13T14:36:48.000Z</time>
      </trkpt>
      <trkpt lat="44.58007" lon="6.04715">
        <ele>1252</ele>
        <time>2022-10-13T14:36:51.000Z</time>
      </trkpt>
      <trkpt lat="44.57994" lon="6.04715">
        <ele>1250.9</ele>
        <time>2022-10-13T14:36:54.000Z</time>
      </trkpt>
      <trkpt lat="44.57978" lon="6.04719">
        <ele>1249.1</ele>
        <time>2022-10-13T14:36:57.000Z</time>
      </trkpt>
      <trkpt lat="44.57953" lon="6.0471">
        <ele>1245.3</ele>
        <time>2022-10-13T14:37:00.000Z</time>
      </trkpt>
      <trkpt lat="44.57932" lon="6.04694">
        <ele>1245.2</ele>
        <time>2022-10-13T14:37:03.000Z</time>
      </trkpt>
      <trkpt lat="44.57912" lon="6.0468">
        <ele>1239.5</ele>
        <time>2022-10-13T14:37:06.000Z</time>
      </trkpt>
      <trkpt lat="44.57892" lon="6.0467">
        <ele>1238.1</ele>
        <time>2022-10-13T14:37:09.000Z</time>
      </trkpt>
      <trkpt lat="44.57883" lon="6.04656">
        <ele>1232.9</ele>
        <time>2022-10-13T14:37:12.000Z</time>
      </trkpt>
      <trkpt lat="44.57875" lon="6.04633">
        <ele>1229.6</ele>
        <time>2022-10-13T14:37:15.000Z</time>
      </trkpt>
      <trkpt lat="44.57866" lon="6.04623">
        <ele>1224.8</ele>
        <time>2022-10-13T14:37:18.000Z</time>
      </trkpt>
      <trkpt lat="44.57856" lon="6.04623">
        <ele>1222.4</ele>
        <time>2022-10-13T14:37:24.000Z</time>
      </trkpt>
      <trkpt lat="44.57843" lon="6.04615">
        <ele>1216.8</ele>
        <time>2022-10-13T14:37:29.150Z</time>
      </trkpt>
      <trkpt lat="44.5783" lon="6.04607">
        <ele>1216.9</ele>
        <time>2022-10-13T14:37:32.462Z</time>
      </trkpt>
      <trkpt lat="44.57821" lon="6.04613">
        <ele>1213.6</ele>
        <time>2022-10-13T14:37:36.573Z</time>
      </trkpt>
      <trkpt lat="44.57786" lon="6.0463">
        <ele>1214.8</ele>
        <time>2022-10-13T14:37:42.000Z</time>
      </trkpt>
      <trkpt lat="44.57773" lon="6.04629">
        <ele>1215.8</ele>
        <time>2022-10-13T14:37:45.000Z</time>
      </trkpt>
      <trkpt lat="44.57766" lon="6.04637">
        <ele>1214.2</ele>
        <time>2022-10-13T14:37:51.000Z</time>
      </trkpt>
      <trkpt lat="44.57763" lon="6.04643">
        <ele>1210.1</ele>
        <time>2022-10-13T14:37:54.000Z</time>
      </trkpt>
      <trkpt lat="44.5776" lon="6.04639">
        <ele>1207.5</ele>
        <time>2022-10-13T14:38:06.000Z</time>
      </trkpt>
      <trkpt lat="44.57753" lon="6.04635">
        <ele>1203.6</ele>
        <time>2022-10-13T14:38:12.000Z</time>
      </trkpt>
      <trkpt lat="44.57746" lon="6.04632">
        <ele>1200.3</ele>
        <time>2022-10-13T14:38:15.000Z</time>
      </trkpt>
      <trkpt lat="44.57739" lon="6.0463">
        <ele>1204.8</ele>
        <time>2022-10-13T14:38:18.000Z</time>
      </trkpt>
      <trkpt lat="44.57728" lon="6.04626">
        <ele>1199.4</ele>
        <time>2022-10-13T14:38:27.000Z</time>
      </trkpt>
      <trkpt lat="44.57716" lon="6.0462">
        <ele>1192.3</ele>
        <time>2022-10-13T14:38:30.000Z</time>
      </trkpt>
      <trkpt lat="44.57705" lon="6.04605">
        <ele>1191.9</ele>
        <time>2022-10-13T14:38:33.000Z</time>
      </trkpt>
      <trkpt lat="44.57692" lon="6.04585">
        <ele>1193.3</ele>
        <time>2022-10-13T14:38:36.000Z</time>
      </trkpt>
      <trkpt lat="44.57675" lon="6.04567">
        <ele>1189.2</ele>
        <time>2022-10-13T14:38:39.000Z</time>
      </trkpt>
      <trkpt lat="44.57658" lon="6.04553">
        <ele>1190.1</ele>
        <time>2022-10-13T14:38:42.000Z</time>
      </trkpt>
      <trkpt lat="44.57642" lon="6.04539">
        <ele>1188.1</ele>
        <time>2022-10-13T14:38:45.000Z</time>
      </trkpt>
      <trkpt lat="44.57633" lon="6.04529">
        <ele>1183.1</ele>
        <time>2022-10-13T14:38:48.000Z</time>
      </trkpt>
      <trkpt lat="44.57621" lon="6.04528">
        <ele>1184.9</ele>
        <time>2022-10-13T14:38:54.000Z</time>
      </trkpt>
      <trkpt lat="44.57616" lon="6.04535">
        <ele>1185.4</ele>
        <time>2022-10-13T14:38:57.000Z</time>
      </trkpt>
      <trkpt lat="44.57612" lon="6.0454">
        <ele>1184.3</ele>
        <time>2022-10-13T14:39:03.000Z</time>
      </trkpt>
      <trkpt lat="44.57606" lon="6.04543">
        <ele>1185.8</ele>
        <time>2022-10-13T14:39:18.000Z</time>
      </trkpt>
      <trkpt lat="44.57601" lon="6.04539">
        <ele>1183.5</ele>
        <time>2022-10-13T14:39:21.000Z</time>
      </trkpt>
      <trkpt lat="44.57595" lon="6.04529">
        <ele>1179.4</ele>
        <time>2022-10-13T14:39:24.000Z</time>
      </trkpt>
      <trkpt lat="44.5759" lon="6.04521">
        <ele>1179.2</ele>
        <time>2022-10-13T14:39:27.000Z</time>
      </trkpt>
      <trkpt lat="44.57582" lon="6.04511">
        <ele>1182.3</ele>
        <time>2022-10-13T14:39:30.000Z</time>
      </trkpt>
      <trkpt lat="44.57575" lon="6.04511">
        <ele>1174.1</ele>
        <time>2022-10-13T14:39:33.000Z</time>
      </trkpt>
      <trkpt lat="44.57568" lon="6.04516">
        <ele>1172.6</ele>
        <time>2022-10-13T14:39:36.000Z</time>
      </trkpt>
      <trkpt lat="44.57555" lon="6.04522">
        <ele>1179.5</ele>
        <time>2022-10-13T14:39:39.000Z</time>
      </trkpt>
      <trkpt lat="44.57545" lon="6.04524">
        <ele>1163.6</ele>
        <time>2022-10-13T14:39:42.000Z</time>
      </trkpt>
      <trkpt lat="44.57543" lon="6.04531">
        <ele>1163.8</ele>
        <time>2022-10-13T14:39:45.000Z</time>
      </trkpt>
      <trkpt lat="44.57542" lon="6.04542">
        <ele>1245.1</ele>
        <time>2022-10-13T14:39:48.000Z</time>
      </trkpt>
      <trkpt lat="44.57539" lon="6.04555">
        <ele>1155.8</ele>
        <time>2022-10-13T14:39:51.000Z</time>
      </trkpt>
      <trkpt lat="44.57535" lon="6.04569">
        <ele>1153.9</ele>
        <time>2022-10-13T14:39:54.000Z</time>
      </trkpt>
      <trkpt lat="44.57526" lon="6.04588">
        <ele>1180</ele>
        <time>2022-10-13T14:39:57.000Z</time>
      </trkpt>
      <trkpt lat="44.57521" lon="6.04608">
        <ele>1142.3</ele>
        <time>2022-10-13T14:40:00.000Z</time>
      </trkpt>
      <trkpt lat="44.57521" lon="6.0462">
        <ele>1141.9</ele>
        <time>2022-10-13T14:40:03.000Z</time>
      </trkpt>
      <trkpt lat="44.57523" lon="6.04632">
        <ele>1167.9</ele>
        <time>2022-10-13T14:40:06.000Z</time>
      </trkpt>
      <trkpt lat="44.57523" lon="6.04638">
        <ele>1136</ele>
        <time>2022-10-13T14:40:09.000Z</time>
      </trkpt>
      <trkpt lat="44.57525" lon="6.04645">
        <ele>1136</ele>
        <time>2022-10-13T14:40:12.000Z</time>
      </trkpt>
      <trkpt lat="44.57528" lon="6.04653">
        <ele>1155.8</ele>
        <time>2022-10-13T14:40:15.000Z</time>
      </trkpt>
      <trkpt lat="44.57528" lon="6.04666">
        <ele>1132.4</ele>
        <time>2022-10-13T14:40:18.000Z</time>
      </trkpt>
      <trkpt lat="44.57529" lon="6.04677">
        <ele>1131.6</ele>
        <time>2022-10-13T14:40:21.000Z</time>
      </trkpt>
      <trkpt lat="44.57528" lon="6.0469">
        <ele>1149.9</ele>
        <time>2022-10-13T14:40:24.000Z</time>
      </trkpt>
      <trkpt lat="44.57523" lon="6.04706">
        <ele>1128.7</ele>
        <time>2022-10-13T14:40:27.000Z</time>
      </trkpt>
      <trkpt lat="44.57519" lon="6.04718">
        <ele>1130.2</ele>
        <time>2022-10-13T14:40:30.000Z</time>
      </trkpt>
      <trkpt lat="44.57516" lon="6.04724">
        <ele>1138</ele>
        <time>2022-10-13T14:40:33.000Z</time>
      </trkpt>
      <trkpt lat="44.57509" lon="6.04732">
        <ele>1123.7</ele>
        <time>2022-10-13T14:40:36.000Z</time>
      </trkpt>
      <trkpt lat="44.57506" lon="6.04738">
        <ele>1123.1</ele>
        <time>2022-10-13T14:40:39.000Z</time>
      </trkpt>
      <trkpt lat="44.57503" lon="6.04745">
        <ele>1130.2</ele>
        <time>2022-10-13T14:40:42.000Z</time>
      </trkpt>
      <trkpt lat="44.575" lon="6.04762">
        <ele>1121</ele>
        <time>2022-10-13T14:40:45.000Z</time>
      </trkpt>
      <trkpt lat="44.57495" lon="6.04777">
        <ele>1120.9</ele>
        <time>2022-10-13T14:40:48.000Z</time>
      </trkpt>
      <trkpt lat="44.57489" lon="6.04789">
        <ele>1121.6</ele>
        <time>2022-10-13T14:40:51.000Z</time>
      </trkpt>
      <trkpt lat="44.5748" lon="6.04802">
        <ele>1112.3</ele>
        <time>2022-10-13T14:40:54.000Z</time>
      </trkpt>
      <trkpt lat="44.57473" lon="6.04807">
        <ele>1111.9</ele>
        <time>2022-10-13T14:40:57.000Z</time>
      </trkpt>
      <trkpt lat="44.57463" lon="6.04812">
        <ele>1111.5</ele>
        <time>2022-10-13T14:41:00.000Z</time>
      </trkpt>
      <trkpt lat="44.57454" lon="6.04822">
        <ele>1103.6</ele>
        <time>2022-10-13T14:41:03.000Z</time>
      </trkpt>
      <trkpt lat="44.57448" lon="6.04834">
        <ele>1103.7</ele>
        <time>2022-10-13T14:41:06.000Z</time>
      </trkpt>
      <trkpt lat="44.57444" lon="6.04839">
        <ele>1106.4</ele>
        <time>2022-10-13T14:41:09.000Z</time>
      </trkpt>
      <trkpt lat="44.57445" lon="6.04846">
        <ele>1100.3</ele>
        <time>2022-10-13T14:41:11.896Z</time>
      </trkpt>
      <trkpt lat="44.57456" lon="6.04852">
        <ele>1102.8</ele>
        <time>2022-10-13T14:41:18.516Z</time>
      </trkpt>
      <trkpt lat="44.57462" lon="6.04855">
        <ele>1099.5</ele>
        <time>2022-10-13T14:41:21.238Z</time>
      </trkpt>
      <trkpt lat="44.5747" lon="6.04858">
        <ele>1101.2</ele>
        <time>2022-10-13T14:41:24.427Z</time>
      </trkpt>
      <trkpt lat="44.57476" lon="6.04854">
        <ele>1099.8</ele>
        <time>2022-10-13T14:41:27.137Z</time>
      </trkpt>
      <trkpt lat="44.57483" lon="6.04844">
        <ele>1102.2</ele>
        <time>2022-10-13T14:41:30.522Z</time>
      </trkpt>
      <trkpt lat="44.57491" lon="6.04837">
        <ele>1101.8</ele>
        <time>2022-10-13T14:41:33.443Z</time>
      </trkpt>
      <trkpt lat="44.57498" lon="6.04829">
        <ele>1101.4</ele>
        <time>2022-10-13T14:41:37.002Z</time>
      </trkpt>
      <trkpt lat="44.57505" lon="6.04831">
        <ele>1103.7</ele>
        <time>2022-10-13T14:41:42.000Z</time>
      </trkpt>
      <trkpt lat="44.57508" lon="6.0484">
        <ele>1101.1</ele>
        <time>2022-10-13T14:41:47.956Z</time>
      </trkpt>
      <trkpt lat="44.57516" lon="6.04853">
        <ele>1099.2</ele>
        <time>2022-10-13T14:41:51.083Z</time>
      </trkpt>
      <trkpt lat="44.57525" lon="6.04869">
        <ele>1099.9</ele>
        <time>2022-10-13T14:41:54.459Z</time>
      </trkpt>
      <trkpt lat="44.57532" lon="6.04865">
        <ele>1101.8</ele>
        <time>2022-10-13T14:41:57.431Z</time>
      </trkpt>
      <trkpt lat="44.57541" lon="6.0486">
        <ele>1105.4</ele>
        <time>2022-10-13T14:42:01.015Z</time>
      </trkpt>
      <trkpt lat="44.57548" lon="6.0487">
        <ele>1100.6</ele>
        <time>2022-10-13T14:42:05.429Z</time>
      </trkpt>
      <trkpt lat="44.57547" lon="6.04878">
        <ele>1099</ele>
        <time>2022-10-13T14:42:11.226Z</time>
      </trkpt>
      <trkpt lat="44.57545" lon="6.04887">
        <ele>1100.3</ele>
        <time>2022-10-13T14:42:15.000Z</time>
      </trkpt>
      <trkpt lat="44.57542" lon="6.04896">
        <ele>1100.3</ele>
        <time>2022-10-13T14:42:17.437Z</time>
      </trkpt>
      <trkpt lat="44.57548" lon="6.04908">
        <ele>1099.9</ele>
        <time>2022-10-13T14:42:20.335Z</time>
      </trkpt>
      <trkpt lat="44.57551" lon="6.04916">
        <ele>1098.8</ele>
        <time>2022-10-13T14:42:23.422Z</time>
      </trkpt>
      <trkpt lat="44.57549" lon="6.04926">
        <ele>1098.8</ele>
        <time>2022-10-13T14:42:26.433Z</time>
      </trkpt>
      <trkpt lat="44.57548" lon="6.04937">
        <ele>1097.3</ele>
        <time>2022-10-13T14:42:30.000Z</time>
      </trkpt>
      <trkpt lat="44.57545" lon="6.04947">
        <ele>1097.3</ele>
        <time>2022-10-13T14:42:32.466Z</time>
      </trkpt>
      <trkpt lat="44.57549" lon="6.04963">
        <ele>1096.9</ele>
        <time>2022-10-13T14:42:35.473Z</time>
      </trkpt>
      <trkpt lat="44.57552" lon="6.04975">
        <ele>1094.4</ele>
        <time>2022-10-13T14:42:39.000Z</time>
      </trkpt>
      <trkpt lat="44.57549" lon="6.04987">
        <ele>1095.3</ele>
        <time>2022-10-13T14:42:41.425Z</time>
      </trkpt>
      <trkpt lat="44.57544" lon="6.05">
        <ele>1095.1</ele>
        <time>2022-10-13T14:42:44.426Z</time>
      </trkpt>
      <trkpt lat="44.57546" lon="6.05021">
        <ele>1096.1</ele>
        <time>2022-10-13T14:42:47.330Z</time>
      </trkpt>
      <trkpt lat="44.5755" lon="6.05043">
        <ele>1093.5</ele>
        <time>2022-10-13T14:42:50.419Z</time>
      </trkpt>
      <trkpt lat="44.57556" lon="6.05064">
        <ele>1093.1</ele>
        <time>2022-10-13T14:42:53.424Z</time>
      </trkpt>
      <trkpt lat="44.57557" lon="6.05099">
        <ele>1090</ele>
        <time>2022-10-13T14:42:57.000Z</time>
      </trkpt>
      <trkpt lat="44.57555" lon="6.05127">
        <ele>1089.8</ele>
        <time>2022-10-13T14:43:00.000Z</time>
      </trkpt>
      <trkpt lat="44.57565" lon="6.05154">
        <ele>1097.2</ele>
        <time>2022-10-13T14:43:03.000Z</time>
      </trkpt>
      <trkpt lat="44.57576" lon="6.05171">
        <ele>1097.2</ele>
        <time>2022-10-13T14:43:06.000Z</time>
      </trkpt>
      <trkpt lat="44.5758" lon="6.0518">
        <ele>1097.2</ele>
        <time>2022-10-13T14:43:08.436Z</time>
      </trkpt>
      <trkpt lat="44.57578" lon="6.05189">
        <ele>1097.2</ele>
        <time>2022-10-13T14:43:11.160Z</time>
      </trkpt>
      <trkpt lat="44.57588" lon="6.05201">
        <ele>1089.5</ele>
        <time>2022-10-13T14:43:14.023Z</time>
      </trkpt>
      <trkpt lat="44.57594" lon="6.05215">
        <ele>1089.8</ele>
        <time>2022-10-13T14:43:17.437Z</time>
      </trkpt>
      <trkpt lat="44.57601" lon="6.05224">
        <ele>1090.7</ele>
        <time>2022-10-13T14:43:20.872Z</time>
      </trkpt>
      <trkpt lat="44.57612" lon="6.05236">
        <ele>1090.8</ele>
        <time>2022-10-13T14:43:24.320Z</time>
      </trkpt>
      <trkpt lat="44.57621" lon="6.05244">
        <ele>1097.2</ele>
        <time>2022-10-13T14:43:27.253Z</time>
      </trkpt>
      <trkpt lat="44.5763" lon="6.05258">
        <ele>1092.8</ele>
        <time>2022-10-13T14:43:30.640Z</time>
      </trkpt>
      <trkpt lat="44.57636" lon="6.05269">
        <ele>1093.4</ele>
        <time>2022-10-13T14:43:33.431Z</time>
      </trkpt>
      <trkpt lat="44.57644" lon="6.0528">
        <ele>1099.3</ele>
        <time>2022-10-13T14:43:36.335Z</time>
      </trkpt>
      <trkpt lat="44.57653" lon="6.05294">
        <ele>1093.5</ele>
        <time>2022-10-13T14:43:39.360Z</time>
      </trkpt>
      <trkpt lat="44.57661" lon="6.05306">
        <ele>1092</ele>
        <time>2022-10-13T14:43:42.432Z</time>
      </trkpt>
      <trkpt lat="44.57667" lon="6.05317">
        <ele>1099.3</ele>
        <time>2022-10-13T14:43:45.317Z</time>
      </trkpt>
      <trkpt lat="44.57673" lon="6.05324">
        <ele>1092.5</ele>
        <time>2022-10-13T14:43:48.437Z</time>
      </trkpt>
      <trkpt lat="44.57684" lon="6.05333">
        <ele>1091.6</ele>
        <time>2022-10-13T14:43:53.436Z</time>
      </trkpt>
      <trkpt lat="44.57689" lon="6.05335">
        <ele>1093</ele>
        <time>2022-10-13T14:43:56.137Z</time>
      </trkpt>
      <trkpt lat="44.57695" lon="6.05341">
        <ele>1092.4</ele>
        <time>2022-10-13T14:43:59.311Z</time>
      </trkpt>
      <trkpt lat="44.57701" lon="6.0535">
        <ele>1093.1</ele>
        <time>2022-10-13T14:44:02.335Z</time>
      </trkpt>
      <trkpt lat="44.5771" lon="6.05345">
        <ele>1099.3</ele>
        <time>2022-10-13T14:44:05.430Z</time>
      </trkpt>
      <trkpt lat="44.57719" lon="6.05344">
        <ele>1091.4</ele>
        <time>2022-10-13T14:44:08.221Z</time>
      </trkpt>
      <trkpt lat="44.57726" lon="6.05359">
        <ele>1093</ele>
        <time>2022-10-13T14:44:11.434Z</time>
      </trkpt>
      <trkpt lat="44.57733" lon="6.05375">
        <ele>1094.5</ele>
        <time>2022-10-13T14:44:14.427Z</time>
      </trkpt>
      <trkpt lat="44.57739" lon="6.05388">
        <ele>1094</ele>
        <time>2022-10-13T14:44:18.000Z</time>
      </trkpt>
      <trkpt lat="44.57747" lon="6.054">
        <ele>1094</ele>
        <time>2022-10-13T14:44:20.332Z</time>
      </trkpt>
      <trkpt lat="44.57764" lon="6.0542">
        <ele>1094</ele>
        <time>2022-10-13T14:44:23.079Z</time>
      </trkpt>
      <trkpt lat="44.57781" lon="6.05438">
        <ele>1094.5</ele>
        <time>2022-10-13T14:44:26.434Z</time>
      </trkpt>
      <trkpt lat="44.57797" lon="6.05446">
        <ele>1097.2</ele>
        <time>2022-10-13T14:44:30.000Z</time>
      </trkpt>
      <trkpt lat="44.5781" lon="6.05453">
        <ele>1097.2</ele>
        <time>2022-10-13T14:44:32.432Z</time>
      </trkpt>
      <trkpt lat="44.57821" lon="6.0546">
        <ele>1097.2</ele>
        <time>2022-10-13T14:44:35.425Z</time>
      </trkpt>
      <trkpt lat="44.57829" lon="6.05468">
        <ele>1097.2</ele>
        <time>2022-10-13T14:44:38.356Z</time>
      </trkpt>
      <trkpt lat="44.57836" lon="6.05481">
        <ele>1094.8</ele>
        <time>2022-10-13T14:44:41.423Z</time>
      </trkpt>
      <trkpt lat="44.57842" lon="6.05492">
        <ele>1094.8</ele>
        <time>2022-10-13T14:44:44.428Z</time>
      </trkpt>
      <trkpt lat="44.57847" lon="6.05502">
        <ele>1094.6</ele>
        <time>2022-10-13T14:44:48.000Z</time>
      </trkpt>
      <trkpt lat="44.57852" lon="6.05512">
        <ele>1097.2</ele>
        <time>2022-10-13T14:44:50.442Z</time>
      </trkpt>
      <trkpt lat="44.57857" lon="6.05526">
        <ele>1095.5</ele>
        <time>2022-10-13T14:44:53.423Z</time>
      </trkpt>
      <trkpt lat="44.57867" lon="6.0554">
        <ele>1099.3</ele>
        <time>2022-10-13T14:44:57.000Z</time>
      </trkpt>
      <trkpt lat="44.57877" lon="6.05553">
        <ele>1099.3</ele>
        <time>2022-10-13T14:44:59.435Z</time>
      </trkpt>
      <trkpt lat="44.5789" lon="6.05568">
        <ele>1099.3</ele>
        <time>2022-10-13T14:45:02.440Z</time>
      </trkpt>
      <trkpt lat="44.57901" lon="6.05584">
        <ele>1099.3</ele>
        <time>2022-10-13T14:45:05.878Z</time>
      </trkpt>
      <trkpt lat="44.57918" lon="6.05608">
        <ele>1097.2</ele>
        <time>2022-10-13T14:45:10.465Z</time>
      </trkpt>
      <trkpt lat="44.57933" lon="6.05619">
        <ele>1099.3</ele>
        <time>2022-10-13T14:45:13.200Z</time>
      </trkpt>
      <trkpt lat="44.57946" lon="6.05628">
        <ele>1095</ele>
        <time>2022-10-13T14:45:16.437Z</time>
      </trkpt>
      <trkpt lat="44.57957" lon="6.05634">
        <ele>1095.2</ele>
        <time>2022-10-13T14:45:19.432Z</time>
      </trkpt>
      <trkpt lat="44.57967" lon="6.05641">
        <ele>1099.3</ele>
        <time>2022-10-13T14:45:22.371Z</time>
      </trkpt>
      <trkpt lat="44.57975" lon="6.05652">
        <ele>1097.2</ele>
        <time>2022-10-13T14:45:25.437Z</time>
      </trkpt>
      <trkpt lat="44.57984" lon="6.05661">
        <ele>1097.2</ele>
        <time>2022-10-13T14:45:28.433Z</time>
      </trkpt>
      <trkpt lat="44.57995" lon="6.05669">
        <ele>1099.3</ele>
        <time>2022-10-13T14:45:31.293Z</time>
      </trkpt>
      <trkpt lat="44.58003" lon="6.05674">
        <ele>1097.2</ele>
        <time>2022-10-13T14:45:34.431Z</time>
      </trkpt>
      <trkpt lat="44.58011" lon="6.05681">
        <ele>1095.5</ele>
        <time>2022-10-13T14:45:37.442Z</time>
      </trkpt>
      <trkpt lat="44.58021" lon="6.05694">
        <ele>1099.3</ele>
        <time>2022-10-13T14:45:40.203Z</time>
      </trkpt>
      <trkpt lat="44.58033" lon="6.0571">
        <ele>1093.5</ele>
        <time>2022-10-13T14:45:43.418Z</time>
      </trkpt>
      <trkpt lat="44.58058" lon="6.05744">
        <ele>1099.3</ele>
        <time>2022-10-13T14:45:48.000Z</time>
      </trkpt>
      <trkpt lat="44.58069" lon="6.05764">
        <ele>1093.4</ele>
        <time>2022-10-13T14:45:51.000Z</time>
      </trkpt>
      <trkpt lat="44.58078" lon="6.05784">
        <ele>1094.5</ele>
        <time>2022-10-13T14:45:54.000Z</time>
      </trkpt>
      <trkpt lat="44.58087" lon="6.05797">
        <ele>1099.3</ele>
        <time>2022-10-13T14:45:57.000Z</time>
      </trkpt>
      <trkpt lat="44.58093" lon="6.05802">
        <ele>1099.3</ele>
        <time>2022-10-13T14:46:00.000Z</time>
      </trkpt>
      <trkpt lat="44.58104" lon="6.05814">
        <ele>1097.2</ele>
        <time>2022-10-13T14:46:03.000Z</time>
      </trkpt>
      <trkpt lat="44.58114" lon="6.05818">
        <ele>1094.1</ele>
        <time>2022-10-13T14:46:06.000Z</time>
      </trkpt>
      <trkpt lat="44.58123" lon="6.05835">
        <ele>1097.2</ele>
        <time>2022-10-13T14:46:08.239Z</time>
      </trkpt>
      <trkpt lat="44.58131" lon="6.0585">
        <ele>1094.9</ele>
        <time>2022-10-13T14:46:11.436Z</time>
      </trkpt>
      <trkpt lat="44.58137" lon="6.05861">
        <ele>1097.2</ele>
        <time>2022-10-13T14:46:14.314Z</time>
      </trkpt>
      <trkpt lat="44.58142" lon="6.05874">
        <ele>1096.5</ele>
        <time>2022-10-13T14:46:17.306Z</time>
      </trkpt>
      <trkpt lat="44.58147" lon="6.05884">
        <ele>1403.2</ele>
        <time>2022-10-13T14:46:20.431Z</time>
      </trkpt>
      <trkpt lat="44.58153" lon="6.05889">
        <ele>1099.3</ele>
        <time>2022-10-13T14:46:24.000Z</time>
      </trkpt>
      <trkpt lat="44.58161" lon="6.059">
        <ele>1099.3</ele>
        <time>2022-10-13T14:46:26.427Z</time>
      </trkpt>
      <trkpt lat="44.58169" lon="6.059">
        <ele>1099.3</ele>
        <time>2022-10-13T14:46:29.428Z</time>
      </trkpt>
      <trkpt lat="44.58178" lon="6.059">
        <ele>1099.3</ele>
        <time>2022-10-13T14:46:33.000Z</time>
      </trkpt>
      <trkpt lat="44.58182" lon="6.05912">
        <ele>1099.3</ele>
        <time>2022-10-13T14:46:35.429Z</time>
      </trkpt>
      <trkpt lat="44.58188" lon="6.0592">
        <ele>1099.3</ele>
        <time>2022-10-13T14:46:38.444Z</time>
      </trkpt>
      <trkpt lat="44.58194" lon="6.05924">
        <ele>1099.3</ele>
        <time>2022-10-13T14:46:42.000Z</time>
      </trkpt>
      <trkpt lat="44.58201" lon="6.05925">
        <ele>1101.3</ele>
        <time>2022-10-13T14:46:45.000Z</time>
      </trkpt>
      <trkpt lat="44.58207" lon="6.05928">
        <ele>1101.3</ele>
        <time>2022-10-13T14:46:47.426Z</time>
      </trkpt>
      <trkpt lat="44.58216" lon="6.05931">
        <ele>1101.8</ele>
        <time>2022-10-13T14:46:51.000Z</time>
      </trkpt>
      <trkpt lat="44.58223" lon="6.05928">
        <ele>1101.8</ele>
        <time>2022-10-13T14:46:53.473Z</time>
      </trkpt>
      <trkpt lat="44.58218" lon="6.05926">
        <ele>1103.1</ele>
        <time>2022-10-13T14:47:00.000Z</time>
      </trkpt>
      <trkpt lat="44.58217" lon="6.05933">
        <ele>1105.9</ele>
        <time>2022-10-13T14:47:27.000Z</time>
      </trkpt>
    </trkseg>
  </trk>
</gpx>